<?xml version="1.0" encoding="UTF-8" standalone="no" ?>
<gpx xmlns="http://www.topografix.com/GPX/1/1" xmlns:xsi="http://www.w3.org/2001/XMLSchema-instance" xsi:schemaLocation="http://www.topografix.com/GPX/1/1 http://www.topografix.com/GPX/1/1/gpx.xsd" version="1.1" creator="VisuGPX - https://www.visugpx.com">
  <metadata>
    <name>Enduro Bruniquel</name>
  </metadata>
  <trk>
    <name><![CDATA[VTT GQ adultes + quelques jeunes]]></name>
    <trkseg>
      <trkpt lat="44.05469" lon="1.6717">
        <ele>104.6</ele>
        <time>2021-03-21T07:02:19Z</time>
      </trkpt>
      <trkpt lat="44.05469" lon="1.6717">
        <ele>104.4</ele>
        <time>2021-03-21T07:02:23Z</time>
      </trkpt>
      <trkpt lat="44.05459" lon="1.67175">
        <ele>104.8</ele>
        <time>2021-03-21T07:02:27Z</time>
      </trkpt>
      <trkpt lat="44.05448" lon="1.6718">
        <ele>104.4</ele>
        <time>2021-03-21T07:02:31Z</time>
      </trkpt>
      <trkpt lat="44.05436" lon="1.67185">
        <ele>104.6</ele>
        <time>2021-03-21T07:02:35Z</time>
      </trkpt>
      <trkpt lat="44.05423" lon="1.67189">
        <ele>104.8</ele>
        <time>2021-03-21T07:02:39Z</time>
      </trkpt>
      <trkpt lat="44.05411" lon="1.67192">
        <ele>105.2</ele>
        <time>2021-03-21T07:02:43Z</time>
      </trkpt>
      <trkpt lat="44.054" lon="1.67195">
        <ele>105.2</ele>
        <time>2021-03-21T07:02:47Z</time>
      </trkpt>
      <trkpt lat="44.05388" lon="1.67198">
        <ele>105.4</ele>
        <time>2021-03-21T07:02:51Z</time>
      </trkpt>
      <trkpt lat="44.05377" lon="1.672">
        <ele>105.6</ele>
        <time>2021-03-21T07:02:55Z</time>
      </trkpt>
      <trkpt lat="44.05365" lon="1.67202">
        <ele>105.8</ele>
        <time>2021-03-21T07:02:59Z</time>
      </trkpt>
      <trkpt lat="44.05354" lon="1.67206">
        <ele>106.2</ele>
        <time>2021-03-21T07:03:03Z</time>
      </trkpt>
      <trkpt lat="44.05342" lon="1.67208">
        <ele>106.4</ele>
        <time>2021-03-21T07:03:07Z</time>
      </trkpt>
      <trkpt lat="44.05331" lon="1.67211">
        <ele>106.6</ele>
        <time>2021-03-21T07:03:11Z</time>
      </trkpt>
      <trkpt lat="44.0532" lon="1.67213">
        <ele>106.8</ele>
        <time>2021-03-21T07:03:15Z</time>
      </trkpt>
      <trkpt lat="44.05308" lon="1.67216">
        <ele>107</ele>
        <time>2021-03-21T07:03:19Z</time>
      </trkpt>
      <trkpt lat="44.05297" lon="1.67219">
        <ele>107</ele>
        <time>2021-03-21T07:03:23Z</time>
      </trkpt>
      <trkpt lat="44.05286" lon="1.67221">
        <ele>107.6</ele>
        <time>2021-03-21T07:03:27Z</time>
      </trkpt>
      <trkpt lat="44.05275" lon="1.67224">
        <ele>107.8</ele>
        <time>2021-03-21T07:03:31Z</time>
      </trkpt>
      <trkpt lat="44.05264" lon="1.67226">
        <ele>107.8</ele>
        <time>2021-03-21T07:03:35Z</time>
      </trkpt>
      <trkpt lat="44.05253" lon="1.67228">
        <ele>108</ele>
        <time>2021-03-21T07:03:39Z</time>
      </trkpt>
      <trkpt lat="44.05242" lon="1.67231">
        <ele>108.2</ele>
        <time>2021-03-21T07:03:43Z</time>
      </trkpt>
      <trkpt lat="44.0523" lon="1.67233">
        <ele>108.2</ele>
        <time>2021-03-21T07:03:47Z</time>
      </trkpt>
      <trkpt lat="44.05218" lon="1.67236">
        <ele>108.2</ele>
        <time>2021-03-21T07:03:51Z</time>
      </trkpt>
      <trkpt lat="44.05206" lon="1.67238">
        <ele>108.2</ele>
        <time>2021-03-21T07:03:55Z</time>
      </trkpt>
      <trkpt lat="44.05194" lon="1.67241">
        <ele>108.4</ele>
        <time>2021-03-21T07:03:59Z</time>
      </trkpt>
      <trkpt lat="44.05181" lon="1.67244">
        <ele>108.8</ele>
        <time>2021-03-21T07:04:03Z</time>
      </trkpt>
      <trkpt lat="44.05168" lon="1.67247">
        <ele>108.8</ele>
        <time>2021-03-21T07:04:07Z</time>
      </trkpt>
      <trkpt lat="44.05155" lon="1.67251">
        <ele>108.8</ele>
        <time>2021-03-21T07:04:11Z</time>
      </trkpt>
      <trkpt lat="44.05142" lon="1.67256">
        <ele>109</ele>
        <time>2021-03-21T07:04:15Z</time>
      </trkpt>
      <trkpt lat="44.0513" lon="1.67263">
        <ele>109.2</ele>
        <time>2021-03-21T07:04:19Z</time>
      </trkpt>
      <trkpt lat="44.05119" lon="1.67273">
        <ele>109.2</ele>
        <time>2021-03-21T07:04:23Z</time>
      </trkpt>
      <trkpt lat="44.05109" lon="1.67284">
        <ele>109.6</ele>
        <time>2021-03-21T07:04:27Z</time>
      </trkpt>
      <trkpt lat="44.05099" lon="1.67297">
        <ele>109.8</ele>
        <time>2021-03-21T07:04:31Z</time>
      </trkpt>
      <trkpt lat="44.05089" lon="1.67309">
        <ele>110</ele>
        <time>2021-03-21T07:04:35Z</time>
      </trkpt>
      <trkpt lat="44.0508" lon="1.67322">
        <ele>109.6</ele>
        <time>2021-03-21T07:04:39Z</time>
      </trkpt>
      <trkpt lat="44.0507" lon="1.67335">
        <ele>109.6</ele>
        <time>2021-03-21T07:04:43Z</time>
      </trkpt>
      <trkpt lat="44.0506" lon="1.67348">
        <ele>109.8</ele>
        <time>2021-03-21T07:04:47Z</time>
      </trkpt>
      <trkpt lat="44.05051" lon="1.6736">
        <ele>109.6</ele>
        <time>2021-03-21T07:04:51Z</time>
      </trkpt>
      <trkpt lat="44.05043" lon="1.67371">
        <ele>109.6</ele>
        <time>2021-03-21T07:04:55Z</time>
      </trkpt>
      <trkpt lat="44.05035" lon="1.67381">
        <ele>109.4</ele>
        <time>2021-03-21T07:04:59Z</time>
      </trkpt>
      <trkpt lat="44.05026" lon="1.67392">
        <ele>109.2</ele>
        <time>2021-03-21T07:05:03Z</time>
      </trkpt>
      <trkpt lat="44.05017" lon="1.67403">
        <ele>109.4</ele>
        <time>2021-03-21T07:05:07Z</time>
      </trkpt>
      <trkpt lat="44.05008" lon="1.67416">
        <ele>109.8</ele>
        <time>2021-03-21T07:05:11Z</time>
      </trkpt>
      <trkpt lat="44.04998" lon="1.67429">
        <ele>109.4</ele>
        <time>2021-03-21T07:05:15Z</time>
      </trkpt>
      <trkpt lat="44.04987" lon="1.6744">
        <ele>109.4</ele>
        <time>2021-03-21T07:05:19Z</time>
      </trkpt>
      <trkpt lat="44.04976" lon="1.6745">
        <ele>109.6</ele>
        <time>2021-03-21T07:05:23Z</time>
      </trkpt>
      <trkpt lat="44.04963" lon="1.67456">
        <ele>109.6</ele>
        <time>2021-03-21T07:05:27Z</time>
      </trkpt>
      <trkpt lat="44.0495" lon="1.67459">
        <ele>109</ele>
        <time>2021-03-21T07:05:31Z</time>
      </trkpt>
      <trkpt lat="44.04936" lon="1.67458">
        <ele>109.2</ele>
        <time>2021-03-21T07:05:35Z</time>
      </trkpt>
      <trkpt lat="44.04923" lon="1.67455">
        <ele>109.2</ele>
        <time>2021-03-21T07:05:39Z</time>
      </trkpt>
      <trkpt lat="44.04911" lon="1.67452">
        <ele>109</ele>
        <time>2021-03-21T07:05:43Z</time>
      </trkpt>
      <trkpt lat="44.04898" lon="1.67448">
        <ele>109.4</ele>
        <time>2021-03-21T07:05:47Z</time>
      </trkpt>
      <trkpt lat="44.04885" lon="1.67445">
        <ele>109.2</ele>
        <time>2021-03-21T07:05:51Z</time>
      </trkpt>
      <trkpt lat="44.04872" lon="1.67442">
        <ele>109.6</ele>
        <time>2021-03-21T07:05:55Z</time>
      </trkpt>
      <trkpt lat="44.04859" lon="1.67439">
        <ele>109</ele>
        <time>2021-03-21T07:05:59Z</time>
      </trkpt>
      <trkpt lat="44.04845" lon="1.67435">
        <ele>109.2</ele>
        <time>2021-03-21T07:06:03Z</time>
      </trkpt>
      <trkpt lat="44.04831" lon="1.67431">
        <ele>109.2</ele>
        <time>2021-03-21T07:06:07Z</time>
      </trkpt>
      <trkpt lat="44.04818" lon="1.67428">
        <ele>109.6</ele>
        <time>2021-03-21T07:06:11Z</time>
      </trkpt>
      <trkpt lat="44.04805" lon="1.67425">
        <ele>109.8</ele>
        <time>2021-03-21T07:06:15Z</time>
      </trkpt>
      <trkpt lat="44.04792" lon="1.67422">
        <ele>109.6</ele>
        <time>2021-03-21T07:06:19Z</time>
      </trkpt>
      <trkpt lat="44.0478" lon="1.6742">
        <ele>109.6</ele>
        <time>2021-03-21T07:06:23Z</time>
      </trkpt>
      <trkpt lat="44.04766" lon="1.67418">
        <ele>109.8</ele>
        <time>2021-03-21T07:06:27Z</time>
      </trkpt>
      <trkpt lat="44.04753" lon="1.67416">
        <ele>109.8</ele>
        <time>2021-03-21T07:06:31Z</time>
      </trkpt>
      <trkpt lat="44.04739" lon="1.67414">
        <ele>109.6</ele>
        <time>2021-03-21T07:06:35Z</time>
      </trkpt>
      <trkpt lat="44.04725" lon="1.67413">
        <ele>109.2</ele>
        <time>2021-03-21T07:06:39Z</time>
      </trkpt>
      <trkpt lat="44.04712" lon="1.67411">
        <ele>109.6</ele>
        <time>2021-03-21T07:06:43Z</time>
      </trkpt>
      <trkpt lat="44.04699" lon="1.6741">
        <ele>109.4</ele>
        <time>2021-03-21T07:06:47Z</time>
      </trkpt>
      <trkpt lat="44.04686" lon="1.67408">
        <ele>109.6</ele>
        <time>2021-03-21T07:06:51Z</time>
      </trkpt>
      <trkpt lat="44.04673" lon="1.67407">
        <ele>109.6</ele>
        <time>2021-03-21T07:06:55Z</time>
      </trkpt>
      <trkpt lat="44.04661" lon="1.67405">
        <ele>109.8</ele>
        <time>2021-03-21T07:06:59Z</time>
      </trkpt>
      <trkpt lat="44.04648" lon="1.67404">
        <ele>109.6</ele>
        <time>2021-03-21T07:07:03Z</time>
      </trkpt>
      <trkpt lat="44.04635" lon="1.67402">
        <ele>109.6</ele>
        <time>2021-03-21T07:07:07Z</time>
      </trkpt>
      <trkpt lat="44.04622" lon="1.674">
        <ele>109.8</ele>
        <time>2021-03-21T07:07:11Z</time>
      </trkpt>
      <trkpt lat="44.04609" lon="1.67395">
        <ele>110.2</ele>
        <time>2021-03-21T07:07:15Z</time>
      </trkpt>
      <trkpt lat="44.04598" lon="1.67386">
        <ele>110.2</ele>
        <time>2021-03-21T07:07:19Z</time>
      </trkpt>
      <trkpt lat="44.04586" lon="1.67372">
        <ele>110.6</ele>
        <time>2021-03-21T07:07:23Z</time>
      </trkpt>
      <trkpt lat="44.04578" lon="1.67357">
        <ele>111</ele>
        <time>2021-03-21T07:07:27Z</time>
      </trkpt>
      <trkpt lat="44.04573" lon="1.6734">
        <ele>111.2</ele>
        <time>2021-03-21T07:07:31Z</time>
      </trkpt>
      <trkpt lat="44.04568" lon="1.67323">
        <ele>111.6</ele>
        <time>2021-03-21T07:07:35Z</time>
      </trkpt>
      <trkpt lat="44.04563" lon="1.67306">
        <ele>111.2</ele>
        <time>2021-03-21T07:07:39Z</time>
      </trkpt>
      <trkpt lat="44.04558" lon="1.6729">
        <ele>111.6</ele>
        <time>2021-03-21T07:07:43Z</time>
      </trkpt>
      <trkpt lat="44.04554" lon="1.67274">
        <ele>111.6</ele>
        <time>2021-03-21T07:07:47Z</time>
      </trkpt>
      <trkpt lat="44.04549" lon="1.67257">
        <ele>112.2</ele>
        <time>2021-03-21T07:07:51Z</time>
      </trkpt>
      <trkpt lat="44.04544" lon="1.6724">
        <ele>112.4</ele>
        <time>2021-03-21T07:07:55Z</time>
      </trkpt>
      <trkpt lat="44.04539" lon="1.67224">
        <ele>112.4</ele>
        <time>2021-03-21T07:07:59Z</time>
      </trkpt>
      <trkpt lat="44.04531" lon="1.6721">
        <ele>112.6</ele>
        <time>2021-03-21T07:08:03Z</time>
      </trkpt>
      <trkpt lat="44.04521" lon="1.67201">
        <ele>114</ele>
        <time>2021-03-21T07:08:07Z</time>
      </trkpt>
      <trkpt lat="44.04514" lon="1.67193">
        <ele>115</ele>
        <time>2021-03-21T07:08:11Z</time>
      </trkpt>
      <trkpt lat="44.04508" lon="1.67185">
        <ele>116</ele>
        <time>2021-03-21T07:08:15Z</time>
      </trkpt>
      <trkpt lat="44.04502" lon="1.67178">
        <ele>117.2</ele>
        <time>2021-03-21T07:08:19Z</time>
      </trkpt>
      <trkpt lat="44.04496" lon="1.67171">
        <ele>118</ele>
        <time>2021-03-21T07:08:23Z</time>
      </trkpt>
      <trkpt lat="44.0449" lon="1.67165">
        <ele>118.8</ele>
        <time>2021-03-21T07:08:27Z</time>
      </trkpt>
      <trkpt lat="44.04483" lon="1.67159">
        <ele>119.6</ele>
        <time>2021-03-21T07:08:31Z</time>
      </trkpt>
      <trkpt lat="44.04477" lon="1.67154">
        <ele>120.6</ele>
        <time>2021-03-21T07:08:35Z</time>
      </trkpt>
      <trkpt lat="44.04471" lon="1.67152">
        <ele>121.8</ele>
        <time>2021-03-21T07:08:39Z</time>
      </trkpt>
      <trkpt lat="44.04465" lon="1.67155">
        <ele>122.2</ele>
        <time>2021-03-21T07:08:43Z</time>
      </trkpt>
      <trkpt lat="44.04462" lon="1.67162">
        <ele>123.4</ele>
        <time>2021-03-21T07:08:47Z</time>
      </trkpt>
      <trkpt lat="44.04461" lon="1.67171">
        <ele>124.2</ele>
        <time>2021-03-21T07:08:51Z</time>
      </trkpt>
      <trkpt lat="44.04459" lon="1.67178">
        <ele>124.8</ele>
        <time>2021-03-21T07:08:55Z</time>
      </trkpt>
      <trkpt lat="44.04457" lon="1.67186">
        <ele>125.8</ele>
        <time>2021-03-21T07:08:59Z</time>
      </trkpt>
      <trkpt lat="44.04454" lon="1.67193">
        <ele>126.6</ele>
        <time>2021-03-21T07:09:03Z</time>
      </trkpt>
      <trkpt lat="44.0445" lon="1.67199">
        <ele>127.2</ele>
        <time>2021-03-21T07:09:07Z</time>
      </trkpt>
      <trkpt lat="44.04446" lon="1.67204">
        <ele>128.2</ele>
        <time>2021-03-21T07:09:11Z</time>
      </trkpt>
      <trkpt lat="44.04442" lon="1.67209">
        <ele>129</ele>
        <time>2021-03-21T07:09:15Z</time>
      </trkpt>
      <trkpt lat="44.04437" lon="1.67214">
        <ele>129.4</ele>
        <time>2021-03-21T07:09:19Z</time>
      </trkpt>
      <trkpt lat="44.04434" lon="1.67219">
        <ele>130.8</ele>
        <time>2021-03-21T07:09:23Z</time>
      </trkpt>
      <trkpt lat="44.04433" lon="1.67226">
        <ele>131.2</ele>
        <time>2021-03-21T07:09:27Z</time>
      </trkpt>
      <trkpt lat="44.04434" lon="1.67232">
        <ele>132</ele>
        <time>2021-03-21T07:09:31Z</time>
      </trkpt>
      <trkpt lat="44.04434" lon="1.67239">
        <ele>132.8</ele>
        <time>2021-03-21T07:09:35Z</time>
      </trkpt>
      <trkpt lat="44.04435" lon="1.67246">
        <ele>133.6</ele>
        <time>2021-03-21T07:09:39Z</time>
      </trkpt>
      <trkpt lat="44.04436" lon="1.67254">
        <ele>134</ele>
        <time>2021-03-21T07:09:43Z</time>
      </trkpt>
      <trkpt lat="44.04437" lon="1.67261">
        <ele>135.2</ele>
        <time>2021-03-21T07:09:47Z</time>
      </trkpt>
      <trkpt lat="44.04436" lon="1.67268">
        <ele>135.6</ele>
        <time>2021-03-21T07:09:51Z</time>
      </trkpt>
      <trkpt lat="44.04434" lon="1.67274">
        <ele>136.2</ele>
        <time>2021-03-21T07:09:55Z</time>
      </trkpt>
      <trkpt lat="44.04432" lon="1.67282">
        <ele>136.6</ele>
        <time>2021-03-21T07:09:59Z</time>
      </trkpt>
      <trkpt lat="44.04428" lon="1.67288">
        <ele>137.8</ele>
        <time>2021-03-21T07:10:03Z</time>
      </trkpt>
      <trkpt lat="44.04425" lon="1.67292">
        <ele>138.6</ele>
        <time>2021-03-21T07:10:07Z</time>
      </trkpt>
      <trkpt lat="44.04421" lon="1.67296">
        <ele>139.6</ele>
        <time>2021-03-21T07:10:11Z</time>
      </trkpt>
      <trkpt lat="44.04416" lon="1.673">
        <ele>140.2</ele>
        <time>2021-03-21T07:10:15Z</time>
      </trkpt>
      <trkpt lat="44.04412" lon="1.67304">
        <ele>141</ele>
        <time>2021-03-21T07:10:19Z</time>
      </trkpt>
      <trkpt lat="44.04408" lon="1.67308">
        <ele>142</ele>
        <time>2021-03-21T07:10:23Z</time>
      </trkpt>
      <trkpt lat="44.04404" lon="1.67311">
        <ele>142.6</ele>
        <time>2021-03-21T07:10:27Z</time>
      </trkpt>
      <trkpt lat="44.04399" lon="1.67315">
        <ele>143.4</ele>
        <time>2021-03-21T07:10:31Z</time>
      </trkpt>
      <trkpt lat="44.04395" lon="1.67318">
        <ele>144</ele>
        <time>2021-03-21T07:10:35Z</time>
      </trkpt>
      <trkpt lat="44.04391" lon="1.67321">
        <ele>144.8</ele>
        <time>2021-03-21T07:10:39Z</time>
      </trkpt>
      <trkpt lat="44.04387" lon="1.67324">
        <ele>145.8</ele>
        <time>2021-03-21T07:10:43Z</time>
      </trkpt>
      <trkpt lat="44.04383" lon="1.67327">
        <ele>146.2</ele>
        <time>2021-03-21T07:10:47Z</time>
      </trkpt>
      <trkpt lat="44.0438" lon="1.67331">
        <ele>147.2</ele>
        <time>2021-03-21T07:10:51Z</time>
      </trkpt>
      <trkpt lat="44.04375" lon="1.67334">
        <ele>147.8</ele>
        <time>2021-03-21T07:10:55Z</time>
      </trkpt>
      <trkpt lat="44.04371" lon="1.67337">
        <ele>148.8</ele>
        <time>2021-03-21T07:10:59Z</time>
      </trkpt>
      <trkpt lat="44.04367" lon="1.67341">
        <ele>149.8</ele>
        <time>2021-03-21T07:11:03Z</time>
      </trkpt>
      <trkpt lat="44.04363" lon="1.67344">
        <ele>150.6</ele>
        <time>2021-03-21T07:11:07Z</time>
      </trkpt>
      <trkpt lat="44.04359" lon="1.67349">
        <ele>151</ele>
        <time>2021-03-21T07:11:11Z</time>
      </trkpt>
      <trkpt lat="44.04355" lon="1.67352">
        <ele>151.6</ele>
        <time>2021-03-21T07:11:15Z</time>
      </trkpt>
      <trkpt lat="44.0435" lon="1.67356">
        <ele>152.2</ele>
        <time>2021-03-21T07:11:19Z</time>
      </trkpt>
      <trkpt lat="44.04347" lon="1.6736">
        <ele>152.8</ele>
        <time>2021-03-21T07:11:23Z</time>
      </trkpt>
      <trkpt lat="44.04343" lon="1.67364">
        <ele>153.6</ele>
        <time>2021-03-21T07:11:27Z</time>
      </trkpt>
      <trkpt lat="44.0434" lon="1.67368">
        <ele>154.4</ele>
        <time>2021-03-21T07:11:31Z</time>
      </trkpt>
      <trkpt lat="44.04337" lon="1.67373">
        <ele>155</ele>
        <time>2021-03-21T07:11:35Z</time>
      </trkpt>
      <trkpt lat="44.04333" lon="1.67378">
        <ele>155.8</ele>
        <time>2021-03-21T07:11:39Z</time>
      </trkpt>
      <trkpt lat="44.04329" lon="1.67383">
        <ele>156.8</ele>
        <time>2021-03-21T07:11:43Z</time>
      </trkpt>
      <trkpt lat="44.04326" lon="1.67387">
        <ele>157.2</ele>
        <time>2021-03-21T07:11:47Z</time>
      </trkpt>
      <trkpt lat="44.04322" lon="1.67391">
        <ele>158</ele>
        <time>2021-03-21T07:11:51Z</time>
      </trkpt>
      <trkpt lat="44.04319" lon="1.67395">
        <ele>158.6</ele>
        <time>2021-03-21T07:11:55Z</time>
      </trkpt>
      <trkpt lat="44.04316" lon="1.674">
        <ele>159.2</ele>
        <time>2021-03-21T07:11:59Z</time>
      </trkpt>
      <trkpt lat="44.04313" lon="1.67404">
        <ele>159.6</ele>
        <time>2021-03-21T07:12:03Z</time>
      </trkpt>
      <trkpt lat="44.0431" lon="1.6741">
        <ele>160.6</ele>
        <time>2021-03-21T07:12:07Z</time>
      </trkpt>
      <trkpt lat="44.04308" lon="1.67415">
        <ele>161.4</ele>
        <time>2021-03-21T07:12:11Z</time>
      </trkpt>
      <trkpt lat="44.04306" lon="1.67421">
        <ele>161.4</ele>
        <time>2021-03-21T07:12:15Z</time>
      </trkpt>
      <trkpt lat="44.04305" lon="1.67427">
        <ele>162.8</ele>
        <time>2021-03-21T07:12:19Z</time>
      </trkpt>
      <trkpt lat="44.04304" lon="1.67434">
        <ele>163.4</ele>
        <time>2021-03-21T07:12:23Z</time>
      </trkpt>
      <trkpt lat="44.04304" lon="1.67439">
        <ele>164</ele>
        <time>2021-03-21T07:12:27Z</time>
      </trkpt>
      <trkpt lat="44.04303" lon="1.67445">
        <ele>164.8</ele>
        <time>2021-03-21T07:12:31Z</time>
      </trkpt>
      <trkpt lat="44.04302" lon="1.67451">
        <ele>165.4</ele>
        <time>2021-03-21T07:12:35Z</time>
      </trkpt>
      <trkpt lat="44.04302" lon="1.67458">
        <ele>166.4</ele>
        <time>2021-03-21T07:12:39Z</time>
      </trkpt>
      <trkpt lat="44.04301" lon="1.67464">
        <ele>166.8</ele>
        <time>2021-03-21T07:12:43Z</time>
      </trkpt>
      <trkpt lat="44.043" lon="1.67469">
        <ele>167.6</ele>
        <time>2021-03-21T07:12:47Z</time>
      </trkpt>
      <trkpt lat="44.04298" lon="1.67475">
        <ele>168.4</ele>
        <time>2021-03-21T07:12:51Z</time>
      </trkpt>
      <trkpt lat="44.04297" lon="1.67481">
        <ele>169.4</ele>
        <time>2021-03-21T07:12:55Z</time>
      </trkpt>
      <trkpt lat="44.04297" lon="1.67486">
        <ele>169.8</ele>
        <time>2021-03-21T07:12:59Z</time>
      </trkpt>
      <trkpt lat="44.04296" lon="1.67493">
        <ele>170.8</ele>
        <time>2021-03-21T07:13:03Z</time>
      </trkpt>
      <trkpt lat="44.04296" lon="1.67498">
        <ele>171</ele>
        <time>2021-03-21T07:13:07Z</time>
      </trkpt>
      <trkpt lat="44.04295" lon="1.67503">
        <ele>172</ele>
        <time>2021-03-21T07:13:11Z</time>
      </trkpt>
      <trkpt lat="44.04295" lon="1.67509">
        <ele>173</ele>
        <time>2021-03-21T07:13:15Z</time>
      </trkpt>
      <trkpt lat="44.04294" lon="1.67515">
        <ele>173.6</ele>
        <time>2021-03-21T07:13:19Z</time>
      </trkpt>
      <trkpt lat="44.04296" lon="1.67521">
        <ele>174.2</ele>
        <time>2021-03-21T07:13:23Z</time>
      </trkpt>
      <trkpt lat="44.04297" lon="1.67527">
        <ele>174.8</ele>
        <time>2021-03-21T07:13:27Z</time>
      </trkpt>
      <trkpt lat="44.04299" lon="1.67533">
        <ele>175.6</ele>
        <time>2021-03-21T07:13:31Z</time>
      </trkpt>
      <trkpt lat="44.043" lon="1.67539">
        <ele>176.4</ele>
        <time>2021-03-21T07:13:35Z</time>
      </trkpt>
      <trkpt lat="44.043" lon="1.67544">
        <ele>177.2</ele>
        <time>2021-03-21T07:13:39Z</time>
      </trkpt>
      <trkpt lat="44.04301" lon="1.6755">
        <ele>178</ele>
        <time>2021-03-21T07:13:43Z</time>
      </trkpt>
      <trkpt lat="44.043" lon="1.67556">
        <ele>178.6</ele>
        <time>2021-03-21T07:13:47Z</time>
      </trkpt>
      <trkpt lat="44.04299" lon="1.67562">
        <ele>180</ele>
        <time>2021-03-21T07:13:51Z</time>
      </trkpt>
      <trkpt lat="44.04297" lon="1.67568">
        <ele>180.4</ele>
        <time>2021-03-21T07:13:55Z</time>
      </trkpt>
      <trkpt lat="44.04295" lon="1.67573">
        <ele>180.8</ele>
        <time>2021-03-21T07:13:59Z</time>
      </trkpt>
      <trkpt lat="44.04292" lon="1.67577">
        <ele>181.6</ele>
        <time>2021-03-21T07:14:03Z</time>
      </trkpt>
      <trkpt lat="44.04288" lon="1.67582">
        <ele>182.2</ele>
        <time>2021-03-21T07:14:07Z</time>
      </trkpt>
      <trkpt lat="44.04285" lon="1.67587">
        <ele>182.6</ele>
        <time>2021-03-21T07:14:11Z</time>
      </trkpt>
      <trkpt lat="44.04282" lon="1.67592">
        <ele>183.4</ele>
        <time>2021-03-21T07:14:15Z</time>
      </trkpt>
      <trkpt lat="44.04279" lon="1.67597">
        <ele>183.8</ele>
        <time>2021-03-21T07:14:19Z</time>
      </trkpt>
      <trkpt lat="44.04275" lon="1.67601">
        <ele>185</ele>
        <time>2021-03-21T07:14:23Z</time>
      </trkpt>
      <trkpt lat="44.04272" lon="1.67606">
        <ele>185.6</ele>
        <time>2021-03-21T07:14:27Z</time>
      </trkpt>
      <trkpt lat="44.04268" lon="1.6761">
        <ele>186.4</ele>
        <time>2021-03-21T07:14:31Z</time>
      </trkpt>
      <trkpt lat="44.04265" lon="1.67615">
        <ele>187</ele>
        <time>2021-03-21T07:14:35Z</time>
      </trkpt>
      <trkpt lat="44.04261" lon="1.67619">
        <ele>187.8</ele>
        <time>2021-03-21T07:14:39Z</time>
      </trkpt>
      <trkpt lat="44.04257" lon="1.67624">
        <ele>189</ele>
        <time>2021-03-21T07:14:43Z</time>
      </trkpt>
      <trkpt lat="44.04254" lon="1.67628">
        <ele>190</ele>
        <time>2021-03-21T07:14:47Z</time>
      </trkpt>
      <trkpt lat="44.04249" lon="1.67632">
        <ele>190.2</ele>
        <time>2021-03-21T07:14:51Z</time>
      </trkpt>
      <trkpt lat="44.04245" lon="1.67635">
        <ele>190.8</ele>
        <time>2021-03-21T07:14:55Z</time>
      </trkpt>
      <trkpt lat="44.04242" lon="1.67638">
        <ele>191.6</ele>
        <time>2021-03-21T07:14:59Z</time>
      </trkpt>
      <trkpt lat="44.04237" lon="1.67641">
        <ele>192</ele>
        <time>2021-03-21T07:15:03Z</time>
      </trkpt>
      <trkpt lat="44.04233" lon="1.67644">
        <ele>193</ele>
        <time>2021-03-21T07:15:07Z</time>
      </trkpt>
      <trkpt lat="44.04229" lon="1.67647">
        <ele>194.2</ele>
        <time>2021-03-21T07:15:11Z</time>
      </trkpt>
      <trkpt lat="44.04225" lon="1.67648">
        <ele>194.8</ele>
        <time>2021-03-21T07:15:15Z</time>
      </trkpt>
      <trkpt lat="44.0422" lon="1.67649">
        <ele>195.6</ele>
        <time>2021-03-21T07:15:19Z</time>
      </trkpt>
      <trkpt lat="44.04216" lon="1.6765">
        <ele>196.6</ele>
        <time>2021-03-21T07:15:23Z</time>
      </trkpt>
      <trkpt lat="44.04211" lon="1.6765">
        <ele>197.8</ele>
        <time>2021-03-21T07:15:27Z</time>
      </trkpt>
      <trkpt lat="44.04206" lon="1.67651">
        <ele>198</ele>
        <time>2021-03-21T07:15:31Z</time>
      </trkpt>
      <trkpt lat="44.04202" lon="1.67651">
        <ele>198.6</ele>
        <time>2021-03-21T07:15:35Z</time>
      </trkpt>
      <trkpt lat="44.04198" lon="1.67652">
        <ele>199.4</ele>
        <time>2021-03-21T07:15:39Z</time>
      </trkpt>
      <trkpt lat="44.04193" lon="1.67652">
        <ele>200.2</ele>
        <time>2021-03-21T07:15:43Z</time>
      </trkpt>
      <trkpt lat="44.04188" lon="1.67652">
        <ele>200.2</ele>
        <time>2021-03-21T07:15:47Z</time>
      </trkpt>
      <trkpt lat="44.04184" lon="1.67652">
        <ele>201.2</ele>
        <time>2021-03-21T07:15:51Z</time>
      </trkpt>
      <trkpt lat="44.04179" lon="1.67652">
        <ele>201.8</ele>
        <time>2021-03-21T07:15:55Z</time>
      </trkpt>
      <trkpt lat="44.04174" lon="1.67652">
        <ele>202.6</ele>
        <time>2021-03-21T07:15:59Z</time>
      </trkpt>
      <trkpt lat="44.04168" lon="1.67652">
        <ele>203</ele>
        <time>2021-03-21T07:16:03Z</time>
      </trkpt>
      <trkpt lat="44.04164" lon="1.67652">
        <ele>203.8</ele>
        <time>2021-03-21T07:16:07Z</time>
      </trkpt>
      <trkpt lat="44.04159" lon="1.67652">
        <ele>205</ele>
        <time>2021-03-21T07:16:11Z</time>
      </trkpt>
      <trkpt lat="44.04154" lon="1.67652">
        <ele>205.2</ele>
        <time>2021-03-21T07:16:15Z</time>
      </trkpt>
      <trkpt lat="44.0415" lon="1.67651">
        <ele>206</ele>
        <time>2021-03-21T07:16:19Z</time>
      </trkpt>
      <trkpt lat="44.04146" lon="1.67651">
        <ele>207</ele>
        <time>2021-03-21T07:16:23Z</time>
      </trkpt>
      <trkpt lat="44.04141" lon="1.67651">
        <ele>207.4</ele>
        <time>2021-03-21T07:16:27Z</time>
      </trkpt>
      <trkpt lat="44.04136" lon="1.6765">
        <ele>208.2</ele>
        <time>2021-03-21T07:16:31Z</time>
      </trkpt>
      <trkpt lat="44.04131" lon="1.6765">
        <ele>209</ele>
        <time>2021-03-21T07:16:35Z</time>
      </trkpt>
      <trkpt lat="44.04125" lon="1.6765">
        <ele>209.6</ele>
        <time>2021-03-21T07:16:39Z</time>
      </trkpt>
      <trkpt lat="44.0412" lon="1.6765">
        <ele>210.6</ele>
        <time>2021-03-21T07:16:43Z</time>
      </trkpt>
      <trkpt lat="44.04115" lon="1.67651">
        <ele>211.6</ele>
        <time>2021-03-21T07:16:47Z</time>
      </trkpt>
      <trkpt lat="44.04109" lon="1.67651">
        <ele>212.6</ele>
        <time>2021-03-21T07:16:51Z</time>
      </trkpt>
      <trkpt lat="44.04103" lon="1.67653">
        <ele>213.4</ele>
        <time>2021-03-21T07:16:55Z</time>
      </trkpt>
      <trkpt lat="44.04098" lon="1.67654">
        <ele>214</ele>
        <time>2021-03-21T07:16:59Z</time>
      </trkpt>
      <trkpt lat="44.04093" lon="1.67656">
        <ele>214.6</ele>
        <time>2021-03-21T07:17:03Z</time>
      </trkpt>
      <trkpt lat="44.04087" lon="1.67658">
        <ele>215</ele>
        <time>2021-03-21T07:17:07Z</time>
      </trkpt>
      <trkpt lat="44.04082" lon="1.6766">
        <ele>215.6</ele>
        <time>2021-03-21T07:17:11Z</time>
      </trkpt>
      <trkpt lat="44.04077" lon="1.67661">
        <ele>216.6</ele>
        <time>2021-03-21T07:17:15Z</time>
      </trkpt>
      <trkpt lat="44.04071" lon="1.67663">
        <ele>217.4</ele>
        <time>2021-03-21T07:17:19Z</time>
      </trkpt>
      <trkpt lat="44.04066" lon="1.67666">
        <ele>217.8</ele>
        <time>2021-03-21T07:17:23Z</time>
      </trkpt>
      <trkpt lat="44.04061" lon="1.67668">
        <ele>218.8</ele>
        <time>2021-03-21T07:17:27Z</time>
      </trkpt>
      <trkpt lat="44.04056" lon="1.6767">
        <ele>219.8</ele>
        <time>2021-03-21T07:17:31Z</time>
      </trkpt>
      <trkpt lat="44.04051" lon="1.67673">
        <ele>220.8</ele>
        <time>2021-03-21T07:17:35Z</time>
      </trkpt>
      <trkpt lat="44.04047" lon="1.67676">
        <ele>221.2</ele>
        <time>2021-03-21T07:17:39Z</time>
      </trkpt>
      <trkpt lat="44.04042" lon="1.67679">
        <ele>222.2</ele>
        <time>2021-03-21T07:17:43Z</time>
      </trkpt>
      <trkpt lat="44.04037" lon="1.67682">
        <ele>222.8</ele>
        <time>2021-03-21T07:17:47Z</time>
      </trkpt>
      <trkpt lat="44.04033" lon="1.67686">
        <ele>223.6</ele>
        <time>2021-03-21T07:17:51Z</time>
      </trkpt>
      <trkpt lat="44.04029" lon="1.6769">
        <ele>224.4</ele>
        <time>2021-03-21T07:17:55Z</time>
      </trkpt>
      <trkpt lat="44.04024" lon="1.67694">
        <ele>225</ele>
        <time>2021-03-21T07:17:59Z</time>
      </trkpt>
      <trkpt lat="44.04019" lon="1.67698">
        <ele>225.2</ele>
        <time>2021-03-21T07:18:03Z</time>
      </trkpt>
      <trkpt lat="44.04014" lon="1.67702">
        <ele>226.4</ele>
        <time>2021-03-21T07:18:07Z</time>
      </trkpt>
      <trkpt lat="44.04009" lon="1.67707">
        <ele>227.4</ele>
        <time>2021-03-21T07:18:11Z</time>
      </trkpt>
      <trkpt lat="44.04004" lon="1.67711">
        <ele>228.4</ele>
        <time>2021-03-21T07:18:15Z</time>
      </trkpt>
      <trkpt lat="44.04" lon="1.67718">
        <ele>229.4</ele>
        <time>2021-03-21T07:18:19Z</time>
      </trkpt>
      <trkpt lat="44.04" lon="1.67725">
        <ele>229.8</ele>
        <time>2021-03-21T07:18:23Z</time>
      </trkpt>
      <trkpt lat="44.04003" lon="1.67732">
        <ele>230.6</ele>
        <time>2021-03-21T07:18:27Z</time>
      </trkpt>
      <trkpt lat="44.04008" lon="1.67735">
        <ele>231.6</ele>
        <time>2021-03-21T07:18:31Z</time>
      </trkpt>
      <trkpt lat="44.04013" lon="1.67738">
        <ele>232.6</ele>
        <time>2021-03-21T07:18:35Z</time>
      </trkpt>
      <trkpt lat="44.04019" lon="1.67741">
        <ele>233.4</ele>
        <time>2021-03-21T07:18:39Z</time>
      </trkpt>
      <trkpt lat="44.04024" lon="1.67744">
        <ele>234.4</ele>
        <time>2021-03-21T07:18:43Z</time>
      </trkpt>
      <trkpt lat="44.04029" lon="1.67746">
        <ele>235.2</ele>
        <time>2021-03-21T07:18:47Z</time>
      </trkpt>
      <trkpt lat="44.04034" lon="1.67749">
        <ele>236.2</ele>
        <time>2021-03-21T07:18:51Z</time>
      </trkpt>
      <trkpt lat="44.0404" lon="1.67752">
        <ele>236.8</ele>
        <time>2021-03-21T07:18:55Z</time>
      </trkpt>
      <trkpt lat="44.04046" lon="1.67754">
        <ele>237.6</ele>
        <time>2021-03-21T07:18:59Z</time>
      </trkpt>
      <trkpt lat="44.04052" lon="1.67758">
        <ele>238</ele>
        <time>2021-03-21T07:19:03Z</time>
      </trkpt>
      <trkpt lat="44.04057" lon="1.67761">
        <ele>238.6</ele>
        <time>2021-03-21T07:19:07Z</time>
      </trkpt>
      <trkpt lat="44.04062" lon="1.67765">
        <ele>239.2</ele>
        <time>2021-03-21T07:19:11Z</time>
      </trkpt>
      <trkpt lat="44.04067" lon="1.6777">
        <ele>239.8</ele>
        <time>2021-03-21T07:19:15Z</time>
      </trkpt>
      <trkpt lat="44.04072" lon="1.67776">
        <ele>240.6</ele>
        <time>2021-03-21T07:19:19Z</time>
      </trkpt>
      <trkpt lat="44.04076" lon="1.67783">
        <ele>241</ele>
        <time>2021-03-21T07:19:23Z</time>
      </trkpt>
      <trkpt lat="44.04081" lon="1.67789">
        <ele>241.8</ele>
        <time>2021-03-21T07:19:27Z</time>
      </trkpt>
      <trkpt lat="44.04084" lon="1.67797">
        <ele>242.2</ele>
        <time>2021-03-21T07:19:31Z</time>
      </trkpt>
      <trkpt lat="44.04088" lon="1.67804">
        <ele>242.8</ele>
        <time>2021-03-21T07:19:35Z</time>
      </trkpt>
      <trkpt lat="44.04091" lon="1.6781">
        <ele>243.8</ele>
        <time>2021-03-21T07:19:39Z</time>
      </trkpt>
      <trkpt lat="44.04094" lon="1.67817">
        <ele>244.4</ele>
        <time>2021-03-21T07:19:43Z</time>
      </trkpt>
      <trkpt lat="44.04096" lon="1.67825">
        <ele>245.8</ele>
        <time>2021-03-21T07:19:47Z</time>
      </trkpt>
      <trkpt lat="44.04097" lon="1.67833">
        <ele>246.2</ele>
        <time>2021-03-21T07:19:51Z</time>
      </trkpt>
      <trkpt lat="44.04094" lon="1.67839">
        <ele>247.2</ele>
        <time>2021-03-21T07:19:55Z</time>
      </trkpt>
      <trkpt lat="44.04089" lon="1.67844">
        <ele>247.8</ele>
        <time>2021-03-21T07:19:59Z</time>
      </trkpt>
      <trkpt lat="44.04084" lon="1.67848">
        <ele>248.4</ele>
        <time>2021-03-21T07:20:03Z</time>
      </trkpt>
      <trkpt lat="44.04078" lon="1.67851">
        <ele>249.6</ele>
        <time>2021-03-21T07:20:07Z</time>
      </trkpt>
      <trkpt lat="44.04073" lon="1.67854">
        <ele>250</ele>
        <time>2021-03-21T07:20:11Z</time>
      </trkpt>
      <trkpt lat="44.04068" lon="1.67857">
        <ele>250.8</ele>
        <time>2021-03-21T07:20:15Z</time>
      </trkpt>
      <trkpt lat="44.04062" lon="1.6786">
        <ele>250.8</ele>
        <time>2021-03-21T07:20:19Z</time>
      </trkpt>
      <trkpt lat="44.04057" lon="1.67863">
        <ele>251.6</ele>
        <time>2021-03-21T07:20:23Z</time>
      </trkpt>
      <trkpt lat="44.04052" lon="1.67866">
        <ele>252.6</ele>
        <time>2021-03-21T07:20:27Z</time>
      </trkpt>
      <trkpt lat="44.04046" lon="1.67869">
        <ele>253</ele>
        <time>2021-03-21T07:20:31Z</time>
      </trkpt>
      <trkpt lat="44.04042" lon="1.67872">
        <ele>253.6</ele>
        <time>2021-03-21T07:20:35Z</time>
      </trkpt>
      <trkpt lat="44.04037" lon="1.67876">
        <ele>254.4</ele>
        <time>2021-03-21T07:20:39Z</time>
      </trkpt>
      <trkpt lat="44.04033" lon="1.67882">
        <ele>255.2</ele>
        <time>2021-03-21T07:20:43Z</time>
      </trkpt>
      <trkpt lat="44.0403" lon="1.67889">
        <ele>255.6</ele>
        <time>2021-03-21T07:20:47Z</time>
      </trkpt>
      <trkpt lat="44.0403" lon="1.67897">
        <ele>256.2</ele>
        <time>2021-03-21T07:20:51Z</time>
      </trkpt>
      <trkpt lat="44.04033" lon="1.67905">
        <ele>257</ele>
        <time>2021-03-21T07:20:55Z</time>
      </trkpt>
      <trkpt lat="44.04037" lon="1.67911">
        <ele>257.6</ele>
        <time>2021-03-21T07:20:59Z</time>
      </trkpt>
      <trkpt lat="44.04042" lon="1.67917">
        <ele>258.2</ele>
        <time>2021-03-21T07:21:03Z</time>
      </trkpt>
      <trkpt lat="44.04046" lon="1.67923">
        <ele>258.8</ele>
        <time>2021-03-21T07:21:07Z</time>
      </trkpt>
      <trkpt lat="44.0405" lon="1.67929">
        <ele>259.8</ele>
        <time>2021-03-21T07:21:11Z</time>
      </trkpt>
      <trkpt lat="44.04054" lon="1.67935">
        <ele>260.6</ele>
        <time>2021-03-21T07:21:15Z</time>
      </trkpt>
      <trkpt lat="44.04059" lon="1.67941">
        <ele>260.8</ele>
        <time>2021-03-21T07:21:19Z</time>
      </trkpt>
      <trkpt lat="44.04063" lon="1.67947">
        <ele>261.6</ele>
        <time>2021-03-21T07:21:23Z</time>
      </trkpt>
      <trkpt lat="44.04067" lon="1.67952">
        <ele>262.2</ele>
        <time>2021-03-21T07:21:27Z</time>
      </trkpt>
      <trkpt lat="44.04071" lon="1.67958">
        <ele>263</ele>
        <time>2021-03-21T07:21:31Z</time>
      </trkpt>
      <trkpt lat="44.04075" lon="1.67964">
        <ele>263.6</ele>
        <time>2021-03-21T07:21:35Z</time>
      </trkpt>
      <trkpt lat="44.04079" lon="1.6797">
        <ele>265</ele>
        <time>2021-03-21T07:21:39Z</time>
      </trkpt>
      <trkpt lat="44.04083" lon="1.67975">
        <ele>265.4</ele>
        <time>2021-03-21T07:21:43Z</time>
      </trkpt>
      <trkpt lat="44.04087" lon="1.67981">
        <ele>266.2</ele>
        <time>2021-03-21T07:21:47Z</time>
      </trkpt>
      <trkpt lat="44.04091" lon="1.67987">
        <ele>266.6</ele>
        <time>2021-03-21T07:21:51Z</time>
      </trkpt>
      <trkpt lat="44.04096" lon="1.67992">
        <ele>267.4</ele>
        <time>2021-03-21T07:21:55Z</time>
      </trkpt>
      <trkpt lat="44.041" lon="1.67998">
        <ele>268.2</ele>
        <time>2021-03-21T07:21:59Z</time>
      </trkpt>
      <trkpt lat="44.04103" lon="1.68005">
        <ele>269</ele>
        <time>2021-03-21T07:22:03Z</time>
      </trkpt>
      <trkpt lat="44.04105" lon="1.68012">
        <ele>269.6</ele>
        <time>2021-03-21T07:22:07Z</time>
      </trkpt>
      <trkpt lat="44.04107" lon="1.68019">
        <ele>270.4</ele>
        <time>2021-03-21T07:22:11Z</time>
      </trkpt>
      <trkpt lat="44.04106" lon="1.68027">
        <ele>271.2</ele>
        <time>2021-03-21T07:22:15Z</time>
      </trkpt>
      <trkpt lat="44.04104" lon="1.68034">
        <ele>272.2</ele>
        <time>2021-03-21T07:22:19Z</time>
      </trkpt>
      <trkpt lat="44.04103" lon="1.68041">
        <ele>273</ele>
        <time>2021-03-21T07:22:23Z</time>
      </trkpt>
      <trkpt lat="44.04101" lon="1.68048">
        <ele>274.2</ele>
        <time>2021-03-21T07:22:27Z</time>
      </trkpt>
      <trkpt lat="44.041" lon="1.68056">
        <ele>275</ele>
        <time>2021-03-21T07:22:31Z</time>
      </trkpt>
      <trkpt lat="44.04098" lon="1.68063">
        <ele>275.8</ele>
        <time>2021-03-21T07:22:35Z</time>
      </trkpt>
      <trkpt lat="44.04097" lon="1.68071">
        <ele>277</ele>
        <time>2021-03-21T07:22:39Z</time>
      </trkpt>
      <trkpt lat="44.04096" lon="1.6808">
        <ele>277.4</ele>
        <time>2021-03-21T07:22:43Z</time>
      </trkpt>
      <trkpt lat="44.04096" lon="1.68088">
        <ele>278.2</ele>
        <time>2021-03-21T07:22:47Z</time>
      </trkpt>
      <trkpt lat="44.04096" lon="1.68096">
        <ele>278.8</ele>
        <time>2021-03-21T07:22:51Z</time>
      </trkpt>
      <trkpt lat="44.04097" lon="1.68104">
        <ele>279.6</ele>
        <time>2021-03-21T07:22:55Z</time>
      </trkpt>
      <trkpt lat="44.04099" lon="1.68112">
        <ele>280.6</ele>
        <time>2021-03-21T07:22:59Z</time>
      </trkpt>
      <trkpt lat="44.04101" lon="1.6812">
        <ele>281.2</ele>
        <time>2021-03-21T07:23:03Z</time>
      </trkpt>
      <trkpt lat="44.04104" lon="1.68127">
        <ele>281.6</ele>
        <time>2021-03-21T07:23:07Z</time>
      </trkpt>
      <trkpt lat="44.04107" lon="1.68135">
        <ele>282.8</ele>
        <time>2021-03-21T07:23:11Z</time>
      </trkpt>
      <trkpt lat="44.0411" lon="1.68142">
        <ele>283.4</ele>
        <time>2021-03-21T07:23:15Z</time>
      </trkpt>
      <trkpt lat="44.04113" lon="1.68149">
        <ele>284</ele>
        <time>2021-03-21T07:23:19Z</time>
      </trkpt>
      <trkpt lat="44.04116" lon="1.68156">
        <ele>284.8</ele>
        <time>2021-03-21T07:23:23Z</time>
      </trkpt>
      <trkpt lat="44.04117" lon="1.68164">
        <ele>285.4</ele>
        <time>2021-03-21T07:23:27Z</time>
      </trkpt>
      <trkpt lat="44.04116" lon="1.68172">
        <ele>285.6</ele>
        <time>2021-03-21T07:23:31Z</time>
      </trkpt>
      <trkpt lat="44.04114" lon="1.68179">
        <ele>286.6</ele>
        <time>2021-03-21T07:23:35Z</time>
      </trkpt>
      <trkpt lat="44.04112" lon="1.68187">
        <ele>287.6</ele>
        <time>2021-03-21T07:23:39Z</time>
      </trkpt>
      <trkpt lat="44.04111" lon="1.68195">
        <ele>288</ele>
        <time>2021-03-21T07:23:43Z</time>
      </trkpt>
      <trkpt lat="44.04109" lon="1.68203">
        <ele>289</ele>
        <time>2021-03-21T07:23:47Z</time>
      </trkpt>
      <trkpt lat="44.04107" lon="1.68212">
        <ele>289.6</ele>
        <time>2021-03-21T07:23:51Z</time>
      </trkpt>
      <trkpt lat="44.04107" lon="1.6822">
        <ele>290.4</ele>
        <time>2021-03-21T07:23:55Z</time>
      </trkpt>
      <trkpt lat="44.04106" lon="1.68229">
        <ele>291</ele>
        <time>2021-03-21T07:23:59Z</time>
      </trkpt>
      <trkpt lat="44.04106" lon="1.68238">
        <ele>291.8</ele>
        <time>2021-03-21T07:24:03Z</time>
      </trkpt>
      <trkpt lat="44.04106" lon="1.68246">
        <ele>292.8</ele>
        <time>2021-03-21T07:24:07Z</time>
      </trkpt>
      <trkpt lat="44.04106" lon="1.68254">
        <ele>293.4</ele>
        <time>2021-03-21T07:24:11Z</time>
      </trkpt>
      <trkpt lat="44.04106" lon="1.68263">
        <ele>294.2</ele>
        <time>2021-03-21T07:24:15Z</time>
      </trkpt>
      <trkpt lat="44.04107" lon="1.68271">
        <ele>295.4</ele>
        <time>2021-03-21T07:24:19Z</time>
      </trkpt>
      <trkpt lat="44.04107" lon="1.6828">
        <ele>296.2</ele>
        <time>2021-03-21T07:24:23Z</time>
      </trkpt>
      <trkpt lat="44.04107" lon="1.68288">
        <ele>296</ele>
        <time>2021-03-21T07:24:27Z</time>
      </trkpt>
      <trkpt lat="44.04107" lon="1.68298">
        <ele>296.4</ele>
        <time>2021-03-21T07:24:31Z</time>
      </trkpt>
      <trkpt lat="44.04107" lon="1.68308">
        <ele>296.6</ele>
        <time>2021-03-21T07:24:35Z</time>
      </trkpt>
      <trkpt lat="44.04106" lon="1.68318">
        <ele>297.2</ele>
        <time>2021-03-21T07:24:39Z</time>
      </trkpt>
      <trkpt lat="44.04105" lon="1.68328">
        <ele>298</ele>
        <time>2021-03-21T07:24:43Z</time>
      </trkpt>
      <trkpt lat="44.04103" lon="1.68338">
        <ele>298.4</ele>
        <time>2021-03-21T07:24:47Z</time>
      </trkpt>
      <trkpt lat="44.04101" lon="1.68348">
        <ele>298.4</ele>
        <time>2021-03-21T07:24:51Z</time>
      </trkpt>
      <trkpt lat="44.041" lon="1.68357">
        <ele>299.2</ele>
        <time>2021-03-21T07:24:55Z</time>
      </trkpt>
      <trkpt lat="44.04098" lon="1.68366">
        <ele>299.4</ele>
        <time>2021-03-21T07:24:59Z</time>
      </trkpt>
      <trkpt lat="44.04096" lon="1.68375">
        <ele>300.2</ele>
        <time>2021-03-21T07:25:03Z</time>
      </trkpt>
      <trkpt lat="44.04094" lon="1.68384">
        <ele>300.8</ele>
        <time>2021-03-21T07:25:07Z</time>
      </trkpt>
      <trkpt lat="44.04091" lon="1.68393">
        <ele>301.4</ele>
        <time>2021-03-21T07:25:11Z</time>
      </trkpt>
      <trkpt lat="44.04087" lon="1.68402">
        <ele>301.2</ele>
        <time>2021-03-21T07:25:15Z</time>
      </trkpt>
      <trkpt lat="44.04083" lon="1.68412">
        <ele>302.2</ele>
        <time>2021-03-21T07:25:19Z</time>
      </trkpt>
      <trkpt lat="44.04079" lon="1.68421">
        <ele>302</ele>
        <time>2021-03-21T07:25:23Z</time>
      </trkpt>
      <trkpt lat="44.04075" lon="1.6843">
        <ele>302.8</ele>
        <time>2021-03-21T07:25:27Z</time>
      </trkpt>
      <trkpt lat="44.04071" lon="1.6844">
        <ele>303.4</ele>
        <time>2021-03-21T07:25:31Z</time>
      </trkpt>
      <trkpt lat="44.04068" lon="1.6845">
        <ele>304</ele>
        <time>2021-03-21T07:25:35Z</time>
      </trkpt>
      <trkpt lat="44.04064" lon="1.6846">
        <ele>304.6</ele>
        <time>2021-03-21T07:25:39Z</time>
      </trkpt>
      <trkpt lat="44.04061" lon="1.68471">
        <ele>305</ele>
        <time>2021-03-21T07:25:43Z</time>
      </trkpt>
      <trkpt lat="44.04058" lon="1.68482">
        <ele>305.6</ele>
        <time>2021-03-21T07:25:47Z</time>
      </trkpt>
      <trkpt lat="44.04056" lon="1.68493">
        <ele>305.6</ele>
        <time>2021-03-21T07:25:51Z</time>
      </trkpt>
      <trkpt lat="44.04053" lon="1.68504">
        <ele>306.4</ele>
        <time>2021-03-21T07:25:55Z</time>
      </trkpt>
      <trkpt lat="44.04051" lon="1.68515">
        <ele>306.8</ele>
        <time>2021-03-21T07:25:59Z</time>
      </trkpt>
      <trkpt lat="44.04048" lon="1.68525">
        <ele>307</ele>
        <time>2021-03-21T07:26:03Z</time>
      </trkpt>
      <trkpt lat="44.04046" lon="1.68536">
        <ele>307.8</ele>
        <time>2021-03-21T07:26:07Z</time>
      </trkpt>
      <trkpt lat="44.04043" lon="1.68547">
        <ele>308</ele>
        <time>2021-03-21T07:26:11Z</time>
      </trkpt>
      <trkpt lat="44.0404" lon="1.68558">
        <ele>308</ele>
        <time>2021-03-21T07:26:15Z</time>
      </trkpt>
      <trkpt lat="44.04037" lon="1.68569">
        <ele>308.6</ele>
        <time>2021-03-21T07:26:19Z</time>
      </trkpt>
      <trkpt lat="44.04035" lon="1.6858">
        <ele>309</ele>
        <time>2021-03-21T07:26:23Z</time>
      </trkpt>
      <trkpt lat="44.04032" lon="1.68591">
        <ele>309.6</ele>
        <time>2021-03-21T07:26:27Z</time>
      </trkpt>
      <trkpt lat="44.0403" lon="1.68602">
        <ele>310.2</ele>
        <time>2021-03-21T07:26:31Z</time>
      </trkpt>
      <trkpt lat="44.04027" lon="1.68612">
        <ele>310.8</ele>
        <time>2021-03-21T07:26:35Z</time>
      </trkpt>
      <trkpt lat="44.04025" lon="1.68623">
        <ele>311.6</ele>
        <time>2021-03-21T07:26:39Z</time>
      </trkpt>
      <trkpt lat="44.04023" lon="1.68634">
        <ele>312.2</ele>
        <time>2021-03-21T07:26:43Z</time>
      </trkpt>
      <trkpt lat="44.0402" lon="1.68644">
        <ele>312.8</ele>
        <time>2021-03-21T07:26:47Z</time>
      </trkpt>
      <trkpt lat="44.04018" lon="1.68653">
        <ele>313.6</ele>
        <time>2021-03-21T07:26:51Z</time>
      </trkpt>
      <trkpt lat="44.04016" lon="1.68663">
        <ele>314.4</ele>
        <time>2021-03-21T07:26:55Z</time>
      </trkpt>
      <trkpt lat="44.04014" lon="1.68673">
        <ele>315</ele>
        <time>2021-03-21T07:26:59Z</time>
      </trkpt>
      <trkpt lat="44.04012" lon="1.68682">
        <ele>315.8</ele>
        <time>2021-03-21T07:27:03Z</time>
      </trkpt>
      <trkpt lat="44.0401" lon="1.68692">
        <ele>316.4</ele>
        <time>2021-03-21T07:27:07Z</time>
      </trkpt>
      <trkpt lat="44.04008" lon="1.68702">
        <ele>317.4</ele>
        <time>2021-03-21T07:27:11Z</time>
      </trkpt>
      <trkpt lat="44.04007" lon="1.68712">
        <ele>318</ele>
        <time>2021-03-21T07:27:15Z</time>
      </trkpt>
      <trkpt lat="44.04006" lon="1.68721">
        <ele>318.8</ele>
        <time>2021-03-21T07:27:19Z</time>
      </trkpt>
      <trkpt lat="44.04006" lon="1.68731">
        <ele>319.2</ele>
        <time>2021-03-21T07:27:23Z</time>
      </trkpt>
      <trkpt lat="44.04005" lon="1.68741">
        <ele>320.6</ele>
        <time>2021-03-21T07:27:27Z</time>
      </trkpt>
      <trkpt lat="44.04004" lon="1.68751">
        <ele>321</ele>
        <time>2021-03-21T07:27:31Z</time>
      </trkpt>
      <trkpt lat="44.04003" lon="1.68761">
        <ele>321.8</ele>
        <time>2021-03-21T07:27:35Z</time>
      </trkpt>
      <trkpt lat="44.04002" lon="1.68771">
        <ele>322.8</ele>
        <time>2021-03-21T07:27:39Z</time>
      </trkpt>
      <trkpt lat="44.04002" lon="1.68781">
        <ele>323.2</ele>
        <time>2021-03-21T07:27:43Z</time>
      </trkpt>
      <trkpt lat="44.04" lon="1.6879">
        <ele>323.8</ele>
        <time>2021-03-21T07:27:47Z</time>
      </trkpt>
      <trkpt lat="44.03999" lon="1.68799">
        <ele>324.8</ele>
        <time>2021-03-21T07:27:51Z</time>
      </trkpt>
      <trkpt lat="44.03997" lon="1.68809">
        <ele>325.8</ele>
        <time>2021-03-21T07:27:55Z</time>
      </trkpt>
      <trkpt lat="44.03995" lon="1.68818">
        <ele>326</ele>
        <time>2021-03-21T07:27:59Z</time>
      </trkpt>
      <trkpt lat="44.03993" lon="1.68827">
        <ele>326.6</ele>
        <time>2021-03-21T07:28:03Z</time>
      </trkpt>
      <trkpt lat="44.03991" lon="1.68837">
        <ele>327.6</ele>
        <time>2021-03-21T07:28:07Z</time>
      </trkpt>
      <trkpt lat="44.03988" lon="1.68846">
        <ele>328.4</ele>
        <time>2021-03-21T07:28:11Z</time>
      </trkpt>
      <trkpt lat="44.03986" lon="1.68855">
        <ele>329.2</ele>
        <time>2021-03-21T07:28:15Z</time>
      </trkpt>
      <trkpt lat="44.03984" lon="1.68864">
        <ele>329.2</ele>
        <time>2021-03-21T07:28:19Z</time>
      </trkpt>
      <trkpt lat="44.03981" lon="1.68873">
        <ele>330</ele>
        <time>2021-03-21T07:28:23Z</time>
      </trkpt>
      <trkpt lat="44.03978" lon="1.68882">
        <ele>330.6</ele>
        <time>2021-03-21T07:28:27Z</time>
      </trkpt>
      <trkpt lat="44.03975" lon="1.68892">
        <ele>331.2</ele>
        <time>2021-03-21T07:28:31Z</time>
      </trkpt>
      <trkpt lat="44.03972" lon="1.68901">
        <ele>331.8</ele>
        <time>2021-03-21T07:28:35Z</time>
      </trkpt>
      <trkpt lat="44.03968" lon="1.6891">
        <ele>332.4</ele>
        <time>2021-03-21T07:28:39Z</time>
      </trkpt>
      <trkpt lat="44.03964" lon="1.68919">
        <ele>332.6</ele>
        <time>2021-03-21T07:28:43Z</time>
      </trkpt>
      <trkpt lat="44.0396" lon="1.68928">
        <ele>333.2</ele>
        <time>2021-03-21T07:28:47Z</time>
      </trkpt>
      <trkpt lat="44.03955" lon="1.68936">
        <ele>333.8</ele>
        <time>2021-03-21T07:28:51Z</time>
      </trkpt>
      <trkpt lat="44.03951" lon="1.68944">
        <ele>334.2</ele>
        <time>2021-03-21T07:28:55Z</time>
      </trkpt>
      <trkpt lat="44.03946" lon="1.68951">
        <ele>335.2</ele>
        <time>2021-03-21T07:28:59Z</time>
      </trkpt>
      <trkpt lat="44.03941" lon="1.68959">
        <ele>336.2</ele>
        <time>2021-03-21T07:29:03Z</time>
      </trkpt>
      <trkpt lat="44.03935" lon="1.68967">
        <ele>336</ele>
        <time>2021-03-21T07:29:07Z</time>
      </trkpt>
      <trkpt lat="44.0393" lon="1.68975">
        <ele>336.6</ele>
        <time>2021-03-21T07:29:11Z</time>
      </trkpt>
      <trkpt lat="44.03925" lon="1.68982">
        <ele>337</ele>
        <time>2021-03-21T07:29:15Z</time>
      </trkpt>
      <trkpt lat="44.0392" lon="1.68989">
        <ele>337.6</ele>
        <time>2021-03-21T07:29:19Z</time>
      </trkpt>
      <trkpt lat="44.03915" lon="1.68996">
        <ele>338.4</ele>
        <time>2021-03-21T07:29:23Z</time>
      </trkpt>
      <trkpt lat="44.0391" lon="1.69004">
        <ele>339</ele>
        <time>2021-03-21T07:29:27Z</time>
      </trkpt>
      <trkpt lat="44.03905" lon="1.69011">
        <ele>339.4</ele>
        <time>2021-03-21T07:29:31Z</time>
      </trkpt>
      <trkpt lat="44.03899" lon="1.69018">
        <ele>340.2</ele>
        <time>2021-03-21T07:29:35Z</time>
      </trkpt>
      <trkpt lat="44.03894" lon="1.69025">
        <ele>340.8</ele>
        <time>2021-03-21T07:29:39Z</time>
      </trkpt>
      <trkpt lat="44.03889" lon="1.69032">
        <ele>341.2</ele>
        <time>2021-03-21T07:29:43Z</time>
      </trkpt>
      <trkpt lat="44.03883" lon="1.69038">
        <ele>341.8</ele>
        <time>2021-03-21T07:29:47Z</time>
      </trkpt>
      <trkpt lat="44.03878" lon="1.69045">
        <ele>342.6</ele>
        <time>2021-03-21T07:29:51Z</time>
      </trkpt>
      <trkpt lat="44.03873" lon="1.69051">
        <ele>343.4</ele>
        <time>2021-03-21T07:29:55Z</time>
      </trkpt>
      <trkpt lat="44.03867" lon="1.69057">
        <ele>344</ele>
        <time>2021-03-21T07:29:59Z</time>
      </trkpt>
      <trkpt lat="44.03862" lon="1.69063">
        <ele>344.2</ele>
        <time>2021-03-21T07:30:03Z</time>
      </trkpt>
      <trkpt lat="44.03856" lon="1.69069">
        <ele>345.2</ele>
        <time>2021-03-21T07:30:07Z</time>
      </trkpt>
      <trkpt lat="44.03851" lon="1.69075">
        <ele>346.4</ele>
        <time>2021-03-21T07:30:11Z</time>
      </trkpt>
      <trkpt lat="44.03845" lon="1.69081">
        <ele>346.8</ele>
        <time>2021-03-21T07:30:15Z</time>
      </trkpt>
      <trkpt lat="44.0384" lon="1.69086">
        <ele>347.8</ele>
        <time>2021-03-21T07:30:19Z</time>
      </trkpt>
      <trkpt lat="44.03836" lon="1.69092">
        <ele>349.2</ele>
        <time>2021-03-21T07:30:23Z</time>
      </trkpt>
      <trkpt lat="44.0383" lon="1.69097">
        <ele>349.8</ele>
        <time>2021-03-21T07:30:27Z</time>
      </trkpt>
      <trkpt lat="44.03825" lon="1.69104">
        <ele>350.2</ele>
        <time>2021-03-21T07:30:31Z</time>
      </trkpt>
      <trkpt lat="44.03819" lon="1.69111">
        <ele>351</ele>
        <time>2021-03-21T07:30:35Z</time>
      </trkpt>
      <trkpt lat="44.03813" lon="1.69116">
        <ele>351.6</ele>
        <time>2021-03-21T07:30:39Z</time>
      </trkpt>
      <trkpt lat="44.03808" lon="1.69122">
        <ele>352.2</ele>
        <time>2021-03-21T07:30:43Z</time>
      </trkpt>
      <trkpt lat="44.03802" lon="1.69128">
        <ele>353</ele>
        <time>2021-03-21T07:30:47Z</time>
      </trkpt>
      <trkpt lat="44.03796" lon="1.69135">
        <ele>353.2</ele>
        <time>2021-03-21T07:30:51Z</time>
      </trkpt>
      <trkpt lat="44.0379" lon="1.69141">
        <ele>354</ele>
        <time>2021-03-21T07:30:55Z</time>
      </trkpt>
      <trkpt lat="44.03785" lon="1.69147">
        <ele>355</ele>
        <time>2021-03-21T07:30:59Z</time>
      </trkpt>
      <trkpt lat="44.03779" lon="1.69152">
        <ele>355.2</ele>
        <time>2021-03-21T07:31:03Z</time>
      </trkpt>
      <trkpt lat="44.03773" lon="1.69159">
        <ele>356</ele>
        <time>2021-03-21T07:31:07Z</time>
      </trkpt>
      <trkpt lat="44.03767" lon="1.69165">
        <ele>356.4</ele>
        <time>2021-03-21T07:31:11Z</time>
      </trkpt>
      <trkpt lat="44.03761" lon="1.6917">
        <ele>357.6</ele>
        <time>2021-03-21T07:31:15Z</time>
      </trkpt>
      <trkpt lat="44.03755" lon="1.69175">
        <ele>358</ele>
        <time>2021-03-21T07:31:19Z</time>
      </trkpt>
      <trkpt lat="44.0375" lon="1.69179">
        <ele>359.4</ele>
        <time>2021-03-21T07:31:23Z</time>
      </trkpt>
      <trkpt lat="44.03745" lon="1.69184">
        <ele>360.4</ele>
        <time>2021-03-21T07:31:27Z</time>
      </trkpt>
      <trkpt lat="44.03738" lon="1.6919">
        <ele>361</ele>
        <time>2021-03-21T07:31:31Z</time>
      </trkpt>
      <trkpt lat="44.03732" lon="1.69195">
        <ele>361.4</ele>
        <time>2021-03-21T07:31:35Z</time>
      </trkpt>
      <trkpt lat="44.03727" lon="1.69201">
        <ele>363</ele>
        <time>2021-03-21T07:31:39Z</time>
      </trkpt>
      <trkpt lat="44.03721" lon="1.69208">
        <ele>363.2</ele>
        <time>2021-03-21T07:31:43Z</time>
      </trkpt>
      <trkpt lat="44.03716" lon="1.69215">
        <ele>364.2</ele>
        <time>2021-03-21T07:31:47Z</time>
      </trkpt>
      <trkpt lat="44.03711" lon="1.69221">
        <ele>364.8</ele>
        <time>2021-03-21T07:31:51Z</time>
      </trkpt>
      <trkpt lat="44.03706" lon="1.69227">
        <ele>365.4</ele>
        <time>2021-03-21T07:31:55Z</time>
      </trkpt>
      <trkpt lat="44.037" lon="1.69229">
        <ele>365.8</ele>
        <time>2021-03-21T07:31:59Z</time>
      </trkpt>
      <trkpt lat="44.03696" lon="1.69226">
        <ele>366</ele>
        <time>2021-03-21T07:32:03Z</time>
      </trkpt>
      <trkpt lat="44.03677" lon="1.69221">
        <ele>366.6</ele>
        <time>2021-03-21T07:34:55Z</time>
      </trkpt>
      <trkpt lat="44.03669" lon="1.69219">
        <ele>366.2</ele>
        <time>2021-03-21T07:34:59Z</time>
      </trkpt>
      <trkpt lat="44.03661" lon="1.69217">
        <ele>366.2</ele>
        <time>2021-03-21T07:35:03Z</time>
      </trkpt>
      <trkpt lat="44.03651" lon="1.69216">
        <ele>366</ele>
        <time>2021-03-21T07:35:07Z</time>
      </trkpt>
      <trkpt lat="44.03641" lon="1.69215">
        <ele>366.2</ele>
        <time>2021-03-21T07:35:11Z</time>
      </trkpt>
      <trkpt lat="44.0363" lon="1.69213">
        <ele>366.4</ele>
        <time>2021-03-21T07:35:15Z</time>
      </trkpt>
      <trkpt lat="44.0362" lon="1.69212">
        <ele>367.2</ele>
        <time>2021-03-21T07:35:19Z</time>
      </trkpt>
      <trkpt lat="44.03609" lon="1.69211">
        <ele>368.4</ele>
        <time>2021-03-21T07:35:23Z</time>
      </trkpt>
      <trkpt lat="44.03599" lon="1.6921">
        <ele>369</ele>
        <time>2021-03-21T07:35:27Z</time>
      </trkpt>
      <trkpt lat="44.03588" lon="1.69208">
        <ele>369.6</ele>
        <time>2021-03-21T07:35:31Z</time>
      </trkpt>
      <trkpt lat="44.03579" lon="1.69207">
        <ele>369.8</ele>
        <time>2021-03-21T07:35:35Z</time>
      </trkpt>
      <trkpt lat="44.0357" lon="1.69205">
        <ele>370.4</ele>
        <time>2021-03-21T07:35:39Z</time>
      </trkpt>
      <trkpt lat="44.03561" lon="1.69204">
        <ele>371.2</ele>
        <time>2021-03-21T07:35:43Z</time>
      </trkpt>
      <trkpt lat="44.0355" lon="1.69202">
        <ele>372.2</ele>
        <time>2021-03-21T07:35:47Z</time>
      </trkpt>
      <trkpt lat="44.0354" lon="1.69201">
        <ele>372.4</ele>
        <time>2021-03-21T07:35:51Z</time>
      </trkpt>
      <trkpt lat="44.03529" lon="1.692">
        <ele>372.8</ele>
        <time>2021-03-21T07:35:55Z</time>
      </trkpt>
      <trkpt lat="44.0352" lon="1.69202">
        <ele>374</ele>
        <time>2021-03-21T07:35:59Z</time>
      </trkpt>
      <trkpt lat="44.03512" lon="1.69208">
        <ele>374.8</ele>
        <time>2021-03-21T07:36:03Z</time>
      </trkpt>
      <trkpt lat="44.03503" lon="1.69214">
        <ele>375</ele>
        <time>2021-03-21T07:36:07Z</time>
      </trkpt>
      <trkpt lat="44.03495" lon="1.6922">
        <ele>375.4</ele>
        <time>2021-03-21T07:36:11Z</time>
      </trkpt>
      <trkpt lat="44.03486" lon="1.69224">
        <ele>376.2</ele>
        <time>2021-03-21T07:36:15Z</time>
      </trkpt>
      <trkpt lat="44.03479" lon="1.69229">
        <ele>376.2</ele>
        <time>2021-03-21T07:36:19Z</time>
      </trkpt>
      <trkpt lat="44.03471" lon="1.69233">
        <ele>376.2</ele>
        <time>2021-03-21T07:36:23Z</time>
      </trkpt>
      <trkpt lat="44.03461" lon="1.69236">
        <ele>375.6</ele>
        <time>2021-03-21T07:36:27Z</time>
      </trkpt>
      <trkpt lat="44.0345" lon="1.69235">
        <ele>374.6</ele>
        <time>2021-03-21T07:36:31Z</time>
      </trkpt>
      <trkpt lat="44.03437" lon="1.69229">
        <ele>374.4</ele>
        <time>2021-03-21T07:36:35Z</time>
      </trkpt>
      <trkpt lat="44.03424" lon="1.69223">
        <ele>374</ele>
        <time>2021-03-21T07:36:39Z</time>
      </trkpt>
      <trkpt lat="44.0341" lon="1.69219">
        <ele>374.2</ele>
        <time>2021-03-21T07:36:43Z</time>
      </trkpt>
      <trkpt lat="44.03395" lon="1.69213">
        <ele>373.6</ele>
        <time>2021-03-21T07:36:47Z</time>
      </trkpt>
      <trkpt lat="44.0338" lon="1.69207">
        <ele>373.8</ele>
        <time>2021-03-21T07:36:51Z</time>
      </trkpt>
      <trkpt lat="44.03365" lon="1.69201">
        <ele>374</ele>
        <time>2021-03-21T07:36:55Z</time>
      </trkpt>
      <trkpt lat="44.0335" lon="1.69195">
        <ele>374</ele>
        <time>2021-03-21T07:36:59Z</time>
      </trkpt>
      <trkpt lat="44.03337" lon="1.69189">
        <ele>374</ele>
        <time>2021-03-21T07:37:03Z</time>
      </trkpt>
      <trkpt lat="44.03323" lon="1.69184">
        <ele>374.2</ele>
        <time>2021-03-21T07:37:07Z</time>
      </trkpt>
      <trkpt lat="44.03308" lon="1.69179">
        <ele>373</ele>
        <time>2021-03-21T07:37:11Z</time>
      </trkpt>
      <trkpt lat="44.03291" lon="1.69177">
        <ele>372.6</ele>
        <time>2021-03-21T07:37:15Z</time>
      </trkpt>
      <trkpt lat="44.03282" lon="1.69189">
        <ele>372.8</ele>
        <time>2021-03-21T07:37:19Z</time>
      </trkpt>
      <trkpt lat="44.03276" lon="1.69202">
        <ele>372.2</ele>
        <time>2021-03-21T07:37:23Z</time>
      </trkpt>
      <trkpt lat="44.03272" lon="1.69216">
        <ele>372</ele>
        <time>2021-03-21T07:37:27Z</time>
      </trkpt>
      <trkpt lat="44.03267" lon="1.69232">
        <ele>372</ele>
        <time>2021-03-21T07:37:31Z</time>
      </trkpt>
      <trkpt lat="44.03262" lon="1.6925">
        <ele>371.4</ele>
        <time>2021-03-21T07:37:35Z</time>
      </trkpt>
      <trkpt lat="44.03257" lon="1.69269">
        <ele>370.6</ele>
        <time>2021-03-21T07:37:39Z</time>
      </trkpt>
      <trkpt lat="44.03251" lon="1.69293">
        <ele>369.4</ele>
        <time>2021-03-21T07:37:43Z</time>
      </trkpt>
      <trkpt lat="44.03243" lon="1.69318">
        <ele>368.8</ele>
        <time>2021-03-21T07:37:47Z</time>
      </trkpt>
      <trkpt lat="44.03239" lon="1.6934">
        <ele>368.2</ele>
        <time>2021-03-21T07:37:51Z</time>
      </trkpt>
      <trkpt lat="44.03232" lon="1.69363">
        <ele>366.2</ele>
        <time>2021-03-21T07:37:55Z</time>
      </trkpt>
      <trkpt lat="44.03224" lon="1.6939">
        <ele>363.2</ele>
        <time>2021-03-21T07:37:59Z</time>
      </trkpt>
      <trkpt lat="44.03218" lon="1.69426">
        <ele>361.4</ele>
        <time>2021-03-21T07:38:03Z</time>
      </trkpt>
      <trkpt lat="44.032" lon="1.69439">
        <ele>363.2</ele>
        <time>2021-03-21T07:38:07Z</time>
      </trkpt>
      <trkpt lat="44.03184" lon="1.6943">
        <ele>363.2</ele>
        <time>2021-03-21T07:38:11Z</time>
      </trkpt>
      <trkpt lat="44.03171" lon="1.69421">
        <ele>363.2</ele>
        <time>2021-03-21T07:38:15Z</time>
      </trkpt>
      <trkpt lat="44.03158" lon="1.69413">
        <ele>364</ele>
        <time>2021-03-21T07:38:19Z</time>
      </trkpt>
      <trkpt lat="44.03144" lon="1.69405">
        <ele>363.4</ele>
        <time>2021-03-21T07:38:23Z</time>
      </trkpt>
      <trkpt lat="44.03131" lon="1.69398">
        <ele>363.2</ele>
        <time>2021-03-21T07:38:27Z</time>
      </trkpt>
      <trkpt lat="44.03118" lon="1.69391">
        <ele>363.8</ele>
        <time>2021-03-21T07:38:31Z</time>
      </trkpt>
      <trkpt lat="44.03105" lon="1.69385">
        <ele>365</ele>
        <time>2021-03-21T07:38:35Z</time>
      </trkpt>
      <trkpt lat="44.03095" lon="1.69378">
        <ele>365.8</ele>
        <time>2021-03-21T07:38:39Z</time>
      </trkpt>
      <trkpt lat="44.03086" lon="1.69374">
        <ele>366.4</ele>
        <time>2021-03-21T07:38:43Z</time>
      </trkpt>
      <trkpt lat="44.03078" lon="1.69369">
        <ele>367.2</ele>
        <time>2021-03-21T07:38:47Z</time>
      </trkpt>
      <trkpt lat="44.03069" lon="1.69364">
        <ele>367.4</ele>
        <time>2021-03-21T07:38:51Z</time>
      </trkpt>
      <trkpt lat="44.0306" lon="1.69358">
        <ele>368</ele>
        <time>2021-03-21T07:38:55Z</time>
      </trkpt>
      <trkpt lat="44.03051" lon="1.69353">
        <ele>368.8</ele>
        <time>2021-03-21T07:38:59Z</time>
      </trkpt>
      <trkpt lat="44.03042" lon="1.69347">
        <ele>370</ele>
        <time>2021-03-21T07:39:03Z</time>
      </trkpt>
      <trkpt lat="44.03033" lon="1.69342">
        <ele>370.2</ele>
        <time>2021-03-21T07:39:07Z</time>
      </trkpt>
      <trkpt lat="44.0302" lon="1.69334">
        <ele>371</ele>
        <time>2021-03-21T07:39:11Z</time>
      </trkpt>
      <trkpt lat="44.03008" lon="1.6933">
        <ele>371.2</ele>
        <time>2021-03-21T07:39:15Z</time>
      </trkpt>
      <trkpt lat="44.02998" lon="1.69329">
        <ele>371.4</ele>
        <time>2021-03-21T07:39:19Z</time>
      </trkpt>
      <trkpt lat="44.02989" lon="1.69327">
        <ele>371.6</ele>
        <time>2021-03-21T07:39:23Z</time>
      </trkpt>
      <trkpt lat="44.02976" lon="1.69325">
        <ele>369.2</ele>
        <time>2021-03-21T07:39:27Z</time>
      </trkpt>
      <trkpt lat="44.02959" lon="1.69321">
        <ele>367.4</ele>
        <time>2021-03-21T07:39:31Z</time>
      </trkpt>
      <trkpt lat="44.0294" lon="1.69312">
        <ele>366.8</ele>
        <time>2021-03-21T07:39:35Z</time>
      </trkpt>
      <trkpt lat="44.02923" lon="1.69303">
        <ele>368.6</ele>
        <time>2021-03-21T07:39:39Z</time>
      </trkpt>
      <trkpt lat="44.02906" lon="1.69298">
        <ele>371</ele>
        <time>2021-03-21T07:39:43Z</time>
      </trkpt>
      <trkpt lat="44.02894" lon="1.69298">
        <ele>371.6</ele>
        <time>2021-03-21T07:39:47Z</time>
      </trkpt>
      <trkpt lat="44.02886" lon="1.69298">
        <ele>373.4</ele>
        <time>2021-03-21T07:39:51Z</time>
      </trkpt>
      <trkpt lat="44.02878" lon="1.69298">
        <ele>373.6</ele>
        <time>2021-03-21T07:39:55Z</time>
      </trkpt>
      <trkpt lat="44.02869" lon="1.69298">
        <ele>374.6</ele>
        <time>2021-03-21T07:39:59Z</time>
      </trkpt>
      <trkpt lat="44.02862" lon="1.69297">
        <ele>375</ele>
        <time>2021-03-21T07:40:03Z</time>
      </trkpt>
      <trkpt lat="44.02854" lon="1.69295">
        <ele>375.6</ele>
        <time>2021-03-21T07:40:07Z</time>
      </trkpt>
      <trkpt lat="44.02846" lon="1.69295">
        <ele>376.6</ele>
        <time>2021-03-21T07:40:11Z</time>
      </trkpt>
      <trkpt lat="44.02837" lon="1.69294">
        <ele>377.4</ele>
        <time>2021-03-21T07:40:15Z</time>
      </trkpt>
      <trkpt lat="44.02829" lon="1.69295">
        <ele>378</ele>
        <time>2021-03-21T07:40:19Z</time>
      </trkpt>
      <trkpt lat="44.02822" lon="1.69295">
        <ele>378.6</ele>
        <time>2021-03-21T07:40:23Z</time>
      </trkpt>
      <trkpt lat="44.02814" lon="1.69295">
        <ele>379.8</ele>
        <time>2021-03-21T07:40:27Z</time>
      </trkpt>
      <trkpt lat="44.02807" lon="1.69295">
        <ele>380</ele>
        <time>2021-03-21T07:40:31Z</time>
      </trkpt>
      <trkpt lat="44.028" lon="1.69294">
        <ele>380.4</ele>
        <time>2021-03-21T07:40:35Z</time>
      </trkpt>
      <trkpt lat="44.02792" lon="1.69293">
        <ele>381.2</ele>
        <time>2021-03-21T07:40:39Z</time>
      </trkpt>
      <trkpt lat="44.02784" lon="1.69292">
        <ele>381.2</ele>
        <time>2021-03-21T07:40:43Z</time>
      </trkpt>
      <trkpt lat="44.02776" lon="1.69291">
        <ele>381.8</ele>
        <time>2021-03-21T07:40:47Z</time>
      </trkpt>
      <trkpt lat="44.02766" lon="1.69289">
        <ele>382.4</ele>
        <time>2021-03-21T07:40:51Z</time>
      </trkpt>
      <trkpt lat="44.02757" lon="1.69289">
        <ele>382</ele>
        <time>2021-03-21T07:40:55Z</time>
      </trkpt>
      <trkpt lat="44.02747" lon="1.69288">
        <ele>381.4</ele>
        <time>2021-03-21T07:40:59Z</time>
      </trkpt>
      <trkpt lat="44.02738" lon="1.69287">
        <ele>381.2</ele>
        <time>2021-03-21T07:41:03Z</time>
      </trkpt>
      <trkpt lat="44.02727" lon="1.69284">
        <ele>381.6</ele>
        <time>2021-03-21T07:41:07Z</time>
      </trkpt>
      <trkpt lat="44.02716" lon="1.69282">
        <ele>381.6</ele>
        <time>2021-03-21T07:41:11Z</time>
      </trkpt>
      <trkpt lat="44.02704" lon="1.69279">
        <ele>381.8</ele>
        <time>2021-03-21T07:41:15Z</time>
      </trkpt>
      <trkpt lat="44.02691" lon="1.69275">
        <ele>382.6</ele>
        <time>2021-03-21T07:41:19Z</time>
      </trkpt>
      <trkpt lat="44.02679" lon="1.69273">
        <ele>383.2</ele>
        <time>2021-03-21T07:41:23Z</time>
      </trkpt>
      <trkpt lat="44.02666" lon="1.6927">
        <ele>384.6</ele>
        <time>2021-03-21T07:41:27Z</time>
      </trkpt>
      <trkpt lat="44.02653" lon="1.69267">
        <ele>384.2</ele>
        <time>2021-03-21T07:41:31Z</time>
      </trkpt>
      <trkpt lat="44.02641" lon="1.69264">
        <ele>384.2</ele>
        <time>2021-03-21T07:41:35Z</time>
      </trkpt>
      <trkpt lat="44.02627" lon="1.69264">
        <ele>384.4</ele>
        <time>2021-03-21T07:41:39Z</time>
      </trkpt>
      <trkpt lat="44.02614" lon="1.69264">
        <ele>385</ele>
        <time>2021-03-21T07:41:43Z</time>
      </trkpt>
      <trkpt lat="44.02602" lon="1.69264">
        <ele>385.6</ele>
        <time>2021-03-21T07:41:47Z</time>
      </trkpt>
      <trkpt lat="44.0259" lon="1.69265">
        <ele>386.2</ele>
        <time>2021-03-21T07:41:51Z</time>
      </trkpt>
      <trkpt lat="44.0258" lon="1.69265">
        <ele>386</ele>
        <time>2021-03-21T07:41:55Z</time>
      </trkpt>
      <trkpt lat="44.0257" lon="1.69266">
        <ele>386</ele>
        <time>2021-03-21T07:41:59Z</time>
      </trkpt>
      <trkpt lat="44.02558" lon="1.69266">
        <ele>386</ele>
        <time>2021-03-21T07:42:03Z</time>
      </trkpt>
      <trkpt lat="44.02546" lon="1.69267">
        <ele>386</ele>
        <time>2021-03-21T07:42:07Z</time>
      </trkpt>
      <trkpt lat="44.02534" lon="1.69265">
        <ele>386</ele>
        <time>2021-03-21T07:42:11Z</time>
      </trkpt>
      <trkpt lat="44.02523" lon="1.69264">
        <ele>386.4</ele>
        <time>2021-03-21T07:42:15Z</time>
      </trkpt>
      <trkpt lat="44.02512" lon="1.69264">
        <ele>386.2</ele>
        <time>2021-03-21T07:42:19Z</time>
      </trkpt>
      <trkpt lat="44.025" lon="1.69263">
        <ele>387</ele>
        <time>2021-03-21T07:42:23Z</time>
      </trkpt>
      <trkpt lat="44.02489" lon="1.69264">
        <ele>388.2</ele>
        <time>2021-03-21T07:42:27Z</time>
      </trkpt>
      <trkpt lat="44.02477" lon="1.69263">
        <ele>388.4</ele>
        <time>2021-03-21T07:42:31Z</time>
      </trkpt>
      <trkpt lat="44.02467" lon="1.69263">
        <ele>389.4</ele>
        <time>2021-03-21T07:42:35Z</time>
      </trkpt>
      <trkpt lat="44.02456" lon="1.69262">
        <ele>390.2</ele>
        <time>2021-03-21T07:42:39Z</time>
      </trkpt>
      <trkpt lat="44.02446" lon="1.6926">
        <ele>391</ele>
        <time>2021-03-21T07:42:43Z</time>
      </trkpt>
      <trkpt lat="44.02435" lon="1.69257">
        <ele>392.2</ele>
        <time>2021-03-21T07:42:47Z</time>
      </trkpt>
      <trkpt lat="44.02423" lon="1.69255">
        <ele>392.2</ele>
        <time>2021-03-21T07:42:51Z</time>
      </trkpt>
      <trkpt lat="44.02412" lon="1.69254">
        <ele>392.4</ele>
        <time>2021-03-21T07:42:55Z</time>
      </trkpt>
      <trkpt lat="44.02401" lon="1.69252">
        <ele>392.6</ele>
        <time>2021-03-21T07:42:59Z</time>
      </trkpt>
      <trkpt lat="44.02388" lon="1.69252">
        <ele>393</ele>
        <time>2021-03-21T07:43:03Z</time>
      </trkpt>
      <trkpt lat="44.02376" lon="1.69253">
        <ele>394</ele>
        <time>2021-03-21T07:43:07Z</time>
      </trkpt>
      <trkpt lat="44.02363" lon="1.69251">
        <ele>394.6</ele>
        <time>2021-03-21T07:43:11Z</time>
      </trkpt>
      <trkpt lat="44.02351" lon="1.6925">
        <ele>395.2</ele>
        <time>2021-03-21T07:43:15Z</time>
      </trkpt>
      <trkpt lat="44.0234" lon="1.6925">
        <ele>395.6</ele>
        <time>2021-03-21T07:43:19Z</time>
      </trkpt>
      <trkpt lat="44.02329" lon="1.69248">
        <ele>394.6</ele>
        <time>2021-03-21T07:43:23Z</time>
      </trkpt>
      <trkpt lat="44.02314" lon="1.69247">
        <ele>394</ele>
        <time>2021-03-21T07:43:27Z</time>
      </trkpt>
      <trkpt lat="44.02298" lon="1.69244">
        <ele>393</ele>
        <time>2021-03-21T07:43:31Z</time>
      </trkpt>
      <trkpt lat="44.02282" lon="1.6924">
        <ele>391.2</ele>
        <time>2021-03-21T07:43:35Z</time>
      </trkpt>
      <trkpt lat="44.02264" lon="1.69241">
        <ele>391</ele>
        <time>2021-03-21T07:43:39Z</time>
      </trkpt>
      <trkpt lat="44.02238" lon="1.69241">
        <ele>387.8</ele>
        <time>2021-03-21T07:43:43Z</time>
      </trkpt>
      <trkpt lat="44.02211" lon="1.69243">
        <ele>386</ele>
        <time>2021-03-21T07:43:47Z</time>
      </trkpt>
      <trkpt lat="44.02191" lon="1.69257">
        <ele>386.4</ele>
        <time>2021-03-21T07:43:51Z</time>
      </trkpt>
      <trkpt lat="44.02183" lon="1.6927">
        <ele>387</ele>
        <time>2021-03-21T07:43:55Z</time>
      </trkpt>
      <trkpt lat="44.02176" lon="1.6927">
        <ele>386.4</ele>
        <time>2021-03-21T07:46:19Z</time>
      </trkpt>
      <trkpt lat="44.02159" lon="1.69288">
        <ele>385</ele>
        <time>2021-03-21T07:47:09Z</time>
      </trkpt>
      <trkpt lat="44.02154" lon="1.69304">
        <ele>385</ele>
        <time>2021-03-21T07:47:13Z</time>
      </trkpt>
      <trkpt lat="44.02151" lon="1.69324">
        <ele>382.6</ele>
        <time>2021-03-21T07:47:17Z</time>
      </trkpt>
      <trkpt lat="44.02152" lon="1.6935">
        <ele>380.6</ele>
        <time>2021-03-21T07:47:21Z</time>
      </trkpt>
      <trkpt lat="44.02154" lon="1.6938">
        <ele>378.4</ele>
        <time>2021-03-21T07:47:25Z</time>
      </trkpt>
      <trkpt lat="44.02154" lon="1.69405">
        <ele>377.8</ele>
        <time>2021-03-21T07:47:29Z</time>
      </trkpt>
      <trkpt lat="44.02155" lon="1.69433">
        <ele>378</ele>
        <time>2021-03-21T07:47:33Z</time>
      </trkpt>
      <trkpt lat="44.02159" lon="1.69457">
        <ele>376.4</ele>
        <time>2021-03-21T07:47:37Z</time>
      </trkpt>
      <trkpt lat="44.02158" lon="1.69478">
        <ele>375.4</ele>
        <time>2021-03-21T07:47:41Z</time>
      </trkpt>
      <trkpt lat="44.02163" lon="1.69499">
        <ele>375</ele>
        <time>2021-03-21T07:47:45Z</time>
      </trkpt>
      <trkpt lat="44.02168" lon="1.69522">
        <ele>373.4</ele>
        <time>2021-03-21T07:47:49Z</time>
      </trkpt>
      <trkpt lat="44.02176" lon="1.69542">
        <ele>371.8</ele>
        <time>2021-03-21T07:47:53Z</time>
      </trkpt>
      <trkpt lat="44.02186" lon="1.69559">
        <ele>371.8</ele>
        <time>2021-03-21T07:47:57Z</time>
      </trkpt>
      <trkpt lat="44.02197" lon="1.69584">
        <ele>366.8</ele>
        <time>2021-03-21T07:48:01Z</time>
      </trkpt>
      <trkpt lat="44.02214" lon="1.69606">
        <ele>363.6</ele>
        <time>2021-03-21T07:48:05Z</time>
      </trkpt>
      <trkpt lat="44.02226" lon="1.69617">
        <ele>362.6</ele>
        <time>2021-03-21T07:48:09Z</time>
      </trkpt>
      <trkpt lat="44.02238" lon="1.69623">
        <ele>361.6</ele>
        <time>2021-03-21T07:48:13Z</time>
      </trkpt>
      <trkpt lat="44.02249" lon="1.69648">
        <ele>357.8</ele>
        <time>2021-03-21T07:48:33Z</time>
      </trkpt>
      <trkpt lat="44.02243" lon="1.69665">
        <ele>351.8</ele>
        <time>2021-03-21T07:48:37Z</time>
      </trkpt>
      <trkpt lat="44.02234" lon="1.69683">
        <ele>346.6</ele>
        <time>2021-03-21T07:48:41Z</time>
      </trkpt>
      <trkpt lat="44.02233" lon="1.69706">
        <ele>339.2</ele>
        <time>2021-03-21T07:48:45Z</time>
      </trkpt>
      <trkpt lat="44.02224" lon="1.69719">
        <ele>334.6</ele>
        <time>2021-03-21T07:48:49Z</time>
      </trkpt>
      <trkpt lat="44.02225" lon="1.69736">
        <ele>329.8</ele>
        <time>2021-03-21T07:48:53Z</time>
      </trkpt>
      <trkpt lat="44.02222" lon="1.69748">
        <ele>327</ele>
        <time>2021-03-21T07:48:57Z</time>
      </trkpt>
      <trkpt lat="44.02216" lon="1.69756">
        <ele>324</ele>
        <time>2021-03-21T07:49:01Z</time>
      </trkpt>
      <trkpt lat="44.0221" lon="1.69768">
        <ele>320.4</ele>
        <time>2021-03-21T07:49:05Z</time>
      </trkpt>
      <trkpt lat="44.02207" lon="1.69779">
        <ele>317.4</ele>
        <time>2021-03-21T07:49:09Z</time>
      </trkpt>
      <trkpt lat="44.02204" lon="1.69783">
        <ele>316.4</ele>
        <time>2021-03-21T07:49:13Z</time>
      </trkpt>
      <trkpt lat="44.02198" lon="1.69787">
        <ele>313.6</ele>
        <time>2021-03-21T07:49:17Z</time>
      </trkpt>
      <trkpt lat="44.02188" lon="1.69797">
        <ele>310</ele>
        <time>2021-03-21T07:49:21Z</time>
      </trkpt>
      <trkpt lat="44.02184" lon="1.69809">
        <ele>307.4</ele>
        <time>2021-03-21T07:49:25Z</time>
      </trkpt>
      <trkpt lat="44.02183" lon="1.69825">
        <ele>304.6</ele>
        <time>2021-03-21T07:49:29Z</time>
      </trkpt>
      <trkpt lat="44.0218" lon="1.69834">
        <ele>303.6</ele>
        <time>2021-03-21T07:49:33Z</time>
      </trkpt>
      <trkpt lat="44.0217" lon="1.69847">
        <ele>300.6</ele>
        <time>2021-03-21T07:49:37Z</time>
      </trkpt>
      <trkpt lat="44.02161" lon="1.69861">
        <ele>297.4</ele>
        <time>2021-03-21T07:49:41Z</time>
      </trkpt>
      <trkpt lat="44.02151" lon="1.69867">
        <ele>293</ele>
        <time>2021-03-21T07:49:45Z</time>
      </trkpt>
      <trkpt lat="44.02139" lon="1.69865">
        <ele>290.4</ele>
        <time>2021-03-21T07:49:49Z</time>
      </trkpt>
      <trkpt lat="44.02129" lon="1.69863">
        <ele>285.4</ele>
        <time>2021-03-21T07:49:53Z</time>
      </trkpt>
      <trkpt lat="44.02125" lon="1.69872">
        <ele>283.4</ele>
        <time>2021-03-21T07:49:57Z</time>
      </trkpt>
      <trkpt lat="44.02124" lon="1.69885">
        <ele>280.8</ele>
        <time>2021-03-21T07:50:01Z</time>
      </trkpt>
      <trkpt lat="44.02123" lon="1.69899">
        <ele>280.4</ele>
        <time>2021-03-21T07:50:05Z</time>
      </trkpt>
      <trkpt lat="44.02119" lon="1.69912">
        <ele>278.2</ele>
        <time>2021-03-21T07:50:09Z</time>
      </trkpt>
      <trkpt lat="44.02103" lon="1.69934">
        <ele>272.2</ele>
        <time>2021-03-21T07:51:36Z</time>
      </trkpt>
      <trkpt lat="44.02098" lon="1.69943">
        <ele>268.8</ele>
        <time>2021-03-21T07:51:40Z</time>
      </trkpt>
      <trkpt lat="44.02099" lon="1.69947">
        <ele>268.2</ele>
        <time>2021-03-21T07:51:44Z</time>
      </trkpt>
      <trkpt lat="44.02096" lon="1.69953">
        <ele>266.2</ele>
        <time>2021-03-21T07:51:48Z</time>
      </trkpt>
      <trkpt lat="44.02096" lon="1.69962">
        <ele>264</ele>
        <time>2021-03-21T07:51:52Z</time>
      </trkpt>
      <trkpt lat="44.02096" lon="1.69976">
        <ele>263.2</ele>
        <time>2021-03-21T07:51:56Z</time>
      </trkpt>
      <trkpt lat="44.02091" lon="1.69993">
        <ele>258</ele>
        <time>2021-03-21T07:52:00Z</time>
      </trkpt>
      <trkpt lat="44.02083" lon="1.70008">
        <ele>253</ele>
        <time>2021-03-21T07:52:04Z</time>
      </trkpt>
      <trkpt lat="44.02077" lon="1.70013">
        <ele>248.4</ele>
        <time>2021-03-21T07:52:08Z</time>
      </trkpt>
      <trkpt lat="44.02078" lon="1.7003">
        <ele>243.8</ele>
        <time>2021-03-21T07:52:12Z</time>
      </trkpt>
      <trkpt lat="44.0207" lon="1.70037">
        <ele>237.8</ele>
        <time>2021-03-21T07:52:16Z</time>
      </trkpt>
      <trkpt lat="44.02059" lon="1.70028">
        <ele>233.8</ele>
        <time>2021-03-21T07:52:20Z</time>
      </trkpt>
      <trkpt lat="44.02051" lon="1.70027">
        <ele>230.6</ele>
        <time>2021-03-21T07:52:24Z</time>
      </trkpt>
      <trkpt lat="44.02043" lon="1.70046">
        <ele>224</ele>
        <time>2021-03-21T07:52:28Z</time>
      </trkpt>
      <trkpt lat="44.02033" lon="1.70049">
        <ele>220.8</ele>
        <time>2021-03-21T07:52:32Z</time>
      </trkpt>
      <trkpt lat="44.02014" lon="1.7004">
        <ele>215.8</ele>
        <time>2021-03-21T07:52:36Z</time>
      </trkpt>
      <trkpt lat="44.02" lon="1.70037">
        <ele>214.6</ele>
        <time>2021-03-21T07:52:40Z</time>
      </trkpt>
      <trkpt lat="44.01983" lon="1.70042">
        <ele>213.8</ele>
        <time>2021-03-21T07:52:44Z</time>
      </trkpt>
      <trkpt lat="44.01973" lon="1.70056">
        <ele>215</ele>
        <time>2021-03-21T07:52:48Z</time>
      </trkpt>
      <trkpt lat="44.0196" lon="1.70066">
        <ele>214.6</ele>
        <time>2021-03-21T07:52:52Z</time>
      </trkpt>
      <trkpt lat="44.01945" lon="1.7007">
        <ele>214.8</ele>
        <time>2021-03-21T07:52:56Z</time>
      </trkpt>
      <trkpt lat="44.01937" lon="1.70069">
        <ele>215.8</ele>
        <time>2021-03-21T07:53:00Z</time>
      </trkpt>
      <trkpt lat="44.01921" lon="1.70073">
        <ele>215.2</ele>
        <time>2021-03-21T07:53:04Z</time>
      </trkpt>
      <trkpt lat="44.01908" lon="1.7007">
        <ele>215.6</ele>
        <time>2021-03-21T07:53:08Z</time>
      </trkpt>
      <trkpt lat="44.01894" lon="1.70071">
        <ele>213.6</ele>
        <time>2021-03-21T07:53:12Z</time>
      </trkpt>
      <trkpt lat="44.01878" lon="1.70074">
        <ele>211.4</ele>
        <time>2021-03-21T07:53:16Z</time>
      </trkpt>
      <trkpt lat="44.01862" lon="1.70075">
        <ele>210.8</ele>
        <time>2021-03-21T07:53:20Z</time>
      </trkpt>
      <trkpt lat="44.01849" lon="1.70071">
        <ele>210.8</ele>
        <time>2021-03-21T07:53:24Z</time>
      </trkpt>
      <trkpt lat="44.01834" lon="1.70058">
        <ele>209</ele>
        <time>2021-03-21T07:53:28Z</time>
      </trkpt>
      <trkpt lat="44.01818" lon="1.70043">
        <ele>206.2</ele>
        <time>2021-03-21T07:53:32Z</time>
      </trkpt>
      <trkpt lat="44.01802" lon="1.7004">
        <ele>208.2</ele>
        <time>2021-03-21T07:53:36Z</time>
      </trkpt>
      <trkpt lat="44.01786" lon="1.70034">
        <ele>206.4</ele>
        <time>2021-03-21T07:53:40Z</time>
      </trkpt>
      <trkpt lat="44.01769" lon="1.70029">
        <ele>203.4</ele>
        <time>2021-03-21T07:53:44Z</time>
      </trkpt>
      <trkpt lat="44.01754" lon="1.70019">
        <ele>203.4</ele>
        <time>2021-03-21T07:53:48Z</time>
      </trkpt>
      <trkpt lat="44.01736" lon="1.70011">
        <ele>204</ele>
        <time>2021-03-21T07:53:52Z</time>
      </trkpt>
      <trkpt lat="44.01713" lon="1.70009">
        <ele>200.4</ele>
        <time>2021-03-21T07:53:56Z</time>
      </trkpt>
      <trkpt lat="44.017" lon="1.70009">
        <ele>197.8</ele>
        <time>2021-03-21T07:54:00Z</time>
      </trkpt>
      <trkpt lat="44.01688" lon="1.70004">
        <ele>197.4</ele>
        <time>2021-03-21T07:54:04Z</time>
      </trkpt>
      <trkpt lat="44.01678" lon="1.70001">
        <ele>196.6</ele>
        <time>2021-03-21T07:54:08Z</time>
      </trkpt>
      <trkpt lat="44.01668" lon="1.69996">
        <ele>195</ele>
        <time>2021-03-21T07:54:12Z</time>
      </trkpt>
      <trkpt lat="44.01658" lon="1.69991">
        <ele>193.8</ele>
        <time>2021-03-21T07:54:16Z</time>
      </trkpt>
      <trkpt lat="44.01651" lon="1.69994">
        <ele>193.4</ele>
        <time>2021-03-21T07:54:20Z</time>
      </trkpt>
      <trkpt lat="44.01651" lon="1.69998">
        <ele>194.4</ele>
        <time>2021-03-21T07:54:24Z</time>
      </trkpt>
      <trkpt lat="44.01653" lon="1.70002">
        <ele>195.2</ele>
        <time>2021-03-21T07:54:28Z</time>
      </trkpt>
      <trkpt lat="44.01654" lon="1.70006">
        <ele>196.6</ele>
        <time>2021-03-21T07:54:32Z</time>
      </trkpt>
      <trkpt lat="44.01652" lon="1.70007">
        <ele>197.2</ele>
        <time>2021-03-21T07:54:36Z</time>
      </trkpt>
      <trkpt lat="44.01617" lon="1.70007">
        <ele>200.4</ele>
        <time>2021-03-21T08:01:42Z</time>
      </trkpt>
      <trkpt lat="44.01611" lon="1.70008">
        <ele>200.4</ele>
        <time>2021-03-21T08:01:46Z</time>
      </trkpt>
      <trkpt lat="44.01602" lon="1.7001">
        <ele>200.4</ele>
        <time>2021-03-21T08:01:50Z</time>
      </trkpt>
      <trkpt lat="44.01594" lon="1.70013">
        <ele>200.8</ele>
        <time>2021-03-21T08:01:54Z</time>
      </trkpt>
      <trkpt lat="44.01588" lon="1.70015">
        <ele>199.8</ele>
        <time>2021-03-21T08:01:58Z</time>
      </trkpt>
      <trkpt lat="44.01577" lon="1.70014">
        <ele>198.4</ele>
        <time>2021-03-21T08:02:02Z</time>
      </trkpt>
      <trkpt lat="44.01566" lon="1.70011">
        <ele>196.2</ele>
        <time>2021-03-21T08:02:06Z</time>
      </trkpt>
      <trkpt lat="44.01553" lon="1.70006">
        <ele>193.2</ele>
        <time>2021-03-21T08:02:10Z</time>
      </trkpt>
      <trkpt lat="44.01548" lon="1.69997">
        <ele>191.8</ele>
        <time>2021-03-21T08:02:14Z</time>
      </trkpt>
      <trkpt lat="44.01541" lon="1.69986">
        <ele>190.2</ele>
        <time>2021-03-21T08:02:18Z</time>
      </trkpt>
      <trkpt lat="44.01536" lon="1.69973">
        <ele>190.2</ele>
        <time>2021-03-21T08:02:22Z</time>
      </trkpt>
      <trkpt lat="44.01533" lon="1.69964">
        <ele>189.8</ele>
        <time>2021-03-21T08:02:26Z</time>
      </trkpt>
      <trkpt lat="44.01527" lon="1.69949">
        <ele>189.2</ele>
        <time>2021-03-21T08:02:30Z</time>
      </trkpt>
      <trkpt lat="44.01519" lon="1.69938">
        <ele>189.2</ele>
        <time>2021-03-21T08:02:34Z</time>
      </trkpt>
      <trkpt lat="44.01508" lon="1.69929">
        <ele>188.8</ele>
        <time>2021-03-21T08:02:38Z</time>
      </trkpt>
      <trkpt lat="44.01501" lon="1.69924">
        <ele>188.6</ele>
        <time>2021-03-21T08:02:42Z</time>
      </trkpt>
      <trkpt lat="44.01496" lon="1.6992">
        <ele>188.2</ele>
        <time>2021-03-21T08:02:46Z</time>
      </trkpt>
      <trkpt lat="44.01492" lon="1.69918">
        <ele>188</ele>
        <time>2021-03-21T08:02:50Z</time>
      </trkpt>
      <trkpt lat="44.01487" lon="1.69915">
        <ele>187.4</ele>
        <time>2021-03-21T08:02:54Z</time>
      </trkpt>
      <trkpt lat="44.0147" lon="1.69907">
        <ele>188.4</ele>
        <time>2021-03-21T08:03:13Z</time>
      </trkpt>
      <trkpt lat="44.01464" lon="1.69902">
        <ele>188.4</ele>
        <time>2021-03-21T08:03:17Z</time>
      </trkpt>
      <trkpt lat="44.01458" lon="1.69892">
        <ele>188.4</ele>
        <time>2021-03-21T08:03:21Z</time>
      </trkpt>
      <trkpt lat="44.01451" lon="1.69881">
        <ele>187.6</ele>
        <time>2021-03-21T08:03:25Z</time>
      </trkpt>
      <trkpt lat="44.01441" lon="1.69869">
        <ele>187</ele>
        <time>2021-03-21T08:03:29Z</time>
      </trkpt>
      <trkpt lat="44.01437" lon="1.69852">
        <ele>186.4</ele>
        <time>2021-03-21T08:03:33Z</time>
      </trkpt>
      <trkpt lat="44.01435" lon="1.6983">
        <ele>184.4</ele>
        <time>2021-03-21T08:03:37Z</time>
      </trkpt>
      <trkpt lat="44.01433" lon="1.69806">
        <ele>184.8</ele>
        <time>2021-03-21T08:03:41Z</time>
      </trkpt>
      <trkpt lat="44.01424" lon="1.69787">
        <ele>185</ele>
        <time>2021-03-21T08:03:45Z</time>
      </trkpt>
      <trkpt lat="44.01418" lon="1.6977">
        <ele>183.6</ele>
        <time>2021-03-21T08:03:49Z</time>
      </trkpt>
      <trkpt lat="44.01423" lon="1.69742">
        <ele>182.4</ele>
        <time>2021-03-21T08:03:53Z</time>
      </trkpt>
      <trkpt lat="44.01434" lon="1.69719">
        <ele>183</ele>
        <time>2021-03-21T08:03:57Z</time>
      </trkpt>
      <trkpt lat="44.01442" lon="1.69697">
        <ele>185</ele>
        <time>2021-03-21T08:04:01Z</time>
      </trkpt>
      <trkpt lat="44.0145" lon="1.69679">
        <ele>183.4</ele>
        <time>2021-03-21T08:04:05Z</time>
      </trkpt>
      <trkpt lat="44.01452" lon="1.69647">
        <ele>179.4</ele>
        <time>2021-03-21T08:04:09Z</time>
      </trkpt>
      <trkpt lat="44.01443" lon="1.69615">
        <ele>178.4</ele>
        <time>2021-03-21T08:04:13Z</time>
      </trkpt>
      <trkpt lat="44.0143" lon="1.69584">
        <ele>176.6</ele>
        <time>2021-03-21T08:04:17Z</time>
      </trkpt>
      <trkpt lat="44.0142" lon="1.69551">
        <ele>171.6</ele>
        <time>2021-03-21T08:04:21Z</time>
      </trkpt>
      <trkpt lat="44.01407" lon="1.69511">
        <ele>169.8</ele>
        <time>2021-03-21T08:04:25Z</time>
      </trkpt>
      <trkpt lat="44.01391" lon="1.6948">
        <ele>165.2</ele>
        <time>2021-03-21T08:04:29Z</time>
      </trkpt>
      <trkpt lat="44.01389" lon="1.69442">
        <ele>163.2</ele>
        <time>2021-03-21T08:04:33Z</time>
      </trkpt>
      <trkpt lat="44.0139" lon="1.69402">
        <ele>162.8</ele>
        <time>2021-03-21T08:04:37Z</time>
      </trkpt>
      <trkpt lat="44.01385" lon="1.69369">
        <ele>160.6</ele>
        <time>2021-03-21T08:04:41Z</time>
      </trkpt>
      <trkpt lat="44.01371" lon="1.69335">
        <ele>158.8</ele>
        <time>2021-03-21T08:04:45Z</time>
      </trkpt>
      <trkpt lat="44.01353" lon="1.69303">
        <ele>158.2</ele>
        <time>2021-03-21T08:04:49Z</time>
      </trkpt>
      <trkpt lat="44.01338" lon="1.6927">
        <ele>157.4</ele>
        <time>2021-03-21T08:04:53Z</time>
      </trkpt>
      <trkpt lat="44.01326" lon="1.69231">
        <ele>157.4</ele>
        <time>2021-03-21T08:04:57Z</time>
      </trkpt>
      <trkpt lat="44.01313" lon="1.69197">
        <ele>156</ele>
        <time>2021-03-21T08:05:01Z</time>
      </trkpt>
      <trkpt lat="44.01295" lon="1.69163">
        <ele>156.4</ele>
        <time>2021-03-21T08:05:05Z</time>
      </trkpt>
      <trkpt lat="44.01277" lon="1.69131">
        <ele>155.2</ele>
        <time>2021-03-21T08:05:09Z</time>
      </trkpt>
      <trkpt lat="44.01262" lon="1.69098">
        <ele>152.2</ele>
        <time>2021-03-21T08:05:13Z</time>
      </trkpt>
      <trkpt lat="44.01251" lon="1.69062">
        <ele>153.8</ele>
        <time>2021-03-21T08:05:17Z</time>
      </trkpt>
      <trkpt lat="44.01237" lon="1.69025">
        <ele>153.4</ele>
        <time>2021-03-21T08:05:21Z</time>
      </trkpt>
      <trkpt lat="44.01219" lon="1.68988">
        <ele>150.4</ele>
        <time>2021-03-21T08:05:25Z</time>
      </trkpt>
      <trkpt lat="44.012" lon="1.68957">
        <ele>150.8</ele>
        <time>2021-03-21T08:05:29Z</time>
      </trkpt>
      <trkpt lat="44.01183" lon="1.68918">
        <ele>148.6</ele>
        <time>2021-03-21T08:05:33Z</time>
      </trkpt>
      <trkpt lat="44.0116" lon="1.68884">
        <ele>146.8</ele>
        <time>2021-03-21T08:05:37Z</time>
      </trkpt>
      <trkpt lat="44.01143" lon="1.68848">
        <ele>147.4</ele>
        <time>2021-03-21T08:05:41Z</time>
      </trkpt>
      <trkpt lat="44.01127" lon="1.68811">
        <ele>144.2</ele>
        <time>2021-03-21T08:05:45Z</time>
      </trkpt>
      <trkpt lat="44.01111" lon="1.68772">
        <ele>141.6</ele>
        <time>2021-03-21T08:05:49Z</time>
      </trkpt>
      <trkpt lat="44.01103" lon="1.68734">
        <ele>143</ele>
        <time>2021-03-21T08:05:53Z</time>
      </trkpt>
      <trkpt lat="44.01102" lon="1.68694">
        <ele>139.4</ele>
        <time>2021-03-21T08:05:57Z</time>
      </trkpt>
      <trkpt lat="44.01093" lon="1.68656">
        <ele>140.2</ele>
        <time>2021-03-21T08:06:01Z</time>
      </trkpt>
      <trkpt lat="44.01086" lon="1.6862">
        <ele>139.8</ele>
        <time>2021-03-21T08:06:05Z</time>
      </trkpt>
      <trkpt lat="44.01079" lon="1.6858">
        <ele>141.2</ele>
        <time>2021-03-21T08:06:09Z</time>
      </trkpt>
      <trkpt lat="44.01073" lon="1.68545">
        <ele>139.6</ele>
        <time>2021-03-21T08:06:13Z</time>
      </trkpt>
      <trkpt lat="44.01067" lon="1.68512">
        <ele>141.4</ele>
        <time>2021-03-21T08:06:17Z</time>
      </trkpt>
      <trkpt lat="44.01063" lon="1.6848">
        <ele>140.2</ele>
        <time>2021-03-21T08:06:21Z</time>
      </trkpt>
      <trkpt lat="44.01062" lon="1.68446">
        <ele>139.6</ele>
        <time>2021-03-21T08:06:25Z</time>
      </trkpt>
      <trkpt lat="44.01063" lon="1.68412">
        <ele>139.4</ele>
        <time>2021-03-21T08:06:29Z</time>
      </trkpt>
      <trkpt lat="44.01061" lon="1.68377">
        <ele>138.6</ele>
        <time>2021-03-21T08:06:33Z</time>
      </trkpt>
      <trkpt lat="44.01059" lon="1.68344">
        <ele>138.6</ele>
        <time>2021-03-21T08:06:37Z</time>
      </trkpt>
      <trkpt lat="44.01056" lon="1.6832">
        <ele>136.4</ele>
        <time>2021-03-21T08:06:41Z</time>
      </trkpt>
      <trkpt lat="44.01059" lon="1.68267">
        <ele>137.6</ele>
        <time>2021-03-21T08:09:07Z</time>
      </trkpt>
      <trkpt lat="44.01064" lon="1.6826">
        <ele>138.6</ele>
        <time>2021-03-21T08:09:11Z</time>
      </trkpt>
      <trkpt lat="44.01067" lon="1.6825">
        <ele>138.8</ele>
        <time>2021-03-21T08:09:15Z</time>
      </trkpt>
      <trkpt lat="44.01072" lon="1.6824">
        <ele>139.2</ele>
        <time>2021-03-21T08:09:19Z</time>
      </trkpt>
      <trkpt lat="44.01078" lon="1.68232">
        <ele>139.2</ele>
        <time>2021-03-21T08:09:23Z</time>
      </trkpt>
      <trkpt lat="44.01085" lon="1.68224">
        <ele>139.2</ele>
        <time>2021-03-21T08:09:27Z</time>
      </trkpt>
      <trkpt lat="44.01094" lon="1.68216">
        <ele>139.4</ele>
        <time>2021-03-21T08:09:31Z</time>
      </trkpt>
      <trkpt lat="44.01103" lon="1.68207">
        <ele>139.6</ele>
        <time>2021-03-21T08:09:35Z</time>
      </trkpt>
      <trkpt lat="44.01112" lon="1.68199">
        <ele>139.6</ele>
        <time>2021-03-21T08:09:39Z</time>
      </trkpt>
      <trkpt lat="44.01121" lon="1.68191">
        <ele>140</ele>
        <time>2021-03-21T08:09:43Z</time>
      </trkpt>
      <trkpt lat="44.01131" lon="1.68184">
        <ele>140.4</ele>
        <time>2021-03-21T08:09:47Z</time>
      </trkpt>
      <trkpt lat="44.01141" lon="1.6818">
        <ele>140.6</ele>
        <time>2021-03-21T08:09:51Z</time>
      </trkpt>
      <trkpt lat="44.01151" lon="1.68177">
        <ele>141</ele>
        <time>2021-03-21T08:09:55Z</time>
      </trkpt>
      <trkpt lat="44.01162" lon="1.68176">
        <ele>140.6</ele>
        <time>2021-03-21T08:09:59Z</time>
      </trkpt>
      <trkpt lat="44.01173" lon="1.68175">
        <ele>140.6</ele>
        <time>2021-03-21T08:10:03Z</time>
      </trkpt>
      <trkpt lat="44.01183" lon="1.68173">
        <ele>141.8</ele>
        <time>2021-03-21T08:10:07Z</time>
      </trkpt>
      <trkpt lat="44.01194" lon="1.68171">
        <ele>141.8</ele>
        <time>2021-03-21T08:10:11Z</time>
      </trkpt>
      <trkpt lat="44.01204" lon="1.68168">
        <ele>141.8</ele>
        <time>2021-03-21T08:10:15Z</time>
      </trkpt>
      <trkpt lat="44.01214" lon="1.68165">
        <ele>142.4</ele>
        <time>2021-03-21T08:10:19Z</time>
      </trkpt>
      <trkpt lat="44.01223" lon="1.6816">
        <ele>142.6</ele>
        <time>2021-03-21T08:10:23Z</time>
      </trkpt>
      <trkpt lat="44.01234" lon="1.68155">
        <ele>143.2</ele>
        <time>2021-03-21T08:10:27Z</time>
      </trkpt>
      <trkpt lat="44.01243" lon="1.68149">
        <ele>143.2</ele>
        <time>2021-03-21T08:10:31Z</time>
      </trkpt>
      <trkpt lat="44.01254" lon="1.68143">
        <ele>143.8</ele>
        <time>2021-03-21T08:10:35Z</time>
      </trkpt>
      <trkpt lat="44.01264" lon="1.68137">
        <ele>143.6</ele>
        <time>2021-03-21T08:10:39Z</time>
      </trkpt>
      <trkpt lat="44.01274" lon="1.6813">
        <ele>144.2</ele>
        <time>2021-03-21T08:10:43Z</time>
      </trkpt>
      <trkpt lat="44.01284" lon="1.68124">
        <ele>144.6</ele>
        <time>2021-03-21T08:10:47Z</time>
      </trkpt>
      <trkpt lat="44.01294" lon="1.68118">
        <ele>144.8</ele>
        <time>2021-03-21T08:10:51Z</time>
      </trkpt>
      <trkpt lat="44.01303" lon="1.68112">
        <ele>145.4</ele>
        <time>2021-03-21T08:10:55Z</time>
      </trkpt>
      <trkpt lat="44.01314" lon="1.68105">
        <ele>145.2</ele>
        <time>2021-03-21T08:10:59Z</time>
      </trkpt>
      <trkpt lat="44.01323" lon="1.68099">
        <ele>145.4</ele>
        <time>2021-03-21T08:11:03Z</time>
      </trkpt>
      <trkpt lat="44.01333" lon="1.68093">
        <ele>146.2</ele>
        <time>2021-03-21T08:11:07Z</time>
      </trkpt>
      <trkpt lat="44.01343" lon="1.68086">
        <ele>146.8</ele>
        <time>2021-03-21T08:11:11Z</time>
      </trkpt>
      <trkpt lat="44.01353" lon="1.6808">
        <ele>146.4</ele>
        <time>2021-03-21T08:11:15Z</time>
      </trkpt>
      <trkpt lat="44.01362" lon="1.68072">
        <ele>147</ele>
        <time>2021-03-21T08:11:19Z</time>
      </trkpt>
      <trkpt lat="44.0137" lon="1.68062">
        <ele>147.4</ele>
        <time>2021-03-21T08:11:23Z</time>
      </trkpt>
      <trkpt lat="44.01378" lon="1.68052">
        <ele>147.6</ele>
        <time>2021-03-21T08:11:27Z</time>
      </trkpt>
      <trkpt lat="44.01384" lon="1.68042">
        <ele>148</ele>
        <time>2021-03-21T08:11:31Z</time>
      </trkpt>
      <trkpt lat="44.01392" lon="1.68036">
        <ele>148.6</ele>
        <time>2021-03-21T08:11:35Z</time>
      </trkpt>
      <trkpt lat="44.01399" lon="1.68033">
        <ele>149.8</ele>
        <time>2021-03-21T08:11:39Z</time>
      </trkpt>
      <trkpt lat="44.01404" lon="1.68027">
        <ele>151</ele>
        <time>2021-03-21T08:11:43Z</time>
      </trkpt>
      <trkpt lat="44.01409" lon="1.68022">
        <ele>152</ele>
        <time>2021-03-21T08:11:47Z</time>
      </trkpt>
      <trkpt lat="44.01413" lon="1.68017">
        <ele>152.8</ele>
        <time>2021-03-21T08:11:51Z</time>
      </trkpt>
      <trkpt lat="44.01418" lon="1.68013">
        <ele>153.8</ele>
        <time>2021-03-21T08:11:55Z</time>
      </trkpt>
      <trkpt lat="44.01422" lon="1.68009">
        <ele>154.4</ele>
        <time>2021-03-21T08:11:59Z</time>
      </trkpt>
      <trkpt lat="44.01426" lon="1.68004">
        <ele>154.8</ele>
        <time>2021-03-21T08:12:03Z</time>
      </trkpt>
      <trkpt lat="44.01431" lon="1.67999">
        <ele>156</ele>
        <time>2021-03-21T08:12:07Z</time>
      </trkpt>
      <trkpt lat="44.01434" lon="1.67994">
        <ele>156.8</ele>
        <time>2021-03-21T08:12:11Z</time>
      </trkpt>
      <trkpt lat="44.01438" lon="1.67989">
        <ele>157.8</ele>
        <time>2021-03-21T08:12:15Z</time>
      </trkpt>
      <trkpt lat="44.01441" lon="1.67984">
        <ele>158.6</ele>
        <time>2021-03-21T08:12:19Z</time>
      </trkpt>
      <trkpt lat="44.01446" lon="1.67978">
        <ele>160.2</ele>
        <time>2021-03-21T08:12:23Z</time>
      </trkpt>
      <trkpt lat="44.0145" lon="1.67974">
        <ele>160.2</ele>
        <time>2021-03-21T08:12:27Z</time>
      </trkpt>
      <trkpt lat="44.01454" lon="1.6797">
        <ele>160.8</ele>
        <time>2021-03-21T08:12:31Z</time>
      </trkpt>
      <trkpt lat="44.01459" lon="1.67967">
        <ele>161.8</ele>
        <time>2021-03-21T08:12:35Z</time>
      </trkpt>
      <trkpt lat="44.01463" lon="1.67965">
        <ele>162.8</ele>
        <time>2021-03-21T08:12:39Z</time>
      </trkpt>
      <trkpt lat="44.01467" lon="1.67963">
        <ele>163.6</ele>
        <time>2021-03-21T08:12:43Z</time>
      </trkpt>
      <trkpt lat="44.01472" lon="1.67961">
        <ele>164.4</ele>
        <time>2021-03-21T08:12:47Z</time>
      </trkpt>
      <trkpt lat="44.01476" lon="1.67959">
        <ele>165</ele>
        <time>2021-03-21T08:12:51Z</time>
      </trkpt>
      <trkpt lat="44.01481" lon="1.67957">
        <ele>166.2</ele>
        <time>2021-03-21T08:12:55Z</time>
      </trkpt>
      <trkpt lat="44.01486" lon="1.67956">
        <ele>168.4</ele>
        <time>2021-03-21T08:12:59Z</time>
      </trkpt>
      <trkpt lat="44.01489" lon="1.6796">
        <ele>169.4</ele>
        <time>2021-03-21T08:13:03Z</time>
      </trkpt>
      <trkpt lat="44.01488" lon="1.67967">
        <ele>170.6</ele>
        <time>2021-03-21T08:13:07Z</time>
      </trkpt>
      <trkpt lat="44.01485" lon="1.67974">
        <ele>170.8</ele>
        <time>2021-03-21T08:13:11Z</time>
      </trkpt>
      <trkpt lat="44.01482" lon="1.67982">
        <ele>171.4</ele>
        <time>2021-03-21T08:13:15Z</time>
      </trkpt>
      <trkpt lat="44.01478" lon="1.67989">
        <ele>172.2</ele>
        <time>2021-03-21T08:13:19Z</time>
      </trkpt>
      <trkpt lat="44.01476" lon="1.67998">
        <ele>172.4</ele>
        <time>2021-03-21T08:13:23Z</time>
      </trkpt>
      <trkpt lat="44.01475" lon="1.68006">
        <ele>173</ele>
        <time>2021-03-21T08:13:27Z</time>
      </trkpt>
      <trkpt lat="44.01473" lon="1.68014">
        <ele>173.8</ele>
        <time>2021-03-21T08:13:31Z</time>
      </trkpt>
      <trkpt lat="44.01472" lon="1.68021">
        <ele>174</ele>
        <time>2021-03-21T08:13:35Z</time>
      </trkpt>
      <trkpt lat="44.01471" lon="1.68028">
        <ele>175.4</ele>
        <time>2021-03-21T08:13:39Z</time>
      </trkpt>
      <trkpt lat="44.01468" lon="1.68035">
        <ele>175.8</ele>
        <time>2021-03-21T08:13:43Z</time>
      </trkpt>
      <trkpt lat="44.01466" lon="1.68042">
        <ele>176.2</ele>
        <time>2021-03-21T08:13:47Z</time>
      </trkpt>
      <trkpt lat="44.01464" lon="1.68049">
        <ele>176.6</ele>
        <time>2021-03-21T08:13:51Z</time>
      </trkpt>
      <trkpt lat="44.01462" lon="1.68056">
        <ele>178</ele>
        <time>2021-03-21T08:13:55Z</time>
      </trkpt>
      <trkpt lat="44.01461" lon="1.68063">
        <ele>179</ele>
        <time>2021-03-21T08:13:59Z</time>
      </trkpt>
      <trkpt lat="44.01458" lon="1.68069">
        <ele>180</ele>
        <time>2021-03-21T08:14:03Z</time>
      </trkpt>
      <trkpt lat="44.01456" lon="1.68076">
        <ele>180.2</ele>
        <time>2021-03-21T08:14:07Z</time>
      </trkpt>
      <trkpt lat="44.01453" lon="1.68083">
        <ele>182</ele>
        <time>2021-03-21T08:14:11Z</time>
      </trkpt>
      <trkpt lat="44.01453" lon="1.68089">
        <ele>183.4</ele>
        <time>2021-03-21T08:14:15Z</time>
      </trkpt>
      <trkpt lat="44.01455" lon="1.68095">
        <ele>184</ele>
        <time>2021-03-21T08:14:19Z</time>
      </trkpt>
      <trkpt lat="44.0146" lon="1.68097">
        <ele>185</ele>
        <time>2021-03-21T08:14:23Z</time>
      </trkpt>
      <trkpt lat="44.01464" lon="1.68094">
        <ele>186</ele>
        <time>2021-03-21T08:14:27Z</time>
      </trkpt>
      <trkpt lat="44.0147" lon="1.68091">
        <ele>186.6</ele>
        <time>2021-03-21T08:14:31Z</time>
      </trkpt>
      <trkpt lat="44.01474" lon="1.68087">
        <ele>188</ele>
        <time>2021-03-21T08:14:35Z</time>
      </trkpt>
      <trkpt lat="44.01478" lon="1.68085">
        <ele>188.6</ele>
        <time>2021-03-21T08:14:39Z</time>
      </trkpt>
      <trkpt lat="44.01483" lon="1.68082">
        <ele>189.2</ele>
        <time>2021-03-21T08:14:43Z</time>
      </trkpt>
      <trkpt lat="44.01488" lon="1.68079">
        <ele>190</ele>
        <time>2021-03-21T08:14:47Z</time>
      </trkpt>
      <trkpt lat="44.01492" lon="1.68076">
        <ele>190.6</ele>
        <time>2021-03-21T08:14:51Z</time>
      </trkpt>
      <trkpt lat="44.01497" lon="1.68074">
        <ele>190.8</ele>
        <time>2021-03-21T08:14:55Z</time>
      </trkpt>
      <trkpt lat="44.01501" lon="1.68071">
        <ele>191.6</ele>
        <time>2021-03-21T08:14:59Z</time>
      </trkpt>
      <trkpt lat="44.01506" lon="1.68067">
        <ele>191.6</ele>
        <time>2021-03-21T08:15:03Z</time>
      </trkpt>
      <trkpt lat="44.0151" lon="1.68064">
        <ele>192</ele>
        <time>2021-03-21T08:15:07Z</time>
      </trkpt>
      <trkpt lat="44.01514" lon="1.68059">
        <ele>193</ele>
        <time>2021-03-21T08:15:11Z</time>
      </trkpt>
      <trkpt lat="44.01518" lon="1.68055">
        <ele>193.6</ele>
        <time>2021-03-21T08:15:15Z</time>
      </trkpt>
      <trkpt lat="44.01522" lon="1.68051">
        <ele>194.4</ele>
        <time>2021-03-21T08:15:19Z</time>
      </trkpt>
      <trkpt lat="44.01526" lon="1.68048">
        <ele>195.2</ele>
        <time>2021-03-21T08:15:23Z</time>
      </trkpt>
      <trkpt lat="44.0153" lon="1.68044">
        <ele>195.8</ele>
        <time>2021-03-21T08:15:27Z</time>
      </trkpt>
      <trkpt lat="44.01535" lon="1.68041">
        <ele>196.6</ele>
        <time>2021-03-21T08:15:31Z</time>
      </trkpt>
      <trkpt lat="44.01539" lon="1.68037">
        <ele>197.2</ele>
        <time>2021-03-21T08:15:35Z</time>
      </trkpt>
      <trkpt lat="44.01544" lon="1.68034">
        <ele>197.6</ele>
        <time>2021-03-21T08:15:39Z</time>
      </trkpt>
      <trkpt lat="44.01549" lon="1.68031">
        <ele>198.2</ele>
        <time>2021-03-21T08:15:43Z</time>
      </trkpt>
      <trkpt lat="44.01554" lon="1.68027">
        <ele>198.4</ele>
        <time>2021-03-21T08:15:47Z</time>
      </trkpt>
      <trkpt lat="44.01559" lon="1.68024">
        <ele>199.2</ele>
        <time>2021-03-21T08:15:51Z</time>
      </trkpt>
      <trkpt lat="44.01565" lon="1.68021">
        <ele>200</ele>
        <time>2021-03-21T08:15:55Z</time>
      </trkpt>
      <trkpt lat="44.0157" lon="1.68018">
        <ele>201</ele>
        <time>2021-03-21T08:15:59Z</time>
      </trkpt>
      <trkpt lat="44.01575" lon="1.68014">
        <ele>202.2</ele>
        <time>2021-03-21T08:16:03Z</time>
      </trkpt>
      <trkpt lat="44.0158" lon="1.68011">
        <ele>202.8</ele>
        <time>2021-03-21T08:16:07Z</time>
      </trkpt>
      <trkpt lat="44.01585" lon="1.68007">
        <ele>203.8</ele>
        <time>2021-03-21T08:16:11Z</time>
      </trkpt>
      <trkpt lat="44.01591" lon="1.68004">
        <ele>205</ele>
        <time>2021-03-21T08:16:15Z</time>
      </trkpt>
      <trkpt lat="44.01596" lon="1.68001">
        <ele>205.6</ele>
        <time>2021-03-21T08:16:19Z</time>
      </trkpt>
      <trkpt lat="44.016" lon="1.67997">
        <ele>205.8</ele>
        <time>2021-03-21T08:16:23Z</time>
      </trkpt>
      <trkpt lat="44.01605" lon="1.67994">
        <ele>206</ele>
        <time>2021-03-21T08:16:27Z</time>
      </trkpt>
      <trkpt lat="44.0161" lon="1.67991">
        <ele>206.6</ele>
        <time>2021-03-21T08:16:31Z</time>
      </trkpt>
      <trkpt lat="44.01615" lon="1.67988">
        <ele>208</ele>
        <time>2021-03-21T08:16:35Z</time>
      </trkpt>
      <trkpt lat="44.0162" lon="1.67984">
        <ele>208.4</ele>
        <time>2021-03-21T08:16:39Z</time>
      </trkpt>
      <trkpt lat="44.01625" lon="1.67981">
        <ele>209.2</ele>
        <time>2021-03-21T08:16:43Z</time>
      </trkpt>
      <trkpt lat="44.0163" lon="1.67978">
        <ele>210</ele>
        <time>2021-03-21T08:16:47Z</time>
      </trkpt>
      <trkpt lat="44.01635" lon="1.67974">
        <ele>210.8</ele>
        <time>2021-03-21T08:16:51Z</time>
      </trkpt>
      <trkpt lat="44.01639" lon="1.67971">
        <ele>211.6</ele>
        <time>2021-03-21T08:16:55Z</time>
      </trkpt>
      <trkpt lat="44.01644" lon="1.67968">
        <ele>212.2</ele>
        <time>2021-03-21T08:16:59Z</time>
      </trkpt>
      <trkpt lat="44.01648" lon="1.67965">
        <ele>213</ele>
        <time>2021-03-21T08:17:03Z</time>
      </trkpt>
      <trkpt lat="44.01653" lon="1.67962">
        <ele>214</ele>
        <time>2021-03-21T08:17:07Z</time>
      </trkpt>
      <trkpt lat="44.01658" lon="1.67959">
        <ele>214.6</ele>
        <time>2021-03-21T08:17:11Z</time>
      </trkpt>
      <trkpt lat="44.01663" lon="1.67956">
        <ele>215.4</ele>
        <time>2021-03-21T08:17:15Z</time>
      </trkpt>
      <trkpt lat="44.01668" lon="1.67953">
        <ele>216.2</ele>
        <time>2021-03-21T08:17:19Z</time>
      </trkpt>
      <trkpt lat="44.01673" lon="1.6795">
        <ele>216.8</ele>
        <time>2021-03-21T08:17:23Z</time>
      </trkpt>
      <trkpt lat="44.01677" lon="1.67946">
        <ele>217.4</ele>
        <time>2021-03-21T08:17:27Z</time>
      </trkpt>
      <trkpt lat="44.01682" lon="1.67943">
        <ele>218</ele>
        <time>2021-03-21T08:17:31Z</time>
      </trkpt>
      <trkpt lat="44.01687" lon="1.67939">
        <ele>219.2</ele>
        <time>2021-03-21T08:17:35Z</time>
      </trkpt>
      <trkpt lat="44.01691" lon="1.67936">
        <ele>219.4</ele>
        <time>2021-03-21T08:17:39Z</time>
      </trkpt>
      <trkpt lat="44.01696" lon="1.67933">
        <ele>220.2</ele>
        <time>2021-03-21T08:17:43Z</time>
      </trkpt>
      <trkpt lat="44.01701" lon="1.6793">
        <ele>220.6</ele>
        <time>2021-03-21T08:17:47Z</time>
      </trkpt>
      <trkpt lat="44.01706" lon="1.67929">
        <ele>221.8</ele>
        <time>2021-03-21T08:17:51Z</time>
      </trkpt>
      <trkpt lat="44.01711" lon="1.67929">
        <ele>222.6</ele>
        <time>2021-03-21T08:17:55Z</time>
      </trkpt>
      <trkpt lat="44.01716" lon="1.6793">
        <ele>223.4</ele>
        <time>2021-03-21T08:17:59Z</time>
      </trkpt>
      <trkpt lat="44.01721" lon="1.67932">
        <ele>223.6</ele>
        <time>2021-03-21T08:18:03Z</time>
      </trkpt>
      <trkpt lat="44.01725" lon="1.67934">
        <ele>224.4</ele>
        <time>2021-03-21T08:18:07Z</time>
      </trkpt>
      <trkpt lat="44.01729" lon="1.67936">
        <ele>225.4</ele>
        <time>2021-03-21T08:18:11Z</time>
      </trkpt>
      <trkpt lat="44.01732" lon="1.67938">
        <ele>225.8</ele>
        <time>2021-03-21T08:18:15Z</time>
      </trkpt>
      <trkpt lat="44.01736" lon="1.6794">
        <ele>226.6</ele>
        <time>2021-03-21T08:18:19Z</time>
      </trkpt>
      <trkpt lat="44.01739" lon="1.67942">
        <ele>226.8</ele>
        <time>2021-03-21T08:18:23Z</time>
      </trkpt>
      <trkpt lat="44.01742" lon="1.67946">
        <ele>227.4</ele>
        <time>2021-03-21T08:18:27Z</time>
      </trkpt>
      <trkpt lat="44.01745" lon="1.67949">
        <ele>228.6</ele>
        <time>2021-03-21T08:18:31Z</time>
      </trkpt>
      <trkpt lat="44.01749" lon="1.67954">
        <ele>230</ele>
        <time>2021-03-21T08:18:35Z</time>
      </trkpt>
      <trkpt lat="44.01748" lon="1.6796">
        <ele>231</ele>
        <time>2021-03-21T08:18:39Z</time>
      </trkpt>
      <trkpt lat="44.01743" lon="1.67964">
        <ele>232.8</ele>
        <time>2021-03-21T08:18:43Z</time>
      </trkpt>
      <trkpt lat="44.01739" lon="1.67966">
        <ele>233.8</ele>
        <time>2021-03-21T08:18:47Z</time>
      </trkpt>
      <trkpt lat="44.01734" lon="1.67969">
        <ele>234.2</ele>
        <time>2021-03-21T08:18:51Z</time>
      </trkpt>
      <trkpt lat="44.01731" lon="1.67972">
        <ele>235</ele>
        <time>2021-03-21T08:18:55Z</time>
      </trkpt>
      <trkpt lat="44.01727" lon="1.67977">
        <ele>236.2</ele>
        <time>2021-03-21T08:18:59Z</time>
      </trkpt>
      <trkpt lat="44.01724" lon="1.67981">
        <ele>237</ele>
        <time>2021-03-21T08:19:03Z</time>
      </trkpt>
      <trkpt lat="44.0172" lon="1.67985">
        <ele>238.2</ele>
        <time>2021-03-21T08:19:07Z</time>
      </trkpt>
      <trkpt lat="44.01718" lon="1.6799">
        <ele>238.4</ele>
        <time>2021-03-21T08:19:11Z</time>
      </trkpt>
      <trkpt lat="44.01715" lon="1.67994">
        <ele>239.4</ele>
        <time>2021-03-21T08:19:15Z</time>
      </trkpt>
      <trkpt lat="44.01712" lon="1.67998">
        <ele>240</ele>
        <time>2021-03-21T08:19:19Z</time>
      </trkpt>
      <trkpt lat="44.01709" lon="1.68003">
        <ele>241</ele>
        <time>2021-03-21T08:19:23Z</time>
      </trkpt>
      <trkpt lat="44.01707" lon="1.68008">
        <ele>241.4</ele>
        <time>2021-03-21T08:19:27Z</time>
      </trkpt>
      <trkpt lat="44.01704" lon="1.68011">
        <ele>241.8</ele>
        <time>2021-03-21T08:19:31Z</time>
      </trkpt>
      <trkpt lat="44.01702" lon="1.68015">
        <ele>242.2</ele>
        <time>2021-03-21T08:19:35Z</time>
      </trkpt>
      <trkpt lat="44.01699" lon="1.68018">
        <ele>242.6</ele>
        <time>2021-03-21T08:19:39Z</time>
      </trkpt>
      <trkpt lat="44.01697" lon="1.68021">
        <ele>242.8</ele>
        <time>2021-03-21T08:19:43Z</time>
      </trkpt>
      <trkpt lat="44.01694" lon="1.68025">
        <ele>244</ele>
        <time>2021-03-21T08:19:47Z</time>
      </trkpt>
      <trkpt lat="44.01695" lon="1.68032">
        <ele>244.4</ele>
        <time>2021-03-21T08:19:51Z</time>
      </trkpt>
      <trkpt lat="44.017" lon="1.68034">
        <ele>245.4</ele>
        <time>2021-03-21T08:19:55Z</time>
      </trkpt>
      <trkpt lat="44.01706" lon="1.68031">
        <ele>246.2</ele>
        <time>2021-03-21T08:19:59Z</time>
      </trkpt>
      <trkpt lat="44.0171" lon="1.68029">
        <ele>247.2</ele>
        <time>2021-03-21T08:20:03Z</time>
      </trkpt>
      <trkpt lat="44.01714" lon="1.68028">
        <ele>247.6</ele>
        <time>2021-03-21T08:20:07Z</time>
      </trkpt>
      <trkpt lat="44.01719" lon="1.68027">
        <ele>249.2</ele>
        <time>2021-03-21T08:20:11Z</time>
      </trkpt>
      <trkpt lat="44.01724" lon="1.68027">
        <ele>249.4</ele>
        <time>2021-03-21T08:20:15Z</time>
      </trkpt>
      <trkpt lat="44.01728" lon="1.68027">
        <ele>250</ele>
        <time>2021-03-21T08:20:19Z</time>
      </trkpt>
      <trkpt lat="44.01733" lon="1.68027">
        <ele>250.4</ele>
        <time>2021-03-21T08:20:23Z</time>
      </trkpt>
      <trkpt lat="44.01737" lon="1.68028">
        <ele>251</ele>
        <time>2021-03-21T08:20:27Z</time>
      </trkpt>
      <trkpt lat="44.01742" lon="1.68029">
        <ele>252</ele>
        <time>2021-03-21T08:20:31Z</time>
      </trkpt>
      <trkpt lat="44.01746" lon="1.6803">
        <ele>252.6</ele>
        <time>2021-03-21T08:20:35Z</time>
      </trkpt>
      <trkpt lat="44.0175" lon="1.68032">
        <ele>254</ele>
        <time>2021-03-21T08:20:39Z</time>
      </trkpt>
      <trkpt lat="44.01754" lon="1.68035">
        <ele>254.4</ele>
        <time>2021-03-21T08:20:43Z</time>
      </trkpt>
      <trkpt lat="44.01758" lon="1.68037">
        <ele>255.2</ele>
        <time>2021-03-21T08:20:47Z</time>
      </trkpt>
      <trkpt lat="44.01762" lon="1.6804">
        <ele>255.4</ele>
        <time>2021-03-21T08:20:51Z</time>
      </trkpt>
      <trkpt lat="44.01766" lon="1.68044">
        <ele>256.8</ele>
        <time>2021-03-21T08:20:55Z</time>
      </trkpt>
      <trkpt lat="44.01769" lon="1.68047">
        <ele>257.2</ele>
        <time>2021-03-21T08:20:59Z</time>
      </trkpt>
      <trkpt lat="44.01774" lon="1.68051">
        <ele>257.8</ele>
        <time>2021-03-21T08:21:03Z</time>
      </trkpt>
      <trkpt lat="44.01779" lon="1.68056">
        <ele>259.8</ele>
        <time>2021-03-21T08:21:07Z</time>
      </trkpt>
      <trkpt lat="44.01784" lon="1.6806">
        <ele>259.8</ele>
        <time>2021-03-21T08:21:11Z</time>
      </trkpt>
      <trkpt lat="44.01788" lon="1.68063">
        <ele>260.6</ele>
        <time>2021-03-21T08:21:15Z</time>
      </trkpt>
      <trkpt lat="44.01791" lon="1.68067">
        <ele>261</ele>
        <time>2021-03-21T08:21:19Z</time>
      </trkpt>
      <trkpt lat="44.01796" lon="1.68072">
        <ele>261.8</ele>
        <time>2021-03-21T08:21:23Z</time>
      </trkpt>
      <trkpt lat="44.01799" lon="1.68078">
        <ele>262.4</ele>
        <time>2021-03-21T08:21:27Z</time>
      </trkpt>
      <trkpt lat="44.01802" lon="1.68085">
        <ele>263</ele>
        <time>2021-03-21T08:21:31Z</time>
      </trkpt>
      <trkpt lat="44.01803" lon="1.68092">
        <ele>264</ele>
        <time>2021-03-21T08:21:35Z</time>
      </trkpt>
      <trkpt lat="44.01803" lon="1.68098">
        <ele>265</ele>
        <time>2021-03-21T08:21:39Z</time>
      </trkpt>
      <trkpt lat="44.01803" lon="1.68104">
        <ele>266</ele>
        <time>2021-03-21T08:21:43Z</time>
      </trkpt>
      <trkpt lat="44.01802" lon="1.68111">
        <ele>267</ele>
        <time>2021-03-21T08:21:47Z</time>
      </trkpt>
      <trkpt lat="44.01801" lon="1.68118">
        <ele>267.8</ele>
        <time>2021-03-21T08:21:51Z</time>
      </trkpt>
      <trkpt lat="44.018" lon="1.68124">
        <ele>269.2</ele>
        <time>2021-03-21T08:21:55Z</time>
      </trkpt>
      <trkpt lat="44.018" lon="1.68131">
        <ele>270.2</ele>
        <time>2021-03-21T08:21:59Z</time>
      </trkpt>
      <trkpt lat="44.01799" lon="1.68138">
        <ele>271.4</ele>
        <time>2021-03-21T08:22:03Z</time>
      </trkpt>
      <trkpt lat="44.01798" lon="1.68145">
        <ele>272.2</ele>
        <time>2021-03-21T08:22:07Z</time>
      </trkpt>
      <trkpt lat="44.01797" lon="1.68152">
        <ele>273</ele>
        <time>2021-03-21T08:22:11Z</time>
      </trkpt>
      <trkpt lat="44.01795" lon="1.68158">
        <ele>274.2</ele>
        <time>2021-03-21T08:22:15Z</time>
      </trkpt>
      <trkpt lat="44.01792" lon="1.68165">
        <ele>274.8</ele>
        <time>2021-03-21T08:22:19Z</time>
      </trkpt>
      <trkpt lat="44.0179" lon="1.68171">
        <ele>276</ele>
        <time>2021-03-21T08:22:23Z</time>
      </trkpt>
      <trkpt lat="44.01787" lon="1.68178">
        <ele>276.8</ele>
        <time>2021-03-21T08:22:27Z</time>
      </trkpt>
      <trkpt lat="44.01784" lon="1.68184">
        <ele>278.4</ele>
        <time>2021-03-21T08:22:31Z</time>
      </trkpt>
      <trkpt lat="44.0178" lon="1.68189">
        <ele>279.4</ele>
        <time>2021-03-21T08:22:35Z</time>
      </trkpt>
      <trkpt lat="44.01776" lon="1.68194">
        <ele>280.2</ele>
        <time>2021-03-21T08:22:39Z</time>
      </trkpt>
      <trkpt lat="44.01774" lon="1.68201">
        <ele>281.4</ele>
        <time>2021-03-21T08:22:43Z</time>
      </trkpt>
      <trkpt lat="44.01774" lon="1.68208">
        <ele>282.4</ele>
        <time>2021-03-21T08:22:47Z</time>
      </trkpt>
      <trkpt lat="44.01775" lon="1.68216">
        <ele>283</ele>
        <time>2021-03-21T08:22:51Z</time>
      </trkpt>
      <trkpt lat="44.01777" lon="1.68223">
        <ele>284</ele>
        <time>2021-03-21T08:22:55Z</time>
      </trkpt>
      <trkpt lat="44.0178" lon="1.68228">
        <ele>285</ele>
        <time>2021-03-21T08:22:59Z</time>
      </trkpt>
      <trkpt lat="44.01783" lon="1.68233">
        <ele>285.6</ele>
        <time>2021-03-21T08:23:03Z</time>
      </trkpt>
      <trkpt lat="44.01787" lon="1.68237">
        <ele>286.8</ele>
        <time>2021-03-21T08:23:07Z</time>
      </trkpt>
      <trkpt lat="44.01791" lon="1.68241">
        <ele>287.6</ele>
        <time>2021-03-21T08:23:11Z</time>
      </trkpt>
      <trkpt lat="44.01795" lon="1.68244">
        <ele>289</ele>
        <time>2021-03-21T08:23:15Z</time>
      </trkpt>
      <trkpt lat="44.01799" lon="1.68249">
        <ele>290.4</ele>
        <time>2021-03-21T08:23:19Z</time>
      </trkpt>
      <trkpt lat="44.01803" lon="1.68252">
        <ele>292.6</ele>
        <time>2021-03-21T08:23:23Z</time>
      </trkpt>
      <trkpt lat="44.01806" lon="1.68256">
        <ele>293.2</ele>
        <time>2021-03-21T08:23:27Z</time>
      </trkpt>
      <trkpt lat="44.0181" lon="1.6826">
        <ele>294.6</ele>
        <time>2021-03-21T08:23:31Z</time>
      </trkpt>
      <trkpt lat="44.01814" lon="1.68263">
        <ele>295.2</ele>
        <time>2021-03-21T08:23:35Z</time>
      </trkpt>
      <trkpt lat="44.01818" lon="1.68267">
        <ele>296.4</ele>
        <time>2021-03-21T08:23:39Z</time>
      </trkpt>
      <trkpt lat="44.01822" lon="1.68269">
        <ele>296.6</ele>
        <time>2021-03-21T08:23:43Z</time>
      </trkpt>
      <trkpt lat="44.01825" lon="1.68272">
        <ele>297.4</ele>
        <time>2021-03-21T08:23:47Z</time>
      </trkpt>
      <trkpt lat="44.01829" lon="1.68274">
        <ele>298.4</ele>
        <time>2021-03-21T08:23:51Z</time>
      </trkpt>
      <trkpt lat="44.01833" lon="1.68276">
        <ele>299.6</ele>
        <time>2021-03-21T08:23:55Z</time>
      </trkpt>
      <trkpt lat="44.01836" lon="1.68279">
        <ele>300.2</ele>
        <time>2021-03-21T08:23:59Z</time>
      </trkpt>
      <trkpt lat="44.0184" lon="1.68282">
        <ele>301.2</ele>
        <time>2021-03-21T08:24:03Z</time>
      </trkpt>
      <trkpt lat="44.01844" lon="1.68284">
        <ele>302.2</ele>
        <time>2021-03-21T08:24:07Z</time>
      </trkpt>
      <trkpt lat="44.01847" lon="1.68287">
        <ele>303.2</ele>
        <time>2021-03-21T08:24:11Z</time>
      </trkpt>
      <trkpt lat="44.01851" lon="1.68289">
        <ele>304</ele>
        <time>2021-03-21T08:24:15Z</time>
      </trkpt>
      <trkpt lat="44.01855" lon="1.68292">
        <ele>305</ele>
        <time>2021-03-21T08:24:19Z</time>
      </trkpt>
      <trkpt lat="44.01859" lon="1.68294">
        <ele>305.4</ele>
        <time>2021-03-21T08:24:23Z</time>
      </trkpt>
      <trkpt lat="44.01863" lon="1.68296">
        <ele>306</ele>
        <time>2021-03-21T08:24:27Z</time>
      </trkpt>
      <trkpt lat="44.01869" lon="1.68298">
        <ele>306.6</ele>
        <time>2021-03-21T08:24:31Z</time>
      </trkpt>
      <trkpt lat="44.01874" lon="1.683">
        <ele>309.2</ele>
        <time>2021-03-21T08:24:35Z</time>
      </trkpt>
      <trkpt lat="44.01879" lon="1.68301">
        <ele>309.8</ele>
        <time>2021-03-21T08:24:39Z</time>
      </trkpt>
      <trkpt lat="44.01884" lon="1.68303">
        <ele>311.2</ele>
        <time>2021-03-21T08:24:43Z</time>
      </trkpt>
      <trkpt lat="44.01888" lon="1.68305">
        <ele>312.6</ele>
        <time>2021-03-21T08:24:47Z</time>
      </trkpt>
      <trkpt lat="44.01893" lon="1.68306">
        <ele>313.8</ele>
        <time>2021-03-21T08:24:51Z</time>
      </trkpt>
      <trkpt lat="44.01898" lon="1.68308">
        <ele>314.8</ele>
        <time>2021-03-21T08:24:55Z</time>
      </trkpt>
      <trkpt lat="44.01901" lon="1.68308">
        <ele>315.6</ele>
        <time>2021-03-21T08:24:59Z</time>
      </trkpt>
      <trkpt lat="44.01945" lon="1.68321">
        <ele>324.6</ele>
        <time>2021-03-21T08:25:40Z</time>
      </trkpt>
      <trkpt lat="44.0195" lon="1.68323">
        <ele>326</ele>
        <time>2021-03-21T08:25:44Z</time>
      </trkpt>
      <trkpt lat="44.01955" lon="1.68323">
        <ele>327</ele>
        <time>2021-03-21T08:25:48Z</time>
      </trkpt>
      <trkpt lat="44.0196" lon="1.68325">
        <ele>327.6</ele>
        <time>2021-03-21T08:25:52Z</time>
      </trkpt>
      <trkpt lat="44.01965" lon="1.68326">
        <ele>328</ele>
        <time>2021-03-21T08:25:56Z</time>
      </trkpt>
      <trkpt lat="44.0197" lon="1.68327">
        <ele>328.8</ele>
        <time>2021-03-21T08:26:00Z</time>
      </trkpt>
      <trkpt lat="44.01975" lon="1.68329">
        <ele>329.6</ele>
        <time>2021-03-21T08:26:04Z</time>
      </trkpt>
      <trkpt lat="44.01979" lon="1.68333">
        <ele>330</ele>
        <time>2021-03-21T08:26:08Z</time>
      </trkpt>
      <trkpt lat="44.01982" lon="1.68339">
        <ele>330.6</ele>
        <time>2021-03-21T08:26:12Z</time>
      </trkpt>
      <trkpt lat="44.01982" lon="1.68344">
        <ele>331.4</ele>
        <time>2021-03-21T08:26:16Z</time>
      </trkpt>
      <trkpt lat="44.01982" lon="1.68351">
        <ele>332</ele>
        <time>2021-03-21T08:26:20Z</time>
      </trkpt>
      <trkpt lat="44.01981" lon="1.68356">
        <ele>333.4</ele>
        <time>2021-03-21T08:26:24Z</time>
      </trkpt>
      <trkpt lat="44.01979" lon="1.68361">
        <ele>334</ele>
        <time>2021-03-21T08:26:28Z</time>
      </trkpt>
      <trkpt lat="44.01977" lon="1.68365">
        <ele>334.8</ele>
        <time>2021-03-21T08:26:32Z</time>
      </trkpt>
      <trkpt lat="44.01975" lon="1.6837">
        <ele>335.8</ele>
        <time>2021-03-21T08:26:36Z</time>
      </trkpt>
      <trkpt lat="44.01973" lon="1.68375">
        <ele>336.8</ele>
        <time>2021-03-21T08:26:40Z</time>
      </trkpt>
      <trkpt lat="44.01969" lon="1.68379">
        <ele>337.8</ele>
        <time>2021-03-21T08:26:44Z</time>
      </trkpt>
      <trkpt lat="44.01966" lon="1.68383">
        <ele>338.8</ele>
        <time>2021-03-21T08:26:48Z</time>
      </trkpt>
      <trkpt lat="44.01962" lon="1.68387">
        <ele>339</ele>
        <time>2021-03-21T08:26:52Z</time>
      </trkpt>
      <trkpt lat="44.01958" lon="1.68392">
        <ele>340.2</ele>
        <time>2021-03-21T08:26:56Z</time>
      </trkpt>
      <trkpt lat="44.01955" lon="1.68396">
        <ele>341.2</ele>
        <time>2021-03-21T08:27:00Z</time>
      </trkpt>
      <trkpt lat="44.01954" lon="1.68401">
        <ele>341.6</ele>
        <time>2021-03-21T08:27:04Z</time>
      </trkpt>
      <trkpt lat="44.01952" lon="1.68406">
        <ele>343</ele>
        <time>2021-03-21T08:27:08Z</time>
      </trkpt>
      <trkpt lat="44.0195" lon="1.6841">
        <ele>344</ele>
        <time>2021-03-21T08:27:12Z</time>
      </trkpt>
      <trkpt lat="44.01949" lon="1.68415">
        <ele>345</ele>
        <time>2021-03-21T08:27:16Z</time>
      </trkpt>
      <trkpt lat="44.01947" lon="1.6842">
        <ele>345.8</ele>
        <time>2021-03-21T08:27:20Z</time>
      </trkpt>
      <trkpt lat="44.01947" lon="1.68427">
        <ele>346.8</ele>
        <time>2021-03-21T08:27:24Z</time>
      </trkpt>
      <trkpt lat="44.01946" lon="1.68432">
        <ele>348</ele>
        <time>2021-03-21T08:27:28Z</time>
      </trkpt>
      <trkpt lat="44.01946" lon="1.68438">
        <ele>348.6</ele>
        <time>2021-03-21T08:27:32Z</time>
      </trkpt>
      <trkpt lat="44.01944" lon="1.68444">
        <ele>349.2</ele>
        <time>2021-03-21T08:27:36Z</time>
      </trkpt>
      <trkpt lat="44.01942" lon="1.68449">
        <ele>350.6</ele>
        <time>2021-03-21T08:27:40Z</time>
      </trkpt>
      <trkpt lat="44.01942" lon="1.68454">
        <ele>351.4</ele>
        <time>2021-03-21T08:27:44Z</time>
      </trkpt>
      <trkpt lat="44.0194" lon="1.68458">
        <ele>351.6</ele>
        <time>2021-03-21T08:27:48Z</time>
      </trkpt>
      <trkpt lat="44.0194" lon="1.68464">
        <ele>353</ele>
        <time>2021-03-21T08:27:52Z</time>
      </trkpt>
      <trkpt lat="44.01939" lon="1.6847">
        <ele>353.8</ele>
        <time>2021-03-21T08:27:56Z</time>
      </trkpt>
      <trkpt lat="44.01937" lon="1.68476">
        <ele>354.6</ele>
        <time>2021-03-21T08:28:00Z</time>
      </trkpt>
      <trkpt lat="44.01936" lon="1.68482">
        <ele>355.2</ele>
        <time>2021-03-21T08:28:04Z</time>
      </trkpt>
      <trkpt lat="44.01935" lon="1.68488">
        <ele>356.2</ele>
        <time>2021-03-21T08:28:08Z</time>
      </trkpt>
      <trkpt lat="44.01933" lon="1.68494">
        <ele>357.2</ele>
        <time>2021-03-21T08:28:12Z</time>
      </trkpt>
      <trkpt lat="44.01932" lon="1.685">
        <ele>357.8</ele>
        <time>2021-03-21T08:28:16Z</time>
      </trkpt>
      <trkpt lat="44.01932" lon="1.68506">
        <ele>359</ele>
        <time>2021-03-21T08:28:20Z</time>
      </trkpt>
      <trkpt lat="44.01931" lon="1.68511">
        <ele>359.8</ele>
        <time>2021-03-21T08:28:24Z</time>
      </trkpt>
      <trkpt lat="44.0193" lon="1.68517">
        <ele>360.6</ele>
        <time>2021-03-21T08:28:28Z</time>
      </trkpt>
      <trkpt lat="44.01928" lon="1.68524">
        <ele>361.6</ele>
        <time>2021-03-21T08:28:32Z</time>
      </trkpt>
      <trkpt lat="44.01928" lon="1.68531">
        <ele>362.4</ele>
        <time>2021-03-21T08:28:36Z</time>
      </trkpt>
      <trkpt lat="44.01927" lon="1.68538">
        <ele>363.8</ele>
        <time>2021-03-21T08:28:40Z</time>
      </trkpt>
      <trkpt lat="44.01926" lon="1.68545">
        <ele>364.4</ele>
        <time>2021-03-21T08:28:44Z</time>
      </trkpt>
      <trkpt lat="44.01925" lon="1.68551">
        <ele>365.2</ele>
        <time>2021-03-21T08:28:48Z</time>
      </trkpt>
      <trkpt lat="44.01925" lon="1.68559">
        <ele>366.2</ele>
        <time>2021-03-21T08:28:52Z</time>
      </trkpt>
      <trkpt lat="44.01925" lon="1.68566">
        <ele>367.4</ele>
        <time>2021-03-21T08:28:56Z</time>
      </trkpt>
      <trkpt lat="44.01925" lon="1.68574">
        <ele>368.2</ele>
        <time>2021-03-21T08:29:00Z</time>
      </trkpt>
      <trkpt lat="44.01924" lon="1.68582">
        <ele>368.2</ele>
        <time>2021-03-21T08:29:04Z</time>
      </trkpt>
      <trkpt lat="44.01924" lon="1.68591">
        <ele>369.4</ele>
        <time>2021-03-21T08:29:08Z</time>
      </trkpt>
      <trkpt lat="44.01924" lon="1.68599">
        <ele>369.6</ele>
        <time>2021-03-21T08:29:12Z</time>
      </trkpt>
      <trkpt lat="44.01923" lon="1.68608">
        <ele>370</ele>
        <time>2021-03-21T08:29:16Z</time>
      </trkpt>
      <trkpt lat="44.01921" lon="1.68615">
        <ele>370.4</ele>
        <time>2021-03-21T08:29:20Z</time>
      </trkpt>
      <trkpt lat="44.0192" lon="1.68644">
        <ele>372.8</ele>
        <time>2021-03-21T08:36:34Z</time>
      </trkpt>
      <trkpt lat="44.01919" lon="1.68653">
        <ele>373</ele>
        <time>2021-03-21T08:36:38Z</time>
      </trkpt>
      <trkpt lat="44.01918" lon="1.68663">
        <ele>373</ele>
        <time>2021-03-21T08:36:42Z</time>
      </trkpt>
      <trkpt lat="44.01917" lon="1.68674">
        <ele>371.4</ele>
        <time>2021-03-21T08:36:46Z</time>
      </trkpt>
      <trkpt lat="44.01916" lon="1.68691">
        <ele>370.6</ele>
        <time>2021-03-21T08:36:50Z</time>
      </trkpt>
      <trkpt lat="44.01915" lon="1.68712">
        <ele>367.8</ele>
        <time>2021-03-21T08:36:54Z</time>
      </trkpt>
      <trkpt lat="44.01912" lon="1.68736">
        <ele>365</ele>
        <time>2021-03-21T08:36:58Z</time>
      </trkpt>
      <trkpt lat="44.01909" lon="1.68771">
        <ele>361.6</ele>
        <time>2021-03-21T08:37:02Z</time>
      </trkpt>
      <trkpt lat="44.01896" lon="1.68806">
        <ele>360</ele>
        <time>2021-03-21T08:37:06Z</time>
      </trkpt>
      <trkpt lat="44.01877" lon="1.68843">
        <ele>355.6</ele>
        <time>2021-03-21T08:37:10Z</time>
      </trkpt>
      <trkpt lat="44.01861" lon="1.68888">
        <ele>351.2</ele>
        <time>2021-03-21T08:37:14Z</time>
      </trkpt>
      <trkpt lat="44.01848" lon="1.68936">
        <ele>348.6</ele>
        <time>2021-03-21T08:37:18Z</time>
      </trkpt>
      <trkpt lat="44.01849" lon="1.68984">
        <ele>345.4</ele>
        <time>2021-03-21T08:37:22Z</time>
      </trkpt>
      <trkpt lat="44.01868" lon="1.6902">
        <ele>345.6</ele>
        <time>2021-03-21T08:37:26Z</time>
      </trkpt>
      <trkpt lat="44.01887" lon="1.69035">
        <ele>347.4</ele>
        <time>2021-03-21T08:37:30Z</time>
      </trkpt>
      <trkpt lat="44.01901" lon="1.69051">
        <ele>348.8</ele>
        <time>2021-03-21T08:37:34Z</time>
      </trkpt>
      <trkpt lat="44.01911" lon="1.69066">
        <ele>350.6</ele>
        <time>2021-03-21T08:37:38Z</time>
      </trkpt>
      <trkpt lat="44.01918" lon="1.69078">
        <ele>352.2</ele>
        <time>2021-03-21T08:37:42Z</time>
      </trkpt>
      <trkpt lat="44.01923" lon="1.69087">
        <ele>353.8</ele>
        <time>2021-03-21T08:37:46Z</time>
      </trkpt>
      <trkpt lat="44.01927" lon="1.69093">
        <ele>354.6</ele>
        <time>2021-03-21T08:37:50Z</time>
      </trkpt>
      <trkpt lat="44.0193" lon="1.69098">
        <ele>355.6</ele>
        <time>2021-03-21T08:37:54Z</time>
      </trkpt>
      <trkpt lat="44.01933" lon="1.69105">
        <ele>356.4</ele>
        <time>2021-03-21T08:37:58Z</time>
      </trkpt>
      <trkpt lat="44.01938" lon="1.69109">
        <ele>358.4</ele>
        <time>2021-03-21T08:38:02Z</time>
      </trkpt>
      <trkpt lat="44.01942" lon="1.69112">
        <ele>359.4</ele>
        <time>2021-03-21T08:38:06Z</time>
      </trkpt>
      <trkpt lat="44.01946" lon="1.69115">
        <ele>360.6</ele>
        <time>2021-03-21T08:38:10Z</time>
      </trkpt>
      <trkpt lat="44.01951" lon="1.69117">
        <ele>361.2</ele>
        <time>2021-03-21T08:38:14Z</time>
      </trkpt>
      <trkpt lat="44.01956" lon="1.69118">
        <ele>362.4</ele>
        <time>2021-03-21T08:38:18Z</time>
      </trkpt>
      <trkpt lat="44.0196" lon="1.69121">
        <ele>363.2</ele>
        <time>2021-03-21T08:38:22Z</time>
      </trkpt>
      <trkpt lat="44.01962" lon="1.69126">
        <ele>363.8</ele>
        <time>2021-03-21T08:38:26Z</time>
      </trkpt>
      <trkpt lat="44.0196" lon="1.69133">
        <ele>364.8</ele>
        <time>2021-03-21T08:38:30Z</time>
      </trkpt>
      <trkpt lat="44.01957" lon="1.6914">
        <ele>367</ele>
        <time>2021-03-21T08:38:34Z</time>
      </trkpt>
      <trkpt lat="44.01954" lon="1.69148">
        <ele>368</ele>
        <time>2021-03-21T08:38:38Z</time>
      </trkpt>
      <trkpt lat="44.0195" lon="1.69155">
        <ele>367.6</ele>
        <time>2021-03-21T08:38:42Z</time>
      </trkpt>
      <trkpt lat="44.01946" lon="1.69162">
        <ele>368.2</ele>
        <time>2021-03-21T08:38:46Z</time>
      </trkpt>
      <trkpt lat="44.01943" lon="1.69171">
        <ele>369.2</ele>
        <time>2021-03-21T08:38:50Z</time>
      </trkpt>
      <trkpt lat="44.01941" lon="1.69179">
        <ele>370</ele>
        <time>2021-03-21T08:38:54Z</time>
      </trkpt>
      <trkpt lat="44.0194" lon="1.69186">
        <ele>370.8</ele>
        <time>2021-03-21T08:38:58Z</time>
      </trkpt>
      <trkpt lat="44.01941" lon="1.69192">
        <ele>372.2</ele>
        <time>2021-03-21T08:39:02Z</time>
      </trkpt>
      <trkpt lat="44.01944" lon="1.69198">
        <ele>373.4</ele>
        <time>2021-03-21T08:39:06Z</time>
      </trkpt>
      <trkpt lat="44.01947" lon="1.69202">
        <ele>375</ele>
        <time>2021-03-21T08:39:10Z</time>
      </trkpt>
      <trkpt lat="44.0195" lon="1.69206">
        <ele>375.6</ele>
        <time>2021-03-21T08:39:14Z</time>
      </trkpt>
      <trkpt lat="44.01953" lon="1.6921">
        <ele>377</ele>
        <time>2021-03-21T08:39:18Z</time>
      </trkpt>
      <trkpt lat="44.01958" lon="1.69214">
        <ele>377.8</ele>
        <time>2021-03-21T08:39:22Z</time>
      </trkpt>
      <trkpt lat="44.01963" lon="1.69215">
        <ele>379</ele>
        <time>2021-03-21T08:39:26Z</time>
      </trkpt>
      <trkpt lat="44.0197" lon="1.69216">
        <ele>379.4</ele>
        <time>2021-03-21T08:39:30Z</time>
      </trkpt>
      <trkpt lat="44.01977" lon="1.69216">
        <ele>379.4</ele>
        <time>2021-03-21T08:39:34Z</time>
      </trkpt>
      <trkpt lat="44.01983" lon="1.69216">
        <ele>380.6</ele>
        <time>2021-03-21T08:39:38Z</time>
      </trkpt>
      <trkpt lat="44.0199" lon="1.69215">
        <ele>381.2</ele>
        <time>2021-03-21T08:39:42Z</time>
      </trkpt>
      <trkpt lat="44.01997" lon="1.69216">
        <ele>382</ele>
        <time>2021-03-21T08:39:46Z</time>
      </trkpt>
      <trkpt lat="44.02005" lon="1.69216">
        <ele>382.2</ele>
        <time>2021-03-21T08:39:50Z</time>
      </trkpt>
      <trkpt lat="44.02012" lon="1.69217">
        <ele>382.8</ele>
        <time>2021-03-21T08:39:54Z</time>
      </trkpt>
      <trkpt lat="44.02019" lon="1.69217">
        <ele>384.2</ele>
        <time>2021-03-21T08:39:58Z</time>
      </trkpt>
      <trkpt lat="44.02026" lon="1.69218">
        <ele>384.4</ele>
        <time>2021-03-21T08:40:02Z</time>
      </trkpt>
      <trkpt lat="44.02033" lon="1.69218">
        <ele>384.2</ele>
        <time>2021-03-21T08:40:06Z</time>
      </trkpt>
      <trkpt lat="44.02043" lon="1.69218">
        <ele>384.2</ele>
        <time>2021-03-21T08:40:10Z</time>
      </trkpt>
      <trkpt lat="44.02054" lon="1.69219">
        <ele>383.8</ele>
        <time>2021-03-21T08:40:14Z</time>
      </trkpt>
      <trkpt lat="44.02066" lon="1.69218">
        <ele>384</ele>
        <time>2021-03-21T08:40:18Z</time>
      </trkpt>
      <trkpt lat="44.02077" lon="1.69216">
        <ele>383.4</ele>
        <time>2021-03-21T08:40:22Z</time>
      </trkpt>
      <trkpt lat="44.02091" lon="1.69215">
        <ele>383.6</ele>
        <time>2021-03-21T08:40:26Z</time>
      </trkpt>
      <trkpt lat="44.02103" lon="1.69218">
        <ele>383</ele>
        <time>2021-03-21T08:40:30Z</time>
      </trkpt>
      <trkpt lat="44.02118" lon="1.69222">
        <ele>382.8</ele>
        <time>2021-03-21T08:40:34Z</time>
      </trkpt>
      <trkpt lat="44.02134" lon="1.69226">
        <ele>383</ele>
        <time>2021-03-21T08:40:38Z</time>
      </trkpt>
      <trkpt lat="44.02148" lon="1.69227">
        <ele>383.6</ele>
        <time>2021-03-21T08:40:42Z</time>
      </trkpt>
      <trkpt lat="44.02161" lon="1.69231">
        <ele>384.6</ele>
        <time>2021-03-21T08:40:46Z</time>
      </trkpt>
      <trkpt lat="44.02172" lon="1.69234">
        <ele>386.2</ele>
        <time>2021-03-21T08:40:50Z</time>
      </trkpt>
      <trkpt lat="44.02182" lon="1.69234">
        <ele>386</ele>
        <time>2021-03-21T08:40:54Z</time>
      </trkpt>
      <trkpt lat="44.02194" lon="1.69233">
        <ele>386.8</ele>
        <time>2021-03-21T08:40:58Z</time>
      </trkpt>
      <trkpt lat="44.02205" lon="1.69234">
        <ele>387</ele>
        <time>2021-03-21T08:41:02Z</time>
      </trkpt>
      <trkpt lat="44.02215" lon="1.69233">
        <ele>387.4</ele>
        <time>2021-03-21T08:41:06Z</time>
      </trkpt>
      <trkpt lat="44.02225" lon="1.69233">
        <ele>388.4</ele>
        <time>2021-03-21T08:41:10Z</time>
      </trkpt>
      <trkpt lat="44.02235" lon="1.69232">
        <ele>390.2</ele>
        <time>2021-03-21T08:41:14Z</time>
      </trkpt>
      <trkpt lat="44.02245" lon="1.69234">
        <ele>391.2</ele>
        <time>2021-03-21T08:41:18Z</time>
      </trkpt>
      <trkpt lat="44.02256" lon="1.69236">
        <ele>391.8</ele>
        <time>2021-03-21T08:41:22Z</time>
      </trkpt>
      <trkpt lat="44.02265" lon="1.69237">
        <ele>393.6</ele>
        <time>2021-03-21T08:41:26Z</time>
      </trkpt>
      <trkpt lat="44.02275" lon="1.69238">
        <ele>394</ele>
        <time>2021-03-21T08:41:30Z</time>
      </trkpt>
      <trkpt lat="44.02286" lon="1.69237">
        <ele>393.6</ele>
        <time>2021-03-21T08:41:34Z</time>
      </trkpt>
      <trkpt lat="44.02296" lon="1.69239">
        <ele>394.8</ele>
        <time>2021-03-21T08:41:38Z</time>
      </trkpt>
      <trkpt lat="44.02306" lon="1.69241">
        <ele>394.8</ele>
        <time>2021-03-21T08:41:42Z</time>
      </trkpt>
      <trkpt lat="44.02317" lon="1.69243">
        <ele>395.6</ele>
        <time>2021-03-21T08:41:46Z</time>
      </trkpt>
      <trkpt lat="44.02327" lon="1.69244">
        <ele>395.6</ele>
        <time>2021-03-21T08:41:50Z</time>
      </trkpt>
      <trkpt lat="44.02337" lon="1.69243">
        <ele>395.4</ele>
        <time>2021-03-21T08:41:54Z</time>
      </trkpt>
      <trkpt lat="44.0235" lon="1.69244">
        <ele>394.2</ele>
        <time>2021-03-21T08:41:58Z</time>
      </trkpt>
      <trkpt lat="44.02366" lon="1.69243">
        <ele>393.4</ele>
        <time>2021-03-21T08:42:02Z</time>
      </trkpt>
      <trkpt lat="44.02385" lon="1.69243">
        <ele>393.2</ele>
        <time>2021-03-21T08:42:06Z</time>
      </trkpt>
      <trkpt lat="44.02402" lon="1.69245">
        <ele>392.2</ele>
        <time>2021-03-21T08:42:10Z</time>
      </trkpt>
      <trkpt lat="44.02423" lon="1.69249">
        <ele>389.6</ele>
        <time>2021-03-21T08:42:14Z</time>
      </trkpt>
      <trkpt lat="44.02445" lon="1.69253">
        <ele>388.2</ele>
        <time>2021-03-21T08:42:18Z</time>
      </trkpt>
      <trkpt lat="44.02468" lon="1.69256">
        <ele>387.2</ele>
        <time>2021-03-21T08:42:22Z</time>
      </trkpt>
      <trkpt lat="44.02494" lon="1.69252">
        <ele>384.4</ele>
        <time>2021-03-21T08:42:26Z</time>
      </trkpt>
      <trkpt lat="44.02518" lon="1.69254">
        <ele>386.2</ele>
        <time>2021-03-21T08:42:30Z</time>
      </trkpt>
      <trkpt lat="44.0254" lon="1.69255">
        <ele>385.4</ele>
        <time>2021-03-21T08:42:34Z</time>
      </trkpt>
      <trkpt lat="44.0256" lon="1.69256">
        <ele>385.4</ele>
        <time>2021-03-21T08:42:38Z</time>
      </trkpt>
      <trkpt lat="44.02578" lon="1.69253">
        <ele>384.4</ele>
        <time>2021-03-21T08:42:42Z</time>
      </trkpt>
      <trkpt lat="44.02594" lon="1.69254">
        <ele>384.8</ele>
        <time>2021-03-21T08:42:46Z</time>
      </trkpt>
      <trkpt lat="44.02606" lon="1.69253">
        <ele>384.4</ele>
        <time>2021-03-21T08:42:50Z</time>
      </trkpt>
      <trkpt lat="44.02618" lon="1.69249">
        <ele>381.8</ele>
        <time>2021-03-21T08:45:08Z</time>
      </trkpt>
      <trkpt lat="44.02611" lon="1.69238">
        <ele>379.4</ele>
        <time>2021-03-21T08:45:12Z</time>
      </trkpt>
      <trkpt lat="44.02603" lon="1.69214">
        <ele>371.6</ele>
        <time>2021-03-21T08:45:16Z</time>
      </trkpt>
      <trkpt lat="44.02597" lon="1.69176">
        <ele>365.6</ele>
        <time>2021-03-21T08:45:20Z</time>
      </trkpt>
      <trkpt lat="44.02593" lon="1.69137">
        <ele>366.8</ele>
        <time>2021-03-21T08:45:24Z</time>
      </trkpt>
      <trkpt lat="44.02593" lon="1.691">
        <ele>368.2</ele>
        <time>2021-03-21T08:45:28Z</time>
      </trkpt>
      <trkpt lat="44.02598" lon="1.69079">
        <ele>368.6</ele>
        <time>2021-03-21T08:45:32Z</time>
      </trkpt>
      <trkpt lat="44.02601" lon="1.69057">
        <ele>369.4</ele>
        <time>2021-03-21T08:45:36Z</time>
      </trkpt>
      <trkpt lat="44.02607" lon="1.69039">
        <ele>370.2</ele>
        <time>2021-03-21T08:45:40Z</time>
      </trkpt>
      <trkpt lat="44.02613" lon="1.69023">
        <ele>370.2</ele>
        <time>2021-03-21T08:45:44Z</time>
      </trkpt>
      <trkpt lat="44.02623" lon="1.69007">
        <ele>369.4</ele>
        <time>2021-03-21T08:45:48Z</time>
      </trkpt>
      <trkpt lat="44.02631" lon="1.68983">
        <ele>367.8</ele>
        <time>2021-03-21T08:45:52Z</time>
      </trkpt>
      <trkpt lat="44.02641" lon="1.68959">
        <ele>367.4</ele>
        <time>2021-03-21T08:45:56Z</time>
      </trkpt>
      <trkpt lat="44.02651" lon="1.68931">
        <ele>365.8</ele>
        <time>2021-03-21T08:46:00Z</time>
      </trkpt>
      <trkpt lat="44.0266" lon="1.68898">
        <ele>363.2</ele>
        <time>2021-03-21T08:46:04Z</time>
      </trkpt>
      <trkpt lat="44.02673" lon="1.68865">
        <ele>361.6</ele>
        <time>2021-03-21T08:46:08Z</time>
      </trkpt>
      <trkpt lat="44.02687" lon="1.68837">
        <ele>362</ele>
        <time>2021-03-21T08:46:12Z</time>
      </trkpt>
      <trkpt lat="44.02698" lon="1.68811">
        <ele>362</ele>
        <time>2021-03-21T08:46:16Z</time>
      </trkpt>
      <trkpt lat="44.02706" lon="1.68787">
        <ele>360.4</ele>
        <time>2021-03-21T08:46:20Z</time>
      </trkpt>
      <trkpt lat="44.02714" lon="1.68757">
        <ele>360.8</ele>
        <time>2021-03-21T08:46:24Z</time>
      </trkpt>
      <trkpt lat="44.02724" lon="1.68733">
        <ele>360.4</ele>
        <time>2021-03-21T08:46:28Z</time>
      </trkpt>
      <trkpt lat="44.02729" lon="1.68717">
        <ele>361.2</ele>
        <time>2021-03-21T08:46:32Z</time>
      </trkpt>
      <trkpt lat="44.02732" lon="1.68705">
        <ele>360.8</ele>
        <time>2021-03-21T08:46:36Z</time>
      </trkpt>
      <trkpt lat="44.02738" lon="1.68689">
        <ele>360.6</ele>
        <time>2021-03-21T08:46:40Z</time>
      </trkpt>
      <trkpt lat="44.02744" lon="1.68673">
        <ele>361.4</ele>
        <time>2021-03-21T08:46:44Z</time>
      </trkpt>
      <trkpt lat="44.02749" lon="1.68655">
        <ele>362</ele>
        <time>2021-03-21T08:46:48Z</time>
      </trkpt>
      <trkpt lat="44.02754" lon="1.68636">
        <ele>364</ele>
        <time>2021-03-21T08:46:52Z</time>
      </trkpt>
      <trkpt lat="44.02751" lon="1.68614">
        <ele>364</ele>
        <time>2021-03-21T08:46:56Z</time>
      </trkpt>
      <trkpt lat="44.02755" lon="1.68596">
        <ele>365</ele>
        <time>2021-03-21T08:47:00Z</time>
      </trkpt>
      <trkpt lat="44.02759" lon="1.68583">
        <ele>366.4</ele>
        <time>2021-03-21T08:47:04Z</time>
      </trkpt>
      <trkpt lat="44.02763" lon="1.68572">
        <ele>366.8</ele>
        <time>2021-03-21T08:47:08Z</time>
      </trkpt>
      <trkpt lat="44.02764" lon="1.68559">
        <ele>368.2</ele>
        <time>2021-03-21T08:47:12Z</time>
      </trkpt>
      <trkpt lat="44.02764" lon="1.68546">
        <ele>369</ele>
        <time>2021-03-21T08:47:16Z</time>
      </trkpt>
      <trkpt lat="44.02766" lon="1.68534">
        <ele>369.4</ele>
        <time>2021-03-21T08:47:20Z</time>
      </trkpt>
      <trkpt lat="44.02769" lon="1.68523">
        <ele>370.2</ele>
        <time>2021-03-21T08:47:24Z</time>
      </trkpt>
      <trkpt lat="44.02771" lon="1.68513">
        <ele>371.4</ele>
        <time>2021-03-21T08:47:28Z</time>
      </trkpt>
      <trkpt lat="44.02772" lon="1.68503">
        <ele>371.8</ele>
        <time>2021-03-21T08:47:32Z</time>
      </trkpt>
      <trkpt lat="44.02772" lon="1.68491">
        <ele>372.4</ele>
        <time>2021-03-21T08:47:36Z</time>
      </trkpt>
      <trkpt lat="44.02773" lon="1.68481">
        <ele>374.4</ele>
        <time>2021-03-21T08:47:40Z</time>
      </trkpt>
      <trkpt lat="44.02774" lon="1.68473">
        <ele>374.4</ele>
        <time>2021-03-21T08:47:44Z</time>
      </trkpt>
      <trkpt lat="44.02777" lon="1.68465">
        <ele>375.2</ele>
        <time>2021-03-21T08:47:48Z</time>
      </trkpt>
      <trkpt lat="44.0278" lon="1.68457">
        <ele>375.8</ele>
        <time>2021-03-21T08:47:52Z</time>
      </trkpt>
      <trkpt lat="44.02785" lon="1.68457">
        <ele>376.2</ele>
        <time>2021-03-21T08:47:56Z</time>
      </trkpt>
      <trkpt lat="44.02789" lon="1.68462">
        <ele>376.8</ele>
        <time>2021-03-21T08:48:00Z</time>
      </trkpt>
      <trkpt lat="44.02796" lon="1.68458">
        <ele>378</ele>
        <time>2021-03-21T08:48:04Z</time>
      </trkpt>
      <trkpt lat="44.02804" lon="1.68455">
        <ele>379</ele>
        <time>2021-03-21T08:48:08Z</time>
      </trkpt>
      <trkpt lat="44.02812" lon="1.68454">
        <ele>379.2</ele>
        <time>2021-03-21T08:48:12Z</time>
      </trkpt>
      <trkpt lat="44.0282" lon="1.68451">
        <ele>380</ele>
        <time>2021-03-21T08:48:16Z</time>
      </trkpt>
      <trkpt lat="44.02827" lon="1.68447">
        <ele>380</ele>
        <time>2021-03-21T08:48:20Z</time>
      </trkpt>
      <trkpt lat="44.02834" lon="1.68443">
        <ele>380.4</ele>
        <time>2021-03-21T08:48:24Z</time>
      </trkpt>
      <trkpt lat="44.0284" lon="1.68441">
        <ele>380.8</ele>
        <time>2021-03-21T08:48:28Z</time>
      </trkpt>
      <trkpt lat="44.02849" lon="1.68437">
        <ele>380.2</ele>
        <time>2021-03-21T08:48:32Z</time>
      </trkpt>
      <trkpt lat="44.02856" lon="1.68431">
        <ele>380.8</ele>
        <time>2021-03-21T08:48:36Z</time>
      </trkpt>
      <trkpt lat="44.02864" lon="1.68425">
        <ele>381</ele>
        <time>2021-03-21T08:48:40Z</time>
      </trkpt>
      <trkpt lat="44.02871" lon="1.68413">
        <ele>380.2</ele>
        <time>2021-03-21T08:48:44Z</time>
      </trkpt>
      <trkpt lat="44.02879" lon="1.68399">
        <ele>380</ele>
        <time>2021-03-21T08:48:48Z</time>
      </trkpt>
      <trkpt lat="44.02884" lon="1.68387">
        <ele>380</ele>
        <time>2021-03-21T08:48:52Z</time>
      </trkpt>
      <trkpt lat="44.02894" lon="1.68383">
        <ele>379</ele>
        <time>2021-03-21T08:48:56Z</time>
      </trkpt>
      <trkpt lat="44.02905" lon="1.68374">
        <ele>378.2</ele>
        <time>2021-03-21T08:49:00Z</time>
      </trkpt>
      <trkpt lat="44.0291" lon="1.68364">
        <ele>377</ele>
        <time>2021-03-21T08:49:04Z</time>
      </trkpt>
      <trkpt lat="44.02924" lon="1.68372">
        <ele>376.8</ele>
        <time>2021-03-21T08:49:42Z</time>
      </trkpt>
      <trkpt lat="44.0292" lon="1.68387">
        <ele>376.4</ele>
        <time>2021-03-21T08:49:46Z</time>
      </trkpt>
      <trkpt lat="44.02913" lon="1.68405">
        <ele>376.2</ele>
        <time>2021-03-21T08:49:50Z</time>
      </trkpt>
      <trkpt lat="44.02919" lon="1.68412">
        <ele>375</ele>
        <time>2021-03-21T08:49:54Z</time>
      </trkpt>
      <trkpt lat="44.02927" lon="1.68418">
        <ele>373.6</ele>
        <time>2021-03-21T08:49:58Z</time>
      </trkpt>
      <trkpt lat="44.02932" lon="1.68429">
        <ele>370.6</ele>
        <time>2021-03-21T08:50:02Z</time>
      </trkpt>
      <trkpt lat="44.02931" lon="1.68449">
        <ele>366.6</ele>
        <time>2021-03-21T08:50:06Z</time>
      </trkpt>
      <trkpt lat="44.02923" lon="1.68465">
        <ele>363.8</ele>
        <time>2021-03-21T08:50:10Z</time>
      </trkpt>
      <trkpt lat="44.02919" lon="1.68479">
        <ele>361.6</ele>
        <time>2021-03-21T08:50:14Z</time>
      </trkpt>
      <trkpt lat="44.02913" lon="1.68487">
        <ele>361.4</ele>
        <time>2021-03-21T08:50:18Z</time>
      </trkpt>
      <trkpt lat="44.02911" lon="1.68492">
        <ele>359.8</ele>
        <time>2021-03-21T08:50:22Z</time>
      </trkpt>
      <trkpt lat="44.02907" lon="1.68513">
        <ele>355.6</ele>
        <time>2021-03-21T08:50:26Z</time>
      </trkpt>
      <trkpt lat="44.02901" lon="1.68534">
        <ele>352.2</ele>
        <time>2021-03-21T08:50:30Z</time>
      </trkpt>
      <trkpt lat="44.029" lon="1.68558">
        <ele>347</ele>
        <time>2021-03-21T08:50:34Z</time>
      </trkpt>
      <trkpt lat="44.02894" lon="1.6858">
        <ele>344.8</ele>
        <time>2021-03-21T08:50:38Z</time>
      </trkpt>
      <trkpt lat="44.02885" lon="1.68607">
        <ele>341.6</ele>
        <time>2021-03-21T08:50:42Z</time>
      </trkpt>
      <trkpt lat="44.02875" lon="1.68629">
        <ele>338.8</ele>
        <time>2021-03-21T08:50:46Z</time>
      </trkpt>
      <trkpt lat="44.02869" lon="1.68655">
        <ele>337.8</ele>
        <time>2021-03-21T08:50:50Z</time>
      </trkpt>
      <trkpt lat="44.02872" lon="1.68673">
        <ele>334.4</ele>
        <time>2021-03-21T08:50:54Z</time>
      </trkpt>
      <trkpt lat="44.02884" lon="1.68666">
        <ele>332</ele>
        <time>2021-03-21T08:50:58Z</time>
      </trkpt>
      <trkpt lat="44.02899" lon="1.68651">
        <ele>329</ele>
        <time>2021-03-21T08:51:02Z</time>
      </trkpt>
      <trkpt lat="44.02911" lon="1.68637">
        <ele>327.6</ele>
        <time>2021-03-21T08:51:06Z</time>
      </trkpt>
      <trkpt lat="44.02918" lon="1.68624">
        <ele>327.2</ele>
        <time>2021-03-21T08:51:10Z</time>
      </trkpt>
      <trkpt lat="44.02926" lon="1.68617">
        <ele>324.8</ele>
        <time>2021-03-21T08:51:14Z</time>
      </trkpt>
      <trkpt lat="44.02937" lon="1.68599">
        <ele>322.2</ele>
        <time>2021-03-21T08:51:18Z</time>
      </trkpt>
      <trkpt lat="44.02952" lon="1.68583">
        <ele>318.6</ele>
        <time>2021-03-21T08:51:22Z</time>
      </trkpt>
      <trkpt lat="44.02966" lon="1.68564">
        <ele>317.6</ele>
        <time>2021-03-21T08:51:26Z</time>
      </trkpt>
      <trkpt lat="44.02979" lon="1.68558">
        <ele>314.4</ele>
        <time>2021-03-21T08:51:30Z</time>
      </trkpt>
      <trkpt lat="44.02989" lon="1.68555">
        <ele>310</ele>
        <time>2021-03-21T08:51:34Z</time>
      </trkpt>
      <trkpt lat="44.02995" lon="1.68566">
        <ele>305.8</ele>
        <time>2021-03-21T08:57:12Z</time>
      </trkpt>
      <trkpt lat="44.02991" lon="1.68575">
        <ele>305</ele>
        <time>2021-03-21T08:57:16Z</time>
      </trkpt>
      <trkpt lat="44.02989" lon="1.68587">
        <ele>301.4</ele>
        <time>2021-03-21T08:57:20Z</time>
      </trkpt>
      <trkpt lat="44.02999" lon="1.68585">
        <ele>297.6</ele>
        <time>2021-03-21T08:57:24Z</time>
      </trkpt>
      <trkpt lat="44.03003" lon="1.68589">
        <ele>293.8</ele>
        <time>2021-03-21T08:57:28Z</time>
      </trkpt>
      <trkpt lat="44.03007" lon="1.68602">
        <ele>288.2</ele>
        <time>2021-03-21T08:57:32Z</time>
      </trkpt>
      <trkpt lat="44.03013" lon="1.68614">
        <ele>282.4</ele>
        <time>2021-03-21T08:57:36Z</time>
      </trkpt>
      <trkpt lat="44.03018" lon="1.68626">
        <ele>277.4</ele>
        <time>2021-03-21T08:57:40Z</time>
      </trkpt>
      <trkpt lat="44.03033" lon="1.68621">
        <ele>274</ele>
        <time>2021-03-21T08:57:44Z</time>
      </trkpt>
      <trkpt lat="44.0304" lon="1.68633">
        <ele>270.2</ele>
        <time>2021-03-21T08:57:48Z</time>
      </trkpt>
      <trkpt lat="44.03052" lon="1.68625">
        <ele>268.8</ele>
        <time>2021-03-21T08:57:52Z</time>
      </trkpt>
      <trkpt lat="44.03058" lon="1.68611">
        <ele>269.4</ele>
        <time>2021-03-21T08:57:56Z</time>
      </trkpt>
      <trkpt lat="44.03063" lon="1.686">
        <ele>268.2</ele>
        <time>2021-03-21T08:58:00Z</time>
      </trkpt>
      <trkpt lat="44.03068" lon="1.68591">
        <ele>268</ele>
        <time>2021-03-21T08:58:04Z</time>
      </trkpt>
      <trkpt lat="44.03069" lon="1.68604">
        <ele>266</ele>
        <time>2021-03-21T08:58:08Z</time>
      </trkpt>
      <trkpt lat="44.03075" lon="1.68614">
        <ele>262.2</ele>
        <time>2021-03-21T08:58:12Z</time>
      </trkpt>
      <trkpt lat="44.03085" lon="1.68606">
        <ele>260.6</ele>
        <time>2021-03-21T08:58:16Z</time>
      </trkpt>
      <trkpt lat="44.03099" lon="1.686">
        <ele>255.8</ele>
        <time>2021-03-21T08:58:20Z</time>
      </trkpt>
      <trkpt lat="44.03106" lon="1.68606">
        <ele>253.6</ele>
        <time>2021-03-21T08:58:24Z</time>
      </trkpt>
      <trkpt lat="44.03107" lon="1.68617">
        <ele>251</ele>
        <time>2021-03-21T08:58:28Z</time>
      </trkpt>
      <trkpt lat="44.03117" lon="1.6862">
        <ele>246</ele>
        <time>2021-03-21T08:58:32Z</time>
      </trkpt>
      <trkpt lat="44.03137" lon="1.6861">
        <ele>242</ele>
        <time>2021-03-21T08:58:36Z</time>
      </trkpt>
      <trkpt lat="44.03143" lon="1.68589">
        <ele>238.4</ele>
        <time>2021-03-21T08:58:40Z</time>
      </trkpt>
      <trkpt lat="44.03147" lon="1.68565">
        <ele>238</ele>
        <time>2021-03-21T08:58:44Z</time>
      </trkpt>
      <trkpt lat="44.03146" lon="1.68545">
        <ele>239.4</ele>
        <time>2021-03-21T08:58:48Z</time>
      </trkpt>
      <trkpt lat="44.03151" lon="1.68532">
        <ele>235.8</ele>
        <time>2021-03-21T08:58:52Z</time>
      </trkpt>
      <trkpt lat="44.03159" lon="1.68513">
        <ele>233</ele>
        <time>2021-03-21T08:58:56Z</time>
      </trkpt>
      <trkpt lat="44.03163" lon="1.68499">
        <ele>229.6</ele>
        <time>2021-03-21T08:59:00Z</time>
      </trkpt>
      <trkpt lat="44.03181" lon="1.68462">
        <ele>227.6</ele>
        <time>2021-03-21T09:00:09Z</time>
      </trkpt>
      <trkpt lat="44.03192" lon="1.68454">
        <ele>227.6</ele>
        <time>2021-03-21T09:00:13Z</time>
      </trkpt>
      <trkpt lat="44.03208" lon="1.68441">
        <ele>222.4</ele>
        <time>2021-03-21T09:00:17Z</time>
      </trkpt>
      <trkpt lat="44.03224" lon="1.68431">
        <ele>215.6</ele>
        <time>2021-03-21T09:00:21Z</time>
      </trkpt>
      <trkpt lat="44.03231" lon="1.68422">
        <ele>211.4</ele>
        <time>2021-03-21T09:00:25Z</time>
      </trkpt>
      <trkpt lat="44.03234" lon="1.68413">
        <ele>214</ele>
        <time>2021-03-21T09:00:29Z</time>
      </trkpt>
      <trkpt lat="44.0324" lon="1.684">
        <ele>215.4</ele>
        <time>2021-03-21T09:00:33Z</time>
      </trkpt>
      <trkpt lat="44.03251" lon="1.6839">
        <ele>215</ele>
        <time>2021-03-21T09:00:37Z</time>
      </trkpt>
      <trkpt lat="44.03269" lon="1.68383">
        <ele>212.6</ele>
        <time>2021-03-21T09:00:41Z</time>
      </trkpt>
      <trkpt lat="44.03287" lon="1.6837">
        <ele>212.2</ele>
        <time>2021-03-21T09:00:45Z</time>
      </trkpt>
      <trkpt lat="44.03298" lon="1.68355">
        <ele>212</ele>
        <time>2021-03-21T09:00:49Z</time>
      </trkpt>
      <trkpt lat="44.03311" lon="1.68341">
        <ele>205.6</ele>
        <time>2021-03-21T09:00:53Z</time>
      </trkpt>
      <trkpt lat="44.0332" lon="1.68329">
        <ele>201</ele>
        <time>2021-03-21T09:00:57Z</time>
      </trkpt>
      <trkpt lat="44.03329" lon="1.68304">
        <ele>194.6</ele>
        <time>2021-03-21T09:01:01Z</time>
      </trkpt>
      <trkpt lat="44.03337" lon="1.68267">
        <ele>188.8</ele>
        <time>2021-03-21T09:01:05Z</time>
      </trkpt>
      <trkpt lat="44.03341" lon="1.6823">
        <ele>184.6</ele>
        <time>2021-03-21T09:01:09Z</time>
      </trkpt>
      <trkpt lat="44.03348" lon="1.68208">
        <ele>180.6</ele>
        <time>2021-03-21T09:01:13Z</time>
      </trkpt>
      <trkpt lat="44.03345" lon="1.68181">
        <ele>177.4</ele>
        <time>2021-03-21T09:01:17Z</time>
      </trkpt>
      <trkpt lat="44.0335" lon="1.68149">
        <ele>174.4</ele>
        <time>2021-03-21T09:01:21Z</time>
      </trkpt>
      <trkpt lat="44.0336" lon="1.68114">
        <ele>171.8</ele>
        <time>2021-03-21T09:01:25Z</time>
      </trkpt>
      <trkpt lat="44.03376" lon="1.68072">
        <ele>165</ele>
        <time>2021-03-21T09:01:29Z</time>
      </trkpt>
      <trkpt lat="44.03385" lon="1.68038">
        <ele>163.2</ele>
        <time>2021-03-21T09:01:33Z</time>
      </trkpt>
      <trkpt lat="44.03397" lon="1.68023">
        <ele>162.2</ele>
        <time>2021-03-21T09:01:37Z</time>
      </trkpt>
      <trkpt lat="44.03405" lon="1.67996">
        <ele>158.2</ele>
        <time>2021-03-21T09:01:41Z</time>
      </trkpt>
      <trkpt lat="44.03419" lon="1.67966">
        <ele>156.8</ele>
        <time>2021-03-21T09:01:45Z</time>
      </trkpt>
      <trkpt lat="44.03433" lon="1.6793">
        <ele>152.8</ele>
        <time>2021-03-21T09:01:49Z</time>
      </trkpt>
      <trkpt lat="44.03451" lon="1.67906">
        <ele>150.6</ele>
        <time>2021-03-21T09:01:53Z</time>
      </trkpt>
      <trkpt lat="44.03467" lon="1.67899">
        <ele>150.6</ele>
        <time>2021-03-21T09:01:57Z</time>
      </trkpt>
      <trkpt lat="44.0348" lon="1.67877">
        <ele>150</ele>
        <time>2021-03-21T09:02:01Z</time>
      </trkpt>
      <trkpt lat="44.03493" lon="1.67849">
        <ele>148</ele>
        <time>2021-03-21T09:02:05Z</time>
      </trkpt>
      <trkpt lat="44.03508" lon="1.67813">
        <ele>144.8</ele>
        <time>2021-03-21T09:02:09Z</time>
      </trkpt>
      <trkpt lat="44.03511" lon="1.67783">
        <ele>143.6</ele>
        <time>2021-03-21T09:02:13Z</time>
      </trkpt>
      <trkpt lat="44.03514" lon="1.6777">
        <ele>141.6</ele>
        <time>2021-03-21T09:02:17Z</time>
      </trkpt>
      <trkpt lat="44.03521" lon="1.6775">
        <ele>140.8</ele>
        <time>2021-03-21T09:02:32Z</time>
      </trkpt>
      <trkpt lat="44.03533" lon="1.67715">
        <ele>137</ele>
        <time>2021-03-21T09:02:36Z</time>
      </trkpt>
      <trkpt lat="44.03538" lon="1.67682">
        <ele>135.6</ele>
        <time>2021-03-21T09:02:40Z</time>
      </trkpt>
      <trkpt lat="44.03547" lon="1.67659">
        <ele>134</ele>
        <time>2021-03-21T09:05:11Z</time>
      </trkpt>
      <trkpt lat="44.03559" lon="1.67656">
        <ele>134.2</ele>
        <time>2021-03-21T09:05:15Z</time>
      </trkpt>
      <trkpt lat="44.0357" lon="1.67646">
        <ele>132.6</ele>
        <time>2021-03-21T09:05:19Z</time>
      </trkpt>
      <trkpt lat="44.03571" lon="1.67624">
        <ele>132.4</ele>
        <time>2021-03-21T09:05:23Z</time>
      </trkpt>
      <trkpt lat="44.03575" lon="1.67604">
        <ele>133</ele>
        <time>2021-03-21T09:05:27Z</time>
      </trkpt>
      <trkpt lat="44.03587" lon="1.67597">
        <ele>131.4</ele>
        <time>2021-03-21T09:05:31Z</time>
      </trkpt>
      <trkpt lat="44.03606" lon="1.67598">
        <ele>130.6</ele>
        <time>2021-03-21T09:05:35Z</time>
      </trkpt>
      <trkpt lat="44.03623" lon="1.6759">
        <ele>130.2</ele>
        <time>2021-03-21T09:05:39Z</time>
      </trkpt>
      <trkpt lat="44.03636" lon="1.67585">
        <ele>130.6</ele>
        <time>2021-03-21T09:05:43Z</time>
      </trkpt>
      <trkpt lat="44.03652" lon="1.67581">
        <ele>129.8</ele>
        <time>2021-03-21T09:05:47Z</time>
      </trkpt>
      <trkpt lat="44.03671" lon="1.67575">
        <ele>129.4</ele>
        <time>2021-03-21T09:05:51Z</time>
      </trkpt>
      <trkpt lat="44.0369" lon="1.67568">
        <ele>128.2</ele>
        <time>2021-03-21T09:05:55Z</time>
      </trkpt>
      <trkpt lat="44.0371" lon="1.67552">
        <ele>126.6</ele>
        <time>2021-03-21T09:05:59Z</time>
      </trkpt>
      <trkpt lat="44.0373" lon="1.67535">
        <ele>125</ele>
        <time>2021-03-21T09:06:03Z</time>
      </trkpt>
      <trkpt lat="44.03756" lon="1.67519">
        <ele>121.6</ele>
        <time>2021-03-21T09:06:07Z</time>
      </trkpt>
      <trkpt lat="44.03783" lon="1.67519">
        <ele>123.8</ele>
        <time>2021-03-21T09:06:11Z</time>
      </trkpt>
      <trkpt lat="44.03806" lon="1.67518">
        <ele>124.6</ele>
        <time>2021-03-21T09:06:15Z</time>
      </trkpt>
      <trkpt lat="44.03822" lon="1.67514">
        <ele>128.2</ele>
        <time>2021-03-21T09:06:19Z</time>
      </trkpt>
      <trkpt lat="44.03834" lon="1.67505">
        <ele>127.8</ele>
        <time>2021-03-21T09:06:23Z</time>
      </trkpt>
      <trkpt lat="44.03848" lon="1.67493">
        <ele>127.4</ele>
        <time>2021-03-21T09:06:27Z</time>
      </trkpt>
      <trkpt lat="44.03861" lon="1.6748">
        <ele>127.4</ele>
        <time>2021-03-21T09:06:31Z</time>
      </trkpt>
      <trkpt lat="44.03872" lon="1.67468">
        <ele>128.8</ele>
        <time>2021-03-21T09:06:35Z</time>
      </trkpt>
      <trkpt lat="44.03882" lon="1.67457">
        <ele>129.2</ele>
        <time>2021-03-21T09:06:39Z</time>
      </trkpt>
      <trkpt lat="44.03894" lon="1.67444">
        <ele>128.2</ele>
        <time>2021-03-21T09:06:43Z</time>
      </trkpt>
      <trkpt lat="44.03906" lon="1.6743">
        <ele>128.2</ele>
        <time>2021-03-21T09:06:47Z</time>
      </trkpt>
      <trkpt lat="44.0392" lon="1.67417">
        <ele>128.4</ele>
        <time>2021-03-21T09:06:51Z</time>
      </trkpt>
      <trkpt lat="44.03934" lon="1.67403">
        <ele>128.8</ele>
        <time>2021-03-21T09:06:55Z</time>
      </trkpt>
      <trkpt lat="44.03949" lon="1.67392">
        <ele>128.8</ele>
        <time>2021-03-21T09:06:59Z</time>
      </trkpt>
      <trkpt lat="44.03961" lon="1.67378">
        <ele>129.4</ele>
        <time>2021-03-21T09:07:03Z</time>
      </trkpt>
      <trkpt lat="44.03972" lon="1.67362">
        <ele>128.8</ele>
        <time>2021-03-21T09:07:07Z</time>
      </trkpt>
      <trkpt lat="44.03986" lon="1.67342">
        <ele>126.8</ele>
        <time>2021-03-21T09:07:11Z</time>
      </trkpt>
      <trkpt lat="44.04005" lon="1.67324">
        <ele>124</ele>
        <time>2021-03-21T09:07:15Z</time>
      </trkpt>
      <trkpt lat="44.04027" lon="1.67308">
        <ele>121.8</ele>
        <time>2021-03-21T09:07:19Z</time>
      </trkpt>
      <trkpt lat="44.04051" lon="1.67303">
        <ele>122.4</ele>
        <time>2021-03-21T09:07:23Z</time>
      </trkpt>
      <trkpt lat="44.04074" lon="1.67301">
        <ele>120.2</ele>
        <time>2021-03-21T09:07:27Z</time>
      </trkpt>
      <trkpt lat="44.04098" lon="1.67298">
        <ele>120</ele>
        <time>2021-03-21T09:07:31Z</time>
      </trkpt>
      <trkpt lat="44.04113" lon="1.6729">
        <ele>120.4</ele>
        <time>2021-03-21T09:07:35Z</time>
      </trkpt>
      <trkpt lat="44.04123" lon="1.67285">
        <ele>120</ele>
        <time>2021-03-21T09:07:39Z</time>
      </trkpt>
      <trkpt lat="44.04135" lon="1.67278">
        <ele>120</ele>
        <time>2021-03-21T09:07:43Z</time>
      </trkpt>
      <trkpt lat="44.04147" lon="1.6727">
        <ele>119.8</ele>
        <time>2021-03-21T09:07:47Z</time>
      </trkpt>
      <trkpt lat="44.0416" lon="1.67258">
        <ele>120</ele>
        <time>2021-03-21T09:07:51Z</time>
      </trkpt>
      <trkpt lat="44.04173" lon="1.67247">
        <ele>119.8</ele>
        <time>2021-03-21T09:07:55Z</time>
      </trkpt>
      <trkpt lat="44.04185" lon="1.67234">
        <ele>119.8</ele>
        <time>2021-03-21T09:07:59Z</time>
      </trkpt>
      <trkpt lat="44.04199" lon="1.67219">
        <ele>119.4</ele>
        <time>2021-03-21T09:08:03Z</time>
      </trkpt>
      <trkpt lat="44.04213" lon="1.67207">
        <ele>119.4</ele>
        <time>2021-03-21T09:08:07Z</time>
      </trkpt>
      <trkpt lat="44.04227" lon="1.67192">
        <ele>119.6</ele>
        <time>2021-03-21T09:08:11Z</time>
      </trkpt>
      <trkpt lat="44.04241" lon="1.67179">
        <ele>119.8</ele>
        <time>2021-03-21T09:08:15Z</time>
      </trkpt>
      <trkpt lat="44.04255" lon="1.67165">
        <ele>120</ele>
        <time>2021-03-21T09:08:19Z</time>
      </trkpt>
      <trkpt lat="44.0427" lon="1.6715">
        <ele>119.4</ele>
        <time>2021-03-21T09:08:23Z</time>
      </trkpt>
      <trkpt lat="44.04285" lon="1.67138">
        <ele>119.4</ele>
        <time>2021-03-21T09:08:27Z</time>
      </trkpt>
      <trkpt lat="44.04301" lon="1.67136">
        <ele>119.4</ele>
        <time>2021-03-21T09:08:31Z</time>
      </trkpt>
      <trkpt lat="44.04316" lon="1.67139">
        <ele>120.8</ele>
        <time>2021-03-21T09:08:35Z</time>
      </trkpt>
      <trkpt lat="44.0433" lon="1.67139">
        <ele>121</ele>
        <time>2021-03-21T09:08:39Z</time>
      </trkpt>
      <trkpt lat="44.04341" lon="1.67141">
        <ele>121.6</ele>
        <time>2021-03-21T09:08:43Z</time>
      </trkpt>
      <trkpt lat="44.04351" lon="1.67142">
        <ele>122.4</ele>
        <time>2021-03-21T09:08:47Z</time>
      </trkpt>
      <trkpt lat="44.04363" lon="1.67142">
        <ele>123.4</ele>
        <time>2021-03-21T09:08:51Z</time>
      </trkpt>
      <trkpt lat="44.04375" lon="1.67142">
        <ele>123.6</ele>
        <time>2021-03-21T09:08:55Z</time>
      </trkpt>
      <trkpt lat="44.04388" lon="1.67143">
        <ele>124.4</ele>
        <time>2021-03-21T09:08:59Z</time>
      </trkpt>
      <trkpt lat="44.044" lon="1.67142">
        <ele>124.4</ele>
        <time>2021-03-21T09:09:03Z</time>
      </trkpt>
      <trkpt lat="44.04411" lon="1.67141">
        <ele>125.8</ele>
        <time>2021-03-21T09:09:07Z</time>
      </trkpt>
      <trkpt lat="44.04422" lon="1.6714">
        <ele>126.6</ele>
        <time>2021-03-21T09:09:11Z</time>
      </trkpt>
      <trkpt lat="44.04432" lon="1.67139">
        <ele>127</ele>
        <time>2021-03-21T09:09:15Z</time>
      </trkpt>
      <trkpt lat="44.04442" lon="1.67139">
        <ele>127</ele>
        <time>2021-03-21T09:09:19Z</time>
      </trkpt>
      <trkpt lat="44.04453" lon="1.67142">
        <ele>127.4</ele>
        <time>2021-03-21T09:09:23Z</time>
      </trkpt>
      <trkpt lat="44.04461" lon="1.67146">
        <ele>127.2</ele>
        <time>2021-03-21T09:09:27Z</time>
      </trkpt>
      <trkpt lat="44.04464" lon="1.67156">
        <ele>128.4</ele>
        <time>2021-03-21T09:09:31Z</time>
      </trkpt>
      <trkpt lat="44.04462" lon="1.67163">
        <ele>129.6</ele>
        <time>2021-03-21T09:09:35Z</time>
      </trkpt>
      <trkpt lat="44.04461" lon="1.67172">
        <ele>130</ele>
        <time>2021-03-21T09:09:39Z</time>
      </trkpt>
      <trkpt lat="44.0446" lon="1.6718">
        <ele>130.4</ele>
        <time>2021-03-21T09:09:43Z</time>
      </trkpt>
      <trkpt lat="44.04458" lon="1.67187">
        <ele>131.2</ele>
        <time>2021-03-21T09:09:47Z</time>
      </trkpt>
      <trkpt lat="44.04455" lon="1.67194">
        <ele>132.2</ele>
        <time>2021-03-21T09:09:51Z</time>
      </trkpt>
      <trkpt lat="44.04452" lon="1.67199">
        <ele>133.2</ele>
        <time>2021-03-21T09:09:55Z</time>
      </trkpt>
      <trkpt lat="44.04448" lon="1.67204">
        <ele>133.8</ele>
        <time>2021-03-21T09:09:59Z</time>
      </trkpt>
      <trkpt lat="44.04444" lon="1.67209">
        <ele>134.2</ele>
        <time>2021-03-21T09:10:03Z</time>
      </trkpt>
      <trkpt lat="44.0444" lon="1.67215">
        <ele>134.8</ele>
        <time>2021-03-21T09:10:07Z</time>
      </trkpt>
      <trkpt lat="44.04437" lon="1.67221">
        <ele>135.6</ele>
        <time>2021-03-21T09:10:11Z</time>
      </trkpt>
      <trkpt lat="44.04435" lon="1.67227">
        <ele>136.4</ele>
        <time>2021-03-21T09:10:15Z</time>
      </trkpt>
      <trkpt lat="44.04435" lon="1.67233">
        <ele>138</ele>
        <time>2021-03-21T09:10:19Z</time>
      </trkpt>
      <trkpt lat="44.04436" lon="1.6724">
        <ele>138.4</ele>
        <time>2021-03-21T09:10:23Z</time>
      </trkpt>
      <trkpt lat="44.04437" lon="1.67246">
        <ele>138.8</ele>
        <time>2021-03-21T09:10:27Z</time>
      </trkpt>
      <trkpt lat="44.04438" lon="1.67252">
        <ele>139.6</ele>
        <time>2021-03-21T09:10:31Z</time>
      </trkpt>
      <trkpt lat="44.04438" lon="1.67259">
        <ele>140.2</ele>
        <time>2021-03-21T09:10:35Z</time>
      </trkpt>
      <trkpt lat="44.04437" lon="1.67266">
        <ele>140.6</ele>
        <time>2021-03-21T09:10:39Z</time>
      </trkpt>
      <trkpt lat="44.04436" lon="1.67273">
        <ele>141.6</ele>
        <time>2021-03-21T09:10:43Z</time>
      </trkpt>
      <trkpt lat="44.04434" lon="1.6728">
        <ele>142.2</ele>
        <time>2021-03-21T09:10:47Z</time>
      </trkpt>
      <trkpt lat="44.04431" lon="1.67285">
        <ele>143</ele>
        <time>2021-03-21T09:10:51Z</time>
      </trkpt>
      <trkpt lat="44.04427" lon="1.67289">
        <ele>144.4</ele>
        <time>2021-03-21T09:10:55Z</time>
      </trkpt>
      <trkpt lat="44.04422" lon="1.67293">
        <ele>145</ele>
        <time>2021-03-21T09:10:59Z</time>
      </trkpt>
      <trkpt lat="44.04418" lon="1.67298">
        <ele>145.4</ele>
        <time>2021-03-21T09:11:03Z</time>
      </trkpt>
      <trkpt lat="44.04414" lon="1.67302">
        <ele>146.4</ele>
        <time>2021-03-21T09:11:07Z</time>
      </trkpt>
      <trkpt lat="44.0441" lon="1.67305">
        <ele>147</ele>
        <time>2021-03-21T09:11:11Z</time>
      </trkpt>
      <trkpt lat="44.04405" lon="1.67308">
        <ele>147.8</ele>
        <time>2021-03-21T09:11:15Z</time>
      </trkpt>
      <trkpt lat="44.04401" lon="1.67312">
        <ele>148.4</ele>
        <time>2021-03-21T09:11:19Z</time>
      </trkpt>
      <trkpt lat="44.04397" lon="1.67316">
        <ele>149.6</ele>
        <time>2021-03-21T09:11:23Z</time>
      </trkpt>
      <trkpt lat="44.04392" lon="1.67319">
        <ele>150.4</ele>
        <time>2021-03-21T09:11:27Z</time>
      </trkpt>
      <trkpt lat="44.04388" lon="1.67322">
        <ele>151</ele>
        <time>2021-03-21T09:11:31Z</time>
      </trkpt>
      <trkpt lat="44.04384" lon="1.67325">
        <ele>151.8</ele>
        <time>2021-03-21T09:11:35Z</time>
      </trkpt>
      <trkpt lat="44.0438" lon="1.67329">
        <ele>152.2</ele>
        <time>2021-03-21T09:11:39Z</time>
      </trkpt>
      <trkpt lat="44.04375" lon="1.67334">
        <ele>153</ele>
        <time>2021-03-21T09:11:43Z</time>
      </trkpt>
      <trkpt lat="44.04371" lon="1.67338">
        <ele>153.6</ele>
        <time>2021-03-21T09:11:47Z</time>
      </trkpt>
      <trkpt lat="44.04366" lon="1.67341">
        <ele>154.6</ele>
        <time>2021-03-21T09:11:51Z</time>
      </trkpt>
      <trkpt lat="44.04362" lon="1.67346">
        <ele>155.4</ele>
        <time>2021-03-21T09:11:55Z</time>
      </trkpt>
      <trkpt lat="44.04358" lon="1.67351">
        <ele>156</ele>
        <time>2021-03-21T09:11:59Z</time>
      </trkpt>
      <trkpt lat="44.04354" lon="1.67355">
        <ele>156.6</ele>
        <time>2021-03-21T09:12:03Z</time>
      </trkpt>
      <trkpt lat="44.0435" lon="1.67359">
        <ele>158</ele>
        <time>2021-03-21T09:12:07Z</time>
      </trkpt>
      <trkpt lat="44.04346" lon="1.67363">
        <ele>158.6</ele>
        <time>2021-03-21T09:12:11Z</time>
      </trkpt>
      <trkpt lat="44.04342" lon="1.67368">
        <ele>159.6</ele>
        <time>2021-03-21T09:12:15Z</time>
      </trkpt>
      <trkpt lat="44.04338" lon="1.67373">
        <ele>160.8</ele>
        <time>2021-03-21T09:12:19Z</time>
      </trkpt>
      <trkpt lat="44.04334" lon="1.67378">
        <ele>161.2</ele>
        <time>2021-03-21T09:12:23Z</time>
      </trkpt>
      <trkpt lat="44.0433" lon="1.67382">
        <ele>161.8</ele>
        <time>2021-03-21T09:12:27Z</time>
      </trkpt>
      <trkpt lat="44.04327" lon="1.67386">
        <ele>162.8</ele>
        <time>2021-03-21T09:12:31Z</time>
      </trkpt>
      <trkpt lat="44.04323" lon="1.67391">
        <ele>163.8</ele>
        <time>2021-03-21T09:12:35Z</time>
      </trkpt>
      <trkpt lat="44.04319" lon="1.67397">
        <ele>164.4</ele>
        <time>2021-03-21T09:12:39Z</time>
      </trkpt>
      <trkpt lat="44.04317" lon="1.67401">
        <ele>164.8</ele>
        <time>2021-03-21T09:12:43Z</time>
      </trkpt>
      <trkpt lat="44.04314" lon="1.67406">
        <ele>165.8</ele>
        <time>2021-03-21T09:12:47Z</time>
      </trkpt>
      <trkpt lat="44.04312" lon="1.67412">
        <ele>166.4</ele>
        <time>2021-03-21T09:12:51Z</time>
      </trkpt>
      <trkpt lat="44.04309" lon="1.67419">
        <ele>167.2</ele>
        <time>2021-03-21T09:12:55Z</time>
      </trkpt>
      <trkpt lat="44.04308" lon="1.67426">
        <ele>168</ele>
        <time>2021-03-21T09:12:59Z</time>
      </trkpt>
      <trkpt lat="44.04306" lon="1.67433">
        <ele>168.4</ele>
        <time>2021-03-21T09:13:03Z</time>
      </trkpt>
      <trkpt lat="44.04306" lon="1.6744">
        <ele>169.8</ele>
        <time>2021-03-21T09:13:07Z</time>
      </trkpt>
      <trkpt lat="44.04304" lon="1.67446">
        <ele>170.6</ele>
        <time>2021-03-21T09:13:11Z</time>
      </trkpt>
      <trkpt lat="44.04304" lon="1.67453">
        <ele>170.8</ele>
        <time>2021-03-21T09:13:15Z</time>
      </trkpt>
      <trkpt lat="44.04302" lon="1.6746">
        <ele>171.4</ele>
        <time>2021-03-21T09:13:19Z</time>
      </trkpt>
      <trkpt lat="44.04301" lon="1.67466">
        <ele>172</ele>
        <time>2021-03-21T09:13:23Z</time>
      </trkpt>
      <trkpt lat="44.043" lon="1.67472">
        <ele>172.8</ele>
        <time>2021-03-21T09:13:27Z</time>
      </trkpt>
      <trkpt lat="44.04299" lon="1.67479">
        <ele>173.8</ele>
        <time>2021-03-21T09:13:31Z</time>
      </trkpt>
      <trkpt lat="44.04298" lon="1.67487">
        <ele>175</ele>
        <time>2021-03-21T09:13:35Z</time>
      </trkpt>
      <trkpt lat="44.04297" lon="1.67493">
        <ele>176</ele>
        <time>2021-03-21T09:13:39Z</time>
      </trkpt>
      <trkpt lat="44.04296" lon="1.675">
        <ele>176.6</ele>
        <time>2021-03-21T09:13:43Z</time>
      </trkpt>
      <trkpt lat="44.04296" lon="1.67507">
        <ele>177.6</ele>
        <time>2021-03-21T09:13:47Z</time>
      </trkpt>
      <trkpt lat="44.04297" lon="1.67515">
        <ele>178.8</ele>
        <time>2021-03-21T09:13:51Z</time>
      </trkpt>
      <trkpt lat="44.04299" lon="1.67522">
        <ele>179</ele>
        <time>2021-03-21T09:13:55Z</time>
      </trkpt>
      <trkpt lat="44.04299" lon="1.67527">
        <ele>180</ele>
        <time>2021-03-21T09:13:59Z</time>
      </trkpt>
      <trkpt lat="44.04301" lon="1.67533">
        <ele>180.8</ele>
        <time>2021-03-21T09:14:03Z</time>
      </trkpt>
      <trkpt lat="44.04303" lon="1.6754">
        <ele>181.8</ele>
        <time>2021-03-21T09:14:07Z</time>
      </trkpt>
      <trkpt lat="44.04304" lon="1.67547">
        <ele>182.4</ele>
        <time>2021-03-21T09:14:11Z</time>
      </trkpt>
      <trkpt lat="44.04303" lon="1.67554">
        <ele>183.4</ele>
        <time>2021-03-21T09:14:15Z</time>
      </trkpt>
      <trkpt lat="44.04302" lon="1.6756">
        <ele>184.4</ele>
        <time>2021-03-21T09:14:19Z</time>
      </trkpt>
      <trkpt lat="44.043" lon="1.67567">
        <ele>185.2</ele>
        <time>2021-03-21T09:14:23Z</time>
      </trkpt>
      <trkpt lat="44.04297" lon="1.67572">
        <ele>186.2</ele>
        <time>2021-03-21T09:14:27Z</time>
      </trkpt>
      <trkpt lat="44.04294" lon="1.67577">
        <ele>186.8</ele>
        <time>2021-03-21T09:14:31Z</time>
      </trkpt>
      <trkpt lat="44.0429" lon="1.67583">
        <ele>187.6</ele>
        <time>2021-03-21T09:14:35Z</time>
      </trkpt>
      <trkpt lat="44.04286" lon="1.67589">
        <ele>188.6</ele>
        <time>2021-03-21T09:14:39Z</time>
      </trkpt>
      <trkpt lat="44.04282" lon="1.67593">
        <ele>189</ele>
        <time>2021-03-21T09:14:43Z</time>
      </trkpt>
      <trkpt lat="44.04279" lon="1.67597">
        <ele>189.6</ele>
        <time>2021-03-21T09:14:47Z</time>
      </trkpt>
      <trkpt lat="44.04275" lon="1.67602">
        <ele>190.2</ele>
        <time>2021-03-21T09:14:51Z</time>
      </trkpt>
      <trkpt lat="44.04271" lon="1.67607">
        <ele>191.2</ele>
        <time>2021-03-21T09:14:55Z</time>
      </trkpt>
      <trkpt lat="44.04267" lon="1.67613">
        <ele>192</ele>
        <time>2021-03-21T09:14:59Z</time>
      </trkpt>
      <trkpt lat="44.04264" lon="1.67618">
        <ele>192.8</ele>
        <time>2021-03-21T09:15:03Z</time>
      </trkpt>
      <trkpt lat="44.04259" lon="1.67623">
        <ele>193.4</ele>
        <time>2021-03-21T09:15:07Z</time>
      </trkpt>
      <trkpt lat="44.04255" lon="1.67626">
        <ele>194.4</ele>
        <time>2021-03-21T09:15:11Z</time>
      </trkpt>
      <trkpt lat="44.04251" lon="1.67631">
        <ele>195</ele>
        <time>2021-03-21T09:15:15Z</time>
      </trkpt>
      <trkpt lat="44.04247" lon="1.67634">
        <ele>196</ele>
        <time>2021-03-21T09:15:19Z</time>
      </trkpt>
      <trkpt lat="44.04243" lon="1.67638">
        <ele>196.6</ele>
        <time>2021-03-21T09:15:23Z</time>
      </trkpt>
      <trkpt lat="44.04239" lon="1.67641">
        <ele>197.4</ele>
        <time>2021-03-21T09:15:27Z</time>
      </trkpt>
      <trkpt lat="44.04234" lon="1.67643">
        <ele>198.6</ele>
        <time>2021-03-21T09:15:31Z</time>
      </trkpt>
      <trkpt lat="44.04229" lon="1.67646">
        <ele>199.2</ele>
        <time>2021-03-21T09:15:35Z</time>
      </trkpt>
      <trkpt lat="44.04224" lon="1.67648">
        <ele>200.2</ele>
        <time>2021-03-21T09:15:39Z</time>
      </trkpt>
      <trkpt lat="44.04219" lon="1.6765">
        <ele>200.8</ele>
        <time>2021-03-21T09:15:43Z</time>
      </trkpt>
      <trkpt lat="44.04214" lon="1.6765">
        <ele>201.6</ele>
        <time>2021-03-21T09:15:47Z</time>
      </trkpt>
      <trkpt lat="44.04209" lon="1.67651">
        <ele>202.2</ele>
        <time>2021-03-21T09:15:51Z</time>
      </trkpt>
      <trkpt lat="44.04204" lon="1.67651">
        <ele>203.2</ele>
        <time>2021-03-21T09:15:55Z</time>
      </trkpt>
      <trkpt lat="44.04199" lon="1.67651">
        <ele>204.2</ele>
        <time>2021-03-21T09:15:59Z</time>
      </trkpt>
      <trkpt lat="44.04194" lon="1.67651">
        <ele>204.8</ele>
        <time>2021-03-21T09:16:03Z</time>
      </trkpt>
      <trkpt lat="44.04189" lon="1.67652">
        <ele>205.6</ele>
        <time>2021-03-21T09:16:07Z</time>
      </trkpt>
      <trkpt lat="44.04184" lon="1.67652">
        <ele>206.4</ele>
        <time>2021-03-21T09:16:11Z</time>
      </trkpt>
      <trkpt lat="44.04179" lon="1.67653">
        <ele>207</ele>
        <time>2021-03-21T09:16:15Z</time>
      </trkpt>
      <trkpt lat="44.04174" lon="1.67654">
        <ele>207.6</ele>
        <time>2021-03-21T09:16:19Z</time>
      </trkpt>
      <trkpt lat="44.04169" lon="1.67654">
        <ele>208.4</ele>
        <time>2021-03-21T09:16:23Z</time>
      </trkpt>
      <trkpt lat="44.04164" lon="1.67655">
        <ele>209.4</ele>
        <time>2021-03-21T09:16:27Z</time>
      </trkpt>
      <trkpt lat="44.04159" lon="1.67654">
        <ele>210.2</ele>
        <time>2021-03-21T09:16:31Z</time>
      </trkpt>
      <trkpt lat="44.04154" lon="1.67654">
        <ele>211</ele>
        <time>2021-03-21T09:16:35Z</time>
      </trkpt>
      <trkpt lat="44.04148" lon="1.67653">
        <ele>211.6</ele>
        <time>2021-03-21T09:16:39Z</time>
      </trkpt>
      <trkpt lat="44.04143" lon="1.67653">
        <ele>212.4</ele>
        <time>2021-03-21T09:16:43Z</time>
      </trkpt>
      <trkpt lat="44.04137" lon="1.67653">
        <ele>213.4</ele>
        <time>2021-03-21T09:16:47Z</time>
      </trkpt>
      <trkpt lat="44.04132" lon="1.67652">
        <ele>214.4</ele>
        <time>2021-03-21T09:16:51Z</time>
      </trkpt>
      <trkpt lat="44.04126" lon="1.67652">
        <ele>215.2</ele>
        <time>2021-03-21T09:16:55Z</time>
      </trkpt>
      <trkpt lat="44.0412" lon="1.67652">
        <ele>215.8</ele>
        <time>2021-03-21T09:16:59Z</time>
      </trkpt>
      <trkpt lat="44.04114" lon="1.67653">
        <ele>216.8</ele>
        <time>2021-03-21T09:17:03Z</time>
      </trkpt>
      <trkpt lat="44.04108" lon="1.67654">
        <ele>217.6</ele>
        <time>2021-03-21T09:17:07Z</time>
      </trkpt>
      <trkpt lat="44.04103" lon="1.67655">
        <ele>218.6</ele>
        <time>2021-03-21T09:17:11Z</time>
      </trkpt>
      <trkpt lat="44.04097" lon="1.67658">
        <ele>219.2</ele>
        <time>2021-03-21T09:17:15Z</time>
      </trkpt>
      <trkpt lat="44.04092" lon="1.6766">
        <ele>219.8</ele>
        <time>2021-03-21T09:17:19Z</time>
      </trkpt>
      <trkpt lat="44.04086" lon="1.67662">
        <ele>220.6</ele>
        <time>2021-03-21T09:17:23Z</time>
      </trkpt>
      <trkpt lat="44.0408" lon="1.67664">
        <ele>221.4</ele>
        <time>2021-03-21T09:17:27Z</time>
      </trkpt>
      <trkpt lat="44.04075" lon="1.67666">
        <ele>222.6</ele>
        <time>2021-03-21T09:17:31Z</time>
      </trkpt>
      <trkpt lat="44.04069" lon="1.67668">
        <ele>222.8</ele>
        <time>2021-03-21T09:17:35Z</time>
      </trkpt>
      <trkpt lat="44.04064" lon="1.6767">
        <ele>223.6</ele>
        <time>2021-03-21T09:17:39Z</time>
      </trkpt>
      <trkpt lat="44.04058" lon="1.67672">
        <ele>224.6</ele>
        <time>2021-03-21T09:17:43Z</time>
      </trkpt>
      <trkpt lat="44.04053" lon="1.67675">
        <ele>225.4</ele>
        <time>2021-03-21T09:17:47Z</time>
      </trkpt>
      <trkpt lat="44.04048" lon="1.67678">
        <ele>225.8</ele>
        <time>2021-03-21T09:17:51Z</time>
      </trkpt>
      <trkpt lat="44.04043" lon="1.67681">
        <ele>226.6</ele>
        <time>2021-03-21T09:17:55Z</time>
      </trkpt>
      <trkpt lat="44.04039" lon="1.67684">
        <ele>227.4</ele>
        <time>2021-03-21T09:17:59Z</time>
      </trkpt>
      <trkpt lat="44.04034" lon="1.67688">
        <ele>228</ele>
        <time>2021-03-21T09:18:03Z</time>
      </trkpt>
      <trkpt lat="44.04029" lon="1.67693">
        <ele>229.4</ele>
        <time>2021-03-21T09:18:07Z</time>
      </trkpt>
      <trkpt lat="44.04024" lon="1.67696">
        <ele>230.4</ele>
        <time>2021-03-21T09:18:11Z</time>
      </trkpt>
      <trkpt lat="44.04019" lon="1.677">
        <ele>231</ele>
        <time>2021-03-21T09:18:15Z</time>
      </trkpt>
      <trkpt lat="44.04014" lon="1.67704">
        <ele>231.8</ele>
        <time>2021-03-21T09:18:19Z</time>
      </trkpt>
      <trkpt lat="44.0401" lon="1.67709">
        <ele>232.2</ele>
        <time>2021-03-21T09:18:23Z</time>
      </trkpt>
      <trkpt lat="44.04006" lon="1.67714">
        <ele>233</ele>
        <time>2021-03-21T09:18:27Z</time>
      </trkpt>
      <trkpt lat="44.04004" lon="1.67721">
        <ele>234.2</ele>
        <time>2021-03-21T09:18:31Z</time>
      </trkpt>
      <trkpt lat="44.04005" lon="1.67728">
        <ele>235.6</ele>
        <time>2021-03-21T09:18:35Z</time>
      </trkpt>
      <trkpt lat="44.04009" lon="1.67733">
        <ele>236.2</ele>
        <time>2021-03-21T09:18:39Z</time>
      </trkpt>
      <trkpt lat="44.04014" lon="1.67735">
        <ele>236.8</ele>
        <time>2021-03-21T09:18:43Z</time>
      </trkpt>
      <trkpt lat="44.04019" lon="1.67738">
        <ele>238.2</ele>
        <time>2021-03-21T09:18:47Z</time>
      </trkpt>
      <trkpt lat="44.04023" lon="1.6774">
        <ele>238.8</ele>
        <time>2021-03-21T09:18:51Z</time>
      </trkpt>
      <trkpt lat="44.04028" lon="1.67742">
        <ele>239.4</ele>
        <time>2021-03-21T09:18:55Z</time>
      </trkpt>
      <trkpt lat="44.04033" lon="1.67745">
        <ele>240</ele>
        <time>2021-03-21T09:18:59Z</time>
      </trkpt>
      <trkpt lat="44.04038" lon="1.67748">
        <ele>240.8</ele>
        <time>2021-03-21T09:19:03Z</time>
      </trkpt>
      <trkpt lat="44.04044" lon="1.67751">
        <ele>242</ele>
        <time>2021-03-21T09:19:07Z</time>
      </trkpt>
      <trkpt lat="44.0405" lon="1.67754">
        <ele>242.4</ele>
        <time>2021-03-21T09:19:11Z</time>
      </trkpt>
      <trkpt lat="44.04056" lon="1.67757">
        <ele>243</ele>
        <time>2021-03-21T09:19:15Z</time>
      </trkpt>
      <trkpt lat="44.04062" lon="1.67761">
        <ele>243.4</ele>
        <time>2021-03-21T09:19:19Z</time>
      </trkpt>
      <trkpt lat="44.04067" lon="1.67765">
        <ele>244.4</ele>
        <time>2021-03-21T09:19:23Z</time>
      </trkpt>
      <trkpt lat="44.04072" lon="1.67771">
        <ele>245.2</ele>
        <time>2021-03-21T09:19:27Z</time>
      </trkpt>
      <trkpt lat="44.04076" lon="1.67778">
        <ele>245.6</ele>
        <time>2021-03-21T09:19:31Z</time>
      </trkpt>
      <trkpt lat="44.04081" lon="1.67785">
        <ele>246.2</ele>
        <time>2021-03-21T09:19:35Z</time>
      </trkpt>
      <trkpt lat="44.04084" lon="1.67791">
        <ele>246.8</ele>
        <time>2021-03-21T09:19:39Z</time>
      </trkpt>
      <trkpt lat="44.04088" lon="1.67798">
        <ele>247</ele>
        <time>2021-03-21T09:19:43Z</time>
      </trkpt>
      <trkpt lat="44.04091" lon="1.67805">
        <ele>248.2</ele>
        <time>2021-03-21T09:19:47Z</time>
      </trkpt>
      <trkpt lat="44.04095" lon="1.67811">
        <ele>249</ele>
        <time>2021-03-21T09:19:51Z</time>
      </trkpt>
      <trkpt lat="44.04098" lon="1.67818">
        <ele>249.8</ele>
        <time>2021-03-21T09:19:55Z</time>
      </trkpt>
      <trkpt lat="44.041" lon="1.67826">
        <ele>250.2</ele>
        <time>2021-03-21T09:19:59Z</time>
      </trkpt>
      <trkpt lat="44.04099" lon="1.67833">
        <ele>251.6</ele>
        <time>2021-03-21T09:20:03Z</time>
      </trkpt>
      <trkpt lat="44.04096" lon="1.6784">
        <ele>252.2</ele>
        <time>2021-03-21T09:20:07Z</time>
      </trkpt>
      <trkpt lat="44.04091" lon="1.67845">
        <ele>253.2</ele>
        <time>2021-03-21T09:20:11Z</time>
      </trkpt>
      <trkpt lat="44.04086" lon="1.67848">
        <ele>253.4</ele>
        <time>2021-03-21T09:20:15Z</time>
      </trkpt>
      <trkpt lat="44.0408" lon="1.67851">
        <ele>253.8</ele>
        <time>2021-03-21T09:20:19Z</time>
      </trkpt>
      <trkpt lat="44.04074" lon="1.67854">
        <ele>254.6</ele>
        <time>2021-03-21T09:20:23Z</time>
      </trkpt>
      <trkpt lat="44.04068" lon="1.67857">
        <ele>255.2</ele>
        <time>2021-03-21T09:20:27Z</time>
      </trkpt>
      <trkpt lat="44.04063" lon="1.67859">
        <ele>256.2</ele>
        <time>2021-03-21T09:20:31Z</time>
      </trkpt>
      <trkpt lat="44.04058" lon="1.67863">
        <ele>256.8</ele>
        <time>2021-03-21T09:20:35Z</time>
      </trkpt>
      <trkpt lat="44.04053" lon="1.67865">
        <ele>257.4</ele>
        <time>2021-03-21T09:20:39Z</time>
      </trkpt>
      <trkpt lat="44.04048" lon="1.67868">
        <ele>258</ele>
        <time>2021-03-21T09:20:43Z</time>
      </trkpt>
      <trkpt lat="44.04042" lon="1.67871">
        <ele>258.6</ele>
        <time>2021-03-21T09:20:47Z</time>
      </trkpt>
      <trkpt lat="44.04038" lon="1.67876">
        <ele>259.4</ele>
        <time>2021-03-21T09:20:51Z</time>
      </trkpt>
      <trkpt lat="44.04034" lon="1.67881">
        <ele>259.8</ele>
        <time>2021-03-21T09:20:55Z</time>
      </trkpt>
      <trkpt lat="44.04032" lon="1.67889">
        <ele>260.4</ele>
        <time>2021-03-21T09:20:59Z</time>
      </trkpt>
      <trkpt lat="44.04033" lon="1.67898">
        <ele>261.6</ele>
        <time>2021-03-21T09:21:03Z</time>
      </trkpt>
      <trkpt lat="44.04036" lon="1.67906">
        <ele>262</ele>
        <time>2021-03-21T09:21:07Z</time>
      </trkpt>
      <trkpt lat="44.04041" lon="1.67912">
        <ele>262.6</ele>
        <time>2021-03-21T09:21:11Z</time>
      </trkpt>
      <trkpt lat="44.04046" lon="1.67917">
        <ele>263.4</ele>
        <time>2021-03-21T09:21:15Z</time>
      </trkpt>
      <trkpt lat="44.0405" lon="1.67923">
        <ele>263.6</ele>
        <time>2021-03-21T09:21:19Z</time>
      </trkpt>
      <trkpt lat="44.04054" lon="1.67929">
        <ele>264.8</ele>
        <time>2021-03-21T09:21:23Z</time>
      </trkpt>
      <trkpt lat="44.04058" lon="1.67935">
        <ele>265.4</ele>
        <time>2021-03-21T09:21:27Z</time>
      </trkpt>
      <trkpt lat="44.04062" lon="1.67942">
        <ele>265.8</ele>
        <time>2021-03-21T09:21:31Z</time>
      </trkpt>
      <trkpt lat="44.04066" lon="1.67947">
        <ele>266.2</ele>
        <time>2021-03-21T09:21:35Z</time>
      </trkpt>
      <trkpt lat="44.0407" lon="1.67953">
        <ele>267.4</ele>
        <time>2021-03-21T09:21:39Z</time>
      </trkpt>
      <trkpt lat="44.04074" lon="1.67959">
        <ele>267.8</ele>
        <time>2021-03-21T09:21:43Z</time>
      </trkpt>
      <trkpt lat="44.04078" lon="1.67965">
        <ele>268.6</ele>
        <time>2021-03-21T09:21:47Z</time>
      </trkpt>
      <trkpt lat="44.04082" lon="1.6797">
        <ele>269.6</ele>
        <time>2021-03-21T09:21:51Z</time>
      </trkpt>
      <trkpt lat="44.04086" lon="1.67976">
        <ele>270.2</ele>
        <time>2021-03-21T09:21:55Z</time>
      </trkpt>
      <trkpt lat="44.0409" lon="1.67982">
        <ele>270.8</ele>
        <time>2021-03-21T09:21:59Z</time>
      </trkpt>
      <trkpt lat="44.04094" lon="1.67988">
        <ele>271.2</ele>
        <time>2021-03-21T09:22:03Z</time>
      </trkpt>
      <trkpt lat="44.04098" lon="1.67994">
        <ele>272.2</ele>
        <time>2021-03-21T09:22:07Z</time>
      </trkpt>
      <trkpt lat="44.04102" lon="1.68">
        <ele>273.4</ele>
        <time>2021-03-21T09:22:11Z</time>
      </trkpt>
      <trkpt lat="44.04105" lon="1.68007">
        <ele>274.2</ele>
        <time>2021-03-21T09:22:15Z</time>
      </trkpt>
      <trkpt lat="44.04108" lon="1.68013">
        <ele>274.6</ele>
        <time>2021-03-21T09:22:19Z</time>
      </trkpt>
      <trkpt lat="44.04109" lon="1.68021">
        <ele>275.2</ele>
        <time>2021-03-21T09:22:23Z</time>
      </trkpt>
      <trkpt lat="44.04108" lon="1.68028">
        <ele>275.6</ele>
        <time>2021-03-21T09:22:27Z</time>
      </trkpt>
      <trkpt lat="44.04108" lon="1.68035">
        <ele>276.6</ele>
        <time>2021-03-21T09:22:31Z</time>
      </trkpt>
      <trkpt lat="44.04106" lon="1.68042">
        <ele>277.6</ele>
        <time>2021-03-21T09:22:35Z</time>
      </trkpt>
      <trkpt lat="44.04105" lon="1.68049">
        <ele>278.4</ele>
        <time>2021-03-21T09:22:39Z</time>
      </trkpt>
      <trkpt lat="44.04103" lon="1.68056">
        <ele>279.4</ele>
        <time>2021-03-21T09:22:43Z</time>
      </trkpt>
      <trkpt lat="44.04102" lon="1.68064">
        <ele>280.4</ele>
        <time>2021-03-21T09:22:47Z</time>
      </trkpt>
      <trkpt lat="44.041" lon="1.68072">
        <ele>280.6</ele>
        <time>2021-03-21T09:22:51Z</time>
      </trkpt>
      <trkpt lat="44.04099" lon="1.6808">
        <ele>281.6</ele>
        <time>2021-03-21T09:22:55Z</time>
      </trkpt>
      <trkpt lat="44.04099" lon="1.68088">
        <ele>282.4</ele>
        <time>2021-03-21T09:22:59Z</time>
      </trkpt>
      <trkpt lat="44.04099" lon="1.68097">
        <ele>283</ele>
        <time>2021-03-21T09:23:03Z</time>
      </trkpt>
      <trkpt lat="44.041" lon="1.68105">
        <ele>283.8</ele>
        <time>2021-03-21T09:23:07Z</time>
      </trkpt>
      <trkpt lat="44.04102" lon="1.68113">
        <ele>284.6</ele>
        <time>2021-03-21T09:23:11Z</time>
      </trkpt>
      <trkpt lat="44.04105" lon="1.68121">
        <ele>285.6</ele>
        <time>2021-03-21T09:23:15Z</time>
      </trkpt>
      <trkpt lat="44.04108" lon="1.68129">
        <ele>286.6</ele>
        <time>2021-03-21T09:23:19Z</time>
      </trkpt>
      <trkpt lat="44.04111" lon="1.68137">
        <ele>287.6</ele>
        <time>2021-03-21T09:23:23Z</time>
      </trkpt>
      <trkpt lat="44.04114" lon="1.68144">
        <ele>288.2</ele>
        <time>2021-03-21T09:23:27Z</time>
      </trkpt>
      <trkpt lat="44.04117" lon="1.68152">
        <ele>289.2</ele>
        <time>2021-03-21T09:23:31Z</time>
      </trkpt>
      <trkpt lat="44.04119" lon="1.6816">
        <ele>289.6</ele>
        <time>2021-03-21T09:23:35Z</time>
      </trkpt>
      <trkpt lat="44.0412" lon="1.68168">
        <ele>290.4</ele>
        <time>2021-03-21T09:23:39Z</time>
      </trkpt>
      <trkpt lat="44.04119" lon="1.68176">
        <ele>291</ele>
        <time>2021-03-21T09:23:43Z</time>
      </trkpt>
      <trkpt lat="44.04117" lon="1.68184">
        <ele>291.8</ele>
        <time>2021-03-21T09:23:47Z</time>
      </trkpt>
      <trkpt lat="44.04114" lon="1.68193">
        <ele>292.6</ele>
        <time>2021-03-21T09:23:51Z</time>
      </trkpt>
      <trkpt lat="44.04113" lon="1.68201">
        <ele>293</ele>
        <time>2021-03-21T09:23:55Z</time>
      </trkpt>
      <trkpt lat="44.04112" lon="1.6821">
        <ele>293.4</ele>
        <time>2021-03-21T09:23:59Z</time>
      </trkpt>
      <trkpt lat="44.0411" lon="1.68218">
        <ele>294.2</ele>
        <time>2021-03-21T09:24:03Z</time>
      </trkpt>
      <trkpt lat="44.04109" lon="1.68227">
        <ele>295</ele>
        <time>2021-03-21T09:24:07Z</time>
      </trkpt>
      <trkpt lat="44.04109" lon="1.68236">
        <ele>295.8</ele>
        <time>2021-03-21T09:24:11Z</time>
      </trkpt>
      <trkpt lat="44.04109" lon="1.68245">
        <ele>296.6</ele>
        <time>2021-03-21T09:24:15Z</time>
      </trkpt>
      <trkpt lat="44.0411" lon="1.68254">
        <ele>297.2</ele>
        <time>2021-03-21T09:24:19Z</time>
      </trkpt>
      <trkpt lat="44.0411" lon="1.68263">
        <ele>298</ele>
        <time>2021-03-21T09:24:23Z</time>
      </trkpt>
      <trkpt lat="44.04111" lon="1.68272">
        <ele>299</ele>
        <time>2021-03-21T09:24:27Z</time>
      </trkpt>
      <trkpt lat="44.04111" lon="1.68281">
        <ele>299.8</ele>
        <time>2021-03-21T09:24:31Z</time>
      </trkpt>
      <trkpt lat="44.04112" lon="1.68291">
        <ele>301</ele>
        <time>2021-03-21T09:24:35Z</time>
      </trkpt>
      <trkpt lat="44.04112" lon="1.68302">
        <ele>300.8</ele>
        <time>2021-03-21T09:24:39Z</time>
      </trkpt>
      <trkpt lat="44.04111" lon="1.68314">
        <ele>301.2</ele>
        <time>2021-03-21T09:24:43Z</time>
      </trkpt>
      <trkpt lat="44.0411" lon="1.68326">
        <ele>302.2</ele>
        <time>2021-03-21T09:24:47Z</time>
      </trkpt>
      <trkpt lat="44.04107" lon="1.68337">
        <ele>302.6</ele>
        <time>2021-03-21T09:24:51Z</time>
      </trkpt>
      <trkpt lat="44.04105" lon="1.68349">
        <ele>302.8</ele>
        <time>2021-03-21T09:24:55Z</time>
      </trkpt>
      <trkpt lat="44.04103" lon="1.6836">
        <ele>303.4</ele>
        <time>2021-03-21T09:24:59Z</time>
      </trkpt>
      <trkpt lat="44.041" lon="1.68372">
        <ele>304.2</ele>
        <time>2021-03-21T09:25:03Z</time>
      </trkpt>
      <trkpt lat="44.04097" lon="1.68383">
        <ele>305</ele>
        <time>2021-03-21T09:25:07Z</time>
      </trkpt>
      <trkpt lat="44.04093" lon="1.68394">
        <ele>305.2</ele>
        <time>2021-03-21T09:25:11Z</time>
      </trkpt>
      <trkpt lat="44.04089" lon="1.68405">
        <ele>305.8</ele>
        <time>2021-03-21T09:25:15Z</time>
      </trkpt>
      <trkpt lat="44.04084" lon="1.68417">
        <ele>306.8</ele>
        <time>2021-03-21T09:25:19Z</time>
      </trkpt>
      <trkpt lat="44.0408" lon="1.68428">
        <ele>307.2</ele>
        <time>2021-03-21T09:25:23Z</time>
      </trkpt>
      <trkpt lat="44.04075" lon="1.68439">
        <ele>307.8</ele>
        <time>2021-03-21T09:25:27Z</time>
      </trkpt>
      <trkpt lat="44.0407" lon="1.6845">
        <ele>308.2</ele>
        <time>2021-03-21T09:25:31Z</time>
      </trkpt>
      <trkpt lat="44.04066" lon="1.68463">
        <ele>308.8</ele>
        <time>2021-03-21T09:25:35Z</time>
      </trkpt>
      <trkpt lat="44.04062" lon="1.68476">
        <ele>310</ele>
        <time>2021-03-21T09:25:39Z</time>
      </trkpt>
      <trkpt lat="44.04059" lon="1.68488">
        <ele>310</ele>
        <time>2021-03-21T09:25:43Z</time>
      </trkpt>
      <trkpt lat="44.04056" lon="1.685">
        <ele>310.4</ele>
        <time>2021-03-21T09:25:47Z</time>
      </trkpt>
      <trkpt lat="44.04054" lon="1.68513">
        <ele>310.8</ele>
        <time>2021-03-21T09:25:51Z</time>
      </trkpt>
      <trkpt lat="44.04051" lon="1.68525">
        <ele>311.4</ele>
        <time>2021-03-21T09:25:55Z</time>
      </trkpt>
      <trkpt lat="44.04048" lon="1.68536">
        <ele>311.8</ele>
        <time>2021-03-21T09:25:59Z</time>
      </trkpt>
      <trkpt lat="44.04046" lon="1.68548">
        <ele>312.6</ele>
        <time>2021-03-21T09:26:03Z</time>
      </trkpt>
      <trkpt lat="44.04043" lon="1.68559">
        <ele>312.6</ele>
        <time>2021-03-21T09:26:07Z</time>
      </trkpt>
      <trkpt lat="44.0404" lon="1.68571">
        <ele>313.4</ele>
        <time>2021-03-21T09:26:11Z</time>
      </trkpt>
      <trkpt lat="44.04037" lon="1.68583">
        <ele>313.4</ele>
        <time>2021-03-21T09:26:15Z</time>
      </trkpt>
      <trkpt lat="44.04034" lon="1.68594">
        <ele>314</ele>
        <time>2021-03-21T09:26:19Z</time>
      </trkpt>
      <trkpt lat="44.04031" lon="1.68606">
        <ele>314.6</ele>
        <time>2021-03-21T09:26:23Z</time>
      </trkpt>
      <trkpt lat="44.04028" lon="1.68617">
        <ele>315</ele>
        <time>2021-03-21T09:26:27Z</time>
      </trkpt>
      <trkpt lat="44.04026" lon="1.68628">
        <ele>316.4</ele>
        <time>2021-03-21T09:26:31Z</time>
      </trkpt>
      <trkpt lat="44.04023" lon="1.68639">
        <ele>317</ele>
        <time>2021-03-21T09:26:35Z</time>
      </trkpt>
      <trkpt lat="44.04021" lon="1.6865">
        <ele>317.8</ele>
        <time>2021-03-21T09:26:39Z</time>
      </trkpt>
      <trkpt lat="44.04018" lon="1.68661">
        <ele>318.6</ele>
        <time>2021-03-21T09:26:43Z</time>
      </trkpt>
      <trkpt lat="44.04016" lon="1.68672">
        <ele>319</ele>
        <time>2021-03-21T09:26:47Z</time>
      </trkpt>
      <trkpt lat="44.04014" lon="1.68683">
        <ele>320</ele>
        <time>2021-03-21T09:26:51Z</time>
      </trkpt>
      <trkpt lat="44.04012" lon="1.68693">
        <ele>320.8</ele>
        <time>2021-03-21T09:26:55Z</time>
      </trkpt>
      <trkpt lat="44.0401" lon="1.68704">
        <ele>321</ele>
        <time>2021-03-21T09:26:59Z</time>
      </trkpt>
      <trkpt lat="44.04009" lon="1.68715">
        <ele>322</ele>
        <time>2021-03-21T09:27:03Z</time>
      </trkpt>
      <trkpt lat="44.04008" lon="1.68726">
        <ele>322.8</ele>
        <time>2021-03-21T09:27:07Z</time>
      </trkpt>
      <trkpt lat="44.04008" lon="1.68736">
        <ele>323.2</ele>
        <time>2021-03-21T09:27:11Z</time>
      </trkpt>
      <trkpt lat="44.04007" lon="1.68747">
        <ele>324.4</ele>
        <time>2021-03-21T09:27:15Z</time>
      </trkpt>
      <trkpt lat="44.04007" lon="1.68757">
        <ele>324.8</ele>
        <time>2021-03-21T09:27:19Z</time>
      </trkpt>
      <trkpt lat="44.04006" lon="1.68768">
        <ele>325.8</ele>
        <time>2021-03-21T09:27:23Z</time>
      </trkpt>
      <trkpt lat="44.04005" lon="1.68778">
        <ele>326.8</ele>
        <time>2021-03-21T09:27:27Z</time>
      </trkpt>
      <trkpt lat="44.04003" lon="1.68788">
        <ele>327</ele>
        <time>2021-03-21T09:27:31Z</time>
      </trkpt>
      <trkpt lat="44.04002" lon="1.68798">
        <ele>328</ele>
        <time>2021-03-21T09:27:35Z</time>
      </trkpt>
      <trkpt lat="44.04" lon="1.68809">
        <ele>329.2</ele>
        <time>2021-03-21T09:27:39Z</time>
      </trkpt>
      <trkpt lat="44.03997" lon="1.68819">
        <ele>330</ele>
        <time>2021-03-21T09:27:43Z</time>
      </trkpt>
      <trkpt lat="44.03995" lon="1.6883">
        <ele>331</ele>
        <time>2021-03-21T09:27:47Z</time>
      </trkpt>
      <trkpt lat="44.03993" lon="1.6884">
        <ele>331.6</ele>
        <time>2021-03-21T09:27:51Z</time>
      </trkpt>
      <trkpt lat="44.0399" lon="1.6885">
        <ele>332.4</ele>
        <time>2021-03-21T09:27:55Z</time>
      </trkpt>
      <trkpt lat="44.03988" lon="1.6886">
        <ele>333</ele>
        <time>2021-03-21T09:27:59Z</time>
      </trkpt>
      <trkpt lat="44.03985" lon="1.68871">
        <ele>333.8</ele>
        <time>2021-03-21T09:28:03Z</time>
      </trkpt>
      <trkpt lat="44.03982" lon="1.68881">
        <ele>334.2</ele>
        <time>2021-03-21T09:28:07Z</time>
      </trkpt>
      <trkpt lat="44.03979" lon="1.68891">
        <ele>335.4</ele>
        <time>2021-03-21T09:28:11Z</time>
      </trkpt>
      <trkpt lat="44.03975" lon="1.68901">
        <ele>335.2</ele>
        <time>2021-03-21T09:28:15Z</time>
      </trkpt>
      <trkpt lat="44.03971" lon="1.68911">
        <ele>336.2</ele>
        <time>2021-03-21T09:28:19Z</time>
      </trkpt>
      <trkpt lat="44.03967" lon="1.68921">
        <ele>336.6</ele>
        <time>2021-03-21T09:28:23Z</time>
      </trkpt>
      <trkpt lat="44.03962" lon="1.68931">
        <ele>337.2</ele>
        <time>2021-03-21T09:28:27Z</time>
      </trkpt>
      <trkpt lat="44.03957" lon="1.6894">
        <ele>338</ele>
        <time>2021-03-21T09:28:31Z</time>
      </trkpt>
      <trkpt lat="44.03952" lon="1.68949">
        <ele>338.4</ele>
        <time>2021-03-21T09:28:35Z</time>
      </trkpt>
      <trkpt lat="44.03946" lon="1.68957">
        <ele>339</ele>
        <time>2021-03-21T09:28:39Z</time>
      </trkpt>
      <trkpt lat="44.03941" lon="1.68966">
        <ele>339.6</ele>
        <time>2021-03-21T09:28:43Z</time>
      </trkpt>
      <trkpt lat="44.03935" lon="1.68975">
        <ele>340.8</ele>
        <time>2021-03-21T09:28:47Z</time>
      </trkpt>
      <trkpt lat="44.03929" lon="1.68983">
        <ele>340.8</ele>
        <time>2021-03-21T09:28:51Z</time>
      </trkpt>
      <trkpt lat="44.03923" lon="1.68991">
        <ele>342.2</ele>
        <time>2021-03-21T09:28:55Z</time>
      </trkpt>
      <trkpt lat="44.03917" lon="1.68999">
        <ele>342.6</ele>
        <time>2021-03-21T09:28:59Z</time>
      </trkpt>
      <trkpt lat="44.03911" lon="1.69007">
        <ele>343</ele>
        <time>2021-03-21T09:29:03Z</time>
      </trkpt>
      <trkpt lat="44.03906" lon="1.69015">
        <ele>343.8</ele>
        <time>2021-03-21T09:29:07Z</time>
      </trkpt>
      <trkpt lat="44.039" lon="1.69022">
        <ele>344</ele>
        <time>2021-03-21T09:29:11Z</time>
      </trkpt>
      <trkpt lat="44.03894" lon="1.6903">
        <ele>344.8</ele>
        <time>2021-03-21T09:29:15Z</time>
      </trkpt>
      <trkpt lat="44.03888" lon="1.69037">
        <ele>346</ele>
        <time>2021-03-21T09:29:19Z</time>
      </trkpt>
      <trkpt lat="44.03882" lon="1.69044">
        <ele>346.4</ele>
        <time>2021-03-21T09:29:23Z</time>
      </trkpt>
      <trkpt lat="44.03876" lon="1.6905">
        <ele>347.4</ele>
        <time>2021-03-21T09:29:27Z</time>
      </trkpt>
      <trkpt lat="44.0387" lon="1.69057">
        <ele>347.8</ele>
        <time>2021-03-21T09:29:31Z</time>
      </trkpt>
      <trkpt lat="44.03864" lon="1.69064">
        <ele>348.4</ele>
        <time>2021-03-21T09:29:35Z</time>
      </trkpt>
      <trkpt lat="44.03858" lon="1.6907">
        <ele>349.8</ele>
        <time>2021-03-21T09:29:39Z</time>
      </trkpt>
      <trkpt lat="44.03853" lon="1.69077">
        <ele>350.4</ele>
        <time>2021-03-21T09:29:43Z</time>
      </trkpt>
      <trkpt lat="44.03847" lon="1.69083">
        <ele>351.4</ele>
        <time>2021-03-21T09:29:47Z</time>
      </trkpt>
      <trkpt lat="44.03842" lon="1.69089">
        <ele>352.2</ele>
        <time>2021-03-21T09:29:51Z</time>
      </trkpt>
      <trkpt lat="44.03836" lon="1.69095">
        <ele>353</ele>
        <time>2021-03-21T09:29:55Z</time>
      </trkpt>
      <trkpt lat="44.03831" lon="1.69101">
        <ele>353.8</ele>
        <time>2021-03-21T09:29:59Z</time>
      </trkpt>
      <trkpt lat="44.03825" lon="1.69108">
        <ele>354.8</ele>
        <time>2021-03-21T09:30:03Z</time>
      </trkpt>
      <trkpt lat="44.03819" lon="1.69114">
        <ele>355</ele>
        <time>2021-03-21T09:30:07Z</time>
      </trkpt>
      <trkpt lat="44.03813" lon="1.69119">
        <ele>356.2</ele>
        <time>2021-03-21T09:30:11Z</time>
      </trkpt>
      <trkpt lat="44.03808" lon="1.69126">
        <ele>356.4</ele>
        <time>2021-03-21T09:30:15Z</time>
      </trkpt>
      <trkpt lat="44.03801" lon="1.69133">
        <ele>357.6</ele>
        <time>2021-03-21T09:30:19Z</time>
      </trkpt>
      <trkpt lat="44.03795" lon="1.69141">
        <ele>357.8</ele>
        <time>2021-03-21T09:30:23Z</time>
      </trkpt>
      <trkpt lat="44.03788" lon="1.69147">
        <ele>358</ele>
        <time>2021-03-21T09:30:27Z</time>
      </trkpt>
      <trkpt lat="44.03782" lon="1.69153">
        <ele>359.4</ele>
        <time>2021-03-21T09:30:31Z</time>
      </trkpt>
      <trkpt lat="44.03775" lon="1.6916">
        <ele>360.4</ele>
        <time>2021-03-21T09:30:35Z</time>
      </trkpt>
      <trkpt lat="44.03768" lon="1.69167">
        <ele>360.8</ele>
        <time>2021-03-21T09:30:39Z</time>
      </trkpt>
      <trkpt lat="44.03761" lon="1.69172">
        <ele>361.6</ele>
        <time>2021-03-21T09:30:43Z</time>
      </trkpt>
      <trkpt lat="44.03755" lon="1.69177">
        <ele>362.6</ele>
        <time>2021-03-21T09:30:47Z</time>
      </trkpt>
      <trkpt lat="44.03748" lon="1.69183">
        <ele>363.4</ele>
        <time>2021-03-21T09:30:51Z</time>
      </trkpt>
      <trkpt lat="44.03743" lon="1.69188">
        <ele>364.2</ele>
        <time>2021-03-21T09:30:55Z</time>
      </trkpt>
      <trkpt lat="44.03737" lon="1.69194">
        <ele>365.2</ele>
        <time>2021-03-21T09:30:59Z</time>
      </trkpt>
      <trkpt lat="44.03731" lon="1.69199">
        <ele>365.6</ele>
        <time>2021-03-21T09:31:03Z</time>
      </trkpt>
      <trkpt lat="44.03726" lon="1.69205">
        <ele>366.4</ele>
        <time>2021-03-21T09:31:07Z</time>
      </trkpt>
      <trkpt lat="44.03721" lon="1.69211">
        <ele>367.2</ele>
        <time>2021-03-21T09:31:11Z</time>
      </trkpt>
      <trkpt lat="44.03717" lon="1.69217">
        <ele>367.8</ele>
        <time>2021-03-21T09:31:15Z</time>
      </trkpt>
      <trkpt lat="44.03712" lon="1.69222">
        <ele>368.6</ele>
        <time>2021-03-21T09:31:19Z</time>
      </trkpt>
      <trkpt lat="44.03708" lon="1.69228">
        <ele>369</ele>
        <time>2021-03-21T09:31:23Z</time>
      </trkpt>
      <trkpt lat="44.03705" lon="1.69233">
        <ele>369.4</ele>
        <time>2021-03-21T09:31:27Z</time>
      </trkpt>
      <trkpt lat="44.03694" lon="1.69249">
        <ele>371.2</ele>
        <time>2021-03-21T09:34:16Z</time>
      </trkpt>
      <trkpt lat="44.03688" lon="1.69256">
        <ele>372</ele>
        <time>2021-03-21T09:34:20Z</time>
      </trkpt>
      <trkpt lat="44.03683" lon="1.69262">
        <ele>372.2</ele>
        <time>2021-03-21T09:34:24Z</time>
      </trkpt>
      <trkpt lat="44.03678" lon="1.69269">
        <ele>372.8</ele>
        <time>2021-03-21T09:34:28Z</time>
      </trkpt>
      <trkpt lat="44.03673" lon="1.69277">
        <ele>373.8</ele>
        <time>2021-03-21T09:34:32Z</time>
      </trkpt>
      <trkpt lat="44.03668" lon="1.69282">
        <ele>374.4</ele>
        <time>2021-03-21T09:34:36Z</time>
      </trkpt>
      <trkpt lat="44.03663" lon="1.69289">
        <ele>376</ele>
        <time>2021-03-21T09:34:40Z</time>
      </trkpt>
      <trkpt lat="44.03658" lon="1.69297">
        <ele>376</ele>
        <time>2021-03-21T09:34:44Z</time>
      </trkpt>
      <trkpt lat="44.03654" lon="1.69304">
        <ele>377.4</ele>
        <time>2021-03-21T09:34:48Z</time>
      </trkpt>
      <trkpt lat="44.03649" lon="1.69314">
        <ele>378</ele>
        <time>2021-03-21T09:34:52Z</time>
      </trkpt>
      <trkpt lat="44.03644" lon="1.69322">
        <ele>378.4</ele>
        <time>2021-03-21T09:34:56Z</time>
      </trkpt>
      <trkpt lat="44.03639" lon="1.6933">
        <ele>379.2</ele>
        <time>2021-03-21T09:35:00Z</time>
      </trkpt>
      <trkpt lat="44.03634" lon="1.69339">
        <ele>380.2</ele>
        <time>2021-03-21T09:35:04Z</time>
      </trkpt>
      <trkpt lat="44.0363" lon="1.69347">
        <ele>381.2</ele>
        <time>2021-03-21T09:35:08Z</time>
      </trkpt>
      <trkpt lat="44.03625" lon="1.69354">
        <ele>381.6</ele>
        <time>2021-03-21T09:35:12Z</time>
      </trkpt>
      <trkpt lat="44.0362" lon="1.69361">
        <ele>382</ele>
        <time>2021-03-21T09:35:16Z</time>
      </trkpt>
      <trkpt lat="44.03615" lon="1.69368">
        <ele>382.4</ele>
        <time>2021-03-21T09:35:20Z</time>
      </trkpt>
      <trkpt lat="44.0361" lon="1.69375">
        <ele>383</ele>
        <time>2021-03-21T09:35:24Z</time>
      </trkpt>
      <trkpt lat="44.03606" lon="1.69382">
        <ele>383.4</ele>
        <time>2021-03-21T09:35:28Z</time>
      </trkpt>
      <trkpt lat="44.03601" lon="1.6939">
        <ele>384</ele>
        <time>2021-03-21T09:35:32Z</time>
      </trkpt>
      <trkpt lat="44.03596" lon="1.694">
        <ele>384.4</ele>
        <time>2021-03-21T09:35:36Z</time>
      </trkpt>
      <trkpt lat="44.0359" lon="1.69411">
        <ele>384.8</ele>
        <time>2021-03-21T09:35:40Z</time>
      </trkpt>
      <trkpt lat="44.03584" lon="1.69425">
        <ele>386</ele>
        <time>2021-03-21T09:35:44Z</time>
      </trkpt>
      <trkpt lat="44.03581" lon="1.69434">
        <ele>386.6</ele>
        <time>2021-03-21T09:35:48Z</time>
      </trkpt>
      <trkpt lat="44.03577" lon="1.69443">
        <ele>387.4</ele>
        <time>2021-03-21T09:35:52Z</time>
      </trkpt>
      <trkpt lat="44.03573" lon="1.69454">
        <ele>388.4</ele>
        <time>2021-03-21T09:35:56Z</time>
      </trkpt>
      <trkpt lat="44.0357" lon="1.69464">
        <ele>389.2</ele>
        <time>2021-03-21T09:36:00Z</time>
      </trkpt>
      <trkpt lat="44.03567" lon="1.69474">
        <ele>390</ele>
        <time>2021-03-21T09:36:04Z</time>
      </trkpt>
      <trkpt lat="44.03564" lon="1.69486">
        <ele>390.6</ele>
        <time>2021-03-21T09:36:08Z</time>
      </trkpt>
      <trkpt lat="44.0356" lon="1.69498">
        <ele>391.6</ele>
        <time>2021-03-21T09:36:12Z</time>
      </trkpt>
      <trkpt lat="44.03556" lon="1.69511">
        <ele>392.2</ele>
        <time>2021-03-21T09:36:16Z</time>
      </trkpt>
      <trkpt lat="44.03553" lon="1.69522">
        <ele>392.8</ele>
        <time>2021-03-21T09:36:20Z</time>
      </trkpt>
      <trkpt lat="44.03549" lon="1.69534">
        <ele>393.4</ele>
        <time>2021-03-21T09:36:24Z</time>
      </trkpt>
      <trkpt lat="44.03546" lon="1.69547">
        <ele>394</ele>
        <time>2021-03-21T09:36:28Z</time>
      </trkpt>
      <trkpt lat="44.03545" lon="1.6956">
        <ele>394.4</ele>
        <time>2021-03-21T09:36:32Z</time>
      </trkpt>
      <trkpt lat="44.03544" lon="1.69574">
        <ele>394.6</ele>
        <time>2021-03-21T09:36:36Z</time>
      </trkpt>
      <trkpt lat="44.03543" lon="1.69588">
        <ele>395.2</ele>
        <time>2021-03-21T09:36:40Z</time>
      </trkpt>
      <trkpt lat="44.03542" lon="1.69601">
        <ele>395.8</ele>
        <time>2021-03-21T09:36:44Z</time>
      </trkpt>
      <trkpt lat="44.03541" lon="1.69613">
        <ele>396</ele>
        <time>2021-03-21T09:36:48Z</time>
      </trkpt>
      <trkpt lat="44.0354" lon="1.69624">
        <ele>397</ele>
        <time>2021-03-21T09:36:52Z</time>
      </trkpt>
      <trkpt lat="44.03541" lon="1.69635">
        <ele>397.4</ele>
        <time>2021-03-21T09:36:56Z</time>
      </trkpt>
      <trkpt lat="44.03542" lon="1.69646">
        <ele>398.2</ele>
        <time>2021-03-21T09:37:00Z</time>
      </trkpt>
      <trkpt lat="44.03545" lon="1.69659">
        <ele>398.8</ele>
        <time>2021-03-21T09:37:04Z</time>
      </trkpt>
      <trkpt lat="44.03548" lon="1.6967">
        <ele>399.8</ele>
        <time>2021-03-21T09:37:08Z</time>
      </trkpt>
      <trkpt lat="44.03552" lon="1.69683">
        <ele>400.2</ele>
        <time>2021-03-21T09:37:12Z</time>
      </trkpt>
      <trkpt lat="44.03555" lon="1.69695">
        <ele>400.6</ele>
        <time>2021-03-21T09:37:16Z</time>
      </trkpt>
      <trkpt lat="44.03558" lon="1.69708">
        <ele>401.4</ele>
        <time>2021-03-21T09:37:20Z</time>
      </trkpt>
      <trkpt lat="44.03562" lon="1.69718">
        <ele>401.8</ele>
        <time>2021-03-21T09:37:24Z</time>
      </trkpt>
      <trkpt lat="44.03565" lon="1.69729">
        <ele>403</ele>
        <time>2021-03-21T09:37:28Z</time>
      </trkpt>
      <trkpt lat="44.03568" lon="1.6974">
        <ele>403.4</ele>
        <time>2021-03-21T09:37:32Z</time>
      </trkpt>
      <trkpt lat="44.03572" lon="1.6975">
        <ele>404.6</ele>
        <time>2021-03-21T09:37:36Z</time>
      </trkpt>
      <trkpt lat="44.03576" lon="1.69762">
        <ele>405.2</ele>
        <time>2021-03-21T09:37:40Z</time>
      </trkpt>
      <trkpt lat="44.03579" lon="1.69773">
        <ele>405.6</ele>
        <time>2021-03-21T09:37:44Z</time>
      </trkpt>
      <trkpt lat="44.03582" lon="1.69784">
        <ele>406.8</ele>
        <time>2021-03-21T09:37:48Z</time>
      </trkpt>
      <trkpt lat="44.03586" lon="1.69797">
        <ele>407</ele>
        <time>2021-03-21T09:37:52Z</time>
      </trkpt>
      <trkpt lat="44.03589" lon="1.69809">
        <ele>408.4</ele>
        <time>2021-03-21T09:37:56Z</time>
      </trkpt>
      <trkpt lat="44.03593" lon="1.69821">
        <ele>409</ele>
        <time>2021-03-21T09:38:00Z</time>
      </trkpt>
      <trkpt lat="44.03597" lon="1.69831">
        <ele>410</ele>
        <time>2021-03-21T09:38:04Z</time>
      </trkpt>
      <trkpt lat="44.03601" lon="1.69841">
        <ele>411</ele>
        <time>2021-03-21T09:38:08Z</time>
      </trkpt>
      <trkpt lat="44.03603" lon="1.69852">
        <ele>411</ele>
        <time>2021-03-21T09:38:12Z</time>
      </trkpt>
      <trkpt lat="44.03605" lon="1.69864">
        <ele>411.8</ele>
        <time>2021-03-21T09:38:16Z</time>
      </trkpt>
      <trkpt lat="44.03606" lon="1.69876">
        <ele>412.6</ele>
        <time>2021-03-21T09:38:20Z</time>
      </trkpt>
      <trkpt lat="44.03607" lon="1.69889">
        <ele>413.6</ele>
        <time>2021-03-21T09:38:24Z</time>
      </trkpt>
      <trkpt lat="44.03607" lon="1.69903">
        <ele>414</ele>
        <time>2021-03-21T09:38:28Z</time>
      </trkpt>
      <trkpt lat="44.03606" lon="1.69918">
        <ele>414.4</ele>
        <time>2021-03-21T09:38:32Z</time>
      </trkpt>
      <trkpt lat="44.03607" lon="1.69933">
        <ele>414.8</ele>
        <time>2021-03-21T09:38:36Z</time>
      </trkpt>
      <trkpt lat="44.03608" lon="1.69948">
        <ele>415.2</ele>
        <time>2021-03-21T09:38:40Z</time>
      </trkpt>
      <trkpt lat="44.03609" lon="1.69963">
        <ele>415.2</ele>
        <time>2021-03-21T09:38:44Z</time>
      </trkpt>
      <trkpt lat="44.03613" lon="1.69978">
        <ele>416</ele>
        <time>2021-03-21T09:38:48Z</time>
      </trkpt>
      <trkpt lat="44.03617" lon="1.69994">
        <ele>416.2</ele>
        <time>2021-03-21T09:38:52Z</time>
      </trkpt>
      <trkpt lat="44.03621" lon="1.7001">
        <ele>416.2</ele>
        <time>2021-03-21T09:38:56Z</time>
      </trkpt>
      <trkpt lat="44.03625" lon="1.70026">
        <ele>416.6</ele>
        <time>2021-03-21T09:39:00Z</time>
      </trkpt>
      <trkpt lat="44.03628" lon="1.70043">
        <ele>416.6</ele>
        <time>2021-03-21T09:39:04Z</time>
      </trkpt>
      <trkpt lat="44.03632" lon="1.70062">
        <ele>417.2</ele>
        <time>2021-03-21T09:39:08Z</time>
      </trkpt>
      <trkpt lat="44.03635" lon="1.70081">
        <ele>416.6</ele>
        <time>2021-03-21T09:39:12Z</time>
      </trkpt>
      <trkpt lat="44.03639" lon="1.701">
        <ele>416.8</ele>
        <time>2021-03-21T09:39:16Z</time>
      </trkpt>
      <trkpt lat="44.03642" lon="1.70119">
        <ele>416.6</ele>
        <time>2021-03-21T09:39:20Z</time>
      </trkpt>
      <trkpt lat="44.03644" lon="1.70137">
        <ele>417.2</ele>
        <time>2021-03-21T09:39:24Z</time>
      </trkpt>
      <trkpt lat="44.03648" lon="1.70154">
        <ele>416.6</ele>
        <time>2021-03-21T09:39:28Z</time>
      </trkpt>
      <trkpt lat="44.03654" lon="1.70169">
        <ele>417</ele>
        <time>2021-03-21T09:39:32Z</time>
      </trkpt>
      <trkpt lat="44.03658" lon="1.70185">
        <ele>417.8</ele>
        <time>2021-03-21T09:39:36Z</time>
      </trkpt>
      <trkpt lat="44.03663" lon="1.70202">
        <ele>419</ele>
        <time>2021-03-21T09:39:40Z</time>
      </trkpt>
      <trkpt lat="44.03671" lon="1.70218">
        <ele>419.8</ele>
        <time>2021-03-21T09:39:44Z</time>
      </trkpt>
      <trkpt lat="44.03678" lon="1.70235">
        <ele>420.4</ele>
        <time>2021-03-21T09:39:48Z</time>
      </trkpt>
      <trkpt lat="44.03686" lon="1.70259">
        <ele>420.8</ele>
        <time>2021-03-21T09:39:52Z</time>
      </trkpt>
      <trkpt lat="44.03695" lon="1.70281">
        <ele>419.2</ele>
        <time>2021-03-21T09:39:56Z</time>
      </trkpt>
      <trkpt lat="44.03703" lon="1.70303">
        <ele>419.4</ele>
        <time>2021-03-21T09:40:00Z</time>
      </trkpt>
      <trkpt lat="44.03711" lon="1.70323">
        <ele>419.4</ele>
        <time>2021-03-21T09:40:04Z</time>
      </trkpt>
      <trkpt lat="44.03719" lon="1.70341">
        <ele>420</ele>
        <time>2021-03-21T09:40:08Z</time>
      </trkpt>
      <trkpt lat="44.03726" lon="1.70356">
        <ele>419.6</ele>
        <time>2021-03-21T09:40:12Z</time>
      </trkpt>
      <trkpt lat="44.03734" lon="1.7037">
        <ele>420.4</ele>
        <time>2021-03-21T09:40:16Z</time>
      </trkpt>
      <trkpt lat="44.03741" lon="1.70387">
        <ele>422.4</ele>
        <time>2021-03-21T09:40:20Z</time>
      </trkpt>
      <trkpt lat="44.03748" lon="1.70404">
        <ele>423</ele>
        <time>2021-03-21T09:40:24Z</time>
      </trkpt>
      <trkpt lat="44.03755" lon="1.70424">
        <ele>424.4</ele>
        <time>2021-03-21T09:40:28Z</time>
      </trkpt>
      <trkpt lat="44.03758" lon="1.70445">
        <ele>426</ele>
        <time>2021-03-21T09:40:32Z</time>
      </trkpt>
      <trkpt lat="44.03758" lon="1.70467">
        <ele>427.8</ele>
        <time>2021-03-21T09:40:36Z</time>
      </trkpt>
      <trkpt lat="44.03757" lon="1.70489">
        <ele>429.2</ele>
        <time>2021-03-21T09:40:40Z</time>
      </trkpt>
      <trkpt lat="44.03758" lon="1.70506">
        <ele>430</ele>
        <time>2021-03-21T09:40:44Z</time>
      </trkpt>
      <trkpt lat="44.03758" lon="1.70523">
        <ele>430</ele>
        <time>2021-03-21T09:40:48Z</time>
      </trkpt>
      <trkpt lat="44.03759" lon="1.70537">
        <ele>430.6</ele>
        <time>2021-03-21T09:40:52Z</time>
      </trkpt>
      <trkpt lat="44.03758" lon="1.70549">
        <ele>430.6</ele>
        <time>2021-03-21T09:40:56Z</time>
      </trkpt>
      <trkpt lat="44.03758" lon="1.70558">
        <ele>430.8</ele>
        <time>2021-03-21T09:41:00Z</time>
      </trkpt>
      <trkpt lat="44.03763" lon="1.70565">
        <ele>431.2</ele>
        <time>2021-03-21T09:41:04Z</time>
      </trkpt>
      <trkpt lat="44.03766" lon="1.70571">
        <ele>431.2</ele>
        <time>2021-03-21T09:41:08Z</time>
      </trkpt>
      <trkpt lat="44.03769" lon="1.70578">
        <ele>431.4</ele>
        <time>2021-03-21T09:41:12Z</time>
      </trkpt>
      <trkpt lat="44.03774" lon="1.70583">
        <ele>432</ele>
        <time>2021-03-21T09:41:16Z</time>
      </trkpt>
      <trkpt lat="44.03784" lon="1.70562">
        <ele>431.4</ele>
        <time>2021-03-21T09:48:01Z</time>
      </trkpt>
      <trkpt lat="44.03793" lon="1.70539">
        <ele>428.8</ele>
        <time>2021-03-21T09:48:05Z</time>
      </trkpt>
      <trkpt lat="44.0381" lon="1.70518">
        <ele>426.8</ele>
        <time>2021-03-21T09:48:09Z</time>
      </trkpt>
      <trkpt lat="44.0383" lon="1.70521">
        <ele>426.2</ele>
        <time>2021-03-21T09:48:13Z</time>
      </trkpt>
      <trkpt lat="44.03854" lon="1.70516">
        <ele>425</ele>
        <time>2021-03-21T09:48:17Z</time>
      </trkpt>
      <trkpt lat="44.03869" lon="1.70492">
        <ele>422.2</ele>
        <time>2021-03-21T09:48:21Z</time>
      </trkpt>
      <trkpt lat="44.03884" lon="1.70465">
        <ele>421.6</ele>
        <time>2021-03-21T09:48:25Z</time>
      </trkpt>
      <trkpt lat="44.039" lon="1.70437">
        <ele>418.8</ele>
        <time>2021-03-21T09:48:29Z</time>
      </trkpt>
      <trkpt lat="44.03912" lon="1.70416">
        <ele>416.2</ele>
        <time>2021-03-21T09:48:33Z</time>
      </trkpt>
      <trkpt lat="44.03925" lon="1.704">
        <ele>416.8</ele>
        <time>2021-03-21T09:48:37Z</time>
      </trkpt>
      <trkpt lat="44.03939" lon="1.70384">
        <ele>415.6</ele>
        <time>2021-03-21T09:48:41Z</time>
      </trkpt>
      <trkpt lat="44.0395" lon="1.7036">
        <ele>410.6</ele>
        <time>2021-03-21T09:48:45Z</time>
      </trkpt>
      <trkpt lat="44.03969" lon="1.70335">
        <ele>411</ele>
        <time>2021-03-21T09:48:49Z</time>
      </trkpt>
      <trkpt lat="44.03984" lon="1.70309">
        <ele>410.2</ele>
        <time>2021-03-21T09:48:53Z</time>
      </trkpt>
      <trkpt lat="44.04008" lon="1.70285">
        <ele>410.2</ele>
        <time>2021-03-21T09:48:57Z</time>
      </trkpt>
      <trkpt lat="44.04026" lon="1.70261">
        <ele>409</ele>
        <time>2021-03-21T09:49:01Z</time>
      </trkpt>
      <trkpt lat="44.04051" lon="1.70253">
        <ele>409.8</ele>
        <time>2021-03-21T09:49:05Z</time>
      </trkpt>
      <trkpt lat="44.04067" lon="1.70268">
        <ele>409.6</ele>
        <time>2021-03-21T09:49:09Z</time>
      </trkpt>
      <trkpt lat="44.04088" lon="1.70272">
        <ele>410.2</ele>
        <time>2021-03-21T09:49:13Z</time>
      </trkpt>
      <trkpt lat="44.04112" lon="1.7026">
        <ele>408.6</ele>
        <time>2021-03-21T09:49:17Z</time>
      </trkpt>
      <trkpt lat="44.04124" lon="1.70235">
        <ele>407.8</ele>
        <time>2021-03-21T09:49:21Z</time>
      </trkpt>
      <trkpt lat="44.04133" lon="1.7021">
        <ele>405.4</ele>
        <time>2021-03-21T09:49:25Z</time>
      </trkpt>
      <trkpt lat="44.04149" lon="1.70192">
        <ele>404.2</ele>
        <time>2021-03-21T09:49:29Z</time>
      </trkpt>
      <trkpt lat="44.04171" lon="1.70172">
        <ele>401.2</ele>
        <time>2021-03-21T09:49:33Z</time>
      </trkpt>
      <trkpt lat="44.04198" lon="1.70152">
        <ele>398.6</ele>
        <time>2021-03-21T09:49:37Z</time>
      </trkpt>
      <trkpt lat="44.04225" lon="1.70125">
        <ele>395.4</ele>
        <time>2021-03-21T09:49:41Z</time>
      </trkpt>
      <trkpt lat="44.04254" lon="1.70088">
        <ele>389.2</ele>
        <time>2021-03-21T09:49:45Z</time>
      </trkpt>
      <trkpt lat="44.0428" lon="1.70039">
        <ele>381.8</ele>
        <time>2021-03-21T09:49:49Z</time>
      </trkpt>
      <trkpt lat="44.04298" lon="1.69977">
        <ele>374.2</ele>
        <time>2021-03-21T09:49:53Z</time>
      </trkpt>
      <trkpt lat="44.04313" lon="1.69922">
        <ele>368.8</ele>
        <time>2021-03-21T09:49:57Z</time>
      </trkpt>
      <trkpt lat="44.04332" lon="1.6988">
        <ele>364</ele>
        <time>2021-03-21T09:50:01Z</time>
      </trkpt>
      <trkpt lat="44.04342" lon="1.69834">
        <ele>361.2</ele>
        <time>2021-03-21T09:50:05Z</time>
      </trkpt>
      <trkpt lat="44.04355" lon="1.69784">
        <ele>351.8</ele>
        <time>2021-03-21T09:50:09Z</time>
      </trkpt>
      <trkpt lat="44.04377" lon="1.69739">
        <ele>347.6</ele>
        <time>2021-03-21T09:50:13Z</time>
      </trkpt>
      <trkpt lat="44.04396" lon="1.69697">
        <ele>345.2</ele>
        <time>2021-03-21T09:50:17Z</time>
      </trkpt>
      <trkpt lat="44.04414" lon="1.69653">
        <ele>339.6</ele>
        <time>2021-03-21T09:50:21Z</time>
      </trkpt>
      <trkpt lat="44.04427" lon="1.69605">
        <ele>335.8</ele>
        <time>2021-03-21T09:50:25Z</time>
      </trkpt>
      <trkpt lat="44.04445" lon="1.69561">
        <ele>334.4</ele>
        <time>2021-03-21T09:50:29Z</time>
      </trkpt>
      <trkpt lat="44.04455" lon="1.69523">
        <ele>329.6</ele>
        <time>2021-03-21T09:50:33Z</time>
      </trkpt>
      <trkpt lat="44.04473" lon="1.69503">
        <ele>323.8</ele>
        <time>2021-03-21T09:50:37Z</time>
      </trkpt>
      <trkpt lat="44.04481" lon="1.69475">
        <ele>318.2</ele>
        <time>2021-03-21T09:50:41Z</time>
      </trkpt>
      <trkpt lat="44.04478" lon="1.69444">
        <ele>313.2</ele>
        <time>2021-03-21T09:50:45Z</time>
      </trkpt>
      <trkpt lat="44.04484" lon="1.69407">
        <ele>305.2</ele>
        <time>2021-03-21T09:50:49Z</time>
      </trkpt>
      <trkpt lat="44.04484" lon="1.69378">
        <ele>299</ele>
        <time>2021-03-21T09:50:53Z</time>
      </trkpt>
      <trkpt lat="44.04483" lon="1.69352">
        <ele>293.6</ele>
        <time>2021-03-21T09:50:57Z</time>
      </trkpt>
      <trkpt lat="44.04479" lon="1.69322">
        <ele>290.8</ele>
        <time>2021-03-21T09:51:01Z</time>
      </trkpt>
      <trkpt lat="44.04476" lon="1.69298">
        <ele>286</ele>
        <time>2021-03-21T09:51:05Z</time>
      </trkpt>
      <trkpt lat="44.04473" lon="1.69266">
        <ele>280</ele>
        <time>2021-03-21T09:51:09Z</time>
      </trkpt>
      <trkpt lat="44.04458" lon="1.69236">
        <ele>274</ele>
        <time>2021-03-21T09:51:13Z</time>
      </trkpt>
      <trkpt lat="44.04457" lon="1.69207">
        <ele>272.2</ele>
        <time>2021-03-21T09:51:17Z</time>
      </trkpt>
      <trkpt lat="44.04448" lon="1.69175">
        <ele>267.6</ele>
        <time>2021-03-21T09:51:21Z</time>
      </trkpt>
      <trkpt lat="44.04439" lon="1.69157">
        <ele>262.4</ele>
        <time>2021-03-21T09:51:25Z</time>
      </trkpt>
      <trkpt lat="44.04439" lon="1.69129">
        <ele>259.4</ele>
        <time>2021-03-21T09:51:29Z</time>
      </trkpt>
      <trkpt lat="44.04445" lon="1.69098">
        <ele>250.8</ele>
        <time>2021-03-21T09:51:33Z</time>
      </trkpt>
      <trkpt lat="44.04445" lon="1.69078">
        <ele>247</ele>
        <time>2021-03-21T09:51:37Z</time>
      </trkpt>
      <trkpt lat="44.04446" lon="1.69051">
        <ele>238.8</ele>
        <time>2021-03-21T09:51:41Z</time>
      </trkpt>
      <trkpt lat="44.04449" lon="1.69035">
        <ele>232</ele>
        <time>2021-03-21T09:51:45Z</time>
      </trkpt>
      <trkpt lat="44.04457" lon="1.69019">
        <ele>228</ele>
        <time>2021-03-21T09:51:49Z</time>
      </trkpt>
      <trkpt lat="44.0447" lon="1.69003">
        <ele>222.2</ele>
        <time>2021-03-21T09:51:53Z</time>
      </trkpt>
      <trkpt lat="44.04482" lon="1.68993">
        <ele>220</ele>
        <time>2021-03-21T09:51:57Z</time>
      </trkpt>
      <trkpt lat="44.0448" lon="1.68981">
        <ele>218.8</ele>
        <time>2021-03-21T09:52:01Z</time>
      </trkpt>
      <trkpt lat="44.04466" lon="1.68972">
        <ele>215</ele>
        <time>2021-03-21T09:52:05Z</time>
      </trkpt>
      <trkpt lat="44.04455" lon="1.68967">
        <ele>211</ele>
        <time>2021-03-21T09:52:09Z</time>
      </trkpt>
      <trkpt lat="44.04443" lon="1.68958">
        <ele>207</ele>
        <time>2021-03-21T09:52:13Z</time>
      </trkpt>
      <trkpt lat="44.04453" lon="1.68937">
        <ele>202.8</ele>
        <time>2021-03-21T09:52:17Z</time>
      </trkpt>
      <trkpt lat="44.04468" lon="1.6892">
        <ele>197.4</ele>
        <time>2021-03-21T09:52:21Z</time>
      </trkpt>
      <trkpt lat="44.04484" lon="1.68902">
        <ele>192.6</ele>
        <time>2021-03-21T09:52:25Z</time>
      </trkpt>
      <trkpt lat="44.04496" lon="1.68885">
        <ele>189</ele>
        <time>2021-03-21T09:52:29Z</time>
      </trkpt>
      <trkpt lat="44.04504" lon="1.68868">
        <ele>183.6</ele>
        <time>2021-03-21T09:52:33Z</time>
      </trkpt>
      <trkpt lat="44.04492" lon="1.68851">
        <ele>180.2</ele>
        <time>2021-03-21T09:56:04Z</time>
      </trkpt>
      <trkpt lat="44.04485" lon="1.68857">
        <ele>180.8</ele>
        <time>2021-03-21T09:56:08Z</time>
      </trkpt>
      <trkpt lat="44.04479" lon="1.68863">
        <ele>181.4</ele>
        <time>2021-03-21T09:56:12Z</time>
      </trkpt>
      <trkpt lat="44.04474" lon="1.68867">
        <ele>182.2</ele>
        <time>2021-03-21T09:56:16Z</time>
      </trkpt>
      <trkpt lat="44.04467" lon="1.6887">
        <ele>182.8</ele>
        <time>2021-03-21T09:56:20Z</time>
      </trkpt>
      <trkpt lat="44.0446" lon="1.68875">
        <ele>183.8</ele>
        <time>2021-03-21T09:56:24Z</time>
      </trkpt>
      <trkpt lat="44.04452" lon="1.6888">
        <ele>184.4</ele>
        <time>2021-03-21T09:56:28Z</time>
      </trkpt>
      <trkpt lat="44.04445" lon="1.68884">
        <ele>185.2</ele>
        <time>2021-03-21T09:56:32Z</time>
      </trkpt>
      <trkpt lat="44.04439" lon="1.68887">
        <ele>185.6</ele>
        <time>2021-03-21T09:56:36Z</time>
      </trkpt>
      <trkpt lat="44.04433" lon="1.68891">
        <ele>186.4</ele>
        <time>2021-03-21T09:56:40Z</time>
      </trkpt>
      <trkpt lat="44.04425" lon="1.68897">
        <ele>187.2</ele>
        <time>2021-03-21T09:56:44Z</time>
      </trkpt>
      <trkpt lat="44.04419" lon="1.68902">
        <ele>188</ele>
        <time>2021-03-21T09:56:48Z</time>
      </trkpt>
      <trkpt lat="44.04416" lon="1.68909">
        <ele>188.6</ele>
        <time>2021-03-21T09:56:52Z</time>
      </trkpt>
      <trkpt lat="44.04411" lon="1.68915">
        <ele>189.6</ele>
        <time>2021-03-21T09:56:56Z</time>
      </trkpt>
      <trkpt lat="44.04407" lon="1.68924">
        <ele>189.6</ele>
        <time>2021-03-21T09:57:00Z</time>
      </trkpt>
      <trkpt lat="44.04404" lon="1.68931">
        <ele>191</ele>
        <time>2021-03-21T09:57:04Z</time>
      </trkpt>
      <trkpt lat="44.044" lon="1.68939">
        <ele>191.2</ele>
        <time>2021-03-21T09:57:08Z</time>
      </trkpt>
      <trkpt lat="44.04395" lon="1.68946">
        <ele>192.2</ele>
        <time>2021-03-21T09:57:12Z</time>
      </trkpt>
      <trkpt lat="44.04391" lon="1.68952">
        <ele>192.4</ele>
        <time>2021-03-21T09:57:16Z</time>
      </trkpt>
      <trkpt lat="44.04387" lon="1.6896">
        <ele>193.2</ele>
        <time>2021-03-21T09:57:20Z</time>
      </trkpt>
      <trkpt lat="44.04382" lon="1.68965">
        <ele>193.4</ele>
        <time>2021-03-21T09:57:24Z</time>
      </trkpt>
      <trkpt lat="44.04378" lon="1.6897">
        <ele>194.6</ele>
        <time>2021-03-21T09:57:28Z</time>
      </trkpt>
      <trkpt lat="44.04373" lon="1.68975">
        <ele>195.6</ele>
        <time>2021-03-21T09:57:32Z</time>
      </trkpt>
      <trkpt lat="44.04366" lon="1.68982">
        <ele>196.2</ele>
        <time>2021-03-21T09:57:36Z</time>
      </trkpt>
      <trkpt lat="44.0436" lon="1.68986">
        <ele>196.8</ele>
        <time>2021-03-21T09:57:40Z</time>
      </trkpt>
      <trkpt lat="44.04356" lon="1.68993">
        <ele>197.8</ele>
        <time>2021-03-21T09:57:44Z</time>
      </trkpt>
      <trkpt lat="44.04352" lon="1.69">
        <ele>198.2</ele>
        <time>2021-03-21T09:57:48Z</time>
      </trkpt>
      <trkpt lat="44.04352" lon="1.69006">
        <ele>199.6</ele>
        <time>2021-03-21T09:57:52Z</time>
      </trkpt>
      <trkpt lat="44.04351" lon="1.69013">
        <ele>199.6</ele>
        <time>2021-03-21T09:57:56Z</time>
      </trkpt>
      <trkpt lat="44.04352" lon="1.69019">
        <ele>200.8</ele>
        <time>2021-03-21T09:58:00Z</time>
      </trkpt>
      <trkpt lat="44.04351" lon="1.69026">
        <ele>201.2</ele>
        <time>2021-03-21T09:58:04Z</time>
      </trkpt>
      <trkpt lat="44.0435" lon="1.69035">
        <ele>202.4</ele>
        <time>2021-03-21T09:58:08Z</time>
      </trkpt>
      <trkpt lat="44.0435" lon="1.69042">
        <ele>203.2</ele>
        <time>2021-03-21T09:58:12Z</time>
      </trkpt>
      <trkpt lat="44.0435" lon="1.6905">
        <ele>203.4</ele>
        <time>2021-03-21T09:58:16Z</time>
      </trkpt>
      <trkpt lat="44.0435" lon="1.69056">
        <ele>204.2</ele>
        <time>2021-03-21T09:58:20Z</time>
      </trkpt>
      <trkpt lat="44.0435" lon="1.69064">
        <ele>205</ele>
        <time>2021-03-21T09:58:24Z</time>
      </trkpt>
      <trkpt lat="44.0435" lon="1.69072">
        <ele>206.2</ele>
        <time>2021-03-21T09:58:28Z</time>
      </trkpt>
      <trkpt lat="44.04351" lon="1.69078">
        <ele>206.6</ele>
        <time>2021-03-21T09:58:32Z</time>
      </trkpt>
      <trkpt lat="44.04352" lon="1.69084">
        <ele>207.8</ele>
        <time>2021-03-21T09:58:36Z</time>
      </trkpt>
      <trkpt lat="44.04353" lon="1.6909">
        <ele>208.8</ele>
        <time>2021-03-21T09:58:40Z</time>
      </trkpt>
      <trkpt lat="44.04353" lon="1.69098">
        <ele>209.4</ele>
        <time>2021-03-21T09:58:44Z</time>
      </trkpt>
      <trkpt lat="44.04353" lon="1.69105">
        <ele>210.4</ele>
        <time>2021-03-21T09:58:48Z</time>
      </trkpt>
      <trkpt lat="44.04353" lon="1.69112">
        <ele>210.4</ele>
        <time>2021-03-21T09:58:52Z</time>
      </trkpt>
      <trkpt lat="44.04353" lon="1.69119">
        <ele>211.4</ele>
        <time>2021-03-21T09:58:56Z</time>
      </trkpt>
      <trkpt lat="44.04353" lon="1.69125">
        <ele>212.2</ele>
        <time>2021-03-21T09:59:00Z</time>
      </trkpt>
      <trkpt lat="44.04355" lon="1.69131">
        <ele>212.8</ele>
        <time>2021-03-21T09:59:04Z</time>
      </trkpt>
      <trkpt lat="44.04355" lon="1.69136">
        <ele>213.8</ele>
        <time>2021-03-21T09:59:08Z</time>
      </trkpt>
      <trkpt lat="44.04355" lon="1.69142">
        <ele>214.2</ele>
        <time>2021-03-21T09:59:12Z</time>
      </trkpt>
      <trkpt lat="44.04356" lon="1.69147">
        <ele>215</ele>
        <time>2021-03-21T09:59:16Z</time>
      </trkpt>
      <trkpt lat="44.04357" lon="1.69153">
        <ele>215.4</ele>
        <time>2021-03-21T09:59:20Z</time>
      </trkpt>
      <trkpt lat="44.04358" lon="1.69159">
        <ele>216.4</ele>
        <time>2021-03-21T09:59:24Z</time>
      </trkpt>
      <trkpt lat="44.04358" lon="1.69165">
        <ele>217</ele>
        <time>2021-03-21T09:59:28Z</time>
      </trkpt>
      <trkpt lat="44.04358" lon="1.69172">
        <ele>218</ele>
        <time>2021-03-21T09:59:32Z</time>
      </trkpt>
      <trkpt lat="44.04358" lon="1.69178">
        <ele>219</ele>
        <time>2021-03-21T09:59:36Z</time>
      </trkpt>
      <trkpt lat="44.04359" lon="1.69184">
        <ele>219.8</ele>
        <time>2021-03-21T09:59:40Z</time>
      </trkpt>
      <trkpt lat="44.0436" lon="1.6919">
        <ele>220.2</ele>
        <time>2021-03-21T09:59:44Z</time>
      </trkpt>
      <trkpt lat="44.0436" lon="1.69197">
        <ele>221</ele>
        <time>2021-03-21T09:59:48Z</time>
      </trkpt>
      <trkpt lat="44.04361" lon="1.69203">
        <ele>221.8</ele>
        <time>2021-03-21T09:59:52Z</time>
      </trkpt>
      <trkpt lat="44.04362" lon="1.69208">
        <ele>222.4</ele>
        <time>2021-03-21T09:59:56Z</time>
      </trkpt>
      <trkpt lat="44.04363" lon="1.69214">
        <ele>223.8</ele>
        <time>2021-03-21T10:00:00Z</time>
      </trkpt>
      <trkpt lat="44.04365" lon="1.6922">
        <ele>224.8</ele>
        <time>2021-03-21T10:00:04Z</time>
      </trkpt>
      <trkpt lat="44.04366" lon="1.69226">
        <ele>225.4</ele>
        <time>2021-03-21T10:00:08Z</time>
      </trkpt>
      <trkpt lat="44.04366" lon="1.69231">
        <ele>226</ele>
        <time>2021-03-21T10:00:12Z</time>
      </trkpt>
      <trkpt lat="44.04366" lon="1.69237">
        <ele>227.4</ele>
        <time>2021-03-21T10:00:16Z</time>
      </trkpt>
      <trkpt lat="44.04366" lon="1.69241">
        <ele>228</ele>
        <time>2021-03-21T10:00:20Z</time>
      </trkpt>
      <trkpt lat="44.04367" lon="1.69245">
        <ele>228.4</ele>
        <time>2021-03-21T10:00:24Z</time>
      </trkpt>
      <trkpt lat="44.04368" lon="1.69252">
        <ele>229.6</ele>
        <time>2021-03-21T10:00:28Z</time>
      </trkpt>
      <trkpt lat="44.04368" lon="1.69258">
        <ele>230.8</ele>
        <time>2021-03-21T10:00:32Z</time>
      </trkpt>
      <trkpt lat="44.04368" lon="1.69265">
        <ele>232.2</ele>
        <time>2021-03-21T10:00:36Z</time>
      </trkpt>
      <trkpt lat="44.04288" lon="1.69355">
        <ele>282.4</ele>
        <time>2021-03-21T10:04:10Z</time>
      </trkpt>
      <trkpt lat="44.04285" lon="1.69351">
        <ele>283</ele>
        <time>2021-03-21T10:04:14Z</time>
      </trkpt>
      <trkpt lat="44.04283" lon="1.69347">
        <ele>283.6</ele>
        <time>2021-03-21T10:04:18Z</time>
      </trkpt>
      <trkpt lat="44.04279" lon="1.69344">
        <ele>284.4</ele>
        <time>2021-03-21T10:04:22Z</time>
      </trkpt>
      <trkpt lat="44.04276" lon="1.6934">
        <ele>285.6</ele>
        <time>2021-03-21T10:04:26Z</time>
      </trkpt>
      <trkpt lat="44.04272" lon="1.69337">
        <ele>286</ele>
        <time>2021-03-21T10:04:30Z</time>
      </trkpt>
      <trkpt lat="44.04269" lon="1.69333">
        <ele>286.8</ele>
        <time>2021-03-21T10:04:34Z</time>
      </trkpt>
      <trkpt lat="44.04266" lon="1.69329">
        <ele>288.2</ele>
        <time>2021-03-21T10:04:38Z</time>
      </trkpt>
      <trkpt lat="44.04263" lon="1.69326">
        <ele>288.8</ele>
        <time>2021-03-21T10:04:42Z</time>
      </trkpt>
      <trkpt lat="44.0426" lon="1.69324">
        <ele>289.6</ele>
        <time>2021-03-21T10:04:46Z</time>
      </trkpt>
      <trkpt lat="44.04256" lon="1.69321">
        <ele>290.4</ele>
        <time>2021-03-21T10:04:50Z</time>
      </trkpt>
      <trkpt lat="44.04252" lon="1.69318">
        <ele>291</ele>
        <time>2021-03-21T10:04:54Z</time>
      </trkpt>
      <trkpt lat="44.04248" lon="1.69317">
        <ele>291.6</ele>
        <time>2021-03-21T10:04:58Z</time>
      </trkpt>
      <trkpt lat="44.04245" lon="1.69314">
        <ele>292.6</ele>
        <time>2021-03-21T10:05:02Z</time>
      </trkpt>
      <trkpt lat="44.04241" lon="1.69313">
        <ele>293.4</ele>
        <time>2021-03-21T10:05:06Z</time>
      </trkpt>
      <trkpt lat="44.04238" lon="1.69312">
        <ele>294.8</ele>
        <time>2021-03-21T10:05:10Z</time>
      </trkpt>
      <trkpt lat="44.04234" lon="1.69309">
        <ele>295</ele>
        <time>2021-03-21T10:05:14Z</time>
      </trkpt>
      <trkpt lat="44.0423" lon="1.69309">
        <ele>296.2</ele>
        <time>2021-03-21T10:05:18Z</time>
      </trkpt>
      <trkpt lat="44.04227" lon="1.69307">
        <ele>296.6</ele>
        <time>2021-03-21T10:05:22Z</time>
      </trkpt>
      <trkpt lat="44.04223" lon="1.69305">
        <ele>297.2</ele>
        <time>2021-03-21T10:05:26Z</time>
      </trkpt>
      <trkpt lat="44.0422" lon="1.69304">
        <ele>298</ele>
        <time>2021-03-21T10:05:30Z</time>
      </trkpt>
      <trkpt lat="44.04216" lon="1.69302">
        <ele>299.2</ele>
        <time>2021-03-21T10:05:34Z</time>
      </trkpt>
      <trkpt lat="44.04212" lon="1.693">
        <ele>299.6</ele>
        <time>2021-03-21T10:05:38Z</time>
      </trkpt>
      <trkpt lat="44.04209" lon="1.69299">
        <ele>300.6</ele>
        <time>2021-03-21T10:05:42Z</time>
      </trkpt>
      <trkpt lat="44.04205" lon="1.69298">
        <ele>301.2</ele>
        <time>2021-03-21T10:05:46Z</time>
      </trkpt>
      <trkpt lat="44.04201" lon="1.69297">
        <ele>301.8</ele>
        <time>2021-03-21T10:05:50Z</time>
      </trkpt>
      <trkpt lat="44.04196" lon="1.69296">
        <ele>302.8</ele>
        <time>2021-03-21T10:05:54Z</time>
      </trkpt>
      <trkpt lat="44.04192" lon="1.69295">
        <ele>303.4</ele>
        <time>2021-03-21T10:05:58Z</time>
      </trkpt>
      <trkpt lat="44.04188" lon="1.69295">
        <ele>304.6</ele>
        <time>2021-03-21T10:06:02Z</time>
      </trkpt>
      <trkpt lat="44.04183" lon="1.69296">
        <ele>305.6</ele>
        <time>2021-03-21T10:06:06Z</time>
      </trkpt>
      <trkpt lat="44.04179" lon="1.69296">
        <ele>306</ele>
        <time>2021-03-21T10:06:10Z</time>
      </trkpt>
      <trkpt lat="44.04174" lon="1.69296">
        <ele>306.6</ele>
        <time>2021-03-21T10:06:14Z</time>
      </trkpt>
      <trkpt lat="44.04169" lon="1.69297">
        <ele>307</ele>
        <time>2021-03-21T10:06:18Z</time>
      </trkpt>
      <trkpt lat="44.04164" lon="1.69297">
        <ele>308.4</ele>
        <time>2021-03-21T10:06:22Z</time>
      </trkpt>
      <trkpt lat="44.04159" lon="1.69298">
        <ele>308.8</ele>
        <time>2021-03-21T10:06:26Z</time>
      </trkpt>
      <trkpt lat="44.04155" lon="1.69301">
        <ele>309.6</ele>
        <time>2021-03-21T10:06:30Z</time>
      </trkpt>
      <trkpt lat="44.04152" lon="1.69305">
        <ele>310.8</ele>
        <time>2021-03-21T10:06:34Z</time>
      </trkpt>
      <trkpt lat="44.04148" lon="1.69308">
        <ele>311.6</ele>
        <time>2021-03-21T10:06:38Z</time>
      </trkpt>
      <trkpt lat="44.04144" lon="1.69311">
        <ele>312.2</ele>
        <time>2021-03-21T10:06:42Z</time>
      </trkpt>
      <trkpt lat="44.04141" lon="1.69315">
        <ele>313</ele>
        <time>2021-03-21T10:06:46Z</time>
      </trkpt>
      <trkpt lat="44.04137" lon="1.69318">
        <ele>314.2</ele>
        <time>2021-03-21T10:06:50Z</time>
      </trkpt>
      <trkpt lat="44.04133" lon="1.69321">
        <ele>314.4</ele>
        <time>2021-03-21T10:06:54Z</time>
      </trkpt>
      <trkpt lat="44.04129" lon="1.69324">
        <ele>316</ele>
        <time>2021-03-21T10:06:58Z</time>
      </trkpt>
      <trkpt lat="44.04125" lon="1.69326">
        <ele>316.8</ele>
        <time>2021-03-21T10:07:02Z</time>
      </trkpt>
      <trkpt lat="44.04121" lon="1.69329">
        <ele>317.4</ele>
        <time>2021-03-21T10:07:06Z</time>
      </trkpt>
      <trkpt lat="44.04118" lon="1.69333">
        <ele>317.6</ele>
        <time>2021-03-21T10:07:10Z</time>
      </trkpt>
      <trkpt lat="44.04117" lon="1.69339">
        <ele>319.2</ele>
        <time>2021-03-21T10:07:14Z</time>
      </trkpt>
      <trkpt lat="44.04119" lon="1.69344">
        <ele>320.4</ele>
        <time>2021-03-21T10:07:18Z</time>
      </trkpt>
      <trkpt lat="44.04123" lon="1.69348">
        <ele>321.2</ele>
        <time>2021-03-21T10:07:22Z</time>
      </trkpt>
      <trkpt lat="44.04127" lon="1.69353">
        <ele>322.6</ele>
        <time>2021-03-21T10:07:26Z</time>
      </trkpt>
      <trkpt lat="44.04131" lon="1.69358">
        <ele>322.8</ele>
        <time>2021-03-21T10:07:30Z</time>
      </trkpt>
      <trkpt lat="44.04134" lon="1.69365">
        <ele>323.6</ele>
        <time>2021-03-21T10:07:34Z</time>
      </trkpt>
      <trkpt lat="44.04137" lon="1.69371">
        <ele>324.2</ele>
        <time>2021-03-21T10:07:38Z</time>
      </trkpt>
      <trkpt lat="44.04139" lon="1.69377">
        <ele>325</ele>
        <time>2021-03-21T10:07:42Z</time>
      </trkpt>
      <trkpt lat="44.0414" lon="1.69385">
        <ele>325.6</ele>
        <time>2021-03-21T10:07:46Z</time>
      </trkpt>
      <trkpt lat="44.0414" lon="1.6939">
        <ele>326</ele>
        <time>2021-03-21T10:07:50Z</time>
      </trkpt>
      <trkpt lat="44.04139" lon="1.69396">
        <ele>328</ele>
        <time>2021-03-21T10:07:54Z</time>
      </trkpt>
      <trkpt lat="44.04138" lon="1.69402">
        <ele>329</ele>
        <time>2021-03-21T10:07:58Z</time>
      </trkpt>
      <trkpt lat="44.04139" lon="1.69409">
        <ele>329.2</ele>
        <time>2021-03-21T10:08:02Z</time>
      </trkpt>
      <trkpt lat="44.04138" lon="1.69414">
        <ele>330.2</ele>
        <time>2021-03-21T10:08:06Z</time>
      </trkpt>
      <trkpt lat="44.04137" lon="1.6942">
        <ele>331.2</ele>
        <time>2021-03-21T10:08:10Z</time>
      </trkpt>
      <trkpt lat="44.04137" lon="1.69425">
        <ele>332</ele>
        <time>2021-03-21T10:08:14Z</time>
      </trkpt>
      <trkpt lat="44.04132" lon="1.6943">
        <ele>333.6</ele>
        <time>2021-03-21T10:08:18Z</time>
      </trkpt>
      <trkpt lat="44.04126" lon="1.6943">
        <ele>334.2</ele>
        <time>2021-03-21T10:08:22Z</time>
      </trkpt>
      <trkpt lat="44.04121" lon="1.69429">
        <ele>335.2</ele>
        <time>2021-03-21T10:08:26Z</time>
      </trkpt>
      <trkpt lat="44.04116" lon="1.6943">
        <ele>336</ele>
        <time>2021-03-21T10:08:30Z</time>
      </trkpt>
      <trkpt lat="44.04112" lon="1.69432">
        <ele>337.2</ele>
        <time>2021-03-21T10:08:34Z</time>
      </trkpt>
      <trkpt lat="44.04108" lon="1.69437">
        <ele>337.4</ele>
        <time>2021-03-21T10:08:38Z</time>
      </trkpt>
      <trkpt lat="44.04105" lon="1.69441">
        <ele>338.6</ele>
        <time>2021-03-21T10:08:42Z</time>
      </trkpt>
      <trkpt lat="44.04102" lon="1.69445">
        <ele>339</ele>
        <time>2021-03-21T10:08:46Z</time>
      </trkpt>
      <trkpt lat="44.04099" lon="1.69449">
        <ele>339.8</ele>
        <time>2021-03-21T10:08:50Z</time>
      </trkpt>
      <trkpt lat="44.04096" lon="1.69453">
        <ele>340.8</ele>
        <time>2021-03-21T10:08:54Z</time>
      </trkpt>
      <trkpt lat="44.04093" lon="1.69459">
        <ele>341.4</ele>
        <time>2021-03-21T10:08:58Z</time>
      </trkpt>
      <trkpt lat="44.04091" lon="1.69464">
        <ele>342.8</ele>
        <time>2021-03-21T10:09:02Z</time>
      </trkpt>
      <trkpt lat="44.04088" lon="1.69469">
        <ele>343</ele>
        <time>2021-03-21T10:09:06Z</time>
      </trkpt>
      <trkpt lat="44.04085" lon="1.69473">
        <ele>344</ele>
        <time>2021-03-21T10:09:10Z</time>
      </trkpt>
      <trkpt lat="44.04082" lon="1.69478">
        <ele>344.6</ele>
        <time>2021-03-21T10:09:14Z</time>
      </trkpt>
      <trkpt lat="44.04079" lon="1.69482">
        <ele>345.6</ele>
        <time>2021-03-21T10:09:18Z</time>
      </trkpt>
      <trkpt lat="44.04076" lon="1.69487">
        <ele>346</ele>
        <time>2021-03-21T10:09:22Z</time>
      </trkpt>
      <trkpt lat="44.04074" lon="1.69492">
        <ele>347</ele>
        <time>2021-03-21T10:09:26Z</time>
      </trkpt>
      <trkpt lat="44.04072" lon="1.69498">
        <ele>348.4</ele>
        <time>2021-03-21T10:09:30Z</time>
      </trkpt>
      <trkpt lat="44.0407" lon="1.69504">
        <ele>348.6</ele>
        <time>2021-03-21T10:09:34Z</time>
      </trkpt>
      <trkpt lat="44.04067" lon="1.69507">
        <ele>349.6</ele>
        <time>2021-03-21T10:09:38Z</time>
      </trkpt>
      <trkpt lat="44.04063" lon="1.69512">
        <ele>350.6</ele>
        <time>2021-03-21T10:09:42Z</time>
      </trkpt>
      <trkpt lat="44.0406" lon="1.69518">
        <ele>351</ele>
        <time>2021-03-21T10:09:46Z</time>
      </trkpt>
      <trkpt lat="44.04059" lon="1.69524">
        <ele>352</ele>
        <time>2021-03-21T10:09:50Z</time>
      </trkpt>
      <trkpt lat="44.04059" lon="1.69531">
        <ele>352.6</ele>
        <time>2021-03-21T10:09:54Z</time>
      </trkpt>
      <trkpt lat="44.04058" lon="1.69538">
        <ele>353.4</ele>
        <time>2021-03-21T10:09:58Z</time>
      </trkpt>
      <trkpt lat="44.04057" lon="1.69545">
        <ele>354.2</ele>
        <time>2021-03-21T10:10:02Z</time>
      </trkpt>
      <trkpt lat="44.04056" lon="1.69551">
        <ele>354.6</ele>
        <time>2021-03-21T10:10:06Z</time>
      </trkpt>
      <trkpt lat="44.04056" lon="1.69558">
        <ele>355.6</ele>
        <time>2021-03-21T10:10:10Z</time>
      </trkpt>
      <trkpt lat="44.04055" lon="1.69565">
        <ele>356.4</ele>
        <time>2021-03-21T10:10:14Z</time>
      </trkpt>
      <trkpt lat="44.04054" lon="1.69571">
        <ele>357</ele>
        <time>2021-03-21T10:10:18Z</time>
      </trkpt>
      <trkpt lat="44.04053" lon="1.69577">
        <ele>358.4</ele>
        <time>2021-03-21T10:10:22Z</time>
      </trkpt>
      <trkpt lat="44.04051" lon="1.69584">
        <ele>358.6</ele>
        <time>2021-03-21T10:10:26Z</time>
      </trkpt>
      <trkpt lat="44.0405" lon="1.6959">
        <ele>358.8</ele>
        <time>2021-03-21T10:10:30Z</time>
      </trkpt>
      <trkpt lat="44.0405" lon="1.69596">
        <ele>359.6</ele>
        <time>2021-03-21T10:10:34Z</time>
      </trkpt>
      <trkpt lat="44.04051" lon="1.69602">
        <ele>360.4</ele>
        <time>2021-03-21T10:10:38Z</time>
      </trkpt>
      <trkpt lat="44.04051" lon="1.69609">
        <ele>361.2</ele>
        <time>2021-03-21T10:10:42Z</time>
      </trkpt>
      <trkpt lat="44.0405" lon="1.69616">
        <ele>361.8</ele>
        <time>2021-03-21T10:10:46Z</time>
      </trkpt>
      <trkpt lat="44.04048" lon="1.69624">
        <ele>362.6</ele>
        <time>2021-03-21T10:10:50Z</time>
      </trkpt>
      <trkpt lat="44.04048" lon="1.69632">
        <ele>363</ele>
        <time>2021-03-21T10:10:54Z</time>
      </trkpt>
      <trkpt lat="44.04047" lon="1.69638">
        <ele>363.4</ele>
        <time>2021-03-21T10:10:58Z</time>
      </trkpt>
      <trkpt lat="44.04047" lon="1.69645">
        <ele>364.4</ele>
        <time>2021-03-21T10:11:02Z</time>
      </trkpt>
      <trkpt lat="44.04045" lon="1.6965">
        <ele>365.4</ele>
        <time>2021-03-21T10:11:06Z</time>
      </trkpt>
      <trkpt lat="44.04043" lon="1.69658">
        <ele>366.2</ele>
        <time>2021-03-21T10:11:10Z</time>
      </trkpt>
      <trkpt lat="44.04042" lon="1.69665">
        <ele>366.8</ele>
        <time>2021-03-21T10:11:14Z</time>
      </trkpt>
      <trkpt lat="44.04041" lon="1.69672">
        <ele>367.8</ele>
        <time>2021-03-21T10:11:18Z</time>
      </trkpt>
      <trkpt lat="44.04041" lon="1.69679">
        <ele>369.2</ele>
        <time>2021-03-21T10:11:22Z</time>
      </trkpt>
      <trkpt lat="44.0404" lon="1.69686">
        <ele>370</ele>
        <time>2021-03-21T10:11:26Z</time>
      </trkpt>
      <trkpt lat="44.04038" lon="1.69694">
        <ele>370</ele>
        <time>2021-03-21T10:11:30Z</time>
      </trkpt>
      <trkpt lat="44.04037" lon="1.69701">
        <ele>371.2</ele>
        <time>2021-03-21T10:11:34Z</time>
      </trkpt>
      <trkpt lat="44.04036" lon="1.69708">
        <ele>372.6</ele>
        <time>2021-03-21T10:11:38Z</time>
      </trkpt>
      <trkpt lat="44.04035" lon="1.69714">
        <ele>373</ele>
        <time>2021-03-21T10:11:42Z</time>
      </trkpt>
      <trkpt lat="44.04032" lon="1.6972">
        <ele>373.8</ele>
        <time>2021-03-21T10:11:46Z</time>
      </trkpt>
      <trkpt lat="44.0403" lon="1.69727">
        <ele>375</ele>
        <time>2021-03-21T10:11:50Z</time>
      </trkpt>
      <trkpt lat="44.04027" lon="1.69733">
        <ele>375.8</ele>
        <time>2021-03-21T10:11:54Z</time>
      </trkpt>
      <trkpt lat="44.04025" lon="1.69739">
        <ele>376.2</ele>
        <time>2021-03-21T10:11:58Z</time>
      </trkpt>
      <trkpt lat="44.04023" lon="1.69745">
        <ele>376.8</ele>
        <time>2021-03-21T10:12:02Z</time>
      </trkpt>
      <trkpt lat="44.04022" lon="1.69751">
        <ele>377.6</ele>
        <time>2021-03-21T10:12:06Z</time>
      </trkpt>
      <trkpt lat="44.0402" lon="1.69757">
        <ele>378.4</ele>
        <time>2021-03-21T10:12:10Z</time>
      </trkpt>
      <trkpt lat="44.04018" lon="1.69763">
        <ele>379.2</ele>
        <time>2021-03-21T10:12:14Z</time>
      </trkpt>
      <trkpt lat="44.04015" lon="1.6977">
        <ele>380.4</ele>
        <time>2021-03-21T10:12:18Z</time>
      </trkpt>
      <trkpt lat="44.04014" lon="1.69777">
        <ele>381.4</ele>
        <time>2021-03-21T10:12:22Z</time>
      </trkpt>
      <trkpt lat="44.04011" lon="1.69784">
        <ele>382.6</ele>
        <time>2021-03-21T10:12:26Z</time>
      </trkpt>
      <trkpt lat="44.0401" lon="1.6979">
        <ele>383</ele>
        <time>2021-03-21T10:12:30Z</time>
      </trkpt>
      <trkpt lat="44.04008" lon="1.69796">
        <ele>383.6</ele>
        <time>2021-03-21T10:12:34Z</time>
      </trkpt>
      <trkpt lat="44.04005" lon="1.69802">
        <ele>385</ele>
        <time>2021-03-21T10:12:38Z</time>
      </trkpt>
      <trkpt lat="44.04002" lon="1.69808">
        <ele>385.2</ele>
        <time>2021-03-21T10:12:42Z</time>
      </trkpt>
      <trkpt lat="44.03998" lon="1.69814">
        <ele>385.8</ele>
        <time>2021-03-21T10:12:46Z</time>
      </trkpt>
      <trkpt lat="44.03995" lon="1.6982">
        <ele>386.4</ele>
        <time>2021-03-21T10:12:50Z</time>
      </trkpt>
      <trkpt lat="44.03992" lon="1.69826">
        <ele>387</ele>
        <time>2021-03-21T10:12:54Z</time>
      </trkpt>
      <trkpt lat="44.03988" lon="1.69831">
        <ele>387.8</ele>
        <time>2021-03-21T10:12:58Z</time>
      </trkpt>
      <trkpt lat="44.03985" lon="1.69837">
        <ele>388.2</ele>
        <time>2021-03-21T10:13:02Z</time>
      </trkpt>
      <trkpt lat="44.03983" lon="1.69843">
        <ele>389</ele>
        <time>2021-03-21T10:13:06Z</time>
      </trkpt>
      <trkpt lat="44.03981" lon="1.6985">
        <ele>389.2</ele>
        <time>2021-03-21T10:13:10Z</time>
      </trkpt>
      <trkpt lat="44.0398" lon="1.69857">
        <ele>390.4</ele>
        <time>2021-03-21T10:13:14Z</time>
      </trkpt>
      <trkpt lat="44.03978" lon="1.69863">
        <ele>392.2</ele>
        <time>2021-03-21T10:13:18Z</time>
      </trkpt>
      <trkpt lat="44.03975" lon="1.6987">
        <ele>392.8</ele>
        <time>2021-03-21T10:13:22Z</time>
      </trkpt>
      <trkpt lat="44.03972" lon="1.69877">
        <ele>394</ele>
        <time>2021-03-21T10:13:26Z</time>
      </trkpt>
      <trkpt lat="44.0397" lon="1.69885">
        <ele>394</ele>
        <time>2021-03-21T10:13:30Z</time>
      </trkpt>
      <trkpt lat="44.03968" lon="1.69892">
        <ele>395.2</ele>
        <time>2021-03-21T10:13:34Z</time>
      </trkpt>
      <trkpt lat="44.03963" lon="1.69898">
        <ele>395.8</ele>
        <time>2021-03-21T10:13:38Z</time>
      </trkpt>
      <trkpt lat="44.03959" lon="1.69905">
        <ele>396.2</ele>
        <time>2021-03-21T10:13:42Z</time>
      </trkpt>
      <trkpt lat="44.03955" lon="1.6991">
        <ele>396.6</ele>
        <time>2021-03-21T10:13:46Z</time>
      </trkpt>
      <trkpt lat="44.03952" lon="1.69917">
        <ele>396.6</ele>
        <time>2021-03-21T10:13:50Z</time>
      </trkpt>
      <trkpt lat="44.03949" lon="1.69924">
        <ele>397.6</ele>
        <time>2021-03-21T10:13:54Z</time>
      </trkpt>
      <trkpt lat="44.03946" lon="1.6993">
        <ele>398.2</ele>
        <time>2021-03-21T10:13:58Z</time>
      </trkpt>
      <trkpt lat="44.0394" lon="1.69939">
        <ele>398</ele>
        <time>2021-03-21T10:22:57Z</time>
      </trkpt>
      <trkpt lat="44.03934" lon="1.69947">
        <ele>398.2</ele>
        <time>2021-03-21T10:23:01Z</time>
      </trkpt>
      <trkpt lat="44.03928" lon="1.69956">
        <ele>398.8</ele>
        <time>2021-03-21T10:23:05Z</time>
      </trkpt>
      <trkpt lat="44.03919" lon="1.69966">
        <ele>399.2</ele>
        <time>2021-03-21T10:23:09Z</time>
      </trkpt>
      <trkpt lat="44.0391" lon="1.69977">
        <ele>399.2</ele>
        <time>2021-03-21T10:23:13Z</time>
      </trkpt>
      <trkpt lat="44.03901" lon="1.69985">
        <ele>399.4</ele>
        <time>2021-03-21T10:23:17Z</time>
      </trkpt>
      <trkpt lat="44.03892" lon="1.69992">
        <ele>399.2</ele>
        <time>2021-03-21T10:23:21Z</time>
      </trkpt>
      <trkpt lat="44.0388" lon="1.69996">
        <ele>399.2</ele>
        <time>2021-03-21T10:23:25Z</time>
      </trkpt>
      <trkpt lat="44.03869" lon="1.7">
        <ele>400</ele>
        <time>2021-03-21T10:23:29Z</time>
      </trkpt>
      <trkpt lat="44.0386" lon="1.70003">
        <ele>400.4</ele>
        <time>2021-03-21T10:23:33Z</time>
      </trkpt>
      <trkpt lat="44.03851" lon="1.70007">
        <ele>400.6</ele>
        <time>2021-03-21T10:23:37Z</time>
      </trkpt>
      <trkpt lat="44.03842" lon="1.70015">
        <ele>401.6</ele>
        <time>2021-03-21T10:23:41Z</time>
      </trkpt>
      <trkpt lat="44.03836" lon="1.70023">
        <ele>402.6</ele>
        <time>2021-03-21T10:23:45Z</time>
      </trkpt>
      <trkpt lat="44.03829" lon="1.7003">
        <ele>403.6</ele>
        <time>2021-03-21T10:23:49Z</time>
      </trkpt>
      <trkpt lat="44.03821" lon="1.70035">
        <ele>403.8</ele>
        <time>2021-03-21T10:23:53Z</time>
      </trkpt>
      <trkpt lat="44.03814" lon="1.70041">
        <ele>404.4</ele>
        <time>2021-03-21T10:23:57Z</time>
      </trkpt>
      <trkpt lat="44.03809" lon="1.70048">
        <ele>405.4</ele>
        <time>2021-03-21T10:24:01Z</time>
      </trkpt>
      <trkpt lat="44.03806" lon="1.70056">
        <ele>406</ele>
        <time>2021-03-21T10:24:05Z</time>
      </trkpt>
      <trkpt lat="44.03803" lon="1.70062">
        <ele>406.6</ele>
        <time>2021-03-21T10:24:09Z</time>
      </trkpt>
      <trkpt lat="44.0379" lon="1.70057">
        <ele>405</ele>
        <time>2021-03-21T10:25:13Z</time>
      </trkpt>
      <trkpt lat="44.03781" lon="1.70038">
        <ele>402.2</ele>
        <time>2021-03-21T10:25:17Z</time>
      </trkpt>
      <trkpt lat="44.03769" lon="1.70016">
        <ele>401.6</ele>
        <time>2021-03-21T10:25:21Z</time>
      </trkpt>
      <trkpt lat="44.03772" lon="1.69991">
        <ele>401.4</ele>
        <time>2021-03-21T10:25:25Z</time>
      </trkpt>
      <trkpt lat="44.03768" lon="1.69971">
        <ele>402.8</ele>
        <time>2021-03-21T10:25:29Z</time>
      </trkpt>
      <trkpt lat="44.0376" lon="1.69953">
        <ele>404.8</ele>
        <time>2021-03-21T10:25:33Z</time>
      </trkpt>
      <trkpt lat="44.03758" lon="1.69933">
        <ele>404.4</ele>
        <time>2021-03-21T10:25:37Z</time>
      </trkpt>
      <trkpt lat="44.03752" lon="1.69911">
        <ele>405.4</ele>
        <time>2021-03-21T10:25:41Z</time>
      </trkpt>
      <trkpt lat="44.03742" lon="1.69894">
        <ele>407.2</ele>
        <time>2021-03-21T10:25:45Z</time>
      </trkpt>
      <trkpt lat="44.03734" lon="1.69875">
        <ele>407.2</ele>
        <time>2021-03-21T10:25:49Z</time>
      </trkpt>
      <trkpt lat="44.03725" lon="1.69853">
        <ele>406.2</ele>
        <time>2021-03-21T10:25:53Z</time>
      </trkpt>
      <trkpt lat="44.03716" lon="1.69827">
        <ele>405.4</ele>
        <time>2021-03-21T10:25:57Z</time>
      </trkpt>
      <trkpt lat="44.03707" lon="1.69806">
        <ele>405.4</ele>
        <time>2021-03-21T10:26:01Z</time>
      </trkpt>
      <trkpt lat="44.03693" lon="1.69797">
        <ele>405.6</ele>
        <time>2021-03-21T10:26:05Z</time>
      </trkpt>
      <trkpt lat="44.03679" lon="1.69808">
        <ele>406.6</ele>
        <time>2021-03-21T10:26:09Z</time>
      </trkpt>
      <trkpt lat="44.03671" lon="1.69821">
        <ele>409</ele>
        <time>2021-03-21T10:26:13Z</time>
      </trkpt>
      <trkpt lat="44.03663" lon="1.69829">
        <ele>410.8</ele>
        <time>2021-03-21T10:26:17Z</time>
      </trkpt>
      <trkpt lat="44.03651" lon="1.69834">
        <ele>411.6</ele>
        <time>2021-03-21T10:26:21Z</time>
      </trkpt>
      <trkpt lat="44.03641" lon="1.69844">
        <ele>411.8</ele>
        <time>2021-03-21T10:26:25Z</time>
      </trkpt>
      <trkpt lat="44.03632" lon="1.69851">
        <ele>412</ele>
        <time>2021-03-21T10:26:29Z</time>
      </trkpt>
      <trkpt lat="44.03623" lon="1.6985">
        <ele>412.6</ele>
        <time>2021-03-21T10:26:33Z</time>
      </trkpt>
      <trkpt lat="44.03616" lon="1.69837">
        <ele>410.4</ele>
        <time>2021-03-21T10:26:37Z</time>
      </trkpt>
      <trkpt lat="44.03607" lon="1.69807">
        <ele>407.8</ele>
        <time>2021-03-21T10:26:41Z</time>
      </trkpt>
      <trkpt lat="44.03593" lon="1.69766">
        <ele>404</ele>
        <time>2021-03-21T10:26:45Z</time>
      </trkpt>
      <trkpt lat="44.03581" lon="1.69724">
        <ele>399.4</ele>
        <time>2021-03-21T10:26:49Z</time>
      </trkpt>
      <trkpt lat="44.03568" lon="1.69689">
        <ele>397.4</ele>
        <time>2021-03-21T10:26:53Z</time>
      </trkpt>
      <trkpt lat="44.03562" lon="1.69653">
        <ele>395.8</ele>
        <time>2021-03-21T10:26:57Z</time>
      </trkpt>
      <trkpt lat="44.03557" lon="1.6962">
        <ele>392.8</ele>
        <time>2021-03-21T10:27:01Z</time>
      </trkpt>
      <trkpt lat="44.03564" lon="1.69592">
        <ele>389.8</ele>
        <time>2021-03-21T10:27:05Z</time>
      </trkpt>
      <trkpt lat="44.03559" lon="1.69575">
        <ele>392</ele>
        <time>2021-03-21T10:27:09Z</time>
      </trkpt>
      <trkpt lat="44.03565" lon="1.69556">
        <ele>390.4</ele>
        <time>2021-03-21T10:27:13Z</time>
      </trkpt>
      <trkpt lat="44.03572" lon="1.69531">
        <ele>388.8</ele>
        <time>2021-03-21T10:27:17Z</time>
      </trkpt>
      <trkpt lat="44.03584" lon="1.69508">
        <ele>386.6</ele>
        <time>2021-03-21T10:27:21Z</time>
      </trkpt>
      <trkpt lat="44.03594" lon="1.69484">
        <ele>385.2</ele>
        <time>2021-03-21T10:27:25Z</time>
      </trkpt>
      <trkpt lat="44.0361" lon="1.69459">
        <ele>383.8</ele>
        <time>2021-03-21T10:27:29Z</time>
      </trkpt>
      <trkpt lat="44.03625" lon="1.69454">
        <ele>382</ele>
        <time>2021-03-21T10:27:33Z</time>
      </trkpt>
      <trkpt lat="44.0364" lon="1.69431">
        <ele>378.8</ele>
        <time>2021-03-21T10:27:37Z</time>
      </trkpt>
      <trkpt lat="44.03639" lon="1.69413">
        <ele>381</ele>
        <time>2021-03-21T10:27:41Z</time>
      </trkpt>
      <trkpt lat="44.03639" lon="1.69402">
        <ele>380.8</ele>
        <time>2021-03-21T10:27:45Z</time>
      </trkpt>
      <trkpt lat="44.03637" lon="1.69388">
        <ele>381.2</ele>
        <time>2021-03-21T10:27:49Z</time>
      </trkpt>
      <trkpt lat="44.03633" lon="1.69373">
        <ele>382</ele>
        <time>2021-03-21T10:27:53Z</time>
      </trkpt>
      <trkpt lat="44.0363" lon="1.69364">
        <ele>382</ele>
        <time>2021-03-21T10:27:57Z</time>
      </trkpt>
      <trkpt lat="44.03626" lon="1.69358">
        <ele>381.8</ele>
        <time>2021-03-21T10:30:36Z</time>
      </trkpt>
      <trkpt lat="44.03619" lon="1.69367">
        <ele>382</ele>
        <time>2021-03-21T10:30:40Z</time>
      </trkpt>
      <trkpt lat="44.03612" lon="1.69378">
        <ele>382.4</ele>
        <time>2021-03-21T10:30:44Z</time>
      </trkpt>
      <trkpt lat="44.03604" lon="1.6939">
        <ele>384</ele>
        <time>2021-03-21T10:30:48Z</time>
      </trkpt>
      <trkpt lat="44.03596" lon="1.69403">
        <ele>383.6</ele>
        <time>2021-03-21T10:30:52Z</time>
      </trkpt>
      <trkpt lat="44.0359" lon="1.69414">
        <ele>385.6</ele>
        <time>2021-03-21T10:30:56Z</time>
      </trkpt>
      <trkpt lat="44.03587" lon="1.69422">
        <ele>386.4</ele>
        <time>2021-03-21T10:31:00Z</time>
      </trkpt>
      <trkpt lat="44.03584" lon="1.6943">
        <ele>386.2</ele>
        <time>2021-03-21T10:31:04Z</time>
      </trkpt>
      <trkpt lat="44.0358" lon="1.69438">
        <ele>387.4</ele>
        <time>2021-03-21T10:31:08Z</time>
      </trkpt>
      <trkpt lat="44.03577" lon="1.69447">
        <ele>388</ele>
        <time>2021-03-21T10:31:12Z</time>
      </trkpt>
      <trkpt lat="44.03573" lon="1.69457">
        <ele>388.8</ele>
        <time>2021-03-21T10:31:16Z</time>
      </trkpt>
      <trkpt lat="44.0357" lon="1.69467">
        <ele>389.2</ele>
        <time>2021-03-21T10:31:20Z</time>
      </trkpt>
      <trkpt lat="44.03567" lon="1.69477">
        <ele>390.4</ele>
        <time>2021-03-21T10:31:24Z</time>
      </trkpt>
      <trkpt lat="44.03563" lon="1.69487">
        <ele>391.2</ele>
        <time>2021-03-21T10:31:28Z</time>
      </trkpt>
      <trkpt lat="44.0356" lon="1.69498">
        <ele>392</ele>
        <time>2021-03-21T10:31:32Z</time>
      </trkpt>
      <trkpt lat="44.03557" lon="1.6951">
        <ele>392.2</ele>
        <time>2021-03-21T10:31:36Z</time>
      </trkpt>
      <trkpt lat="44.03552" lon="1.69522">
        <ele>393.4</ele>
        <time>2021-03-21T10:31:40Z</time>
      </trkpt>
      <trkpt lat="44.03548" lon="1.69533">
        <ele>393.8</ele>
        <time>2021-03-21T10:31:44Z</time>
      </trkpt>
      <trkpt lat="44.03545" lon="1.69546">
        <ele>394.6</ele>
        <time>2021-03-21T10:31:48Z</time>
      </trkpt>
      <trkpt lat="44.03543" lon="1.69564">
        <ele>394.6</ele>
        <time>2021-03-21T10:31:52Z</time>
      </trkpt>
      <trkpt lat="44.03543" lon="1.6958">
        <ele>395.4</ele>
        <time>2021-03-21T10:31:56Z</time>
      </trkpt>
      <trkpt lat="44.03541" lon="1.69598">
        <ele>395.4</ele>
        <time>2021-03-21T10:32:00Z</time>
      </trkpt>
      <trkpt lat="44.03541" lon="1.69612">
        <ele>396</ele>
        <time>2021-03-21T10:32:04Z</time>
      </trkpt>
      <trkpt lat="44.0354" lon="1.69627">
        <ele>396.8</ele>
        <time>2021-03-21T10:32:08Z</time>
      </trkpt>
      <trkpt lat="44.03542" lon="1.69641">
        <ele>397.4</ele>
        <time>2021-03-21T10:32:12Z</time>
      </trkpt>
      <trkpt lat="44.03545" lon="1.69654">
        <ele>398.2</ele>
        <time>2021-03-21T10:32:16Z</time>
      </trkpt>
      <trkpt lat="44.03548" lon="1.69669">
        <ele>399.2</ele>
        <time>2021-03-21T10:32:20Z</time>
      </trkpt>
      <trkpt lat="44.03552" lon="1.69684">
        <ele>400.2</ele>
        <time>2021-03-21T10:32:24Z</time>
      </trkpt>
      <trkpt lat="44.03555" lon="1.69699">
        <ele>401</ele>
        <time>2021-03-21T10:32:28Z</time>
      </trkpt>
      <trkpt lat="44.03559" lon="1.69712">
        <ele>401.4</ele>
        <time>2021-03-21T10:32:32Z</time>
      </trkpt>
      <trkpt lat="44.03563" lon="1.69725">
        <ele>402.2</ele>
        <time>2021-03-21T10:32:36Z</time>
      </trkpt>
      <trkpt lat="44.03567" lon="1.69738">
        <ele>403.2</ele>
        <time>2021-03-21T10:32:40Z</time>
      </trkpt>
      <trkpt lat="44.03571" lon="1.6975">
        <ele>404</ele>
        <time>2021-03-21T10:32:44Z</time>
      </trkpt>
      <trkpt lat="44.03575" lon="1.69763">
        <ele>404.4</ele>
        <time>2021-03-21T10:32:48Z</time>
      </trkpt>
      <trkpt lat="44.03579" lon="1.69777">
        <ele>405</ele>
        <time>2021-03-21T10:32:52Z</time>
      </trkpt>
      <trkpt lat="44.03583" lon="1.69789">
        <ele>406.8</ele>
        <time>2021-03-21T10:32:56Z</time>
      </trkpt>
      <trkpt lat="44.03586" lon="1.69802">
        <ele>407.8</ele>
        <time>2021-03-21T10:33:00Z</time>
      </trkpt>
      <trkpt lat="44.0359" lon="1.69815">
        <ele>408.4</ele>
        <time>2021-03-21T10:33:04Z</time>
      </trkpt>
      <trkpt lat="44.03595" lon="1.69828">
        <ele>410</ele>
        <time>2021-03-21T10:33:08Z</time>
      </trkpt>
      <trkpt lat="44.036" lon="1.69839">
        <ele>411</ele>
        <time>2021-03-21T10:33:12Z</time>
      </trkpt>
      <trkpt lat="44.03608" lon="1.69846">
        <ele>411.8</ele>
        <time>2021-03-21T10:33:16Z</time>
      </trkpt>
      <trkpt lat="44.03617" lon="1.69852">
        <ele>412</ele>
        <time>2021-03-21T10:33:20Z</time>
      </trkpt>
      <trkpt lat="44.03619" lon="1.69847">
        <ele>412.6</ele>
        <time>2021-03-21T10:33:24Z</time>
      </trkpt>
      <trkpt lat="44.03614" lon="1.69834">
        <ele>412.2</ele>
        <time>2021-03-21T10:33:28Z</time>
      </trkpt>
      <trkpt lat="44.03606" lon="1.6981">
        <ele>408</ele>
        <time>2021-03-21T10:33:32Z</time>
      </trkpt>
      <trkpt lat="44.03594" lon="1.69777">
        <ele>403.6</ele>
        <time>2021-03-21T10:33:36Z</time>
      </trkpt>
      <trkpt lat="44.03584" lon="1.69736">
        <ele>398.8</ele>
        <time>2021-03-21T10:33:40Z</time>
      </trkpt>
      <trkpt lat="44.03574" lon="1.69709">
        <ele>399.2</ele>
        <time>2021-03-21T10:33:44Z</time>
      </trkpt>
      <trkpt lat="44.03567" lon="1.69679">
        <ele>398.6</ele>
        <time>2021-03-21T10:33:48Z</time>
      </trkpt>
      <trkpt lat="44.03559" lon="1.69645">
        <ele>393.6</ele>
        <time>2021-03-21T10:33:52Z</time>
      </trkpt>
      <trkpt lat="44.03557" lon="1.69614">
        <ele>392.4</ele>
        <time>2021-03-21T10:33:56Z</time>
      </trkpt>
      <trkpt lat="44.03563" lon="1.69592">
        <ele>391</ele>
        <time>2021-03-21T10:34:00Z</time>
      </trkpt>
      <trkpt lat="44.03558" lon="1.69578">
        <ele>391.2</ele>
        <time>2021-03-21T10:34:04Z</time>
      </trkpt>
      <trkpt lat="44.03564" lon="1.69561">
        <ele>389.6</ele>
        <time>2021-03-21T10:34:08Z</time>
      </trkpt>
      <trkpt lat="44.0357" lon="1.69534">
        <ele>387.8</ele>
        <time>2021-03-21T10:34:12Z</time>
      </trkpt>
      <trkpt lat="44.03582" lon="1.6951">
        <ele>386.6</ele>
        <time>2021-03-21T10:34:16Z</time>
      </trkpt>
      <trkpt lat="44.03593" lon="1.69484">
        <ele>386</ele>
        <time>2021-03-21T10:34:20Z</time>
      </trkpt>
      <trkpt lat="44.03608" lon="1.69458">
        <ele>382.4</ele>
        <time>2021-03-21T10:34:24Z</time>
      </trkpt>
      <trkpt lat="44.03622" lon="1.69454">
        <ele>382.4</ele>
        <time>2021-03-21T10:34:28Z</time>
      </trkpt>
      <trkpt lat="44.03635" lon="1.69431">
        <ele>378.2</ele>
        <time>2021-03-21T10:34:32Z</time>
      </trkpt>
      <trkpt lat="44.03636" lon="1.69406">
        <ele>378.2</ele>
        <time>2021-03-21T10:34:36Z</time>
      </trkpt>
      <trkpt lat="44.03631" lon="1.6938">
        <ele>379.8</ele>
        <time>2021-03-21T10:34:40Z</time>
      </trkpt>
      <trkpt lat="44.03625" lon="1.69367">
        <ele>381.4</ele>
        <time>2021-03-21T10:34:44Z</time>
      </trkpt>
      <trkpt lat="44.03629" lon="1.6934">
        <ele>380.8</ele>
        <time>2021-03-21T10:38:05Z</time>
      </trkpt>
      <trkpt lat="44.03633" lon="1.69314">
        <ele>377.4</ele>
        <time>2021-03-21T10:38:09Z</time>
      </trkpt>
      <trkpt lat="44.03639" lon="1.69288">
        <ele>375.8</ele>
        <time>2021-03-21T10:38:13Z</time>
      </trkpt>
      <trkpt lat="44.03646" lon="1.6927">
        <ele>374.2</ele>
        <time>2021-03-21T10:38:17Z</time>
      </trkpt>
      <trkpt lat="44.0366" lon="1.69258">
        <ele>373</ele>
        <time>2021-03-21T10:38:21Z</time>
      </trkpt>
      <trkpt lat="44.03674" lon="1.69241">
        <ele>369.8</ele>
        <time>2021-03-21T10:38:25Z</time>
      </trkpt>
      <trkpt lat="44.0369" lon="1.69221">
        <ele>369</ele>
        <time>2021-03-21T10:38:29Z</time>
      </trkpt>
      <trkpt lat="44.03702" lon="1.69203">
        <ele>367.4</ele>
        <time>2021-03-21T10:38:33Z</time>
      </trkpt>
      <trkpt lat="44.03716" lon="1.69187">
        <ele>366</ele>
        <time>2021-03-21T10:38:37Z</time>
      </trkpt>
      <trkpt lat="44.03731" lon="1.69174">
        <ele>364.8</ele>
        <time>2021-03-21T10:38:41Z</time>
      </trkpt>
      <trkpt lat="44.0375" lon="1.69161">
        <ele>361.4</ele>
        <time>2021-03-21T10:38:45Z</time>
      </trkpt>
      <trkpt lat="44.03758" lon="1.69135">
        <ele>360.4</ele>
        <time>2021-03-21T10:38:49Z</time>
      </trkpt>
      <trkpt lat="44.03772" lon="1.69127">
        <ele>358.8</ele>
        <time>2021-03-21T10:38:53Z</time>
      </trkpt>
      <trkpt lat="44.03779" lon="1.69113">
        <ele>357.6</ele>
        <time>2021-03-21T10:38:57Z</time>
      </trkpt>
      <trkpt lat="44.03791" lon="1.69105">
        <ele>355.8</ele>
        <time>2021-03-21T10:39:01Z</time>
      </trkpt>
      <trkpt lat="44.03808" lon="1.69093">
        <ele>354.2</ele>
        <time>2021-03-21T10:39:05Z</time>
      </trkpt>
      <trkpt lat="44.03822" lon="1.69083">
        <ele>350</ele>
        <time>2021-03-21T10:39:09Z</time>
      </trkpt>
      <trkpt lat="44.03846" lon="1.69061">
        <ele>347.6</ele>
        <time>2021-03-21T10:39:13Z</time>
      </trkpt>
      <trkpt lat="44.03867" lon="1.69026">
        <ele>343.2</ele>
        <time>2021-03-21T10:39:17Z</time>
      </trkpt>
      <trkpt lat="44.03884" lon="1.68985">
        <ele>337.6</ele>
        <time>2021-03-21T10:39:21Z</time>
      </trkpt>
      <trkpt lat="44.03912" lon="1.68952">
        <ele>333.4</ele>
        <time>2021-03-21T10:39:25Z</time>
      </trkpt>
      <trkpt lat="44.03922" lon="1.6891">
        <ele>329.8</ele>
        <time>2021-03-21T10:39:29Z</time>
      </trkpt>
      <trkpt lat="44.03927" lon="1.68874">
        <ele>323.8</ele>
        <time>2021-03-21T10:39:33Z</time>
      </trkpt>
      <trkpt lat="44.03941" lon="1.68847">
        <ele>323</ele>
        <time>2021-03-21T10:39:37Z</time>
      </trkpt>
      <trkpt lat="44.03947" lon="1.68822">
        <ele>322.2</ele>
        <time>2021-03-21T10:39:41Z</time>
      </trkpt>
      <trkpt lat="44.03942" lon="1.6881">
        <ele>319.4</ele>
        <time>2021-03-21T10:39:45Z</time>
      </trkpt>
      <trkpt lat="44.03942" lon="1.68794">
        <ele>316.2</ele>
        <time>2021-03-21T10:39:49Z</time>
      </trkpt>
      <trkpt lat="44.03952" lon="1.6877">
        <ele>315.4</ele>
        <time>2021-03-21T10:39:53Z</time>
      </trkpt>
      <trkpt lat="44.0396" lon="1.68744">
        <ele>315.4</ele>
        <time>2021-03-21T10:39:57Z</time>
      </trkpt>
      <trkpt lat="44.03963" lon="1.68714">
        <ele>314.2</ele>
        <time>2021-03-21T10:40:01Z</time>
      </trkpt>
      <trkpt lat="44.03952" lon="1.68712">
        <ele>312.6</ele>
        <time>2021-03-21T10:40:05Z</time>
      </trkpt>
      <trkpt lat="44.03947" lon="1.68698">
        <ele>308.4</ele>
        <time>2021-03-21T10:40:09Z</time>
      </trkpt>
      <trkpt lat="44.0394" lon="1.6867">
        <ele>304.8</ele>
        <time>2021-03-21T10:40:13Z</time>
      </trkpt>
      <trkpt lat="44.03929" lon="1.68646">
        <ele>301</ele>
        <time>2021-03-21T10:40:17Z</time>
      </trkpt>
      <trkpt lat="44.03931" lon="1.68614">
        <ele>296.8</ele>
        <time>2021-03-21T10:40:21Z</time>
      </trkpt>
      <trkpt lat="44.03933" lon="1.68574">
        <ele>293.8</ele>
        <time>2021-03-21T10:40:25Z</time>
      </trkpt>
      <trkpt lat="44.03924" lon="1.6855">
        <ele>291</ele>
        <time>2021-03-21T10:40:29Z</time>
      </trkpt>
      <trkpt lat="44.03924" lon="1.68519">
        <ele>285.4</ele>
        <time>2021-03-21T10:40:33Z</time>
      </trkpt>
      <trkpt lat="44.03919" lon="1.68501">
        <ele>280.6</ele>
        <time>2021-03-21T10:40:37Z</time>
      </trkpt>
      <trkpt lat="44.03922" lon="1.68484">
        <ele>277</ele>
        <time>2021-03-21T10:40:41Z</time>
      </trkpt>
      <trkpt lat="44.03924" lon="1.68457">
        <ele>273</ele>
        <time>2021-03-21T10:40:45Z</time>
      </trkpt>
      <trkpt lat="44.03932" lon="1.68436">
        <ele>271.4</ele>
        <time>2021-03-21T10:40:49Z</time>
      </trkpt>
      <trkpt lat="44.03942" lon="1.68421">
        <ele>271.2</ele>
        <time>2021-03-21T10:40:53Z</time>
      </trkpt>
      <trkpt lat="44.03954" lon="1.68402">
        <ele>270</ele>
        <time>2021-03-21T10:40:57Z</time>
      </trkpt>
      <trkpt lat="44.03953" lon="1.68388">
        <ele>267.6</ele>
        <time>2021-03-21T10:41:01Z</time>
      </trkpt>
      <trkpt lat="44.03949" lon="1.68376">
        <ele>262.2</ele>
        <time>2021-03-21T10:41:05Z</time>
      </trkpt>
      <trkpt lat="44.03949" lon="1.68364">
        <ele>257.2</ele>
        <time>2021-03-21T10:41:09Z</time>
      </trkpt>
      <trkpt lat="44.03954" lon="1.68347">
        <ele>254.8</ele>
        <time>2021-03-21T10:41:13Z</time>
      </trkpt>
      <trkpt lat="44.0396" lon="1.68332">
        <ele>251.2</ele>
        <time>2021-03-21T10:41:17Z</time>
      </trkpt>
      <trkpt lat="44.03961" lon="1.68318">
        <ele>246.8</ele>
        <time>2021-03-21T10:41:21Z</time>
      </trkpt>
      <trkpt lat="44.03961" lon="1.68311">
        <ele>243.4</ele>
        <time>2021-03-21T10:41:25Z</time>
      </trkpt>
      <trkpt lat="44.03962" lon="1.68296">
        <ele>239</ele>
        <time>2021-03-21T10:41:29Z</time>
      </trkpt>
      <trkpt lat="44.03968" lon="1.68275">
        <ele>233.2</ele>
        <time>2021-03-21T10:41:33Z</time>
      </trkpt>
      <trkpt lat="44.03974" lon="1.68245">
        <ele>228.6</ele>
        <time>2021-03-21T10:41:37Z</time>
      </trkpt>
      <trkpt lat="44.03977" lon="1.6822">
        <ele>227.2</ele>
        <time>2021-03-21T10:41:41Z</time>
      </trkpt>
      <trkpt lat="44.03978" lon="1.68192">
        <ele>222</ele>
        <time>2021-03-21T10:41:45Z</time>
      </trkpt>
      <trkpt lat="44.03978" lon="1.68161">
        <ele>219.2</ele>
        <time>2021-03-21T10:41:49Z</time>
      </trkpt>
      <trkpt lat="44.03982" lon="1.68128">
        <ele>213.6</ele>
        <time>2021-03-21T10:41:53Z</time>
      </trkpt>
      <trkpt lat="44.03987" lon="1.68092">
        <ele>208.8</ele>
        <time>2021-03-21T10:41:57Z</time>
      </trkpt>
      <trkpt lat="44.03979" lon="1.68062">
        <ele>203</ele>
        <time>2021-03-21T10:42:01Z</time>
      </trkpt>
      <trkpt lat="44.03975" lon="1.68038">
        <ele>200.4</ele>
        <time>2021-03-21T10:42:05Z</time>
      </trkpt>
      <trkpt lat="44.03972" lon="1.68009">
        <ele>194.6</ele>
        <time>2021-03-21T10:42:09Z</time>
      </trkpt>
      <trkpt lat="44.03954" lon="1.67995">
        <ele>190.8</ele>
        <time>2021-03-21T10:42:13Z</time>
      </trkpt>
      <trkpt lat="44.03935" lon="1.67986">
        <ele>185.6</ele>
        <time>2021-03-21T10:42:17Z</time>
      </trkpt>
      <trkpt lat="44.0392" lon="1.67964">
        <ele>180.4</ele>
        <time>2021-03-21T10:42:21Z</time>
      </trkpt>
      <trkpt lat="44.03903" lon="1.67935">
        <ele>178.6</ele>
        <time>2021-03-21T10:42:25Z</time>
      </trkpt>
      <trkpt lat="44.03879" lon="1.67905">
        <ele>171.8</ele>
        <time>2021-03-21T10:42:29Z</time>
      </trkpt>
      <trkpt lat="44.03865" lon="1.67867">
        <ele>168</ele>
        <time>2021-03-21T10:42:33Z</time>
      </trkpt>
      <trkpt lat="44.0385" lon="1.6783">
        <ele>163.4</ele>
        <time>2021-03-21T10:42:37Z</time>
      </trkpt>
      <trkpt lat="44.03835" lon="1.67787">
        <ele>157.4</ele>
        <time>2021-03-21T10:42:41Z</time>
      </trkpt>
      <trkpt lat="44.03822" lon="1.67738">
        <ele>150.8</ele>
        <time>2021-03-21T10:42:45Z</time>
      </trkpt>
      <trkpt lat="44.03826" lon="1.67699">
        <ele>148.4</ele>
        <time>2021-03-21T10:42:49Z</time>
      </trkpt>
      <trkpt lat="44.03825" lon="1.67674">
        <ele>145.8</ele>
        <time>2021-03-21T10:42:53Z</time>
      </trkpt>
      <trkpt lat="44.03834" lon="1.67634">
        <ele>141.2</ele>
        <time>2021-03-21T10:42:57Z</time>
      </trkpt>
      <trkpt lat="44.03848" lon="1.67596">
        <ele>137</ele>
        <time>2021-03-21T10:43:01Z</time>
      </trkpt>
      <trkpt lat="44.03827" lon="1.67589">
        <ele>135</ele>
        <time>2021-03-21T10:43:05Z</time>
      </trkpt>
      <trkpt lat="44.03814" lon="1.67567">
        <ele>132</ele>
        <time>2021-03-21T10:43:09Z</time>
      </trkpt>
      <trkpt lat="44.03804" lon="1.67535">
        <ele>129.8</ele>
        <time>2021-03-21T10:43:13Z</time>
      </trkpt>
      <trkpt lat="44.03804" lon="1.67518">
        <ele>130.2</ele>
        <time>2021-03-21T10:46:29Z</time>
      </trkpt>
      <trkpt lat="44.03812" lon="1.67516">
        <ele>131</ele>
        <time>2021-03-21T10:46:33Z</time>
      </trkpt>
      <trkpt lat="44.03821" lon="1.67513">
        <ele>130.6</ele>
        <time>2021-03-21T10:46:37Z</time>
      </trkpt>
      <trkpt lat="44.0383" lon="1.67508">
        <ele>131.4</ele>
        <time>2021-03-21T10:46:41Z</time>
      </trkpt>
      <trkpt lat="44.03839" lon="1.67501">
        <ele>131</ele>
        <time>2021-03-21T10:46:45Z</time>
      </trkpt>
      <trkpt lat="44.03851" lon="1.6749">
        <ele>131.8</ele>
        <time>2021-03-21T10:46:49Z</time>
      </trkpt>
      <trkpt lat="44.03864" lon="1.67477">
        <ele>131.6</ele>
        <time>2021-03-21T10:46:53Z</time>
      </trkpt>
      <trkpt lat="44.03875" lon="1.67463">
        <ele>132.4</ele>
        <time>2021-03-21T10:46:57Z</time>
      </trkpt>
      <trkpt lat="44.03886" lon="1.67451">
        <ele>132.2</ele>
        <time>2021-03-21T10:47:01Z</time>
      </trkpt>
      <trkpt lat="44.03899" lon="1.67437">
        <ele>131.6</ele>
        <time>2021-03-21T10:47:05Z</time>
      </trkpt>
      <trkpt lat="44.03911" lon="1.67424">
        <ele>132.4</ele>
        <time>2021-03-21T10:47:09Z</time>
      </trkpt>
      <trkpt lat="44.03923" lon="1.67409">
        <ele>131.4</ele>
        <time>2021-03-21T10:47:13Z</time>
      </trkpt>
      <trkpt lat="44.03937" lon="1.67395">
        <ele>132</ele>
        <time>2021-03-21T10:47:17Z</time>
      </trkpt>
      <trkpt lat="44.03954" lon="1.67381">
        <ele>132.2</ele>
        <time>2021-03-21T10:47:21Z</time>
      </trkpt>
      <trkpt lat="44.03967" lon="1.67361">
        <ele>131.4</ele>
        <time>2021-03-21T10:47:25Z</time>
      </trkpt>
      <trkpt lat="44.03981" lon="1.67339">
        <ele>130.6</ele>
        <time>2021-03-21T10:47:29Z</time>
      </trkpt>
      <trkpt lat="44.04001" lon="1.67319">
        <ele>128.8</ele>
        <time>2021-03-21T10:47:33Z</time>
      </trkpt>
      <trkpt lat="44.04024" lon="1.67304">
        <ele>124.6</ele>
        <time>2021-03-21T10:47:37Z</time>
      </trkpt>
      <trkpt lat="44.04046" lon="1.67299">
        <ele>124.4</ele>
        <time>2021-03-21T10:47:41Z</time>
      </trkpt>
      <trkpt lat="44.04064" lon="1.67298">
        <ele>124</ele>
        <time>2021-03-21T10:47:45Z</time>
      </trkpt>
      <trkpt lat="44.04088" lon="1.67296">
        <ele>123.2</ele>
        <time>2021-03-21T10:47:49Z</time>
      </trkpt>
      <trkpt lat="44.04108" lon="1.67287">
        <ele>123.4</ele>
        <time>2021-03-21T10:47:53Z</time>
      </trkpt>
      <trkpt lat="44.04129" lon="1.67282">
        <ele>122.6</ele>
        <time>2021-03-21T10:47:57Z</time>
      </trkpt>
      <trkpt lat="44.04149" lon="1.67269">
        <ele>122.4</ele>
        <time>2021-03-21T10:48:01Z</time>
      </trkpt>
      <trkpt lat="44.04168" lon="1.67252">
        <ele>121.8</ele>
        <time>2021-03-21T10:48:05Z</time>
      </trkpt>
      <trkpt lat="44.04185" lon="1.67233">
        <ele>123.6</ele>
        <time>2021-03-21T10:48:09Z</time>
      </trkpt>
      <trkpt lat="44.04203" lon="1.67216">
        <ele>122.6</ele>
        <time>2021-03-21T10:48:13Z</time>
      </trkpt>
      <trkpt lat="44.04219" lon="1.67199">
        <ele>122.8</ele>
        <time>2021-03-21T10:48:17Z</time>
      </trkpt>
      <trkpt lat="44.04234" lon="1.67182">
        <ele>122.4</ele>
        <time>2021-03-21T10:48:21Z</time>
      </trkpt>
      <trkpt lat="44.0425" lon="1.67166">
        <ele>123</ele>
        <time>2021-03-21T10:48:25Z</time>
      </trkpt>
      <trkpt lat="44.04268" lon="1.67151">
        <ele>123.8</ele>
        <time>2021-03-21T10:48:29Z</time>
      </trkpt>
      <trkpt lat="44.04286" lon="1.6714">
        <ele>124.4</ele>
        <time>2021-03-21T10:48:33Z</time>
      </trkpt>
      <trkpt lat="44.04303" lon="1.67141">
        <ele>124.2</ele>
        <time>2021-03-21T10:48:37Z</time>
      </trkpt>
      <trkpt lat="44.04319" lon="1.67142">
        <ele>125.4</ele>
        <time>2021-03-21T10:48:41Z</time>
      </trkpt>
      <trkpt lat="44.04334" lon="1.67143">
        <ele>125.4</ele>
        <time>2021-03-21T10:48:45Z</time>
      </trkpt>
      <trkpt lat="44.04349" lon="1.67143">
        <ele>126.2</ele>
        <time>2021-03-21T10:48:49Z</time>
      </trkpt>
      <trkpt lat="44.04363" lon="1.67144">
        <ele>126.2</ele>
        <time>2021-03-21T10:48:53Z</time>
      </trkpt>
      <trkpt lat="44.04378" lon="1.67144">
        <ele>127</ele>
        <time>2021-03-21T10:48:57Z</time>
      </trkpt>
      <trkpt lat="44.04393" lon="1.67145">
        <ele>128.8</ele>
        <time>2021-03-21T10:49:01Z</time>
      </trkpt>
      <trkpt lat="44.04409" lon="1.67143">
        <ele>128.4</ele>
        <time>2021-03-21T10:49:05Z</time>
      </trkpt>
      <trkpt lat="44.04422" lon="1.67141">
        <ele>128.8</ele>
        <time>2021-03-21T10:49:09Z</time>
      </trkpt>
      <trkpt lat="44.04438" lon="1.67141">
        <ele>129.2</ele>
        <time>2021-03-21T10:49:13Z</time>
      </trkpt>
      <trkpt lat="44.04451" lon="1.67144">
        <ele>129.6</ele>
        <time>2021-03-21T10:49:17Z</time>
      </trkpt>
      <trkpt lat="44.04461" lon="1.67152">
        <ele>130.6</ele>
        <time>2021-03-21T10:49:21Z</time>
      </trkpt>
      <trkpt lat="44.0446" lon="1.67164">
        <ele>132.2</ele>
        <time>2021-03-21T10:49:25Z</time>
      </trkpt>
      <trkpt lat="44.04459" lon="1.67173">
        <ele>133.2</ele>
        <time>2021-03-21T10:49:29Z</time>
      </trkpt>
      <trkpt lat="44.04459" lon="1.67181">
        <ele>134.2</ele>
        <time>2021-03-21T10:49:33Z</time>
      </trkpt>
      <trkpt lat="44.04456" lon="1.6719">
        <ele>135</ele>
        <time>2021-03-21T10:49:37Z</time>
      </trkpt>
      <trkpt lat="44.04453" lon="1.67197">
        <ele>135.8</ele>
        <time>2021-03-21T10:49:41Z</time>
      </trkpt>
      <trkpt lat="44.04448" lon="1.67203">
        <ele>137</ele>
        <time>2021-03-21T10:49:45Z</time>
      </trkpt>
      <trkpt lat="44.04444" lon="1.6721">
        <ele>137.2</ele>
        <time>2021-03-21T10:49:49Z</time>
      </trkpt>
      <trkpt lat="44.0444" lon="1.67215">
        <ele>138.6</ele>
        <time>2021-03-21T10:49:53Z</time>
      </trkpt>
      <trkpt lat="44.04437" lon="1.67222">
        <ele>139</ele>
        <time>2021-03-21T10:49:57Z</time>
      </trkpt>
      <trkpt lat="44.04436" lon="1.6723">
        <ele>140.2</ele>
        <time>2021-03-21T10:50:01Z</time>
      </trkpt>
      <trkpt lat="44.04435" lon="1.67236">
        <ele>141.2</ele>
        <time>2021-03-21T10:50:05Z</time>
      </trkpt>
      <trkpt lat="44.04435" lon="1.67243">
        <ele>141.4</ele>
        <time>2021-03-21T10:50:09Z</time>
      </trkpt>
      <trkpt lat="44.04435" lon="1.67251">
        <ele>142</ele>
        <time>2021-03-21T10:50:13Z</time>
      </trkpt>
      <trkpt lat="44.04435" lon="1.67259">
        <ele>143.2</ele>
        <time>2021-03-21T10:50:17Z</time>
      </trkpt>
      <trkpt lat="44.04434" lon="1.67267">
        <ele>143.6</ele>
        <time>2021-03-21T10:50:21Z</time>
      </trkpt>
      <trkpt lat="44.04432" lon="1.67275">
        <ele>144.6</ele>
        <time>2021-03-21T10:50:25Z</time>
      </trkpt>
      <trkpt lat="44.04431" lon="1.67282">
        <ele>145.4</ele>
        <time>2021-03-21T10:50:29Z</time>
      </trkpt>
      <trkpt lat="44.04428" lon="1.67289">
        <ele>145.4</ele>
        <time>2021-03-21T10:50:33Z</time>
      </trkpt>
      <trkpt lat="44.04425" lon="1.67294">
        <ele>146.8</ele>
        <time>2021-03-21T10:50:37Z</time>
      </trkpt>
      <trkpt lat="44.04421" lon="1.67299">
        <ele>148</ele>
        <time>2021-03-21T10:50:41Z</time>
      </trkpt>
      <trkpt lat="44.04417" lon="1.67303">
        <ele>149.2</ele>
        <time>2021-03-21T10:50:45Z</time>
      </trkpt>
      <trkpt lat="44.04413" lon="1.67308">
        <ele>149.4</ele>
        <time>2021-03-21T10:50:49Z</time>
      </trkpt>
      <trkpt lat="44.04408" lon="1.67313">
        <ele>150.6</ele>
        <time>2021-03-21T10:50:53Z</time>
      </trkpt>
      <trkpt lat="44.04403" lon="1.67318">
        <ele>151.2</ele>
        <time>2021-03-21T10:50:57Z</time>
      </trkpt>
      <trkpt lat="44.04398" lon="1.67321">
        <ele>152.2</ele>
        <time>2021-03-21T10:51:01Z</time>
      </trkpt>
      <trkpt lat="44.04394" lon="1.67326">
        <ele>153.8</ele>
        <time>2021-03-21T10:51:05Z</time>
      </trkpt>
      <trkpt lat="44.0439" lon="1.67329">
        <ele>154.8</ele>
        <time>2021-03-21T10:51:09Z</time>
      </trkpt>
      <trkpt lat="44.04385" lon="1.67333">
        <ele>155.4</ele>
        <time>2021-03-21T10:51:13Z</time>
      </trkpt>
      <trkpt lat="44.04379" lon="1.67337">
        <ele>156</ele>
        <time>2021-03-21T10:51:17Z</time>
      </trkpt>
      <trkpt lat="44.04375" lon="1.67341">
        <ele>156.4</ele>
        <time>2021-03-21T10:51:21Z</time>
      </trkpt>
      <trkpt lat="44.0437" lon="1.67345">
        <ele>157.6</ele>
        <time>2021-03-21T10:51:25Z</time>
      </trkpt>
      <trkpt lat="44.04364" lon="1.67348">
        <ele>158</ele>
        <time>2021-03-21T10:51:29Z</time>
      </trkpt>
      <trkpt lat="44.04361" lon="1.67354">
        <ele>158.8</ele>
        <time>2021-03-21T10:51:33Z</time>
      </trkpt>
      <trkpt lat="44.04356" lon="1.67358">
        <ele>160.4</ele>
        <time>2021-03-21T10:51:37Z</time>
      </trkpt>
      <trkpt lat="44.04353" lon="1.67362">
        <ele>161.4</ele>
        <time>2021-03-21T10:51:41Z</time>
      </trkpt>
      <trkpt lat="44.0435" lon="1.67367">
        <ele>161.6</ele>
        <time>2021-03-21T10:51:45Z</time>
      </trkpt>
      <trkpt lat="44.04347" lon="1.67371">
        <ele>162.4</ele>
        <time>2021-03-21T10:51:49Z</time>
      </trkpt>
      <trkpt lat="44.04343" lon="1.67376">
        <ele>163.2</ele>
        <time>2021-03-21T10:51:53Z</time>
      </trkpt>
      <trkpt lat="44.0434" lon="1.6738">
        <ele>163.8</ele>
        <time>2021-03-21T10:51:57Z</time>
      </trkpt>
      <trkpt lat="44.04334" lon="1.67385">
        <ele>164.8</ele>
        <time>2021-03-21T10:52:01Z</time>
      </trkpt>
      <trkpt lat="44.04329" lon="1.6739">
        <ele>165.4</ele>
        <time>2021-03-21T10:52:05Z</time>
      </trkpt>
      <trkpt lat="44.04326" lon="1.67395">
        <ele>165.8</ele>
        <time>2021-03-21T10:52:09Z</time>
      </trkpt>
      <trkpt lat="44.04322" lon="1.67401">
        <ele>166.6</ele>
        <time>2021-03-21T10:52:13Z</time>
      </trkpt>
      <trkpt lat="44.04319" lon="1.67407">
        <ele>168</ele>
        <time>2021-03-21T10:52:17Z</time>
      </trkpt>
      <trkpt lat="44.04316" lon="1.67412">
        <ele>168.8</ele>
        <time>2021-03-21T10:52:21Z</time>
      </trkpt>
      <trkpt lat="44.04313" lon="1.67419">
        <ele>169.6</ele>
        <time>2021-03-21T10:52:25Z</time>
      </trkpt>
      <trkpt lat="44.0431" lon="1.67425">
        <ele>170.4</ele>
        <time>2021-03-21T10:52:29Z</time>
      </trkpt>
      <trkpt lat="44.04309" lon="1.67431">
        <ele>170.8</ele>
        <time>2021-03-21T10:52:33Z</time>
      </trkpt>
      <trkpt lat="44.04307" lon="1.67438">
        <ele>171.4</ele>
        <time>2021-03-21T10:52:37Z</time>
      </trkpt>
      <trkpt lat="44.04306" lon="1.67445">
        <ele>172.4</ele>
        <time>2021-03-21T10:52:41Z</time>
      </trkpt>
      <trkpt lat="44.04305" lon="1.67452">
        <ele>173.2</ele>
        <time>2021-03-21T10:52:45Z</time>
      </trkpt>
      <trkpt lat="44.04304" lon="1.67458">
        <ele>173.8</ele>
        <time>2021-03-21T10:52:49Z</time>
      </trkpt>
      <trkpt lat="44.04303" lon="1.67465">
        <ele>175.2</ele>
        <time>2021-03-21T10:52:53Z</time>
      </trkpt>
      <trkpt lat="44.04301" lon="1.67471">
        <ele>175.4</ele>
        <time>2021-03-21T10:52:57Z</time>
      </trkpt>
      <trkpt lat="44.043" lon="1.67478">
        <ele>176.6</ele>
        <time>2021-03-21T10:53:01Z</time>
      </trkpt>
      <trkpt lat="44.04298" lon="1.67485">
        <ele>177.8</ele>
        <time>2021-03-21T10:53:05Z</time>
      </trkpt>
      <trkpt lat="44.04297" lon="1.67492">
        <ele>178.4</ele>
        <time>2021-03-21T10:53:09Z</time>
      </trkpt>
      <trkpt lat="44.04297" lon="1.67499">
        <ele>179.2</ele>
        <time>2021-03-21T10:53:13Z</time>
      </trkpt>
      <trkpt lat="44.04296" lon="1.67506">
        <ele>180</ele>
        <time>2021-03-21T10:53:17Z</time>
      </trkpt>
      <trkpt lat="44.04296" lon="1.67512">
        <ele>180.8</ele>
        <time>2021-03-21T10:53:21Z</time>
      </trkpt>
      <trkpt lat="44.04297" lon="1.67519">
        <ele>181.8</ele>
        <time>2021-03-21T10:53:25Z</time>
      </trkpt>
      <trkpt lat="44.04297" lon="1.67525">
        <ele>182</ele>
        <time>2021-03-21T10:53:29Z</time>
      </trkpt>
      <trkpt lat="44.04297" lon="1.67533">
        <ele>183.2</ele>
        <time>2021-03-21T10:53:33Z</time>
      </trkpt>
      <trkpt lat="44.04299" lon="1.6754">
        <ele>183.8</ele>
        <time>2021-03-21T10:53:37Z</time>
      </trkpt>
      <trkpt lat="44.043" lon="1.67546">
        <ele>185.2</ele>
        <time>2021-03-21T10:53:41Z</time>
      </trkpt>
      <trkpt lat="44.043" lon="1.67553">
        <ele>186</ele>
        <time>2021-03-21T10:53:45Z</time>
      </trkpt>
      <trkpt lat="44.04299" lon="1.67559">
        <ele>186.4</ele>
        <time>2021-03-21T10:53:49Z</time>
      </trkpt>
      <trkpt lat="44.04298" lon="1.67566">
        <ele>187.6</ele>
        <time>2021-03-21T10:53:53Z</time>
      </trkpt>
      <trkpt lat="44.04297" lon="1.67572">
        <ele>188</ele>
        <time>2021-03-21T10:53:57Z</time>
      </trkpt>
      <trkpt lat="44.04294" lon="1.67577">
        <ele>188.6</ele>
        <time>2021-03-21T10:54:01Z</time>
      </trkpt>
      <trkpt lat="44.04293" lon="1.67583">
        <ele>189.8</ele>
        <time>2021-03-21T10:54:05Z</time>
      </trkpt>
      <trkpt lat="44.0429" lon="1.67587">
        <ele>190.2</ele>
        <time>2021-03-21T10:54:09Z</time>
      </trkpt>
      <trkpt lat="44.04286" lon="1.67593">
        <ele>190.6</ele>
        <time>2021-03-21T10:54:13Z</time>
      </trkpt>
      <trkpt lat="44.04284" lon="1.67598">
        <ele>191.6</ele>
        <time>2021-03-21T10:54:17Z</time>
      </trkpt>
      <trkpt lat="44.04281" lon="1.67602">
        <ele>192.6</ele>
        <time>2021-03-21T10:54:21Z</time>
      </trkpt>
      <trkpt lat="44.04278" lon="1.67607">
        <ele>193.4</ele>
        <time>2021-03-21T10:54:25Z</time>
      </trkpt>
      <trkpt lat="44.04274" lon="1.67612">
        <ele>193.8</ele>
        <time>2021-03-21T10:54:29Z</time>
      </trkpt>
      <trkpt lat="44.0427" lon="1.67617">
        <ele>194</ele>
        <time>2021-03-21T10:54:33Z</time>
      </trkpt>
      <trkpt lat="44.04265" lon="1.67623">
        <ele>195</ele>
        <time>2021-03-21T10:54:37Z</time>
      </trkpt>
      <trkpt lat="44.0426" lon="1.67627">
        <ele>196</ele>
        <time>2021-03-21T10:54:41Z</time>
      </trkpt>
      <trkpt lat="44.04256" lon="1.67632">
        <ele>196.6</ele>
        <time>2021-03-21T10:54:45Z</time>
      </trkpt>
      <trkpt lat="44.04252" lon="1.67636">
        <ele>197.2</ele>
        <time>2021-03-21T10:54:49Z</time>
      </trkpt>
      <trkpt lat="44.04248" lon="1.67641">
        <ele>198.2</ele>
        <time>2021-03-21T10:54:53Z</time>
      </trkpt>
      <trkpt lat="44.04243" lon="1.67644">
        <ele>199</ele>
        <time>2021-03-21T10:54:57Z</time>
      </trkpt>
      <trkpt lat="44.04239" lon="1.67649">
        <ele>199.4</ele>
        <time>2021-03-21T10:55:01Z</time>
      </trkpt>
      <trkpt lat="44.04234" lon="1.6765">
        <ele>200</ele>
        <time>2021-03-21T10:55:05Z</time>
      </trkpt>
      <trkpt lat="44.04228" lon="1.67652">
        <ele>201.4</ele>
        <time>2021-03-21T10:55:09Z</time>
      </trkpt>
      <trkpt lat="44.04223" lon="1.67653">
        <ele>202.2</ele>
        <time>2021-03-21T10:55:13Z</time>
      </trkpt>
      <trkpt lat="44.04218" lon="1.67654">
        <ele>203.2</ele>
        <time>2021-03-21T10:55:17Z</time>
      </trkpt>
      <trkpt lat="44.04213" lon="1.67655">
        <ele>204.2</ele>
        <time>2021-03-21T10:55:21Z</time>
      </trkpt>
      <trkpt lat="44.04207" lon="1.67655">
        <ele>204.6</ele>
        <time>2021-03-21T10:55:25Z</time>
      </trkpt>
      <trkpt lat="44.04202" lon="1.67656">
        <ele>204.8</ele>
        <time>2021-03-21T10:55:29Z</time>
      </trkpt>
      <trkpt lat="44.04197" lon="1.67657">
        <ele>206.2</ele>
        <time>2021-03-21T10:55:33Z</time>
      </trkpt>
      <trkpt lat="44.04192" lon="1.67657">
        <ele>207</ele>
        <time>2021-03-21T10:55:37Z</time>
      </trkpt>
      <trkpt lat="44.04187" lon="1.67657">
        <ele>207.6</ele>
        <time>2021-03-21T10:55:41Z</time>
      </trkpt>
      <trkpt lat="44.04182" lon="1.67657">
        <ele>208.4</ele>
        <time>2021-03-21T10:55:45Z</time>
      </trkpt>
      <trkpt lat="44.04176" lon="1.67657">
        <ele>209.4</ele>
        <time>2021-03-21T10:55:49Z</time>
      </trkpt>
      <trkpt lat="44.04171" lon="1.67657">
        <ele>210.4</ele>
        <time>2021-03-21T10:55:53Z</time>
      </trkpt>
      <trkpt lat="44.04165" lon="1.67658">
        <ele>210.8</ele>
        <time>2021-03-21T10:55:57Z</time>
      </trkpt>
      <trkpt lat="44.04161" lon="1.67657">
        <ele>212.4</ele>
        <time>2021-03-21T10:56:01Z</time>
      </trkpt>
      <trkpt lat="44.04156" lon="1.67657">
        <ele>213.2</ele>
        <time>2021-03-21T10:56:05Z</time>
      </trkpt>
      <trkpt lat="44.0415" lon="1.67657">
        <ele>214</ele>
        <time>2021-03-21T10:56:09Z</time>
      </trkpt>
      <trkpt lat="44.04146" lon="1.67656">
        <ele>215</ele>
        <time>2021-03-21T10:56:13Z</time>
      </trkpt>
      <trkpt lat="44.0414" lon="1.67655">
        <ele>216</ele>
        <time>2021-03-21T10:56:17Z</time>
      </trkpt>
      <trkpt lat="44.04134" lon="1.67655">
        <ele>216.8</ele>
        <time>2021-03-21T10:56:21Z</time>
      </trkpt>
      <trkpt lat="44.04129" lon="1.67656">
        <ele>217.2</ele>
        <time>2021-03-21T10:56:25Z</time>
      </trkpt>
      <trkpt lat="44.04124" lon="1.67656">
        <ele>217.6</ele>
        <time>2021-03-21T10:56:29Z</time>
      </trkpt>
      <trkpt lat="44.04119" lon="1.67655">
        <ele>218.6</ele>
        <time>2021-03-21T10:56:33Z</time>
      </trkpt>
      <trkpt lat="44.04114" lon="1.67656">
        <ele>219.8</ele>
        <time>2021-03-21T10:56:37Z</time>
      </trkpt>
      <trkpt lat="44.04107" lon="1.67656">
        <ele>220.6</ele>
        <time>2021-03-21T10:56:41Z</time>
      </trkpt>
      <trkpt lat="44.04101" lon="1.67657">
        <ele>221.4</ele>
        <time>2021-03-21T10:56:45Z</time>
      </trkpt>
      <trkpt lat="44.04096" lon="1.67659">
        <ele>222</ele>
        <time>2021-03-21T10:56:49Z</time>
      </trkpt>
      <trkpt lat="44.04091" lon="1.67661">
        <ele>222.4</ele>
        <time>2021-03-21T10:56:53Z</time>
      </trkpt>
      <trkpt lat="44.04086" lon="1.67663">
        <ele>223.2</ele>
        <time>2021-03-21T10:56:57Z</time>
      </trkpt>
      <trkpt lat="44.0408" lon="1.67664">
        <ele>224</ele>
        <time>2021-03-21T10:57:01Z</time>
      </trkpt>
      <trkpt lat="44.04074" lon="1.67667">
        <ele>225.2</ele>
        <time>2021-03-21T10:57:05Z</time>
      </trkpt>
      <trkpt lat="44.04069" lon="1.67669">
        <ele>225.8</ele>
        <time>2021-03-21T10:57:09Z</time>
      </trkpt>
      <trkpt lat="44.04064" lon="1.67671">
        <ele>226.4</ele>
        <time>2021-03-21T10:57:13Z</time>
      </trkpt>
      <trkpt lat="44.0406" lon="1.67674">
        <ele>227.2</ele>
        <time>2021-03-21T10:57:17Z</time>
      </trkpt>
      <trkpt lat="44.04055" lon="1.67677">
        <ele>227.6</ele>
        <time>2021-03-21T10:57:21Z</time>
      </trkpt>
      <trkpt lat="44.0405" lon="1.6768">
        <ele>228.6</ele>
        <time>2021-03-21T10:57:25Z</time>
      </trkpt>
      <trkpt lat="44.04045" lon="1.67683">
        <ele>229</ele>
        <time>2021-03-21T10:57:29Z</time>
      </trkpt>
      <trkpt lat="44.04041" lon="1.67686">
        <ele>229.6</ele>
        <time>2021-03-21T10:57:33Z</time>
      </trkpt>
      <trkpt lat="44.04036" lon="1.6769">
        <ele>230.2</ele>
        <time>2021-03-21T10:57:37Z</time>
      </trkpt>
      <trkpt lat="44.04032" lon="1.67694">
        <ele>231.2</ele>
        <time>2021-03-21T10:57:41Z</time>
      </trkpt>
      <trkpt lat="44.04028" lon="1.67698">
        <ele>232.6</ele>
        <time>2021-03-21T10:57:45Z</time>
      </trkpt>
      <trkpt lat="44.04024" lon="1.67703">
        <ele>233.2</ele>
        <time>2021-03-21T10:57:49Z</time>
      </trkpt>
      <trkpt lat="44.04019" lon="1.67706">
        <ele>233.8</ele>
        <time>2021-03-21T10:57:53Z</time>
      </trkpt>
      <trkpt lat="44.04015" lon="1.6771">
        <ele>234.6</ele>
        <time>2021-03-21T10:57:57Z</time>
      </trkpt>
      <trkpt lat="44.0401" lon="1.67714">
        <ele>235.2</ele>
        <time>2021-03-21T10:58:01Z</time>
      </trkpt>
      <trkpt lat="44.04006" lon="1.67718">
        <ele>236</ele>
        <time>2021-03-21T10:58:05Z</time>
      </trkpt>
      <trkpt lat="44.04004" lon="1.67724">
        <ele>236.8</ele>
        <time>2021-03-21T10:58:09Z</time>
      </trkpt>
      <trkpt lat="44.04005" lon="1.6773">
        <ele>237.8</ele>
        <time>2021-03-21T10:58:13Z</time>
      </trkpt>
      <trkpt lat="44.04009" lon="1.67734">
        <ele>238.6</ele>
        <time>2021-03-21T10:58:17Z</time>
      </trkpt>
      <trkpt lat="44.04014" lon="1.67737">
        <ele>239.2</ele>
        <time>2021-03-21T10:58:21Z</time>
      </trkpt>
      <trkpt lat="44.04018" lon="1.6774">
        <ele>240.4</ele>
        <time>2021-03-21T10:58:25Z</time>
      </trkpt>
      <trkpt lat="44.04023" lon="1.67742">
        <ele>240.6</ele>
        <time>2021-03-21T10:58:29Z</time>
      </trkpt>
      <trkpt lat="44.04027" lon="1.67744">
        <ele>241.6</ele>
        <time>2021-03-21T10:58:33Z</time>
      </trkpt>
      <trkpt lat="44.04032" lon="1.67746">
        <ele>241.6</ele>
        <time>2021-03-21T10:58:37Z</time>
      </trkpt>
      <trkpt lat="44.04037" lon="1.67749">
        <ele>243.4</ele>
        <time>2021-03-21T10:58:41Z</time>
      </trkpt>
      <trkpt lat="44.04043" lon="1.67752">
        <ele>244.2</ele>
        <time>2021-03-21T10:58:45Z</time>
      </trkpt>
      <trkpt lat="44.04049" lon="1.67755">
        <ele>244.6</ele>
        <time>2021-03-21T10:58:49Z</time>
      </trkpt>
      <trkpt lat="44.04055" lon="1.6776">
        <ele>245.2</ele>
        <time>2021-03-21T10:58:53Z</time>
      </trkpt>
      <trkpt lat="44.04061" lon="1.67763">
        <ele>246.2</ele>
        <time>2021-03-21T10:58:57Z</time>
      </trkpt>
      <trkpt lat="44.04067" lon="1.67768">
        <ele>246.6</ele>
        <time>2021-03-21T10:59:01Z</time>
      </trkpt>
      <trkpt lat="44.04072" lon="1.67773">
        <ele>247</ele>
        <time>2021-03-21T10:59:05Z</time>
      </trkpt>
      <trkpt lat="44.04076" lon="1.6778">
        <ele>247.8</ele>
        <time>2021-03-21T10:59:09Z</time>
      </trkpt>
      <trkpt lat="44.0408" lon="1.67787">
        <ele>248.2</ele>
        <time>2021-03-21T10:59:13Z</time>
      </trkpt>
      <trkpt lat="44.04083" lon="1.67793">
        <ele>248.6</ele>
        <time>2021-03-21T10:59:17Z</time>
      </trkpt>
      <trkpt lat="44.04087" lon="1.67801">
        <ele>250.2</ele>
        <time>2021-03-21T10:59:21Z</time>
      </trkpt>
      <trkpt lat="44.04091" lon="1.67808">
        <ele>251.2</ele>
        <time>2021-03-21T10:59:25Z</time>
      </trkpt>
      <trkpt lat="44.04094" lon="1.67815">
        <ele>251.6</ele>
        <time>2021-03-21T10:59:29Z</time>
      </trkpt>
      <trkpt lat="44.04097" lon="1.67822">
        <ele>252</ele>
        <time>2021-03-21T10:59:33Z</time>
      </trkpt>
      <trkpt lat="44.04098" lon="1.67831">
        <ele>252.6</ele>
        <time>2021-03-21T10:59:37Z</time>
      </trkpt>
      <trkpt lat="44.04096" lon="1.67839">
        <ele>253.6</ele>
        <time>2021-03-21T10:59:41Z</time>
      </trkpt>
      <trkpt lat="44.04092" lon="1.67845">
        <ele>254.6</ele>
        <time>2021-03-21T10:59:45Z</time>
      </trkpt>
      <trkpt lat="44.04087" lon="1.67849">
        <ele>254.6</ele>
        <time>2021-03-21T10:59:49Z</time>
      </trkpt>
      <trkpt lat="44.04081" lon="1.67852">
        <ele>255.8</ele>
        <time>2021-03-21T10:59:53Z</time>
      </trkpt>
      <trkpt lat="44.04075" lon="1.67856">
        <ele>257</ele>
        <time>2021-03-21T10:59:57Z</time>
      </trkpt>
      <trkpt lat="44.0407" lon="1.6786">
        <ele>257.8</ele>
        <time>2021-03-21T11:00:01Z</time>
      </trkpt>
      <trkpt lat="44.04064" lon="1.67863">
        <ele>257.8</ele>
        <time>2021-03-21T11:00:05Z</time>
      </trkpt>
      <trkpt lat="44.04058" lon="1.67866">
        <ele>258.4</ele>
        <time>2021-03-21T11:00:09Z</time>
      </trkpt>
      <trkpt lat="44.04053" lon="1.67869">
        <ele>259.4</ele>
        <time>2021-03-21T11:00:13Z</time>
      </trkpt>
      <trkpt lat="44.04047" lon="1.67872">
        <ele>260</ele>
        <time>2021-03-21T11:00:17Z</time>
      </trkpt>
      <trkpt lat="44.04042" lon="1.67876">
        <ele>260.8</ele>
        <time>2021-03-21T11:00:21Z</time>
      </trkpt>
      <trkpt lat="44.04037" lon="1.6788">
        <ele>262</ele>
        <time>2021-03-21T11:00:25Z</time>
      </trkpt>
      <trkpt lat="44.04033" lon="1.67886">
        <ele>263</ele>
        <time>2021-03-21T11:00:29Z</time>
      </trkpt>
      <trkpt lat="44.04032" lon="1.67894">
        <ele>263.6</ele>
        <time>2021-03-21T11:00:33Z</time>
      </trkpt>
      <trkpt lat="44.04034" lon="1.67902">
        <ele>264</ele>
        <time>2021-03-21T11:00:37Z</time>
      </trkpt>
      <trkpt lat="44.04037" lon="1.67909">
        <ele>265</ele>
        <time>2021-03-21T11:00:41Z</time>
      </trkpt>
      <trkpt lat="44.04042" lon="1.67916">
        <ele>265.6</ele>
        <time>2021-03-21T11:00:45Z</time>
      </trkpt>
      <trkpt lat="44.04047" lon="1.67922">
        <ele>266.2</ele>
        <time>2021-03-21T11:00:49Z</time>
      </trkpt>
      <trkpt lat="44.04051" lon="1.67928">
        <ele>267.4</ele>
        <time>2021-03-21T11:00:53Z</time>
      </trkpt>
      <trkpt lat="44.04055" lon="1.67934">
        <ele>268</ele>
        <time>2021-03-21T11:00:57Z</time>
      </trkpt>
      <trkpt lat="44.04059" lon="1.6794">
        <ele>269</ele>
        <time>2021-03-21T11:01:01Z</time>
      </trkpt>
      <trkpt lat="44.04064" lon="1.67946">
        <ele>269.4</ele>
        <time>2021-03-21T11:01:05Z</time>
      </trkpt>
      <trkpt lat="44.04068" lon="1.67952">
        <ele>270</ele>
        <time>2021-03-21T11:01:09Z</time>
      </trkpt>
      <trkpt lat="44.04072" lon="1.67958">
        <ele>270.4</ele>
        <time>2021-03-21T11:01:13Z</time>
      </trkpt>
      <trkpt lat="44.04077" lon="1.67964">
        <ele>271.4</ele>
        <time>2021-03-21T11:01:17Z</time>
      </trkpt>
      <trkpt lat="44.04081" lon="1.6797">
        <ele>271.8</ele>
        <time>2021-03-21T11:01:21Z</time>
      </trkpt>
      <trkpt lat="44.04085" lon="1.67976">
        <ele>272.8</ele>
        <time>2021-03-21T11:01:25Z</time>
      </trkpt>
      <trkpt lat="44.04089" lon="1.67982">
        <ele>273.2</ele>
        <time>2021-03-21T11:01:29Z</time>
      </trkpt>
      <trkpt lat="44.04094" lon="1.67989">
        <ele>273.8</ele>
        <time>2021-03-21T11:01:33Z</time>
      </trkpt>
      <trkpt lat="44.04098" lon="1.67995">
        <ele>275</ele>
        <time>2021-03-21T11:01:37Z</time>
      </trkpt>
      <trkpt lat="44.04103" lon="1.68002">
        <ele>275.4</ele>
        <time>2021-03-21T11:01:41Z</time>
      </trkpt>
      <trkpt lat="44.04105" lon="1.68009">
        <ele>276.4</ele>
        <time>2021-03-21T11:01:45Z</time>
      </trkpt>
      <trkpt lat="44.04107" lon="1.68018">
        <ele>276.6</ele>
        <time>2021-03-21T11:01:49Z</time>
      </trkpt>
      <trkpt lat="44.04108" lon="1.68026">
        <ele>278</ele>
        <time>2021-03-21T11:01:53Z</time>
      </trkpt>
      <trkpt lat="44.04107" lon="1.68033">
        <ele>279</ele>
        <time>2021-03-21T11:01:57Z</time>
      </trkpt>
      <trkpt lat="44.04106" lon="1.68041">
        <ele>280.6</ele>
        <time>2021-03-21T11:02:01Z</time>
      </trkpt>
      <trkpt lat="44.04105" lon="1.68048">
        <ele>280.8</ele>
        <time>2021-03-21T11:02:05Z</time>
      </trkpt>
      <trkpt lat="44.04103" lon="1.68055">
        <ele>282</ele>
        <time>2021-03-21T11:02:09Z</time>
      </trkpt>
      <trkpt lat="44.04101" lon="1.68062">
        <ele>283</ele>
        <time>2021-03-21T11:02:13Z</time>
      </trkpt>
      <trkpt lat="44.04101" lon="1.68067">
        <ele>283.4</ele>
        <time>2021-03-21T11:02:17Z</time>
      </trkpt>
      <trkpt lat="44.04099" lon="1.68084">
        <ele>285</ele>
        <time>2021-03-21T11:06:04Z</time>
      </trkpt>
      <trkpt lat="44.04097" lon="1.68094">
        <ele>286.2</ele>
        <time>2021-03-21T11:06:08Z</time>
      </trkpt>
      <trkpt lat="44.04098" lon="1.68103">
        <ele>286.8</ele>
        <time>2021-03-21T11:06:12Z</time>
      </trkpt>
      <trkpt lat="44.041" lon="1.68111">
        <ele>288.4</ele>
        <time>2021-03-21T11:06:16Z</time>
      </trkpt>
      <trkpt lat="44.04102" lon="1.68118">
        <ele>289.4</ele>
        <time>2021-03-21T11:06:20Z</time>
      </trkpt>
      <trkpt lat="44.04105" lon="1.68125">
        <ele>289.6</ele>
        <time>2021-03-21T11:06:24Z</time>
      </trkpt>
      <trkpt lat="44.04107" lon="1.68132">
        <ele>290</ele>
        <time>2021-03-21T11:06:28Z</time>
      </trkpt>
      <trkpt lat="44.0411" lon="1.68139">
        <ele>290.2</ele>
        <time>2021-03-21T11:06:32Z</time>
      </trkpt>
      <trkpt lat="44.04113" lon="1.68147">
        <ele>291</ele>
        <time>2021-03-21T11:06:36Z</time>
      </trkpt>
      <trkpt lat="44.04116" lon="1.68154">
        <ele>291.6</ele>
        <time>2021-03-21T11:06:40Z</time>
      </trkpt>
      <trkpt lat="44.04118" lon="1.68161">
        <ele>292.6</ele>
        <time>2021-03-21T11:06:44Z</time>
      </trkpt>
      <trkpt lat="44.04118" lon="1.68169">
        <ele>292.8</ele>
        <time>2021-03-21T11:06:48Z</time>
      </trkpt>
      <trkpt lat="44.04117" lon="1.68177">
        <ele>293.6</ele>
        <time>2021-03-21T11:06:52Z</time>
      </trkpt>
      <trkpt lat="44.04116" lon="1.68185">
        <ele>294.4</ele>
        <time>2021-03-21T11:06:56Z</time>
      </trkpt>
      <trkpt lat="44.04113" lon="1.68193">
        <ele>294.8</ele>
        <time>2021-03-21T11:07:00Z</time>
      </trkpt>
      <trkpt lat="44.04112" lon="1.68202">
        <ele>295.8</ele>
        <time>2021-03-21T11:07:04Z</time>
      </trkpt>
      <trkpt lat="44.0411" lon="1.6821">
        <ele>296.2</ele>
        <time>2021-03-21T11:07:08Z</time>
      </trkpt>
      <trkpt lat="44.04109" lon="1.68219">
        <ele>296.8</ele>
        <time>2021-03-21T11:07:12Z</time>
      </trkpt>
      <trkpt lat="44.04108" lon="1.68227">
        <ele>297.8</ele>
        <time>2021-03-21T11:07:16Z</time>
      </trkpt>
      <trkpt lat="44.04108" lon="1.68235">
        <ele>298.4</ele>
        <time>2021-03-21T11:07:20Z</time>
      </trkpt>
      <trkpt lat="44.04108" lon="1.68243">
        <ele>298.8</ele>
        <time>2021-03-21T11:07:24Z</time>
      </trkpt>
      <trkpt lat="44.04107" lon="1.68251">
        <ele>300</ele>
        <time>2021-03-21T11:07:28Z</time>
      </trkpt>
      <trkpt lat="44.04108" lon="1.68259">
        <ele>300.6</ele>
        <time>2021-03-21T11:07:32Z</time>
      </trkpt>
      <trkpt lat="44.04108" lon="1.68267">
        <ele>301</ele>
        <time>2021-03-21T11:07:36Z</time>
      </trkpt>
      <trkpt lat="44.04109" lon="1.68275">
        <ele>301.6</ele>
        <time>2021-03-21T11:07:40Z</time>
      </trkpt>
      <trkpt lat="44.04109" lon="1.68283">
        <ele>302.4</ele>
        <time>2021-03-21T11:07:44Z</time>
      </trkpt>
      <trkpt lat="44.04109" lon="1.68292">
        <ele>303.4</ele>
        <time>2021-03-21T11:07:48Z</time>
      </trkpt>
      <trkpt lat="44.04108" lon="1.68302">
        <ele>303.4</ele>
        <time>2021-03-21T11:07:52Z</time>
      </trkpt>
      <trkpt lat="44.04108" lon="1.68311">
        <ele>304.2</ele>
        <time>2021-03-21T11:07:56Z</time>
      </trkpt>
      <trkpt lat="44.04107" lon="1.68321">
        <ele>305.4</ele>
        <time>2021-03-21T11:08:00Z</time>
      </trkpt>
      <trkpt lat="44.04107" lon="1.68331">
        <ele>305.4</ele>
        <time>2021-03-21T11:08:04Z</time>
      </trkpt>
      <trkpt lat="44.04105" lon="1.68341">
        <ele>305.6</ele>
        <time>2021-03-21T11:08:08Z</time>
      </trkpt>
      <trkpt lat="44.04104" lon="1.6835">
        <ele>306</ele>
        <time>2021-03-21T11:08:12Z</time>
      </trkpt>
      <trkpt lat="44.04102" lon="1.6836">
        <ele>306.6</ele>
        <time>2021-03-21T11:08:16Z</time>
      </trkpt>
      <trkpt lat="44.041" lon="1.68369">
        <ele>307.2</ele>
        <time>2021-03-21T11:08:20Z</time>
      </trkpt>
      <trkpt lat="44.04097" lon="1.68379">
        <ele>307.4</ele>
        <time>2021-03-21T11:08:24Z</time>
      </trkpt>
      <trkpt lat="44.04095" lon="1.68389">
        <ele>308</ele>
        <time>2021-03-21T11:08:28Z</time>
      </trkpt>
      <trkpt lat="44.04092" lon="1.68398">
        <ele>308.8</ele>
        <time>2021-03-21T11:08:32Z</time>
      </trkpt>
      <trkpt lat="44.04089" lon="1.68408">
        <ele>309.6</ele>
        <time>2021-03-21T11:08:36Z</time>
      </trkpt>
      <trkpt lat="44.04086" lon="1.68417">
        <ele>309.8</ele>
        <time>2021-03-21T11:08:40Z</time>
      </trkpt>
      <trkpt lat="44.04083" lon="1.68426">
        <ele>310</ele>
        <time>2021-03-21T11:08:44Z</time>
      </trkpt>
      <trkpt lat="44.04079" lon="1.68435">
        <ele>310.4</ele>
        <time>2021-03-21T11:08:48Z</time>
      </trkpt>
      <trkpt lat="44.04076" lon="1.68444">
        <ele>310.8</ele>
        <time>2021-03-21T11:08:52Z</time>
      </trkpt>
      <trkpt lat="44.04072" lon="1.68452">
        <ele>311.2</ele>
        <time>2021-03-21T11:08:56Z</time>
      </trkpt>
      <trkpt lat="44.04068" lon="1.68461">
        <ele>312.2</ele>
        <time>2021-03-21T11:09:00Z</time>
      </trkpt>
      <trkpt lat="44.04065" lon="1.6847">
        <ele>311.8</ele>
        <time>2021-03-21T11:09:04Z</time>
      </trkpt>
      <trkpt lat="44.04062" lon="1.68479">
        <ele>312.4</ele>
        <time>2021-03-21T11:09:08Z</time>
      </trkpt>
      <trkpt lat="44.0406" lon="1.68489">
        <ele>313</ele>
        <time>2021-03-21T11:09:12Z</time>
      </trkpt>
      <trkpt lat="44.04057" lon="1.68499">
        <ele>313.6</ele>
        <time>2021-03-21T11:09:16Z</time>
      </trkpt>
      <trkpt lat="44.04055" lon="1.68508">
        <ele>314.2</ele>
        <time>2021-03-21T11:09:20Z</time>
      </trkpt>
      <trkpt lat="44.04052" lon="1.68518">
        <ele>314.4</ele>
        <time>2021-03-21T11:09:24Z</time>
      </trkpt>
      <trkpt lat="44.0405" lon="1.68528">
        <ele>314.8</ele>
        <time>2021-03-21T11:09:28Z</time>
      </trkpt>
      <trkpt lat="44.04048" lon="1.68538">
        <ele>315</ele>
        <time>2021-03-21T11:09:32Z</time>
      </trkpt>
      <trkpt lat="44.04047" lon="1.68547">
        <ele>315.8</ele>
        <time>2021-03-21T11:09:36Z</time>
      </trkpt>
      <trkpt lat="44.04045" lon="1.68557">
        <ele>315.8</ele>
        <time>2021-03-21T11:09:40Z</time>
      </trkpt>
      <trkpt lat="44.04042" lon="1.68567">
        <ele>316</ele>
        <time>2021-03-21T11:09:44Z</time>
      </trkpt>
      <trkpt lat="44.04039" lon="1.68576">
        <ele>317</ele>
        <time>2021-03-21T11:09:48Z</time>
      </trkpt>
      <trkpt lat="44.04037" lon="1.68585">
        <ele>317</ele>
        <time>2021-03-21T11:09:52Z</time>
      </trkpt>
      <trkpt lat="44.04033" lon="1.68594">
        <ele>317</ele>
        <time>2021-03-21T11:09:56Z</time>
      </trkpt>
      <trkpt lat="44.0403" lon="1.68605">
        <ele>317.6</ele>
        <time>2021-03-21T11:10:00Z</time>
      </trkpt>
      <trkpt lat="44.04027" lon="1.68616">
        <ele>318</ele>
        <time>2021-03-21T11:10:04Z</time>
      </trkpt>
      <trkpt lat="44.04026" lon="1.68626">
        <ele>319</ele>
        <time>2021-03-21T11:10:08Z</time>
      </trkpt>
      <trkpt lat="44.04023" lon="1.68635">
        <ele>319.8</ele>
        <time>2021-03-21T11:10:12Z</time>
      </trkpt>
      <trkpt lat="44.04021" lon="1.68644">
        <ele>320.8</ele>
        <time>2021-03-21T11:10:16Z</time>
      </trkpt>
      <trkpt lat="44.04018" lon="1.68653">
        <ele>320.6</ele>
        <time>2021-03-21T11:10:20Z</time>
      </trkpt>
      <trkpt lat="44.04017" lon="1.68662">
        <ele>321.4</ele>
        <time>2021-03-21T11:10:24Z</time>
      </trkpt>
      <trkpt lat="44.04014" lon="1.68672">
        <ele>322.2</ele>
        <time>2021-03-21T11:10:28Z</time>
      </trkpt>
      <trkpt lat="44.04012" lon="1.68682">
        <ele>323</ele>
        <time>2021-03-21T11:10:32Z</time>
      </trkpt>
      <trkpt lat="44.0401" lon="1.68693">
        <ele>323.6</ele>
        <time>2021-03-21T11:10:36Z</time>
      </trkpt>
      <trkpt lat="44.04007" lon="1.68703">
        <ele>324.6</ele>
        <time>2021-03-21T11:10:40Z</time>
      </trkpt>
      <trkpt lat="44.04006" lon="1.68714">
        <ele>325</ele>
        <time>2021-03-21T11:10:44Z</time>
      </trkpt>
      <trkpt lat="44.04005" lon="1.68726">
        <ele>326.4</ele>
        <time>2021-03-21T11:10:48Z</time>
      </trkpt>
      <trkpt lat="44.04004" lon="1.68738">
        <ele>327</ele>
        <time>2021-03-21T11:10:52Z</time>
      </trkpt>
      <trkpt lat="44.04004" lon="1.68749">
        <ele>327.8</ele>
        <time>2021-03-21T11:10:56Z</time>
      </trkpt>
      <trkpt lat="44.04003" lon="1.6876">
        <ele>329</ele>
        <time>2021-03-21T11:11:00Z</time>
      </trkpt>
      <trkpt lat="44.04003" lon="1.68771">
        <ele>329.4</ele>
        <time>2021-03-21T11:11:04Z</time>
      </trkpt>
      <trkpt lat="44.04001" lon="1.68783">
        <ele>330.2</ele>
        <time>2021-03-21T11:11:08Z</time>
      </trkpt>
      <trkpt lat="44.03999" lon="1.68794">
        <ele>331.4</ele>
        <time>2021-03-21T11:11:12Z</time>
      </trkpt>
      <trkpt lat="44.03997" lon="1.68806">
        <ele>332.2</ele>
        <time>2021-03-21T11:11:16Z</time>
      </trkpt>
      <trkpt lat="44.03995" lon="1.68818">
        <ele>332.6</ele>
        <time>2021-03-21T11:11:20Z</time>
      </trkpt>
      <trkpt lat="44.03992" lon="1.6883">
        <ele>333.8</ele>
        <time>2021-03-21T11:11:24Z</time>
      </trkpt>
      <trkpt lat="44.0399" lon="1.68842">
        <ele>334.8</ele>
        <time>2021-03-21T11:11:28Z</time>
      </trkpt>
      <trkpt lat="44.03987" lon="1.68854">
        <ele>336</ele>
        <time>2021-03-21T11:11:32Z</time>
      </trkpt>
      <trkpt lat="44.03984" lon="1.68865">
        <ele>336.8</ele>
        <time>2021-03-21T11:11:36Z</time>
      </trkpt>
      <trkpt lat="44.0398" lon="1.68876">
        <ele>337.4</ele>
        <time>2021-03-21T11:11:40Z</time>
      </trkpt>
      <trkpt lat="44.03977" lon="1.68888">
        <ele>337.6</ele>
        <time>2021-03-21T11:11:44Z</time>
      </trkpt>
      <trkpt lat="44.03973" lon="1.68899">
        <ele>338</ele>
        <time>2021-03-21T11:11:48Z</time>
      </trkpt>
      <trkpt lat="44.03969" lon="1.6891">
        <ele>339.2</ele>
        <time>2021-03-21T11:11:52Z</time>
      </trkpt>
      <trkpt lat="44.03965" lon="1.68921">
        <ele>340</ele>
        <time>2021-03-21T11:11:56Z</time>
      </trkpt>
      <trkpt lat="44.0396" lon="1.68932">
        <ele>340.4</ele>
        <time>2021-03-21T11:12:00Z</time>
      </trkpt>
      <trkpt lat="44.03955" lon="1.68942">
        <ele>341.6</ele>
        <time>2021-03-21T11:12:04Z</time>
      </trkpt>
      <trkpt lat="44.03949" lon="1.68951">
        <ele>342.2</ele>
        <time>2021-03-21T11:12:08Z</time>
      </trkpt>
      <trkpt lat="44.03943" lon="1.68961">
        <ele>342.8</ele>
        <time>2021-03-21T11:12:12Z</time>
      </trkpt>
      <trkpt lat="44.03937" lon="1.6897">
        <ele>343.2</ele>
        <time>2021-03-21T11:12:16Z</time>
      </trkpt>
      <trkpt lat="44.0393" lon="1.68979">
        <ele>343</ele>
        <time>2021-03-21T11:12:20Z</time>
      </trkpt>
      <trkpt lat="44.03924" lon="1.68988">
        <ele>344</ele>
        <time>2021-03-21T11:12:24Z</time>
      </trkpt>
      <trkpt lat="44.03918" lon="1.68998">
        <ele>344.8</ele>
        <time>2021-03-21T11:12:28Z</time>
      </trkpt>
      <trkpt lat="44.03912" lon="1.69007">
        <ele>345.6</ele>
        <time>2021-03-21T11:12:32Z</time>
      </trkpt>
      <trkpt lat="44.03905" lon="1.69015">
        <ele>346.2</ele>
        <time>2021-03-21T11:12:36Z</time>
      </trkpt>
      <trkpt lat="44.03899" lon="1.69024">
        <ele>347.4</ele>
        <time>2021-03-21T11:12:40Z</time>
      </trkpt>
      <trkpt lat="44.03892" lon="1.69032">
        <ele>348.2</ele>
        <time>2021-03-21T11:12:44Z</time>
      </trkpt>
      <trkpt lat="44.03885" lon="1.6904">
        <ele>349</ele>
        <time>2021-03-21T11:12:48Z</time>
      </trkpt>
      <trkpt lat="44.03878" lon="1.69049">
        <ele>349.6</ele>
        <time>2021-03-21T11:12:52Z</time>
      </trkpt>
      <trkpt lat="44.03871" lon="1.69056">
        <ele>350.6</ele>
        <time>2021-03-21T11:12:56Z</time>
      </trkpt>
      <trkpt lat="44.03864" lon="1.69065">
        <ele>351.4</ele>
        <time>2021-03-21T11:13:00Z</time>
      </trkpt>
      <trkpt lat="44.03857" lon="1.69072">
        <ele>352.6</ele>
        <time>2021-03-21T11:13:04Z</time>
      </trkpt>
      <trkpt lat="44.0385" lon="1.6908">
        <ele>354</ele>
        <time>2021-03-21T11:13:08Z</time>
      </trkpt>
      <trkpt lat="44.03843" lon="1.69088">
        <ele>354.4</ele>
        <time>2021-03-21T11:13:12Z</time>
      </trkpt>
      <trkpt lat="44.03837" lon="1.69095">
        <ele>355.8</ele>
        <time>2021-03-21T11:13:16Z</time>
      </trkpt>
      <trkpt lat="44.0383" lon="1.69102">
        <ele>357</ele>
        <time>2021-03-21T11:13:20Z</time>
      </trkpt>
      <trkpt lat="44.03823" lon="1.6911">
        <ele>357.8</ele>
        <time>2021-03-21T11:13:24Z</time>
      </trkpt>
      <trkpt lat="44.03817" lon="1.69119">
        <ele>358.2</ele>
        <time>2021-03-21T11:13:28Z</time>
      </trkpt>
      <trkpt lat="44.0381" lon="1.69127">
        <ele>359.2</ele>
        <time>2021-03-21T11:13:32Z</time>
      </trkpt>
      <trkpt lat="44.03804" lon="1.69135">
        <ele>360</ele>
        <time>2021-03-21T11:13:36Z</time>
      </trkpt>
      <trkpt lat="44.03797" lon="1.69142">
        <ele>361</ele>
        <time>2021-03-21T11:13:40Z</time>
      </trkpt>
      <trkpt lat="44.0379" lon="1.6915">
        <ele>361.4</ele>
        <time>2021-03-21T11:13:44Z</time>
      </trkpt>
      <trkpt lat="44.03782" lon="1.69158">
        <ele>362.2</ele>
        <time>2021-03-21T11:13:48Z</time>
      </trkpt>
      <trkpt lat="44.03775" lon="1.69166">
        <ele>362.6</ele>
        <time>2021-03-21T11:13:52Z</time>
      </trkpt>
      <trkpt lat="44.03767" lon="1.69173">
        <ele>363.2</ele>
        <time>2021-03-21T11:13:56Z</time>
      </trkpt>
      <trkpt lat="44.03759" lon="1.69179">
        <ele>364.2</ele>
        <time>2021-03-21T11:14:00Z</time>
      </trkpt>
      <trkpt lat="44.0375" lon="1.69185">
        <ele>366.4</ele>
        <time>2021-03-21T11:14:04Z</time>
      </trkpt>
      <trkpt lat="44.03743" lon="1.69192">
        <ele>367.2</ele>
        <time>2021-03-21T11:14:08Z</time>
      </trkpt>
      <trkpt lat="44.03735" lon="1.692">
        <ele>368.2</ele>
        <time>2021-03-21T11:14:12Z</time>
      </trkpt>
      <trkpt lat="44.03727" lon="1.69208">
        <ele>369.2</ele>
        <time>2021-03-21T11:14:16Z</time>
      </trkpt>
      <trkpt lat="44.03721" lon="1.69216">
        <ele>370.6</ele>
        <time>2021-03-21T11:14:20Z</time>
      </trkpt>
      <trkpt lat="44.03714" lon="1.69225">
        <ele>371.4</ele>
        <time>2021-03-21T11:14:24Z</time>
      </trkpt>
      <trkpt lat="44.03707" lon="1.69232">
        <ele>372</ele>
        <time>2021-03-21T11:14:28Z</time>
      </trkpt>
      <trkpt lat="44.03699" lon="1.69233">
        <ele>372.8</ele>
        <time>2021-03-21T11:14:32Z</time>
      </trkpt>
      <trkpt lat="44.03686" lon="1.69227">
        <ele>373.8</ele>
        <time>2021-03-21T11:22:03Z</time>
      </trkpt>
      <trkpt lat="44.03676" lon="1.69224">
        <ele>373</ele>
        <time>2021-03-21T11:22:07Z</time>
      </trkpt>
      <trkpt lat="44.03667" lon="1.69219">
        <ele>373.2</ele>
        <time>2021-03-21T11:22:11Z</time>
      </trkpt>
      <trkpt lat="44.03656" lon="1.69217">
        <ele>373.2</ele>
        <time>2021-03-21T11:22:15Z</time>
      </trkpt>
      <trkpt lat="44.03644" lon="1.69215">
        <ele>373</ele>
        <time>2021-03-21T11:22:19Z</time>
      </trkpt>
      <trkpt lat="44.0363" lon="1.69212">
        <ele>373.4</ele>
        <time>2021-03-21T11:22:23Z</time>
      </trkpt>
      <trkpt lat="44.03619" lon="1.69211">
        <ele>374.4</ele>
        <time>2021-03-21T11:22:27Z</time>
      </trkpt>
      <trkpt lat="44.03606" lon="1.69209">
        <ele>376.2</ele>
        <time>2021-03-21T11:22:31Z</time>
      </trkpt>
      <trkpt lat="44.03595" lon="1.69207">
        <ele>377</ele>
        <time>2021-03-21T11:22:35Z</time>
      </trkpt>
      <trkpt lat="44.03587" lon="1.69206">
        <ele>377.6</ele>
        <time>2021-03-21T11:22:39Z</time>
      </trkpt>
      <trkpt lat="44.03577" lon="1.69205">
        <ele>378.2</ele>
        <time>2021-03-21T11:22:43Z</time>
      </trkpt>
      <trkpt lat="44.03569" lon="1.69203">
        <ele>378.6</ele>
        <time>2021-03-21T11:22:47Z</time>
      </trkpt>
      <trkpt lat="44.0356" lon="1.69201">
        <ele>379.4</ele>
        <time>2021-03-21T11:22:51Z</time>
      </trkpt>
      <trkpt lat="44.0355" lon="1.692">
        <ele>380.2</ele>
        <time>2021-03-21T11:22:55Z</time>
      </trkpt>
      <trkpt lat="44.0354" lon="1.69199">
        <ele>380.2</ele>
        <time>2021-03-21T11:22:59Z</time>
      </trkpt>
      <trkpt lat="44.0353" lon="1.69199">
        <ele>380.4</ele>
        <time>2021-03-21T11:23:03Z</time>
      </trkpt>
      <trkpt lat="44.0352" lon="1.69203">
        <ele>381.6</ele>
        <time>2021-03-21T11:23:07Z</time>
      </trkpt>
      <trkpt lat="44.0351" lon="1.6921">
        <ele>382</ele>
        <time>2021-03-21T11:23:11Z</time>
      </trkpt>
      <trkpt lat="44.03501" lon="1.69217">
        <ele>382.6</ele>
        <time>2021-03-21T11:23:15Z</time>
      </trkpt>
      <trkpt lat="44.03493" lon="1.69222">
        <ele>382.8</ele>
        <time>2021-03-21T11:23:19Z</time>
      </trkpt>
      <trkpt lat="44.03484" lon="1.69227">
        <ele>383.2</ele>
        <time>2021-03-21T11:23:23Z</time>
      </trkpt>
      <trkpt lat="44.03474" lon="1.69233">
        <ele>382.6</ele>
        <time>2021-03-21T11:23:27Z</time>
      </trkpt>
      <trkpt lat="44.03464" lon="1.69235">
        <ele>382.6</ele>
        <time>2021-03-21T11:23:31Z</time>
      </trkpt>
      <trkpt lat="44.03452" lon="1.69232">
        <ele>383</ele>
        <time>2021-03-21T11:23:35Z</time>
      </trkpt>
      <trkpt lat="44.03438" lon="1.69227">
        <ele>381.8</ele>
        <time>2021-03-21T11:23:39Z</time>
      </trkpt>
      <trkpt lat="44.03424" lon="1.69222">
        <ele>382</ele>
        <time>2021-03-21T11:23:43Z</time>
      </trkpt>
      <trkpt lat="44.03409" lon="1.69217">
        <ele>381.2</ele>
        <time>2021-03-21T11:23:47Z</time>
      </trkpt>
      <trkpt lat="44.03393" lon="1.69211">
        <ele>380.8</ele>
        <time>2021-03-21T11:23:51Z</time>
      </trkpt>
      <trkpt lat="44.03377" lon="1.69205">
        <ele>380.8</ele>
        <time>2021-03-21T11:23:55Z</time>
      </trkpt>
      <trkpt lat="44.0336" lon="1.69198">
        <ele>381.2</ele>
        <time>2021-03-21T11:23:59Z</time>
      </trkpt>
      <trkpt lat="44.03348" lon="1.69193">
        <ele>381.2</ele>
        <time>2021-03-21T11:24:03Z</time>
      </trkpt>
      <trkpt lat="44.03342" lon="1.69174">
        <ele>381</ele>
        <time>2021-03-21T11:24:25Z</time>
      </trkpt>
      <trkpt lat="44.03342" lon="1.69147">
        <ele>377</ele>
        <time>2021-03-21T11:24:29Z</time>
      </trkpt>
      <trkpt lat="44.03344" lon="1.69113">
        <ele>375.4</ele>
        <time>2021-03-21T11:24:33Z</time>
      </trkpt>
      <trkpt lat="44.03345" lon="1.69077">
        <ele>373.6</ele>
        <time>2021-03-21T11:24:37Z</time>
      </trkpt>
      <trkpt lat="44.03344" lon="1.69039">
        <ele>371.8</ele>
        <time>2021-03-21T11:24:41Z</time>
      </trkpt>
      <trkpt lat="44.03349" lon="1.69005">
        <ele>370.4</ele>
        <time>2021-03-21T11:24:45Z</time>
      </trkpt>
      <trkpt lat="44.03355" lon="1.68973">
        <ele>368</ele>
        <time>2021-03-21T11:24:49Z</time>
      </trkpt>
      <trkpt lat="44.03365" lon="1.68939">
        <ele>366.6</ele>
        <time>2021-03-21T11:24:53Z</time>
      </trkpt>
      <trkpt lat="44.03376" lon="1.689">
        <ele>365.6</ele>
        <time>2021-03-21T11:24:57Z</time>
      </trkpt>
      <trkpt lat="44.03376" lon="1.68872">
        <ele>364.6</ele>
        <time>2021-03-21T11:25:01Z</time>
      </trkpt>
      <trkpt lat="44.03368" lon="1.68864">
        <ele>364.6</ele>
        <time>2021-03-21T11:25:22Z</time>
      </trkpt>
      <trkpt lat="44.0336" lon="1.68859">
        <ele>364.4</ele>
        <time>2021-03-21T11:25:26Z</time>
      </trkpt>
      <trkpt lat="44.03353" lon="1.68859">
        <ele>362.8</ele>
        <time>2021-03-21T11:25:30Z</time>
      </trkpt>
      <trkpt lat="44.03342" lon="1.68852">
        <ele>359.8</ele>
        <time>2021-03-21T11:25:34Z</time>
      </trkpt>
      <trkpt lat="44.03325" lon="1.68854">
        <ele>358.6</ele>
        <time>2021-03-21T11:25:38Z</time>
      </trkpt>
      <trkpt lat="44.03307" lon="1.68867">
        <ele>356.2</ele>
        <time>2021-03-21T11:25:42Z</time>
      </trkpt>
      <trkpt lat="44.03288" lon="1.68887">
        <ele>357.8</ele>
        <time>2021-03-21T11:25:46Z</time>
      </trkpt>
      <trkpt lat="44.03285" lon="1.68913">
        <ele>356.4</ele>
        <time>2021-03-21T11:25:50Z</time>
      </trkpt>
      <trkpt lat="44.03275" lon="1.68943">
        <ele>353.8</ele>
        <time>2021-03-21T11:25:54Z</time>
      </trkpt>
      <trkpt lat="44.03257" lon="1.68972">
        <ele>352.6</ele>
        <time>2021-03-21T11:25:58Z</time>
      </trkpt>
      <trkpt lat="44.03235" lon="1.6899">
        <ele>353.2</ele>
        <time>2021-03-21T11:26:02Z</time>
      </trkpt>
      <trkpt lat="44.03216" lon="1.69008">
        <ele>351</ele>
        <time>2021-03-21T11:26:06Z</time>
      </trkpt>
      <trkpt lat="44.03214" lon="1.69027">
        <ele>354.6</ele>
        <time>2021-03-21T11:26:10Z</time>
      </trkpt>
      <trkpt lat="44.03206" lon="1.69044">
        <ele>353.8</ele>
        <time>2021-03-21T11:26:14Z</time>
      </trkpt>
      <trkpt lat="44.03202" lon="1.69061">
        <ele>353.8</ele>
        <time>2021-03-21T11:26:18Z</time>
      </trkpt>
      <trkpt lat="44.03195" lon="1.69077">
        <ele>353.6</ele>
        <time>2021-03-21T11:26:22Z</time>
      </trkpt>
      <trkpt lat="44.03186" lon="1.69094">
        <ele>353</ele>
        <time>2021-03-21T11:26:26Z</time>
      </trkpt>
      <trkpt lat="44.0318" lon="1.69116">
        <ele>353.2</ele>
        <time>2021-03-21T11:26:30Z</time>
      </trkpt>
      <trkpt lat="44.03172" lon="1.69127">
        <ele>351.8</ele>
        <time>2021-03-21T11:26:34Z</time>
      </trkpt>
      <trkpt lat="44.03162" lon="1.69139">
        <ele>351.8</ele>
        <time>2021-03-21T11:26:38Z</time>
      </trkpt>
      <trkpt lat="44.03152" lon="1.69161">
        <ele>350.4</ele>
        <time>2021-03-21T11:26:42Z</time>
      </trkpt>
      <trkpt lat="44.03144" lon="1.69179">
        <ele>351.6</ele>
        <time>2021-03-21T11:26:46Z</time>
      </trkpt>
      <trkpt lat="44.03126" lon="1.69178">
        <ele>345.8</ele>
        <time>2021-03-21T11:26:50Z</time>
      </trkpt>
      <trkpt lat="44.03117" lon="1.69156">
        <ele>344.6</ele>
        <time>2021-03-21T11:26:54Z</time>
      </trkpt>
      <trkpt lat="44.03108" lon="1.69161">
        <ele>341</ele>
        <time>2021-03-21T11:26:58Z</time>
      </trkpt>
      <trkpt lat="44.03099" lon="1.69161">
        <ele>336.6</ele>
        <time>2021-03-21T11:27:02Z</time>
      </trkpt>
      <trkpt lat="44.03092" lon="1.69142">
        <ele>331.8</ele>
        <time>2021-03-21T11:27:06Z</time>
      </trkpt>
      <trkpt lat="44.03085" lon="1.69122">
        <ele>327.4</ele>
        <time>2021-03-21T11:27:10Z</time>
      </trkpt>
      <trkpt lat="44.03085" lon="1.69094">
        <ele>323.6</ele>
        <time>2021-03-21T11:27:14Z</time>
      </trkpt>
      <trkpt lat="44.03091" lon="1.69071">
        <ele>322</ele>
        <time>2021-03-21T11:27:18Z</time>
      </trkpt>
      <trkpt lat="44.03098" lon="1.69059">
        <ele>321.6</ele>
        <time>2021-03-21T11:27:22Z</time>
      </trkpt>
      <trkpt lat="44.03102" lon="1.69052">
        <ele>323.2</ele>
        <time>2021-03-21T11:27:26Z</time>
      </trkpt>
      <trkpt lat="44.03102" lon="1.69052">
        <ele>322</ele>
        <time>2021-03-21T11:27:30Z</time>
      </trkpt>
      <trkpt lat="44.03108" lon="1.69027">
        <ele>319.2</ele>
        <time>2021-03-21T11:28:07Z</time>
      </trkpt>
      <trkpt lat="44.03113" lon="1.69008">
        <ele>319</ele>
        <time>2021-03-21T11:28:11Z</time>
      </trkpt>
      <trkpt lat="44.03109" lon="1.68986">
        <ele>314.2</ele>
        <time>2021-03-21T11:28:15Z</time>
      </trkpt>
      <trkpt lat="44.03102" lon="1.6896">
        <ele>311</ele>
        <time>2021-03-21T11:28:19Z</time>
      </trkpt>
      <trkpt lat="44.03105" lon="1.68933">
        <ele>307.8</ele>
        <time>2021-03-21T11:28:23Z</time>
      </trkpt>
      <trkpt lat="44.03099" lon="1.6892">
        <ele>304.4</ele>
        <time>2021-03-21T11:28:27Z</time>
      </trkpt>
      <trkpt lat="44.03091" lon="1.68922">
        <ele>301.2</ele>
        <time>2021-03-21T11:28:31Z</time>
      </trkpt>
      <trkpt lat="44.03086" lon="1.68907">
        <ele>294.2</ele>
        <time>2021-03-21T11:28:35Z</time>
      </trkpt>
      <trkpt lat="44.03088" lon="1.68887">
        <ele>294.4</ele>
        <time>2021-03-21T11:28:39Z</time>
      </trkpt>
      <trkpt lat="44.03085" lon="1.68867">
        <ele>291.4</ele>
        <time>2021-03-21T11:28:43Z</time>
      </trkpt>
      <trkpt lat="44.03085" lon="1.68845">
        <ele>288.6</ele>
        <time>2021-03-21T11:28:47Z</time>
      </trkpt>
      <trkpt lat="44.03082" lon="1.68823">
        <ele>284.2</ele>
        <time>2021-03-21T11:28:51Z</time>
      </trkpt>
      <trkpt lat="44.03068" lon="1.68794">
        <ele>277.4</ele>
        <time>2021-03-21T11:28:55Z</time>
      </trkpt>
      <trkpt lat="44.03071" lon="1.68769">
        <ele>273.2</ele>
        <time>2021-03-21T11:28:59Z</time>
      </trkpt>
      <trkpt lat="44.03084" lon="1.68747">
        <ele>273</ele>
        <time>2021-03-21T11:29:03Z</time>
      </trkpt>
      <trkpt lat="44.03093" lon="1.68731">
        <ele>265.8</ele>
        <time>2021-03-21T11:29:07Z</time>
      </trkpt>
      <trkpt lat="44.03104" lon="1.68717">
        <ele>265.8</ele>
        <time>2021-03-21T11:29:11Z</time>
      </trkpt>
      <trkpt lat="44.03118" lon="1.68702">
        <ele>264.8</ele>
        <time>2021-03-21T11:29:15Z</time>
      </trkpt>
      <trkpt lat="44.03128" lon="1.68686">
        <ele>260.4</ele>
        <time>2021-03-21T11:29:19Z</time>
      </trkpt>
      <trkpt lat="44.03137" lon="1.68661">
        <ele>256.8</ele>
        <time>2021-03-21T11:29:23Z</time>
      </trkpt>
      <trkpt lat="44.03152" lon="1.68642">
        <ele>254.4</ele>
        <time>2021-03-21T11:29:27Z</time>
      </trkpt>
      <trkpt lat="44.03159" lon="1.68616">
        <ele>252.2</ele>
        <time>2021-03-21T11:29:31Z</time>
      </trkpt>
      <trkpt lat="44.03164" lon="1.68585">
        <ele>248.6</ele>
        <time>2021-03-21T11:29:35Z</time>
      </trkpt>
      <trkpt lat="44.03167" lon="1.68558">
        <ele>246.2</ele>
        <time>2021-03-21T11:29:39Z</time>
      </trkpt>
      <trkpt lat="44.0317" lon="1.68532">
        <ele>244</ele>
        <time>2021-03-21T11:29:43Z</time>
      </trkpt>
      <trkpt lat="44.03169" lon="1.68507">
        <ele>240.2</ele>
        <time>2021-03-21T11:29:47Z</time>
      </trkpt>
      <trkpt lat="44.03166" lon="1.6849">
        <ele>236.4</ele>
        <time>2021-03-21T11:29:51Z</time>
      </trkpt>
      <trkpt lat="44.03176" lon="1.68475">
        <ele>235</ele>
        <time>2021-03-21T11:29:55Z</time>
      </trkpt>
      <trkpt lat="44.03194" lon="1.68462">
        <ele>232.4</ele>
        <time>2021-03-21T11:29:59Z</time>
      </trkpt>
      <trkpt lat="44.03194" lon="1.68462">
        <ele>230</ele>
        <time>2021-03-21T11:30:03Z</time>
      </trkpt>
      <trkpt lat="44.03216" lon="1.68436">
        <ele>225.6</ele>
        <time>2021-03-21T11:30:26Z</time>
      </trkpt>
      <trkpt lat="44.03227" lon="1.68431">
        <ele>222.4</ele>
        <time>2021-03-21T11:30:30Z</time>
      </trkpt>
      <trkpt lat="44.03232" lon="1.68419">
        <ele>223.4</ele>
        <time>2021-03-21T11:30:34Z</time>
      </trkpt>
      <trkpt lat="44.03235" lon="1.68403">
        <ele>223.4</ele>
        <time>2021-03-21T11:30:38Z</time>
      </trkpt>
      <trkpt lat="44.03251" lon="1.68393">
        <ele>221.8</ele>
        <time>2021-03-21T11:30:42Z</time>
      </trkpt>
      <trkpt lat="44.03273" lon="1.68381">
        <ele>220.8</ele>
        <time>2021-03-21T11:30:46Z</time>
      </trkpt>
      <trkpt lat="44.0329" lon="1.68366">
        <ele>220.4</ele>
        <time>2021-03-21T11:30:50Z</time>
      </trkpt>
      <trkpt lat="44.03301" lon="1.6835">
        <ele>211.4</ele>
        <time>2021-03-21T11:30:54Z</time>
      </trkpt>
      <trkpt lat="44.03311" lon="1.68335">
        <ele>207.8</ele>
        <time>2021-03-21T11:30:58Z</time>
      </trkpt>
      <trkpt lat="44.03322" lon="1.68313">
        <ele>201.2</ele>
        <time>2021-03-21T11:31:02Z</time>
      </trkpt>
      <trkpt lat="44.03329" lon="1.68275">
        <ele>196</ele>
        <time>2021-03-21T11:31:06Z</time>
      </trkpt>
      <trkpt lat="44.03334" lon="1.68236">
        <ele>190.8</ele>
        <time>2021-03-21T11:31:10Z</time>
      </trkpt>
      <trkpt lat="44.03341" lon="1.6821">
        <ele>187</ele>
        <time>2021-03-21T11:31:14Z</time>
      </trkpt>
      <trkpt lat="44.03337" lon="1.68181">
        <ele>184.4</ele>
        <time>2021-03-21T11:31:18Z</time>
      </trkpt>
      <trkpt lat="44.03338" lon="1.68147">
        <ele>180.6</ele>
        <time>2021-03-21T11:31:22Z</time>
      </trkpt>
      <trkpt lat="44.0335" lon="1.68109">
        <ele>175.4</ele>
        <time>2021-03-21T11:31:26Z</time>
      </trkpt>
      <trkpt lat="44.03365" lon="1.68064">
        <ele>169.2</ele>
        <time>2021-03-21T11:31:30Z</time>
      </trkpt>
      <trkpt lat="44.0338" lon="1.68039">
        <ele>169.6</ele>
        <time>2021-03-21T11:31:34Z</time>
      </trkpt>
      <trkpt lat="44.03391" lon="1.68013">
        <ele>165.4</ele>
        <time>2021-03-21T11:31:38Z</time>
      </trkpt>
      <trkpt lat="44.03408" lon="1.67971">
        <ele>161.4</ele>
        <time>2021-03-21T11:31:42Z</time>
      </trkpt>
      <trkpt lat="44.03424" lon="1.6793">
        <ele>159.8</ele>
        <time>2021-03-21T11:31:46Z</time>
      </trkpt>
      <trkpt lat="44.03449" lon="1.6791">
        <ele>158.4</ele>
        <time>2021-03-21T11:31:50Z</time>
      </trkpt>
      <trkpt lat="44.0347" lon="1.67887">
        <ele>154.8</ele>
        <time>2021-03-21T11:31:54Z</time>
      </trkpt>
      <trkpt lat="44.0349" lon="1.67845">
        <ele>151.4</ele>
        <time>2021-03-21T11:31:58Z</time>
      </trkpt>
      <trkpt lat="44.03505" lon="1.67795">
        <ele>146.6</ele>
        <time>2021-03-21T11:32:02Z</time>
      </trkpt>
      <trkpt lat="44.03516" lon="1.67753">
        <ele>145</ele>
        <time>2021-03-21T11:32:06Z</time>
      </trkpt>
      <trkpt lat="44.03531" lon="1.6771">
        <ele>143.8</ele>
        <time>2021-03-21T11:32:10Z</time>
      </trkpt>
      <trkpt lat="44.03529" lon="1.67677">
        <ele>143.2</ele>
        <time>2021-03-21T11:32:14Z</time>
      </trkpt>
      <trkpt lat="44.03529" lon="1.67677">
        <ele>143.8</ele>
        <time>2021-03-21T11:32:18Z</time>
      </trkpt>
      <trkpt lat="44.0355" lon="1.67659">
        <ele>143.8</ele>
        <time>2021-03-21T11:34:01Z</time>
      </trkpt>
      <trkpt lat="44.0356" lon="1.67656">
        <ele>143.4</ele>
        <time>2021-03-21T11:34:05Z</time>
      </trkpt>
      <trkpt lat="44.03571" lon="1.67646">
        <ele>142.4</ele>
        <time>2021-03-21T11:34:09Z</time>
      </trkpt>
      <trkpt lat="44.03572" lon="1.67623">
        <ele>142.2</ele>
        <time>2021-03-21T11:34:13Z</time>
      </trkpt>
      <trkpt lat="44.03574" lon="1.67604">
        <ele>142.4</ele>
        <time>2021-03-21T11:34:17Z</time>
      </trkpt>
      <trkpt lat="44.0359" lon="1.67599">
        <ele>141.4</ele>
        <time>2021-03-21T11:34:21Z</time>
      </trkpt>
      <trkpt lat="44.03609" lon="1.676">
        <ele>140.2</ele>
        <time>2021-03-21T11:34:25Z</time>
      </trkpt>
      <trkpt lat="44.03622" lon="1.67592">
        <ele>140.2</ele>
        <time>2021-03-21T11:34:29Z</time>
      </trkpt>
      <trkpt lat="44.03638" lon="1.6759">
        <ele>140.6</ele>
        <time>2021-03-21T11:34:33Z</time>
      </trkpt>
      <trkpt lat="44.03658" lon="1.67583">
        <ele>139.6</ele>
        <time>2021-03-21T11:34:37Z</time>
      </trkpt>
      <trkpt lat="44.03679" lon="1.67575">
        <ele>137.8</ele>
        <time>2021-03-21T11:34:41Z</time>
      </trkpt>
      <trkpt lat="44.03702" lon="1.67558">
        <ele>136.8</ele>
        <time>2021-03-21T11:34:45Z</time>
      </trkpt>
      <trkpt lat="44.03723" lon="1.67541">
        <ele>136.2</ele>
        <time>2021-03-21T11:34:49Z</time>
      </trkpt>
      <trkpt lat="44.03749" lon="1.67524">
        <ele>133.2</ele>
        <time>2021-03-21T11:34:53Z</time>
      </trkpt>
      <trkpt lat="44.03778" lon="1.67524">
        <ele>131</ele>
        <time>2021-03-21T11:34:57Z</time>
      </trkpt>
      <trkpt lat="44.03805" lon="1.67522">
        <ele>133.2</ele>
        <time>2021-03-21T11:35:01Z</time>
      </trkpt>
      <trkpt lat="44.03828" lon="1.6751">
        <ele>135.4</ele>
        <time>2021-03-21T11:35:05Z</time>
      </trkpt>
      <trkpt lat="44.03849" lon="1.6749">
        <ele>135.2</ele>
        <time>2021-03-21T11:35:09Z</time>
      </trkpt>
      <trkpt lat="44.03865" lon="1.67475">
        <ele>136.4</ele>
        <time>2021-03-21T11:35:13Z</time>
      </trkpt>
      <trkpt lat="44.03876" lon="1.67462">
        <ele>137.2</ele>
        <time>2021-03-21T11:35:17Z</time>
      </trkpt>
      <trkpt lat="44.03889" lon="1.67448">
        <ele>137.8</ele>
        <time>2021-03-21T11:35:21Z</time>
      </trkpt>
      <trkpt lat="44.03902" lon="1.67433">
        <ele>137.4</ele>
        <time>2021-03-21T11:35:25Z</time>
      </trkpt>
      <trkpt lat="44.03914" lon="1.6742">
        <ele>136.6</ele>
        <time>2021-03-21T11:35:29Z</time>
      </trkpt>
      <trkpt lat="44.03927" lon="1.67408">
        <ele>137.2</ele>
        <time>2021-03-21T11:35:33Z</time>
      </trkpt>
      <trkpt lat="44.03942" lon="1.67396">
        <ele>136.8</ele>
        <time>2021-03-21T11:35:37Z</time>
      </trkpt>
      <trkpt lat="44.03954" lon="1.67382">
        <ele>137.8</ele>
        <time>2021-03-21T11:35:41Z</time>
      </trkpt>
      <trkpt lat="44.03965" lon="1.67368">
        <ele>137.8</ele>
        <time>2021-03-21T11:35:45Z</time>
      </trkpt>
      <trkpt lat="44.03975" lon="1.67352">
        <ele>137.8</ele>
        <time>2021-03-21T11:35:49Z</time>
      </trkpt>
      <trkpt lat="44.0399" lon="1.67334">
        <ele>136.2</ele>
        <time>2021-03-21T11:35:53Z</time>
      </trkpt>
      <trkpt lat="44.04009" lon="1.67318">
        <ele>133.8</ele>
        <time>2021-03-21T11:35:57Z</time>
      </trkpt>
      <trkpt lat="44.0403" lon="1.67306">
        <ele>132</ele>
        <time>2021-03-21T11:36:01Z</time>
      </trkpt>
      <trkpt lat="44.0405" lon="1.67302">
        <ele>131.8</ele>
        <time>2021-03-21T11:36:05Z</time>
      </trkpt>
      <trkpt lat="44.04067" lon="1.67302">
        <ele>131.4</ele>
        <time>2021-03-21T11:36:09Z</time>
      </trkpt>
      <trkpt lat="44.04084" lon="1.67301">
        <ele>130</ele>
        <time>2021-03-21T11:36:13Z</time>
      </trkpt>
      <trkpt lat="44.04097" lon="1.67295">
        <ele>130</ele>
        <time>2021-03-21T11:36:17Z</time>
      </trkpt>
      <trkpt lat="44.04111" lon="1.6729">
        <ele>129.8</ele>
        <time>2021-03-21T11:36:21Z</time>
      </trkpt>
      <trkpt lat="44.04125" lon="1.67286">
        <ele>130</ele>
        <time>2021-03-21T11:36:25Z</time>
      </trkpt>
      <trkpt lat="44.0414" lon="1.67276">
        <ele>129.8</ele>
        <time>2021-03-21T11:36:29Z</time>
      </trkpt>
      <trkpt lat="44.04153" lon="1.67263">
        <ele>129.8</ele>
        <time>2021-03-21T11:36:33Z</time>
      </trkpt>
      <trkpt lat="44.04165" lon="1.67249">
        <ele>128.6</ele>
        <time>2021-03-21T11:36:37Z</time>
      </trkpt>
      <trkpt lat="44.04179" lon="1.67236">
        <ele>128.6</ele>
        <time>2021-03-21T11:36:41Z</time>
      </trkpt>
      <trkpt lat="44.04193" lon="1.67221">
        <ele>128.2</ele>
        <time>2021-03-21T11:36:45Z</time>
      </trkpt>
      <trkpt lat="44.04206" lon="1.67208">
        <ele>128.8</ele>
        <time>2021-03-21T11:36:49Z</time>
      </trkpt>
      <trkpt lat="44.04219" lon="1.67194">
        <ele>129.4</ele>
        <time>2021-03-21T11:36:53Z</time>
      </trkpt>
      <trkpt lat="44.04232" lon="1.67181">
        <ele>129.8</ele>
        <time>2021-03-21T11:36:57Z</time>
      </trkpt>
      <trkpt lat="44.04245" lon="1.67168">
        <ele>129.6</ele>
        <time>2021-03-21T11:37:01Z</time>
      </trkpt>
      <trkpt lat="44.04259" lon="1.67156">
        <ele>129.2</ele>
        <time>2021-03-21T11:37:05Z</time>
      </trkpt>
      <trkpt lat="44.04274" lon="1.67145">
        <ele>129.8</ele>
        <time>2021-03-21T11:37:09Z</time>
      </trkpt>
      <trkpt lat="44.04291" lon="1.67139">
        <ele>129.4</ele>
        <time>2021-03-21T11:37:13Z</time>
      </trkpt>
      <trkpt lat="44.04308" lon="1.67141">
        <ele>128.6</ele>
        <time>2021-03-21T11:37:17Z</time>
      </trkpt>
      <trkpt lat="44.04323" lon="1.67142">
        <ele>129.2</ele>
        <time>2021-03-21T11:37:21Z</time>
      </trkpt>
      <trkpt lat="44.0434" lon="1.67143">
        <ele>130.6</ele>
        <time>2021-03-21T11:37:25Z</time>
      </trkpt>
      <trkpt lat="44.04355" lon="1.67145">
        <ele>131.8</ele>
        <time>2021-03-21T11:37:29Z</time>
      </trkpt>
      <trkpt lat="44.0437" lon="1.67146">
        <ele>132.8</ele>
        <time>2021-03-21T11:37:33Z</time>
      </trkpt>
      <trkpt lat="44.04386" lon="1.67147">
        <ele>132.6</ele>
        <time>2021-03-21T11:37:37Z</time>
      </trkpt>
      <trkpt lat="44.04402" lon="1.67146">
        <ele>133.2</ele>
        <time>2021-03-21T11:37:41Z</time>
      </trkpt>
      <trkpt lat="44.04418" lon="1.67143">
        <ele>134.2</ele>
        <time>2021-03-21T11:37:45Z</time>
      </trkpt>
      <trkpt lat="44.04434" lon="1.67141">
        <ele>135.6</ele>
        <time>2021-03-21T11:37:49Z</time>
      </trkpt>
      <trkpt lat="44.04446" lon="1.67143">
        <ele>135.8</ele>
        <time>2021-03-21T11:37:53Z</time>
      </trkpt>
      <trkpt lat="44.04456" lon="1.67146">
        <ele>136</ele>
        <time>2021-03-21T11:37:57Z</time>
      </trkpt>
      <trkpt lat="44.04469" lon="1.67154">
        <ele>136.6</ele>
        <time>2021-03-21T11:38:01Z</time>
      </trkpt>
      <trkpt lat="44.0449" lon="1.6717">
        <ele>135</ele>
        <time>2021-03-21T11:38:05Z</time>
      </trkpt>
      <trkpt lat="44.04514" lon="1.67197">
        <ele>131.8</ele>
        <time>2021-03-21T11:38:09Z</time>
      </trkpt>
      <trkpt lat="44.04529" lon="1.67219">
        <ele>125.4</ele>
        <time>2021-03-21T11:38:13Z</time>
      </trkpt>
      <trkpt lat="44.04538" lon="1.67249">
        <ele>125.4</ele>
        <time>2021-03-21T11:38:17Z</time>
      </trkpt>
      <trkpt lat="44.04546" lon="1.67277">
        <ele>125.6</ele>
        <time>2021-03-21T11:38:21Z</time>
      </trkpt>
      <trkpt lat="44.04556" lon="1.67308">
        <ele>125.6</ele>
        <time>2021-03-21T11:38:25Z</time>
      </trkpt>
      <trkpt lat="44.04565" lon="1.6734">
        <ele>125</ele>
        <time>2021-03-21T11:38:29Z</time>
      </trkpt>
      <trkpt lat="44.04577" lon="1.67369">
        <ele>125</ele>
        <time>2021-03-21T11:38:33Z</time>
      </trkpt>
      <trkpt lat="44.04592" lon="1.67391">
        <ele>123.4</ele>
        <time>2021-03-21T11:38:37Z</time>
      </trkpt>
      <trkpt lat="44.0462" lon="1.67402">
        <ele>121.4</ele>
        <time>2021-03-21T11:38:41Z</time>
      </trkpt>
      <trkpt lat="44.0465" lon="1.67411">
        <ele>122.2</ele>
        <time>2021-03-21T11:38:45Z</time>
      </trkpt>
      <trkpt lat="44.0468" lon="1.67416">
        <ele>123.4</ele>
        <time>2021-03-21T11:38:49Z</time>
      </trkpt>
      <trkpt lat="44.04711" lon="1.6742">
        <ele>122.8</ele>
        <time>2021-03-21T11:38:53Z</time>
      </trkpt>
      <trkpt lat="44.04745" lon="1.67424">
        <ele>122.4</ele>
        <time>2021-03-21T11:38:57Z</time>
      </trkpt>
      <trkpt lat="44.04781" lon="1.67431">
        <ele>121.6</ele>
        <time>2021-03-21T11:39:01Z</time>
      </trkpt>
      <trkpt lat="44.04818" lon="1.6744">
        <ele>123.2</ele>
        <time>2021-03-21T11:39:05Z</time>
      </trkpt>
      <trkpt lat="44.04854" lon="1.6745">
        <ele>122.4</ele>
        <time>2021-03-21T11:39:09Z</time>
      </trkpt>
      <trkpt lat="44.0489" lon="1.67458">
        <ele>122.8</ele>
        <time>2021-03-21T11:39:13Z</time>
      </trkpt>
      <trkpt lat="44.04925" lon="1.67467">
        <ele>124.4</ele>
        <time>2021-03-21T11:39:17Z</time>
      </trkpt>
      <trkpt lat="44.0496" lon="1.67469">
        <ele>124.6</ele>
        <time>2021-03-21T11:39:21Z</time>
      </trkpt>
      <trkpt lat="44.04989" lon="1.6745">
        <ele>125.2</ele>
        <time>2021-03-21T11:39:25Z</time>
      </trkpt>
      <trkpt lat="44.05014" lon="1.67419">
        <ele>123.4</ele>
        <time>2021-03-21T11:39:29Z</time>
      </trkpt>
      <trkpt lat="44.05036" lon="1.67391">
        <ele>122.8</ele>
        <time>2021-03-21T11:39:33Z</time>
      </trkpt>
      <trkpt lat="44.05056" lon="1.67365">
        <ele>122.4</ele>
        <time>2021-03-21T11:39:37Z</time>
      </trkpt>
      <trkpt lat="44.05074" lon="1.67342">
        <ele>123.8</ele>
        <time>2021-03-21T11:39:41Z</time>
      </trkpt>
      <trkpt lat="44.05092" lon="1.67319">
        <ele>123.8</ele>
        <time>2021-03-21T11:39:45Z</time>
      </trkpt>
      <trkpt lat="44.05109" lon="1.67298">
        <ele>122.8</ele>
        <time>2021-03-21T11:39:49Z</time>
      </trkpt>
      <trkpt lat="44.05109" lon="1.67298">
        <ele>123.8</ele>
        <time>2021-03-21T11:39:53Z</time>
      </trkpt>
      <trkpt lat="44.05134" lon="1.67276">
        <ele>122.6</ele>
        <time>2021-03-21T11:39:57Z</time>
      </trkpt>
      <trkpt lat="44.05156" lon="1.67264">
        <ele>123.4</ele>
        <time>2021-03-21T11:40:01Z</time>
      </trkpt>
      <trkpt lat="44.05179" lon="1.67256">
        <ele>122.6</ele>
        <time>2021-03-21T11:40:05Z</time>
      </trkpt>
      <trkpt lat="44.05202" lon="1.67249">
        <ele>122.2</ele>
        <time>2021-03-21T11:40:09Z</time>
      </trkpt>
      <trkpt lat="44.05225" lon="1.67243">
        <ele>121.4</ele>
        <time>2021-03-21T11:40:13Z</time>
      </trkpt>
      <trkpt lat="44.0525" lon="1.67238">
        <ele>121.6</ele>
        <time>2021-03-21T11:40:17Z</time>
      </trkpt>
      <trkpt lat="44.05275" lon="1.67231">
        <ele>121.2</ele>
        <time>2021-03-21T11:40:21Z</time>
      </trkpt>
      <trkpt lat="44.053" lon="1.67226">
        <ele>121</ele>
        <time>2021-03-21T11:40:25Z</time>
      </trkpt>
      <trkpt lat="44.05326" lon="1.6722">
        <ele>120.6</ele>
        <time>2021-03-21T11:40:29Z</time>
      </trkpt>
      <trkpt lat="44.05353" lon="1.67213">
        <ele>120.2</ele>
        <time>2021-03-21T11:40:33Z</time>
      </trkpt>
      <trkpt lat="44.0538" lon="1.67207">
        <ele>120.4</ele>
        <time>2021-03-21T11:40:37Z</time>
      </trkpt>
      <trkpt lat="44.05408" lon="1.67201">
        <ele>119</ele>
        <time>2021-03-21T11:40:41Z</time>
      </trkpt>
      <trkpt lat="44.05434" lon="1.67194">
        <ele>118</ele>
        <time>2021-03-21T11:40:45Z</time>
      </trkpt>
      <trkpt lat="44.05462" lon="1.67183">
        <ele>118.6</ele>
        <time>2021-03-21T11:40:49Z</time>
      </trkpt>
      <trkpt lat="44.05486" lon="1.67168">
        <ele>117.8</ele>
        <time>2021-03-21T11:40:53Z</time>
      </trkpt>
      <trkpt lat="44.05508" lon="1.67154">
        <ele>119.6</ele>
        <time>2021-03-21T11:40:57Z</time>
      </trkpt>
      <trkpt lat="44.05527" lon="1.6714">
        <ele>117.4</ele>
        <time>2021-03-21T11:41:01Z</time>
      </trkpt>
      <trkpt lat="44.05542" lon="1.67129">
        <ele>115.2</ele>
        <time>2021-03-21T11:41:05Z</time>
      </trkpt>
      <trkpt lat="44.05552" lon="1.6712">
        <ele>117.2</ele>
        <time>2021-03-21T11:41:09Z</time>
      </trkpt>
    </trkseg>
  </trk>
</gpx>